GFSWCAN_prec_pwat_000.txt.gz
Precipitable_Water
0.39 0.43 0.44 0.44 0.43 0.44 0.44 0.40 0.43 0.41 0.42 0.43 0.40 0.49 0.57 0.65 0.75 0.78 0.77 0.89 0.78 0.65 0.67 0.70 0.70 0.63 0.61 0.58 0.50 0.62 0.56 0.60 0.59 0.48 0.46 0.44 0.37 0.40 0.38 0.40 0.39 0.37 0.35 0.35 0.38 0.33 0.29 0.54 0.55 0.44 0.47 0.52 0.59 0.65
0.40 0.43 0.44 0.42 0.43 0.41 0.42 0.43 0.43 0.43 0.40 0.42 0.41 0.47 0.53 0.62 0.72 0.78 0.69 0.85 0.91 0.73 0.68 0.80 0.81 0.80 0.76 0.75 0.68 0.66 0.58 0.62 0.63 0.55 0.54 0.53 0.45 0.45 0.40 0.31 0.49 0.36 0.42 0.37 0.40 0.38 0.54 0.57 0.55 0.58 0.55 0.53 0.54 0.60
0.42 0.44 0.41 0.42 0.41 0.38 0.36 0.37 0.38 0.39 0.41 0.41 0.40 0.47 0.48 0.57 0.67 0.75 0.71 0.79 0.79 0.67 0.66 0.68 0.64 0.79 0.88 0.85 0.87 0.62 0.65 0.72 0.69 0.78 0.65 0.56 0.48 0.52 0.39 0.40 0.45 0.52 0.58 0.48 0.45 0.49 0.53 0.59 0.61 0.57 0.59 0.57 0.61 0.63
0.44 0.44 0.40 0.40 0.37 0.36 0.34 0.36 0.38 0.39 0.40 0.40 0.41 0.39 0.44 0.53 0.63 0.72 0.69 0.77 0.75 0.71 0.54 0.57 0.80 0.74 0.87 0.88 0.86 0.83 0.77 0.83 0.81 0.76 0.64 0.57 0.50 0.58 0.48 0.52 0.49 0.55 0.58 0.52 0.50 0.54 0.57 0.60 0.62 0.60 0.60 0.62 0.62 0.66
0.44 0.43 0.41 0.38 0.37 0.35 0.34 0.34 0.32 0.30 0.30 0.31 0.33 0.37 0.42 0.50 0.61 0.68 0.72 0.78 0.81 0.68 0.51 0.54 0.72 0.78 0.86 0.87 0.83 0.82 0.79 0.76 0.71 0.64 0.61 0.55 0.61 0.60 0.57 0.54 0.47 0.56 0.52 0.50 0.46 0.59 0.57 0.58 0.64 0.64 0.62 0.62 0.65 0.65
0.44 0.43 0.41 0.38 0.36 0.35 0.33 0.31 0.31 0.30 0.30 0.31 0.31 0.33 0.40 0.48 0.61 0.62 0.60 0.82 0.86 0.83 0.60 0.45 0.71 0.69 0.76 0.78 0.76 0.74 0.81 0.77 0.73 0.67 0.65 0.71 0.72 0.60 0.49 0.45 0.55 0.59 0.62 0.66 0.60 0.66 0.64 0.65 0.67 0.66 0.64 0.64 0.65 0.65
0.45 0.41 0.41 0.39 0.37 0.35 0.34 0.32 0.30 0.30 0.31 0.32 0.33 0.33 0.38 0.44 0.55 0.54 0.57 0.73 0.83 0.81 0.57 0.48 0.47 0.66 0.73 0.74 0.73 0.74 0.81 0.75 0.73 0.67 0.66 0.68 0.68 0.68 0.57 0.44 0.58 0.62 0.64 0.63 0.68 0.67 0.62 0.66 0.63 0.68 0.66 0.66 0.67 0.67
0.45 0.42 0.40 0.40 0.39 0.36 0.35 0.33 0.31 0.28 0.29 0.34 0.34 0.34 0.38 0.46 0.54 0.55 0.68 0.77 0.78 0.69 0.64 0.45 0.44 0.50 0.69 0.56 0.58 0.75 0.68 0.71 0.73 0.69 0.71 0.66 0.70 0.66 0.52 0.58 0.60 0.63 0.63 0.62 0.65 0.67 0.66 0.67 0.68 0.67 0.67 0.66 0.63 0.62
0.45 0.40 0.41 0.40 0.38 0.37 0.36 0.35 0.32 0.28 0.30 0.37 0.40 0.45 0.48 0.45 0.45 0.61 0.81 0.86 0.84 0.72 0.49 0.46 0.37 0.36 0.64 0.58 0.60 0.66 0.69 0.56 0.73 0.61 0.63 0.66 0.60 0.52 0.56 0.58 0.58 0.61 0.61 0.61 0.64 0.65 0.66 0.64 0.64 0.65 0.64 0.61 0.61 0.63
0.46 0.39 0.42 0.39 0.38 0.38 0.37 0.35 0.30 0.30 0.33 0.39 0.42 0.33 0.33 0.45 0.66 0.76 0.75 0.63 0.64 0.66 0.63 0.48 0.53 0.42 0.55 0.54 0.49 0.53 0.61 0.54 0.50 0.59 0.68 0.57 0.52 0.63 0.66 0.64 0.64 0.61 0.59 0.65 0.61 0.59 0.63 0.61 0.63 0.65 0.64 0.61 0.60 0.58
0.46 0.40 0.39 0.38 0.37 0.37 0.37 0.33 0.29 0.30 0.36 0.36 0.30 0.31 0.47 0.63 0.64 0.61 0.53 0.50 0.51 0.46 0.53 0.53 0.50 0.44 0.61 0.46 0.46 0.53 0.51 0.53 0.42 0.49 0.53 0.49 0.47 0.56 0.63 0.65 0.63 0.61 0.59 0.59 0.67 0.68 0.67 0.65 0.60 0.57 0.58 0.58 0.57 0.56
0.46 0.40 0.39 0.37 0.37 0.37 0.33 0.30 0.29 0.29 0.37 0.38 0.40 0.49 0.55 0.53 0.51 0.46 0.45 0.48 0.44 0.38 0.49 0.47 0.50 0.53 0.55 0.61 0.50 0.52 0.44 0.49 0.38 0.54 0.46 0.38 0.46 0.57 0.60 0.60 0.59 0.57 0.58 0.57 0.57 0.56 0.57 0.58 0.60 0.60 0.59 0.58 0.58 0.56
0.44 0.42 0.39 0.37 0.36 0.34 0.33 0.30 0.27 0.34 0.46 0.44 0.41 0.38 0.42 0.45 0.37 0.37 0.33 0.36 0.37 0.45 0.50 0.51 0.47 0.53 0.55 0.55 0.47 0.45 0.39 0.37 0.49 0.41 0.36 0.39 0.49 0.52 0.59 0.58 0.59 0.59 0.57 0.57 0.56 0.58 0.58 0.59 0.60 0.59 0.57 0.57 0.55 0.53
0.43 0.41 0.39 0.37 0.35 0.32 0.32 0.29 0.23 0.39 0.41 0.33 0.32 0.28 0.35 0.35 0.38 0.40 0.40 0.42 0.50 0.52 0.53 0.53 0.50 0.49 0.51 0.45 0.47 0.36 0.41 0.41 0.33 0.29 0.28 0.36 0.43 0.49 0.57 0.60 0.57 0.57 0.57 0.57 0.56 0.56 0.57 0.59 0.59 0.59 0.58 0.56 0.54 0.51
0.43 0.41 0.38 0.34 0.32 0.32 0.31 0.25 0.27 0.40 0.34 0.30 0.35 0.29 0.34 0.42 0.46 0.46 0.48 0.48 0.52 0.57 0.54 0.53 0.52 0.52 0.47 0.44 0.43 0.39 0.33 0.29 0.31 0.27 0.31 0.35 0.38 0.42 0.50 0.56 0.57 0.58 0.58 0.57 0.58 0.57 0.58 0.59 0.59 0.58 0.58 0.57 0.53 0.49
0.45 0.40 0.31 0.34 0.34 0.33 0.29 0.29 0.33 0.36 0.32 0.30 0.34 0.33 0.38 0.37 0.39 0.43 0.46 0.48 0.56 0.59 0.60 0.56 0.49 0.44 0.42 0.42 0.38 0.33 0.30 0.25 0.28 0.33 0.36 0.37 0.37 0.40 0.43 0.49 0.53 0.57 0.59 0.60 0.60 0.60 0.60 0.61 0.60 0.59 0.58 0.55 0.50 0.44
0.45 0.36 0.38 0.36 0.35 0.32 0.31 0.29 0.29 0.26 0.25 0.24 0.29 0.39 0.38 0.37 0.38 0.42 0.46 0.49 0.60 0.55 0.47 0.49 0.40 0.37 0.44 0.37 0.34 0.37 0.32 0.31 0.35 0.39 0.41 0.40 0.41 0.42 0.43 0.44 0.47 0.51 0.54 0.57 0.58 0.59 0.59 0.59 0.58 0.56 0.53 0.50 0.47 0.42
0.41 0.41 0.42 0.39 0.34 0.28 0.26 0.28 0.25 0.21 0.18 0.22 0.22 0.29 0.34 0.35 0.36 0.39 0.47 0.54 0.52 0.51 0.52 0.46 0.47 0.39 0.34 0.30 0.32 0.38 0.41 0.41 0.44 0.44 0.43 0.42 0.43 0.46 0.47 0.45 0.46 0.48 0.50 0.53 0.55 0.55 0.55 0.54 0.53 0.51 0.49 0.47 0.41 0.34
0.46 0.46 0.43 0.38 0.33 0.26 0.19 0.22 0.27 0.15 0.16 0.19 0.20 0.23 0.27 0.31 0.35 0.38 0.43 0.51 0.55 0.57 0.53 0.50 0.43 0.36 0.36 0.41 0.40 0.42 0.43 0.44 0.43 0.44 0.44 0.45 0.45 0.46 0.47 0.47 0.47 0.48 0.50 0.52 0.52 0.51 0.52 0.52 0.51 0.48 0.44 0.38 0.31 0.30
0.49 0.44 0.40 0.35 0.34 0.23 0.17 0.19 0.27 0.19 0.14 0.17 0.17 0.16 0.16 0.19 0.28 0.33 0.38 0.44 0.49 0.48 0.45 0.43 0.43 0.43 0.43 0.47 0.49 0.48 0.49 0.48 0.46 0.42 0.42 0.44 0.45 0.46 0.47 0.47 0.47 0.50 0.52 0.52 0.51 0.51 0.50 0.48 0.46 0.43 0.37 0.32 0.30 0.30
0.44 0.39 0.37 0.33 0.30 0.25 0.21 0.20 0.20 0.20 0.18 0.15 0.15 0.15 0.13 0.17 0.17 0.24 0.32 0.41 0.42 0.42 0.42 0.48 0.50 0.54 0.54 0.52 0.53 0.54 0.51 0.51 0.48 0.47 0.46 0.45 0.48 0.48 0.47 0.48 0.48 0.52 0.53 0.51 0.49 0.50 0.49 0.46 0.44 0.40 0.36 0.33 0.32 0.32
0.40 0.41 0.34 0.31 0.24 0.24 0.23 0.27 0.22 0.22 0.17 0.15 0.15 0.16 0.13 0.12 0.14 0.19 0.27 0.30 0.34 0.40 0.45 0.46 0.49 0.53 0.55 0.54 0.53 0.53 0.52 0.54 0.54 0.53 0.52 0.51 0.48 0.49 0.49 0.48 0.48 0.50 0.51 0.51 0.50 0.49 0.47 0.47 0.43 0.38 0.34 0.33 0.33 0.33
0.43 0.36 0.29 0.26 0.21 0.19 0.18 0.24 0.18 0.18 0.12 0.13 0.14 0.12 0.13 0.14 0.16 0.22 0.19 0.24 0.31 0.38 0.42 0.44 0.47 0.51 0.53 0.58 0.61 0.60 0.58 0.56 0.54 0.54 0.54 0.53 0.53 0.54 0.53 0.51 0.51 0.51 0.51 0.51 0.50 0.48 0.48 0.44 0.40 0.36 0.34 0.33 0.34 0.34
0.39 0.31 0.24 0.20 0.19 0.15 0.18 0.16 0.17 0.15 0.15 0.13 0.12 0.10 0.10 0.13 0.18 0.16 0.15 0.19 0.24 0.32 0.36 0.39 0.42 0.43 0.48 0.51 0.52 0.55 0.58 0.58 0.56 0.55 0.56 0.55 0.54 0.55 0.54 0.53 0.54 0.54 0.54 0.52 0.49 0.48 0.45 0.41 0.39 0.36 0.35 0.34 0.34 0.34
0.28 0.24 0.22 0.17 0.18 0.15 0.13 0.13 0.13 0.12 0.10 0.12 0.10 0.08 0.11 0.17 0.14 0.13 0.13 0.17 0.22 0.25 0.30 0.35 0.37 0.38 0.39 0.43 0.48 0.51 0.56 0.57 0.54 0.52 0.55 0.56 0.56 0.56 0.54 0.54 0.54 0.55 0.55 0.50 0.47 0.45 0.43 0.41 0.38 0.36 0.35 0.35 0.36 0.34
0.23 0.22 0.18 0.16 0.15 0.14 0.12 0.11 0.11 0.10 0.10 0.09 0.09 0.12 0.14 0.13 0.11 0.10 0.14 0.19 0.22 0.23 0.24 0.29 0.32 0.34 0.37 0.41 0.43 0.46 0.50 0.55 0.55 0.52 0.54 0.55 0.56 0.55 0.53 0.52 0.52 0.52 0.54 0.49 0.47 0.45 0.43 0.40 0.37 0.36 0.37 0.37 0.36 0.34
0.22 0.21 0.21 0.22 0.19 0.17 0.14 0.14 0.14 0.11 0.09 0.08 0.10 0.11 0.11 0.09 0.10 0.15 0.21 0.21 0.20 0.23 0.25 0.27 0.31 0.33 0.35 0.38 0.43 0.46 0.49 0.52 0.52 0.52 0.54 0.55 0.57 0.58 0.56 0.53 0.52 0.53 0.51 0.48 0.48 0.46 0.42 0.39 0.39 0.40 0.39 0.37 0.34 0.29
0.26 0.23 0.19 0.20 0.19 0.18 0.14 0.12 0.10 0.09 0.10 0.13 0.12 0.08 0.08 0.09 0.09 0.12 0.14 0.17 0.20 0.23 0.25 0.28 0.31 0.34 0.36 0.39 0.41 0.43 0.45 0.48 0.49 0.51 0.50 0.50 0.52 0.54 0.56 0.56 0.55 0.53 0.53 0.52 0.49 0.45 0.42 0.42 0.42 0.41 0.37 0.32 0.28 0.26
0.25 0.25 0.23 0.18 0.18 0.17 0.14 0.11 0.10 0.11 0.14 0.13 0.10 0.09 0.09 0.12 0.14 0.14 0.16 0.18 0.20 0.22 0.24 0.26 0.29 0.33 0.35 0.38 0.40 0.42 0.43 0.43 0.42 0.40 0.40 0.41 0.43 0.46 0.51 0.52 0.52 0.52 0.51 0.47 0.46 0.47 0.47 0.44 0.40 0.35 0.30 0.27 0.26 0.25
0.24 0.26 0.20 0.18 0.15 0.13 0.13 0.14 0.13 0.15 0.16 0.15 0.15 0.13 0.13 0.13 0.15 0.19 0.20 0.20 0.20 0.22 0.25 0.27 0.29 0.30 0.32 0.33 0.35 0.37 0.41 0.43 0.44 0.43 0.42 0.41 0.42 0.45 0.47 0.47 0.48 0.48 0.48 0.48 0.45 0.44 0.41 0.37 0.33 0.29 0.27 0.25 0.24 0.21
0.24 0.23 0.19 0.17 0.15 0.16 0.16 0.16 0.16 0.16 0.16 0.15 0.14 0.12 0.12 0.13 0.16 0.21 0.22 0.22 0.23 0.25 0.26 0.27 0.28 0.30 0.31 0.32 0.33 0.34 0.35 0.40 0.42 0.44 0.44 0.43 0.43 0.43 0.44 0.45 0.46 0.46 0.45 0.44 0.42 0.37 0.34 0.31 0.28 0.26 0.24 0.21 0.19 0.18
0.21 0.18 0.16 0.15 0.15 0.17 0.17 0.15 0.14 0.14 0.14 0.13 0.13 0.13 0.13 0.13 0.14 0.20 0.23 0.25 0.25 0.25 0.27 0.28 0.27 0.28 0.31 0.33 0.35 0.37 0.38 0.38 0.39 0.41 0.41 0.42 0.42 0.43 0.43 0.43 0.43 0.42 0.39 0.35 0.33 0.31 0.29 0.26 0.24 0.22 0.20 0.18 0.17 0.15
0.18 0.18 0.17 0.17 0.15 0.14 0.15 0.14 0.13 0.13 0.13 0.12 0.12 0.13 0.13 0.13 0.14 0.20 0.25 0.27 0.27 0.27 0.28 0.29 0.30 0.31 0.32 0.33 0.34 0.35 0.36 0.38 0.39 0.40 0.40 0.41 0.41 0.41 0.40 0.38 0.36 0.34 0.32 0.30 0.27 0.25 0.23 0.21 0.20 0.18 0.17 0.16 0.14 0.13

GFSWCAN_prec_pwat_003.txt.gz
Precipitable_Water
0.45 0.46 0.47 0.43 0.41 0.39 0.35 0.35 0.36 0.37 0.37 0.40 0.44 0.46 0.51 0.49 0.61 0.72 0.70 0.81 0.70 0.61 0.67 0.66 0.64 0.55 0.57 0.56 0.45 0.57 0.56 0.57 0.55 0.47 0.46 0.45 0.41 0.41 0.37 0.39 0.37 0.35 0.35 0.34 0.38 0.33 0.30 0.56 0.57 0.44 0.50 0.58 0.60 0.63
0.44 0.47 0.48 0.43 0.41 0.36 0.34 0.34 0.35 0.35 0.37 0.38 0.40 0.45 0.47 0.47 0.56 0.68 0.64 0.77 0.81 0.69 0.69 0.81 0.76 0.77 0.74 0.68 0.60 0.64 0.59 0.57 0.60 0.53 0.54 0.53 0.44 0.44 0.40 0.31 0.47 0.34 0.41 0.37 0.38 0.36 0.51 0.58 0.55 0.58 0.57 0.54 0.58 0.64
0.45 0.48 0.48 0.43 0.42 0.36 0.35 0.35 0.34 0.31 0.30 0.29 0.30 0.36 0.42 0.45 0.53 0.63 0.66 0.72 0.72 0.67 0.66 0.68 0.64 0.79 0.85 0.82 0.86 0.62 0.65 0.69 0.67 0.75 0.63 0.57 0.47 0.51 0.38 0.39 0.43 0.49 0.55 0.46 0.45 0.48 0.51 0.57 0.61 0.59 0.60 0.59 0.62 0.66
0.47 0.50 0.48 0.44 0.42 0.37 0.36 0.35 0.34 0.31 0.30 0.29 0.29 0.32 0.38 0.45 0.50 0.60 0.60 0.69 0.69 0.65 0.54 0.56 0.79 0.71 0.85 0.85 0.84 0.83 0.76 0.81 0.79 0.75 0.61 0.56 0.49 0.57 0.47 0.48 0.48 0.53 0.56 0.49 0.47 0.53 0.55 0.58 0.61 0.59 0.60 0.63 0.65 0.67
0.48 0.50 0.48 0.43 0.43 0.38 0.37 0.36 0.36 0.33 0.30 0.30 0.32 0.32 0.36 0.43 0.48 0.55 0.58 0.70 0.77 0.62 0.50 0.56 0.71 0.76 0.82 0.81 0.80 0.82 0.77 0.74 0.70 0.63 0.59 0.53 0.61 0.56 0.55 0.53 0.46 0.54 0.48 0.45 0.45 0.57 0.56 0.57 0.64 0.63 0.61 0.61 0.64 0.64
0.48 0.50 0.47 0.43 0.44 0.40 0.38 0.37 0.37 0.35 0.32 0.31 0.31 0.35 0.36 0.42 0.49 0.50 0.56 0.77 0.81 0.76 0.59 0.45 0.69 0.68 0.75 0.78 0.77 0.77 0.73 0.76 0.72 0.65 0.61 0.65 0.71 0.59 0.49 0.43 0.53 0.55 0.60 0.62 0.57 0.66 0.64 0.65 0.66 0.65 0.62 0.63 0.64 0.65
0.49 0.51 0.45 0.43 0.44 0.41 0.39 0.38 0.38 0.35 0.33 0.30 0.33 0.37 0.36 0.40 0.46 0.43 0.54 0.69 0.79 0.78 0.60 0.47 0.45 0.64 0.73 0.72 0.70 0.69 0.76 0.73 0.71 0.66 0.62 0.64 0.68 0.68 0.55 0.42 0.55 0.60 0.65 0.65 0.68 0.68 0.63 0.66 0.62 0.66 0.65 0.65 0.66 0.66
0.49 0.50 0.47 0.42 0.45 0.41 0.38 0.38 0.37 0.34 0.32 0.29 0.34 0.38 0.40 0.41 0.47 0.46 0.63 0.75 0.82 0.70 0.65 0.45 0.43 0.49 0.67 0.55 0.52 0.71 0.64 0.69 0.69 0.66 0.69 0.63 0.66 0.64 0.50 0.58 0.61 0.64 0.64 0.65 0.65 0.68 0.68 0.70 0.69 0.68 0.68 0.65 0.63 0.63
0.50 0.51 0.47 0.42 0.43 0.40 0.40 0.38 0.37 0.34 0.30 0.33 0.40 0.46 0.48 0.41 0.39 0.50 0.72 0.80 0.84 0.69 0.49 0.45 0.37 0.34 0.62 0.56 0.58 0.63 0.65 0.52 0.68 0.59 0.61 0.64 0.58 0.51 0.55 0.60 0.61 0.62 0.60 0.62 0.65 0.66 0.66 0.65 0.66 0.66 0.66 0.64 0.61 0.60
0.51 0.51 0.47 0.42 0.40 0.39 0.39 0.37 0.34 0.31 0.33 0.40 0.41 0.33 0.31 0.36 0.55 0.63 0.68 0.61 0.62 0.64 0.61 0.45 0.49 0.39 0.51 0.51 0.50 0.49 0.56 0.49 0.44 0.55 0.66 0.56 0.51 0.60 0.64 0.68 0.66 0.65 0.66 0.67 0.62 0.60 0.62 0.63 0.65 0.65 0.64 0.64 0.61 0.62
0.52 0.52 0.47 0.42 0.42 0.39 0.39 0.36 0.33 0.30 0.35 0.37 0.30 0.31 0.42 0.51 0.56 0.56 0.49 0.49 0.52 0.46 0.52 0.52 0.49 0.43 0.58 0.43 0.45 0.53 0.45 0.48 0.38 0.46 0.48 0.46 0.45 0.54 0.62 0.65 0.70 0.66 0.64 0.62 0.69 0.71 0.70 0.69 0.67 0.65 0.66 0.61 0.59 0.59
0.52 0.52 0.45 0.43 0.41 0.40 0.39 0.34 0.32 0.27 0.35 0.42 0.42 0.46 0.46 0.46 0.48 0.42 0.43 0.49 0.45 0.40 0.50 0.47 0.49 0.51 0.53 0.59 0.47 0.51 0.42 0.44 0.34 0.50 0.44 0.38 0.46 0.56 0.62 0.64 0.67 0.64 0.61 0.59 0.63 0.67 0.68 0.68 0.66 0.63 0.59 0.57 0.57 0.58
0.52 0.52 0.45 0.43 0.42 0.40 0.36 0.34 0.31 0.25 0.43 0.45 0.40 0.37 0.39 0.42 0.35 0.34 0.32 0.38 0.39 0.46 0.49 0.50 0.47 0.53 0.56 0.56 0.48 0.46 0.37 0.35 0.46 0.37 0.32 0.37 0.47 0.53 0.58 0.64 0.65 0.64 0.60 0.59 0.57 0.58 0.60 0.60 0.61 0.60 0.59 0.57 0.58 0.57
0.53 0.51 0.45 0.44 0.42 0.37 0.37 0.33 0.28 0.30 0.37 0.31 0.32 0.29 0.33 0.33 0.36 0.38 0.39 0.41 0.50 0.51 0.51 0.52 0.50 0.50 0.53 0.47 0.47 0.37 0.41 0.41 0.30 0.26 0.26 0.36 0.41 0.48 0.56 0.62 0.63 0.62 0.59 0.57 0.57 0.57 0.58 0.59 0.61 0.61 0.59 0.59 0.57 0.54
0.54 0.51 0.45 0.42 0.38 0.38 0.37 0.31 0.33 0.36 0.30 0.27 0.31 0.27 0.31 0.39 0.43 0.45 0.48 0.48 0.54 0.57 0.54 0.51 0.51 0.52 0.47 0.43 0.45 0.42 0.34 0.28 0.29 0.27 0.32 0.36 0.38 0.42 0.49 0.58 0.61 0.60 0.60 0.59 0.58 0.57 0.57 0.59 0.59 0.59 0.58 0.57 0.56 0.54
0.56 0.50 0.40 0.41 0.41 0.39 0.35 0.33 0.34 0.34 0.29 0.27 0.30 0.29 0.35 0.34 0.35 0.39 0.43 0.45 0.55 0.55 0.57 0.55 0.48 0.43 0.41 0.41 0.38 0.33 0.31 0.26 0.27 0.33 0.36 0.37 0.38 0.41 0.44 0.51 0.57 0.61 0.62 0.62 0.62 0.61 0.60 0.60 0.59 0.59 0.58 0.57 0.56 0.51
0.56 0.44 0.45 0.45 0.44 0.38 0.35 0.31 0.30 0.25 0.23 0.22 0.24 0.33 0.33 0.32 0.31 0.35 0.40 0.47 0.58 0.53 0.45 0.48 0.39 0.38 0.43 0.36 0.34 0.39 0.32 0.35 0.39 0.38 0.40 0.40 0.40 0.43 0.46 0.47 0.49 0.53 0.56 0.59 0.61 0.61 0.61 0.62 0.60 0.57 0.55 0.56 0.53 0.48
0.50 0.48 0.47 0.47 0.43 0.35 0.31 0.31 0.26 0.22 0.17 0.19 0.17 0.23 0.28 0.30 0.29 0.31 0.36 0.44 0.47 0.49 0.49 0.44 0.47 0.38 0.34 0.32 0.33 0.38 0.42 0.45 0.47 0.46 0.44 0.45 0.45 0.45 0.46 0.47 0.48 0.49 0.52 0.55 0.58 0.60 0.61 0.58 0.55 0.54 0.54 0.56 0.49 0.45
0.52 0.51 0.51 0.46 0.40 0.32 0.24 0.25 0.27 0.17 0.19 0.20 0.19 0.20 0.18 0.18 0.24 0.29 0.33 0.38 0.44 0.52 0.50 0.48 0.42 0.38 0.38 0.43 0.42 0.43 0.44 0.45 0.45 0.47 0.48 0.48 0.48 0.46 0.46 0.47 0.49 0.50 0.50 0.53 0.55 0.55 0.55 0.55 0.53 0.53 0.55 0.49 0.44 0.38
0.58 0.54 0.49 0.43 0.39 0.28 0.21 0.22 0.28 0.20 0.17 0.20 0.20 0.17 0.16 0.14 0.15 0.16 0.21 0.29 0.35 0.38 0.39 0.39 0.40 0.45 0.47 0.47 0.49 0.49 0.50 0.50 0.48 0.45 0.45 0.46 0.47 0.46 0.46 0.47 0.47 0.50 0.50 0.51 0.53 0.52 0.51 0.49 0.51 0.56 0.51 0.45 0.38 0.31
0.52 0.49 0.44 0.40 0.35 0.31 0.25 0.22 0.21 0.22 0.22 0.18 0.19 0.17 0.15 0.16 0.14 0.14 0.16 0.22 0.21 0.27 0.30 0.39 0.42 0.47 0.51 0.54 0.58 0.54 0.51 0.51 0.49 0.48 0.47 0.47 0.50 0.51 0.49 0.48 0.49 0.50 0.50 0.51 0.53 0.51 0.50 0.52 0.56 0.50 0.46 0.39 0.34 0.32
0.48 0.47 0.39 0.37 0.30 0.28 0.27 0.29 0.24 0.25 0.20 0.19 0.18 0.18 0.15 0.13 0.13 0.15 0.20 0.15 0.17 0.20 0.25 0.31 0.37 0.42 0.46 0.49 0.53 0.57 0.55 0.53 0.56 0.54 0.54 0.53 0.49 0.50 0.50 0.50 0.49 0.48 0.50 0.52 0.53 0.51 0.50 0.51 0.52 0.47 0.41 0.37 0.35 0.32
0.49 0.42 0.35 0.32 0.26 0.23 0.22 0.28 0.21 0.20 0.15 0.16 0.17 0.13 0.13 0.14 0.16 0.19 0.14 0.17 0.18 0.23 0.26 0.27 0.31 0.38 0.42 0.48 0.52 0.55 0.58 0.55 0.53 0.54 0.54 0.53 0.54 0.54 0.53 0.53 0.53 0.51 0.51 0.52 0.54 0.52 0.51 0.53 0.47 0.43 0.41 0.37 0.33 0.32
0.46 0.35 0.29 0.26 0.23 0.19 0.21 0.19 0.20 0.17 0.17 0.15 0.13 0.11 0.11 0.12 0.16 0.14 0.12 0.14 0.17 0.21 0.21 0.21 0.23 0.25 0.33 0.41 0.43 0.47 0.51 0.55 0.55 0.55 0.56 0.55 0.54 0.55 0.55 0.54 0.55 0.55 0.55 0.56 0.54 0.51 0.51 0.47 0.45 0.44 0.38 0.34 0.33 0.32
0.31 0.30 0.27 0.22 0.22 0.19 0.16 0.15 0.16 0.15 0.13 0.14 0.12 0.10 0.11 0.15 0.12 0.11 0.09 0.12 0.17 0.19 0.18 0.19 0.20 0.21 0.23 0.30 0.38 0.43 0.48 0.50 0.50 0.51 0.56 0.57 0.56 0.56 0.54 0.54 0.55 0.56 0.57 0.54 0.52 0.50 0.48 0.46 0.47 0.40 0.36 0.35 0.33 0.33
0.27 0.27 0.23 0.20 0.18 0.17 0.15 0.13 0.13 0.13 0.13 0.11 0.10 0.12 0.14 0.12 0.10 0.08 0.12 0.16 0.19 0.17 0.16 0.16 0.17 0.19 0.22 0.26 0.32 0.38 0.42 0.47 0.49 0.49 0.53 0.56 0.56 0.55 0.53 0.51 0.52 0.54 0.57 0.55 0.53 0.49 0.46 0.49 0.42 0.39 0.37 0.37 0.36 0.35
0.26 0.25 0.25 0.25 0.21 0.19 0.16 0.16 0.17 0.14 0.12 0.10 0.11 0.12 0.11 0.09 0.09 0.12 0.16 0.15 0.13 0.13 0.14 0.16 0.19 0.20 0.22 0.25 0.31 0.37 0.42 0.45 0.46 0.48 0.53 0.55 0.56 0.56 0.55 0.52 0.52 0.56 0.58 0.56 0.53 0.48 0.50 0.44 0.42 0.41 0.39 0.37 0.36 0.36
0.29 0.27 0.23 0.23 0.22 0.21 0.16 0.15 0.14 0.13 0.12 0.13 0.13 0.10 0.08 0.09 0.08 0.10 0.11 0.13 0.15 0.16 0.17 0.18 0.19 0.22 0.23 0.26 0.30 0.35 0.39 0.42 0.44 0.47 0.49 0.50 0.52 0.54 0.56 0.57 0.58 0.59 0.59 0.57 0.52 0.51 0.48 0.46 0.42 0.40 0.38 0.38 0.38 0.36
0.28 0.28 0.26 0.22 0.21 0.20 0.18 0.16 0.14 0.14 0.14 0.14 0.11 0.10 0.10 0.13 0.13 0.12 0.13 0.15 0.18 0.19 0.19 0.19 0.20 0.22 0.25 0.28 0.30 0.35 0.38 0.39 0.38 0.38 0.40 0.41 0.44 0.48 0.53 0.55 0.55 0.55 0.55 0.53 0.52 0.52 0.47 0.44 0.42 0.41 0.42 0.38 0.34 0.30
0.27 0.29 0.24 0.22 0.19 0.18 0.18 0.18 0.16 0.16 0.16 0.16 0.16 0.15 0.14 0.14 0.14 0.15 0.15 0.17 0.19 0.20 0.21 0.22 0.22 0.23 0.24 0.25 0.27 0.31 0.36 0.38 0.39 0.39 0.38 0.39 0.43 0.48 0.50 0.51 0.51 0.51 0.52 0.50 0.48 0.47 0.46 0.45 0.44 0.40 0.36 0.32 0.30 0.27
0.29 0.26 0.22 0.21 0.19 0.19 0.18 0.18 0.18 0.18 0.17 0.15 0.16 0.14 0.13 0.14 0.14 0.15 0.16 0.20 0.22 0.23 0.23 0.23 0.23 0.25 0.25 0.26 0.27 0.28 0.31 0.37 0.39 0.41 0.42 0.43 0.44 0.45 0.47 0.48 0.48 0.49 0.49 0.48 0.46 0.44 0.43 0.40 0.37 0.33 0.31 0.28 0.27 0.24
0.24 0.21 0.20 0.18 0.18 0.18 0.18 0.17 0.17 0.15 0.15 0.14 0.13 0.13 0.13 0.13 0.11 0.14 0.18 0.22 0.23 0.23 0.24 0.25 0.24 0.25 0.27 0.29 0.30 0.32 0.35 0.36 0.37 0.39 0.41 0.42 0.43 0.44 0.45 0.45 0.46 0.46 0.45 0.44 0.43 0.41 0.38 0.35 0.32 0.30 0.28 0.25 0.22 0.19
0.20 0.20 0.20 0.18 0.16 0.15 0.17 0.17 0.15 0.14 0.13 0.13 0.12 0.13 0.13 0.12 0.11 0.14 0.22 0.25 0.25 0.25 0.26 0.27 0.28 0.29 0.29 0.30 0.31 0.32 0.34 0.35 0.37 0.38 0.40 0.40 0.41 0.42 0.42 0.42 0.43 0.42 0.41 0.40 0.37 0.34 0.31 0.29 0.27 0.26 0.23 0.20 0.18 0.17

GFSWCAN_prec_pwat_009.txt.gz
Precipitable_Water
0.66 0.60 0.55 0.54 0.55 0.51 0.49 0.46 0.45 0.42 0.36 0.35 0.32 0.30 0.31 0.33 0.41 0.45 0.57 0.69 0.59 0.51 0.54 0.60 0.61 0.54 0.57 0.57 0.50 0.58 0.54 0.58 0.53 0.42 0.41 0.41 0.40 0.43 0.41 0.44 0.41 0.36 0.35 0.36 0.38 0.33 0.30 0.54 0.53 0.44 0.51 0.58 0.61 0.69
0.68 0.62 0.58 0.53 0.56 0.52 0.47 0.50 0.45 0.44 0.40 0.37 0.35 0.33 0.32 0.33 0.34 0.43 0.43 0.65 0.71 0.58 0.57 0.71 0.72 0.75 0.72 0.71 0.61 0.59 0.57 0.58 0.58 0.49 0.49 0.49 0.43 0.47 0.43 0.36 0.49 0.37 0.41 0.39 0.40 0.40 0.52 0.59 0.57 0.60 0.62 0.58 0.61 0.68
0.68 0.65 0.58 0.55 0.56 0.51 0.47 0.50 0.48 0.45 0.42 0.39 0.37 0.37 0.36 0.32 0.34 0.39 0.43 0.55 0.63 0.57 0.58 0.63 0.60 0.75 0.82 0.79 0.80 0.55 0.61 0.68 0.65 0.70 0.59 0.53 0.43 0.52 0.41 0.42 0.46 0.49 0.53 0.44 0.46 0.51 0.54 0.58 0.62 0.62 0.63 0.61 0.66 0.73
0.69 0.65 0.59 0.57 0.57 0.50 0.48 0.49 0.49 0.45 0.42 0.39 0.38 0.39 0.37 0.35 0.36 0.37 0.41 0.52 0.61 0.57 0.47 0.56 0.78 0.71 0.83 0.82 0.78 0.76 0.72 0.77 0.74 0.71 0.59 0.53 0.46 0.60 0.48 0.51 0.48 0.55 0.55 0.50 0.46 0.51 0.56 0.60 0.60 0.61 0.60 0.65 0.70 0.74
0.69 0.66 0.61 0.57 0.57 0.52 0.48 0.47 0.49 0.44 0.41 0.37 0.37 0.38 0.40 0.37 0.38 0.37 0.40 0.49 0.60 0.57 0.46 0.54 0.72 0.76 0.81 0.80 0.77 0.76 0.73 0.71 0.66 0.59 0.55 0.51 0.57 0.56 0.55 0.54 0.46 0.54 0.50 0.46 0.43 0.55 0.54 0.57 0.62 0.63 0.60 0.62 0.66 0.66
0.71 0.69 0.65 0.58 0.56 0.56 0.49 0.47 0.49 0.44 0.42 0.36 0.35 0.40 0.39 0.38 0.43 0.34 0.25 0.55 0.67 0.66 0.54 0.45 0.71 0.71 0.76 0.76 0.72 0.69 0.72 0.72 0.70 0.61 0.57 0.61 0.65 0.59 0.49 0.44 0.50 0.55 0.56 0.56 0.54 0.62 0.62 0.65 0.66 0.66 0.62 0.62 0.64 0.65
0.72 0.71 0.67 0.60 0.57 0.57 0.50 0.46 0.46 0.42 0.39 0.36 0.40 0.44 0.43 0.44 0.42 0.28 0.31 0.59 0.73 0.73 0.56 0.49 0.51 0.67 0.75 0.72 0.70 0.69 0.74 0.71 0.69 0.62 0.57 0.59 0.61 0.65 0.53 0.41 0.53 0.57 0.60 0.61 0.64 0.64 0.60 0.66 0.63 0.66 0.65 0.65 0.67 0.66
0.75 0.74 0.69 0.61 0.57 0.56 0.50 0.48 0.45 0.41 0.37 0.38 0.44 0.44 0.48 0.51 0.44 0.30 0.47 0.68 0.72 0.64 0.61 0.47 0.47 0.53 0.70 0.58 0.55 0.69 0.62 0.65 0.64 0.60 0.61 0.58 0.64 0.62 0.47 0.53 0.58 0.61 0.63 0.62 0.64 0.66 0.67 0.71 0.69 0.67 0.66 0.66 0.64 0.64
0.75 0.73 0.72 0.63 0.57 0.55 0.48 0.49 0.46 0.41 0.32 0.42 0.44 0.48 0.52 0.41 0.28 0.34 0.58 0.67 0.74 0.63 0.49 0.51 0.42 0.39 0.66 0.58 0.61 0.61 0.63 0.48 0.62 0.51 0.53 0.57 0.54 0.47 0.52 0.59 0.62 0.65 0.63 0.63 0.66 0.66 0.68 0.68 0.68 0.67 0.66 0.65 0.64 0.64
0.74 0.74 0.74 0.64 0.56 0.55 0.49 0.49 0.44 0.37 0.34 0.42 0.42 0.36 0.30 0.31 0.40 0.55 0.59 0.54 0.56 0.59 0.59 0.50 0.54 0.42 0.54 0.51 0.48 0.50 0.54 0.45 0.38 0.45 0.55 0.47 0.45 0.58 0.61 0.62 0.66 0.70 0.70 0.68 0.61 0.59 0.62 0.64 0.67 0.67 0.66 0.66 0.65 0.64
0.72 0.74 0.73 0.62 0.57 0.56 0.49 0.48 0.41 0.35 0.35 0.38 0.28 0.25 0.36 0.49 0.53 0.52 0.45 0.45 0.49 0.46 0.55 0.56 0.53 0.47 0.58 0.43 0.43 0.49 0.43 0.45 0.34 0.40 0.40 0.39 0.36 0.51 0.64 0.61 0.65 0.71 0.73 0.71 0.71 0.69 0.70 0.69 0.67 0.67 0.67 0.66 0.67 0.64
0.73 0.74 0.70 0.60 0.60 0.55 0.50 0.47 0.40 0.30 0.34 0.40 0.45 0.52 0.54 0.49 0.46 0.41 0.41 0.46 0.45 0.42 0.53 0.51 0.52 0.53 0.55 0.59 0.47 0.47 0.39 0.41 0.30 0.45 0.38 0.30 0.37 0.51 0.56 0.58 0.62 0.67 0.70 0.67 0.70 0.72 0.73 0.73 0.72 0.69 0.68 0.67 0.67 0.62
0.74 0.73 0.70 0.63 0.62 0.54 0.49 0.45 0.38 0.34 0.42 0.47 0.42 0.40 0.40 0.42 0.34 0.33 0.31 0.35 0.38 0.47 0.52 0.52 0.49 0.53 0.54 0.56 0.48 0.43 0.35 0.33 0.44 0.35 0.30 0.33 0.42 0.45 0.47 0.55 0.66 0.69 0.69 0.66 0.65 0.68 0.73 0.74 0.73 0.70 0.69 0.69 0.66 0.59
0.72 0.73 0.69 0.66 0.62 0.54 0.48 0.45 0.36 0.38 0.32 0.32 0.30 0.27 0.31 0.29 0.32 0.35 0.36 0.38 0.46 0.49 0.50 0.51 0.49 0.48 0.50 0.45 0.46 0.37 0.40 0.40 0.31 0.28 0.27 0.38 0.41 0.39 0.42 0.51 0.63 0.70 0.67 0.64 0.61 0.63 0.67 0.70 0.72 0.73 0.70 0.66 0.59 0.58
0.71 0.71 0.69 0.68 0.62 0.52 0.48 0.43 0.39 0.39 0.27 0.27 0.30 0.24 0.29 0.36 0.40 0.42 0.44 0.45 0.49 0.53 0.52 0.50 0.50 0.49 0.45 0.43 0.43 0.40 0.34 0.29 0.31 0.29 0.39 0.43 0.40 0.41 0.42 0.48 0.60 0.67 0.71 0.67 0.62 0.61 0.61 0.63 0.64 0.66 0.66 0.62 0.58 0.56
0.70 0.67 0.64 0.66 0.57 0.51 0.47 0.41 0.41 0.40 0.31 0.26 0.29 0.27 0.33 0.33 0.33 0.36 0.39 0.42 0.50 0.50 0.55 0.53 0.46 0.41 0.40 0.41 0.36 0.33 0.31 0.28 0.34 0.40 0.44 0.42 0.41 0.41 0.43 0.46 0.51 0.61 0.66 0.69 0.66 0.63 0.62 0.61 0.61 0.62 0.62 0.59 0.56 0.56
0.67 0.60 0.64 0.59 0.54 0.50 0.45 0.39 0.37 0.30 0.25 0.22 0.22 0.30 0.32 0.32 0.31 0.32 0.35 0.38 0.48 0.47 0.43 0.46 0.39 0.38 0.46 0.37 0.33 0.39 0.35 0.38 0.43 0.45 0.47 0.46 0.45 0.44 0.46 0.47 0.49 0.50 0.56 0.62 0.65 0.66 0.64 0.63 0.63 0.61 0.58 0.57 0.56 0.56
0.59 0.64 0.64 0.60 0.55 0.47 0.40 0.39 0.33 0.28 0.21 0.24 0.19 0.21 0.27 0.29 0.29 0.29 0.32 0.36 0.37 0.42 0.44 0.41 0.46 0.38 0.36 0.32 0.34 0.41 0.44 0.47 0.48 0.49 0.50 0.50 0.50 0.50 0.50 0.48 0.48 0.50 0.50 0.52 0.58 0.61 0.61 0.61 0.62 0.61 0.60 0.59 0.57 0.55
0.62 0.63 0.64 0.61 0.53 0.40 0.32 0.34 0.34 0.23 0.23 0.25 0.24 0.23 0.20 0.18 0.18 0.20 0.22 0.27 0.33 0.36 0.38 0.41 0.38 0.35 0.36 0.42 0.43 0.45 0.46 0.46 0.46 0.48 0.51 0.53 0.52 0.52 0.53 0.53 0.51 0.49 0.49 0.51 0.52 0.54 0.56 0.59 0.59 0.60 0.60 0.58 0.54 0.53
0.63 0.64 0.64 0.61 0.52 0.36 0.30 0.31 0.34 0.26 0.23 0.25 0.25 0.22 0.20 0.18 0.19 0.18 0.18 0.19 0.20 0.18 0.19 0.23 0.29 0.36 0.39 0.43 0.46 0.46 0.47 0.49 0.48 0.44 0.46 0.51 0.54 0.53 0.51 0.52 0.51 0.50 0.50 0.51 0.51 0.53 0.54 0.55 0.56 0.57 0.57 0.55 0.52 0.50
0.60 0.60 0.61 0.56 0.46 0.39 0.33 0.30 0.29 0.29 0.27 0.23 0.26 0.23 0.20 0.20 0.18 0.18 0.19 0.24 0.20 0.17 0.14 0.18 0.19 0.23 0.25 0.27 0.30 0.35 0.38 0.41 0.41 0.43 0.43 0.44 0.52 0.55 0.54 0.52 0.51 0.50 0.49 0.50 0.50 0.50 0.52 0.53 0.55 0.55 0.53 0.50 0.51 0.57
0.55 0.59 0.52 0.50 0.39 0.35 0.33 0.36 0.31 0.32 0.27 0.26 0.24 0.22 0.18 0.16 0.17 0.18 0.22 0.18 0.16 0.17 0.18 0.18 0.19 0.20 0.18 0.17 0.17 0.18 0.19 0.21 0.25 0.31 0.39 0.44 0.44 0.48 0.52 0.53 0.50 0.48 0.49 0.50 0.51 0.51 0.52 0.54 0.55 0.54 0.51 0.51 0.51 0.59
0.55 0.51 0.45 0.41 0.34 0.32 0.29 0.36 0.29 0.28 0.23 0.22 0.22 0.18 0.17 0.17 0.20 0.22 0.16 0.17 0.16 0.19 0.19 0.19 0.19 0.18 0.16 0.16 0.15 0.15 0.17 0.17 0.18 0.20 0.23 0.29 0.39 0.47 0.50 0.54 0.53 0.50 0.49 0.50 0.53 0.53 0.52 0.53 0.54 0.52 0.50 0.49 0.57 0.51
0.51 0.42 0.36 0.33 0.32 0.26 0.29 0.28 0.30 0.27 0.25 0.21 0.18 0.16 0.16 0.17 0.20 0.17 0.14 0.15 0.16 0.17 0.17 0.17 0.17 0.17 0.17 0.15 0.14 0.14 0.16 0.17 0.17 0.18 0.21 0.23 0.25 0.35 0.46 0.51 0.54 0.54 0.53 0.53 0.51 0.52 0.52 0.52 0.53 0.51 0.48 0.52 0.55 0.48
0.35 0.33 0.34 0.29 0.29 0.26 0.24 0.24 0.25 0.23 0.20 0.20 0.17 0.16 0.16 0.19 0.15 0.14 0.13 0.13 0.13 0.14 0.16 0.17 0.16 0.14 0.10 0.10 0.11 0.12 0.15 0.15 0.14 0.15 0.18 0.21 0.23 0.27 0.35 0.47 0.52 0.56 0.58 0.53 0.51 0.51 0.51 0.51 0.51 0.50 0.49 0.54 0.51 0.43
0.28 0.32 0.30 0.28 0.25 0.24 0.23 0.21 0.21 0.20 0.20 0.18 0.17 0.18 0.19 0.16 0.13 0.11 0.12 0.12 0.13 0.15 0.15 0.14 0.14 0.12 0.11 0.12 0.11 0.12 0.15 0.17 0.16 0.14 0.16 0.20 0.23 0.25 0.28 0.35 0.44 0.49 0.57 0.57 0.54 0.53 0.51 0.51 0.50 0.49 0.50 0.53 0.45 0.43
0.27 0.29 0.30 0.30 0.27 0.24 0.23 0.22 0.22 0.20 0.18 0.16 0.16 0.16 0.15 0.12 0.11 0.11 0.12 0.14 0.14 0.17 0.17 0.16 0.14 0.12 0.11 0.12 0.14 0.17 0.19 0.19 0.18 0.17 0.18 0.20 0.23 0.27 0.29 0.32 0.40 0.48 0.54 0.55 0.57 0.55 0.52 0.51 0.50 0.50 0.53 0.49 0.46 0.42
0.31 0.30 0.26 0.27 0.26 0.25 0.22 0.21 0.20 0.19 0.18 0.19 0.18 0.15 0.13 0.12 0.10 0.12 0.14 0.16 0.16 0.16 0.15 0.15 0.15 0.14 0.14 0.15 0.18 0.20 0.20 0.21 0.21 0.21 0.20 0.21 0.24 0.28 0.32 0.37 0.46 0.50 0.52 0.54 0.55 0.54 0.53 0.52 0.51 0.52 0.51 0.48 0.44 0.43
0.29 0.30 0.29 0.26 0.27 0.26 0.24 0.22 0.21 0.21 0.21 0.19 0.17 0.15 0.15 0.16 0.15 0.14 0.14 0.15 0.16 0.15 0.14 0.13 0.14 0.16 0.18 0.21 0.22 0.22 0.22 0.21 0.19 0.16 0.15 0.16 0.21 0.26 0.34 0.38 0.45 0.48 0.49 0.51 0.52 0.53 0.53 0.53 0.53 0.52 0.50 0.46 0.45 0.41
0.28 0.31 0.28 0.28 0.26 0.24 0.24 0.25 0.23 0.23 0.23 0.22 0.20 0.18 0.17 0.16 0.16 0.17 0.16 0.15 0.14 0.14 0.14 0.14 0.17 0.19 0.19 0.20 0.21 0.22 0.23 0.23 0.22 0.19 0.17 0.19 0.23 0.30 0.33 0.38 0.42 0.45 0.47 0.47 0.48 0.49 0.51 0.50 0.49 0.48 0.46 0.44 0.41 0.38
0.32 0.31 0.30 0.28 0.26 0.26 0.27 0.27 0.25 0.24 0.23 0.21 0.20 0.16 0.15 0.16 0.16 0.16 0.15 0.15 0.15 0.14 0.15 0.18 0.20 0.22 0.21 0.22 0.22 0.21 0.21 0.24 0.24 0.25 0.25 0.27 0.29 0.31 0.34 0.39 0.43 0.44 0.45 0.45 0.45 0.46 0.46 0.46 0.45 0.44 0.42 0.39 0.37 0.36
0.31 0.30 0.28 0.26 0.25 0.27 0.26 0.23 0.22 0.21 0.21 0.18 0.16 0.16 0.15 0.14 0.12 0.14 0.15 0.15 0.14 0.16 0.19 0.21 0.21 0.21 0.24 0.24 0.25 0.25 0.26 0.25 0.25 0.26 0.27 0.29 0.31 0.34 0.37 0.40 0.42 0.42 0.43 0.43 0.43 0.43 0.44 0.42 0.42 0.41 0.39 0.37 0.39 0.38
0.29 0.29 0.28 0.26 0.24 0.23 0.22 0.21 0.19 0.18 0.16 0.15 0.14 0.14 0.14 0.13 0.11 0.13 0.16 0.17 0.16 0.19 0.21 0.22 0.24 0.25 0.26 0.26 0.26 0.27 0.28 0.28 0.29 0.30 0.31 0.33 0.34 0.36 0.38 0.39 0.40 0.40 0.40 0.40 0.40 0.41 0.41 0.40 0.40 0.39 0.39 0.38 0.36 0.34

GFSWCAN_prec_pwat_012.txt.gz
Precipitable_Water
0.82 0.74 0.73 0.66 0.61 0.60 0.60 0.54 0.52 0.51 0.47 0.46 0.44 0.44 0.38 0.32 0.32 0.30 0.38 0.66 0.55 0.46 0.53 0.59 0.61 0.53 0.53 0.54 0.46 0.57 0.53 0.56 0.53 0.42 0.39 0.40 0.38 0.42 0.39 0.43 0.42 0.39 0.35 0.34 0.38 0.33 0.29 0.54 0.54 0.43 0.51 0.59 0.59 0.65
0.80 0.74 0.72 0.68 0.62 0.58 0.60 0.55 0.52 0.52 0.49 0.47 0.45 0.43 0.42 0.38 0.34 0.33 0.24 0.44 0.61 0.52 0.52 0.68 0.67 0.71 0.71 0.71 0.63 0.59 0.58 0.55 0.57 0.48 0.48 0.47 0.42 0.45 0.42 0.34 0.51 0.39 0.43 0.40 0.39 0.38 0.51 0.58 0.56 0.62 0.62 0.60 0.59 0.66
0.77 0.74 0.75 0.71 0.64 0.58 0.62 0.53 0.52 0.52 0.50 0.47 0.45 0.45 0.44 0.39 0.39 0.33 0.32 0.35 0.47 0.50 0.52 0.57 0.57 0.71 0.81 0.80 0.84 0.56 0.60 0.64 0.62 0.69 0.57 0.53 0.43 0.49 0.37 0.40 0.45 0.51 0.55 0.45 0.44 0.52 0.54 0.57 0.62 0.62 0.62 0.61 0.64 0.71
0.81 0.77 0.74 0.72 0.65 0.60 0.61 0.59 0.52 0.52 0.50 0.46 0.44 0.43 0.41 0.39 0.42 0.37 0.32 0.34 0.42 0.52 0.44 0.54 0.76 0.71 0.83 0.81 0.78 0.75 0.71 0.73 0.73 0.69 0.57 0.52 0.45 0.56 0.47 0.49 0.48 0.54 0.57 0.50 0.47 0.51 0.56 0.58 0.60 0.61 0.60 0.65 0.68 0.72
0.80 0.77 0.73 0.73 0.68 0.60 0.59 0.62 0.55 0.48 0.49 0.46 0.46 0.43 0.43 0.46 0.45 0.37 0.32 0.34 0.40 0.52 0.44 0.52 0.67 0.76 0.80 0.78 0.75 0.75 0.72 0.66 0.64 0.58 0.54 0.49 0.56 0.54 0.52 0.51 0.45 0.53 0.52 0.47 0.45 0.56 0.54 0.54 0.60 0.64 0.59 0.61 0.67 0.70
0.76 0.75 0.72 0.74 0.70 0.62 0.59 0.63 0.57 0.49 0.49 0.45 0.44 0.46 0.48 0.48 0.45 0.36 0.25 0.37 0.41 0.58 0.49 0.44 0.70 0.70 0.74 0.75 0.73 0.71 0.71 0.66 0.65 0.59 0.57 0.59 0.64 0.56 0.45 0.42 0.52 0.56 0.60 0.60 0.55 0.60 0.59 0.61 0.64 0.66 0.62 0.63 0.65 0.66
0.76 0.77 0.77 0.77 0.72 0.65 0.59 0.63 0.54 0.50 0.47 0.45 0.42 0.49 0.47 0.48 0.44 0.32 0.26 0.45 0.59 0.65 0.51 0.47 0.51 0.68 0.76 0.73 0.71 0.69 0.71 0.66 0.64 0.60 0.56 0.57 0.57 0.61 0.51 0.42 0.52 0.57 0.61 0.63 0.65 0.62 0.57 0.61 0.61 0.67 0.65 0.65 0.66 0.66
0.75 0.76 0.76 0.76 0.75 0.66 0.61 0.64 0.51 0.49 0.47 0.42 0.46 0.46 0.51 0.48 0.43 0.34 0.38 0.51 0.67 0.58 0.58 0.46 0.48 0.56 0.74 0.60 0.57 0.70 0.60 0.62 0.63 0.58 0.59 0.53 0.56 0.57 0.45 0.53 0.59 0.60 0.60 0.62 0.63 0.66 0.64 0.66 0.69 0.68 0.67 0.65 0.64 0.64
0.74 0.75 0.75 0.74 0.75 0.67 0.61 0.62 0.51 0.49 0.42 0.45 0.44 0.49 0.49 0.39 0.30 0.34 0.50 0.61 0.67 0.59 0.46 0.50 0.43 0.41 0.68 0.61 0.62 0.62 0.64 0.49 0.63 0.50 0.49 0.52 0.47 0.46 0.51 0.59 0.64 0.68 0.65 0.64 0.66 0.66 0.66 0.64 0.66 0.69 0.67 0.64 0.63 0.64
0.73 0.73 0.73 0.74 0.76 0.66 0.61 0.59 0.51 0.45 0.40 0.46 0.42 0.34 0.25 0.33 0.45 0.50 0.53 0.51 0.52 0.55 0.57 0.49 0.57 0.46 0.59 0.55 0.51 0.53 0.56 0.46 0.38 0.45 0.55 0.43 0.42 0.57 0.66 0.69 0.69 0.68 0.70 0.71 0.64 0.61 0.63 0.62 0.65 0.68 0.69 0.67 0.67 0.67
0.73 0.71 0.72 0.74 0.75 0.64 0.63 0.57 0.50 0.43 0.38 0.41 0.33 0.26 0.41 0.54 0.51 0.48 0.43 0.43 0.46 0.44 0.54 0.56 0.56 0.48 0.63 0.46 0.47 0.53 0.44 0.45 0.33 0.40 0.39 0.38 0.38 0.53 0.61 0.61 0.64 0.63 0.69 0.74 0.74 0.73 0.71 0.68 0.67 0.67 0.69 0.70 0.69 0.68
0.70 0.71 0.72 0.74 0.74 0.65 0.65 0.55 0.48 0.40 0.33 0.46 0.49 0.54 0.54 0.48 0.43 0.39 0.39 0.44 0.43 0.41 0.52 0.51 0.53 0.56 0.56 0.61 0.48 0.49 0.39 0.41 0.30 0.46 0.37 0.31 0.45 0.51 0.48 0.47 0.57 0.68 0.69 0.71 0.73 0.71 0.74 0.73 0.73 0.72 0.70 0.69 0.67 0.69
0.70 0.71 0.71 0.73 0.73 0.68 0.66 0.55 0.47 0.41 0.40 0.47 0.43 0.38 0.38 0.40 0.31 0.31 0.29 0.34 0.37 0.46 0.51 0.53 0.49 0.55 0.56 0.58 0.49 0.44 0.35 0.32 0.44 0.35 0.32 0.38 0.46 0.44 0.42 0.47 0.56 0.71 0.72 0.71 0.70 0.70 0.71 0.75 0.79 0.76 0.71 0.70 0.68 0.71
0.71 0.70 0.70 0.72 0.71 0.69 0.64 0.54 0.47 0.42 0.36 0.29 0.32 0.26 0.29 0.28 0.31 0.34 0.35 0.38 0.46 0.49 0.51 0.53 0.51 0.50 0.52 0.46 0.46 0.36 0.40 0.40 0.29 0.27 0.30 0.43 0.42 0.42 0.44 0.50 0.57 0.66 0.73 0.69 0.69 0.69 0.66 0.71 0.77 0.77 0.73 0.69 0.74 0.68
0.70 0.69 0.70 0.70 0.69 0.70 0.65 0.51 0.43 0.43 0.33 0.23 0.30 0.23 0.27 0.35 0.39 0.42 0.45 0.45 0.48 0.52 0.52 0.51 0.51 0.51 0.46 0.43 0.43 0.39 0.33 0.28 0.30 0.30 0.40 0.43 0.42 0.43 0.43 0.45 0.51 0.63 0.67 0.71 0.71 0.67 0.66 0.67 0.71 0.75 0.77 0.75 0.69 0.60
0.69 0.67 0.66 0.67 0.67 0.69 0.59 0.49 0.43 0.43 0.35 0.27 0.27 0.26 0.32 0.33 0.34 0.37 0.40 0.42 0.50 0.50 0.53 0.51 0.46 0.41 0.39 0.40 0.35 0.31 0.29 0.27 0.34 0.40 0.44 0.46 0.44 0.45 0.46 0.47 0.47 0.51 0.61 0.67 0.69 0.66 0.66 0.64 0.63 0.64 0.66 0.67 0.63 0.57
0.65 0.59 0.65 0.65 0.63 0.62 0.57 0.44 0.40 0.35 0.31 0.26 0.22 0.29 0.32 0.34 0.33 0.34 0.38 0.41 0.48 0.46 0.41 0.44 0.37 0.37 0.45 0.36 0.32 0.38 0.32 0.38 0.42 0.44 0.49 0.49 0.48 0.47 0.48 0.49 0.50 0.50 0.49 0.55 0.65 0.65 0.67 0.66 0.65 0.64 0.62 0.62 0.60 0.58
0.58 0.63 0.65 0.65 0.64 0.58 0.48 0.41 0.35 0.32 0.26 0.27 0.23 0.24 0.29 0.32 0.31 0.31 0.33 0.36 0.37 0.42 0.44 0.39 0.43 0.37 0.35 0.32 0.33 0.40 0.42 0.45 0.47 0.47 0.48 0.50 0.51 0.52 0.53 0.51 0.51 0.51 0.51 0.51 0.52 0.58 0.63 0.62 0.61 0.61 0.63 0.63 0.59 0.57
0.62 0.64 0.65 0.64 0.61 0.50 0.36 0.36 0.36 0.28 0.29 0.30 0.29 0.28 0.27 0.26 0.29 0.29 0.28 0.29 0.32 0.34 0.37 0.41 0.36 0.33 0.34 0.39 0.41 0.43 0.44 0.44 0.43 0.46 0.48 0.50 0.51 0.50 0.51 0.53 0.53 0.52 0.51 0.50 0.50 0.52 0.53 0.57 0.60 0.61 0.61 0.59 0.58 0.58
0.65 0.65 0.64 0.63 0.58 0.41 0.32 0.34 0.38 0.30 0.28 0.30 0.29 0.26 0.23 0.21 0.21 0.19 0.18 0.18 0.18 0.17 0.16 0.20 0.26 0.34 0.38 0.42 0.44 0.43 0.43 0.43 0.41 0.39 0.41 0.46 0.48 0.48 0.48 0.49 0.50 0.52 0.52 0.52 0.51 0.51 0.52 0.52 0.55 0.57 0.58 0.58 0.55 0.55
0.60 0.61 0.60 0.58 0.50 0.44 0.36 0.33 0.31 0.33 0.32 0.28 0.31 0.26 0.22 0.22 0.19 0.18 0.19 0.23 0.21 0.18 0.15 0.17 0.19 0.20 0.24 0.25 0.24 0.22 0.20 0.21 0.21 0.24 0.26 0.30 0.37 0.41 0.43 0.45 0.48 0.50 0.51 0.50 0.48 0.48 0.51 0.51 0.53 0.55 0.55 0.55 0.55 0.53
0.55 0.59 0.52 0.52 0.42 0.39 0.37 0.39 0.34 0.36 0.33 0.31 0.28 0.26 0.22 0.20 0.20 0.19 0.22 0.19 0.19 0.19 0.21 0.20 0.19 0.19 0.18 0.16 0.15 0.15 0.14 0.14 0.14 0.15 0.16 0.17 0.16 0.19 0.24 0.34 0.40 0.43 0.49 0.51 0.50 0.48 0.50 0.53 0.53 0.53 0.53 0.53 0.54 0.52
0.55 0.52 0.46 0.44 0.37 0.35 0.32 0.37 0.31 0.32 0.29 0.28 0.28 0.24 0.23 0.21 0.22 0.24 0.18 0.20 0.19 0.22 0.21 0.20 0.20 0.19 0.16 0.17 0.16 0.15 0.15 0.15 0.14 0.14 0.15 0.16 0.16 0.17 0.19 0.21 0.26 0.35 0.41 0.49 0.52 0.50 0.49 0.51 0.53 0.53 0.53 0.52 0.51 0.48
0.54 0.43 0.37 0.34 0.34 0.29 0.31 0.28 0.32 0.32 0.32 0.28 0.24 0.21 0.20 0.21 0.23 0.20 0.17 0.19 0.20 0.21 0.19 0.18 0.18 0.16 0.15 0.16 0.13 0.10 0.11 0.12 0.12 0.13 0.14 0.14 0.14 0.15 0.18 0.19 0.21 0.26 0.34 0.43 0.50 0.51 0.50 0.50 0.51 0.52 0.51 0.50 0.50 0.49
0.34 0.33 0.33 0.28 0.32 0.28 0.25 0.25 0.27 0.28 0.26 0.26 0.22 0.20 0.20 0.22 0.18 0.17 0.16 0.18 0.19 0.17 0.16 0.16 0.16 0.15 0.13 0.13 0.12 0.12 0.13 0.13 0.12 0.11 0.14 0.16 0.16 0.15 0.14 0.16 0.20 0.25 0.31 0.35 0.42 0.49 0.50 0.50 0.50 0.50 0.49 0.49 0.48 0.48
0.27 0.31 0.29 0.29 0.26 0.25 0.24 0.23 0.24 0.24 0.25 0.22 0.21 0.21 0.21 0.19 0.16 0.15 0.16 0.16 0.15 0.14 0.14 0.14 0.13 0.13 0.13 0.13 0.12 0.12 0.13 0.15 0.14 0.13 0.15 0.18 0.17 0.16 0.15 0.14 0.15 0.19 0.29 0.33 0.38 0.43 0.48 0.49 0.49 0.49 0.49 0.48 0.48 0.48
0.26 0.26 0.30 0.32 0.29 0.26 0.24 0.24 0.25 0.24 0.21 0.19 0.20 0.19 0.18 0.15 0.15 0.16 0.17 0.17 0.16 0.17 0.18 0.19 0.18 0.15 0.13 0.13 0.14 0.15 0.15 0.16 0.17 0.18 0.20 0.20 0.21 0.20 0.19 0.15 0.14 0.18 0.26 0.31 0.36 0.41 0.44 0.47 0.49 0.49 0.49 0.49 0.47 0.50
0.29 0.29 0.25 0.28 0.27 0.27 0.24 0.23 0.22 0.20 0.20 0.22 0.21 0.18 0.17 0.16 0.15 0.17 0.18 0.19 0.18 0.18 0.18 0.17 0.16 0.15 0.14 0.14 0.15 0.15 0.18 0.20 0.21 0.21 0.21 0.21 0.22 0.22 0.22 0.21 0.21 0.23 0.27 0.32 0.36 0.40 0.44 0.47 0.48 0.49 0.50 0.49 0.48 0.52
0.27 0.29 0.29 0.26 0.27 0.26 0.25 0.23 0.22 0.23 0.25 0.23 0.20 0.19 0.19 0.21 0.21 0.19 0.19 0.18 0.18 0.16 0.14 0.13 0.14 0.15 0.15 0.16 0.19 0.21 0.21 0.21 0.19 0.18 0.18 0.18 0.18 0.20 0.22 0.22 0.24 0.27 0.30 0.33 0.36 0.41 0.44 0.46 0.47 0.48 0.49 0.49 0.50 0.50
0.27 0.30 0.27 0.27 0.26 0.25 0.28 0.28 0.26 0.26 0.25 0.25 0.24 0.22 0.21 0.21 0.21 0.21 0.19 0.18 0.16 0.14 0.14 0.14 0.14 0.14 0.16 0.18 0.18 0.20 0.23 0.23 0.22 0.20 0.19 0.19 0.20 0.21 0.23 0.23 0.25 0.28 0.32 0.34 0.34 0.38 0.44 0.44 0.46 0.45 0.46 0.46 0.46 0.46
0.31 0.30 0.28 0.27 0.26 0.29 0.31 0.30 0.29 0.27 0.26 0.24 0.23 0.21 0.20 0.20 0.20 0.20 0.18 0.17 0.16 0.14 0.13 0.13 0.16 0.19 0.19 0.19 0.19 0.19 0.19 0.22 0.22 0.23 0.24 0.25 0.24 0.24 0.23 0.25 0.28 0.31 0.34 0.34 0.34 0.37 0.40 0.40 0.41 0.41 0.43 0.43 0.44 0.42
0.30 0.28 0.27 0.25 0.27 0.30 0.31 0.28 0.27 0.25 0.24 0.22 0.21 0.21 0.19 0.18 0.15 0.16 0.16 0.15 0.14 0.13 0.14 0.16 0.18 0.19 0.21 0.23 0.23 0.23 0.23 0.23 0.24 0.26 0.26 0.26 0.25 0.25 0.26 0.29 0.31 0.33 0.34 0.34 0.36 0.38 0.38 0.38 0.39 0.39 0.40 0.41 0.40 0.37
0.28 0.28 0.28 0.28 0.27 0.27 0.27 0.26 0.24 0.22 0.20 0.19 0.18 0.17 0.16 0.15 0.13 0.15 0.17 0.16 0.15 0.15 0.17 0.20 0.21 0.22 0.23 0.24 0.24 0.24 0.25 0.26 0.28 0.29 0.30 0.30 0.29 0.29 0.31 0.31 0.33 0.33 0.34 0.35 0.36 0.36 0.36 0.37 0.37 0.38 0.39 0.39 0.37 0.38

GFSWCAN_prec_pwat_015.txt.gz
Precipitable_Water
0.75 0.81 0.81 0.80 0.77 0.69 0.64 0.66 0.60 0.53 0.53 0.54 0.50 0.50 0.48 0.47 0.41 0.32 0.26 0.36 0.42 0.42 0.47 0.54 0.56 0.52 0.52 0.50 0.42 0.52 0.50 0.54 0.50 0.40 0.37 0.37 0.36 0.41 0.39 0.42 0.41 0.38 0.36 0.35 0.37 0.32 0.28 0.55 0.54 0.45 0.51 0.59 0.60 0.60
0.75 0.81 0.81 0.77 0.76 0.70 0.66 0.66 0.62 0.53 0.51 0.54 0.52 0.50 0.50 0.47 0.41 0.41 0.25 0.35 0.35 0.32 0.45 0.59 0.62 0.66 0.67 0.68 0.62 0.59 0.56 0.53 0.53 0.45 0.45 0.46 0.40 0.43 0.41 0.32 0.49 0.39 0.44 0.40 0.40 0.37 0.49 0.56 0.57 0.62 0.63 0.58 0.60 0.60
0.80 0.80 0.79 0.79 0.77 0.73 0.66 0.63 0.66 0.59 0.53 0.56 0.53 0.50 0.52 0.47 0.44 0.43 0.35 0.33 0.33 0.24 0.25 0.46 0.50 0.67 0.76 0.78 0.85 0.56 0.60 0.63 0.60 0.65 0.54 0.50 0.41 0.47 0.36 0.38 0.43 0.51 0.57 0.48 0.47 0.50 0.53 0.57 0.62 0.64 0.62 0.59 0.63 0.67
0.79 0.80 0.80 0.80 0.77 0.75 0.67 0.65 0.63 0.63 0.57 0.51 0.52 0.51 0.50 0.46 0.47 0.49 0.43 0.36 0.32 0.27 0.18 0.43 0.69 0.68 0.82 0.82 0.79 0.79 0.73 0.74 0.72 0.67 0.56 0.50 0.45 0.55 0.43 0.46 0.44 0.50 0.57 0.53 0.49 0.54 0.57 0.60 0.60 0.61 0.62 0.63 0.66 0.70
0.77 0.79 0.79 0.80 0.75 0.75 0.72 0.67 0.61 0.66 0.59 0.53 0.54 0.50 0.48 0.49 0.50 0.48 0.43 0.40 0.33 0.27 0.25 0.42 0.63 0.71 0.79 0.78 0.75 0.77 0.72 0.67 0.62 0.56 0.53 0.47 0.54 0.51 0.51 0.49 0.44 0.50 0.47 0.46 0.45 0.60 0.59 0.58 0.61 0.63 0.61 0.60 0.64 0.67
0.77 0.78 0.77 0.76 0.78 0.78 0.75 0.68 0.62 0.65 0.53 0.52 0.53 0.51 0.50 0.49 0.50 0.44 0.29 0.45 0.41 0.37 0.33 0.37 0.68 0.67 0.74 0.76 0.73 0.72 0.71 0.69 0.65 0.56 0.54 0.57 0.64 0.55 0.44 0.41 0.49 0.53 0.59 0.60 0.55 0.63 0.63 0.63 0.62 0.65 0.64 0.62 0.65 0.67
0.76 0.76 0.77 0.77 0.78 0.78 0.77 0.69 0.63 0.63 0.54 0.54 0.50 0.50 0.49 0.49 0.46 0.35 0.28 0.46 0.50 0.44 0.39 0.42 0.50 0.68 0.74 0.74 0.72 0.71 0.73 0.69 0.63 0.58 0.53 0.55 0.56 0.58 0.48 0.40 0.52 0.57 0.61 0.63 0.66 0.66 0.62 0.63 0.60 0.65 0.68 0.65 0.66 0.66
0.76 0.76 0.76 0.76 0.76 0.76 0.76 0.68 0.63 0.59 0.53 0.49 0.52 0.47 0.49 0.49 0.41 0.34 0.41 0.49 0.54 0.51 0.50 0.41 0.47 0.56 0.73 0.60 0.57 0.71 0.64 0.65 0.62 0.57 0.59 0.52 0.53 0.53 0.44 0.56 0.63 0.66 0.67 0.66 0.67 0.68 0.65 0.67 0.66 0.65 0.70 0.66 0.64 0.63
0.77 0.75 0.74 0.74 0.75 0.76 0.74 0.67 0.63 0.54 0.49 0.47 0.47 0.48 0.48 0.40 0.31 0.33 0.50 0.54 0.61 0.54 0.42 0.46 0.42 0.41 0.71 0.62 0.64 0.64 0.66 0.50 0.62 0.52 0.50 0.53 0.46 0.42 0.53 0.60 0.62 0.64 0.64 0.64 0.67 0.68 0.66 0.64 0.63 0.65 0.67 0.66 0.64 0.64
0.76 0.75 0.73 0.73 0.73 0.75 0.70 0.64 0.61 0.51 0.43 0.49 0.47 0.40 0.31 0.37 0.49 0.52 0.55 0.49 0.50 0.52 0.53 0.47 0.59 0.48 0.62 0.58 0.55 0.55 0.59 0.51 0.42 0.50 0.56 0.45 0.42 0.56 0.59 0.59 0.59 0.63 0.61 0.63 0.62 0.62 0.64 0.62 0.64 0.64 0.67 0.68 0.69 0.66
0.75 0.74 0.73 0.72 0.72 0.73 0.68 0.67 0.60 0.49 0.41 0.47 0.40 0.35 0.46 0.55 0.51 0.49 0.41 0.41 0.45 0.43 0.52 0.55 0.58 0.51 0.66 0.49 0.49 0.57 0.46 0.48 0.36 0.41 0.39 0.37 0.39 0.48 0.54 0.51 0.51 0.58 0.66 0.65 0.69 0.72 0.72 0.72 0.67 0.66 0.67 0.69 0.73 0.70
0.75 0.74 0.72 0.71 0.72 0.73 0.69 0.71 0.61 0.46 0.36 0.39 0.49 0.54 0.53 0.46 0.41 0.37 0.36 0.41 0.41 0.40 0.52 0.51 0.53 0.59 0.59 0.66 0.50 0.49 0.41 0.43 0.31 0.47 0.37 0.31 0.43 0.48 0.45 0.45 0.51 0.58 0.68 0.71 0.71 0.73 0.73 0.73 0.73 0.71 0.69 0.69 0.76 0.74
0.74 0.73 0.71 0.70 0.70 0.70 0.69 0.70 0.60 0.48 0.45 0.42 0.41 0.38 0.38 0.38 0.30 0.29 0.27 0.33 0.35 0.45 0.50 0.53 0.48 0.55 0.58 0.58 0.48 0.44 0.36 0.33 0.44 0.35 0.32 0.39 0.46 0.43 0.43 0.46 0.54 0.65 0.71 0.70 0.71 0.73 0.74 0.73 0.77 0.76 0.74 0.71 0.71 0.70
0.73 0.70 0.70 0.70 0.70 0.70 0.68 0.70 0.58 0.45 0.41 0.29 0.29 0.27 0.28 0.28 0.30 0.32 0.34 0.36 0.44 0.47 0.49 0.51 0.50 0.50 0.54 0.47 0.47 0.37 0.41 0.40 0.29 0.26 0.30 0.42 0.44 0.43 0.46 0.46 0.53 0.63 0.68 0.73 0.72 0.71 0.72 0.71 0.73 0.79 0.78 0.74 0.70 0.68
0.71 0.69 0.68 0.68 0.70 0.69 0.68 0.66 0.55 0.46 0.37 0.28 0.27 0.23 0.26 0.34 0.37 0.40 0.43 0.43 0.48 0.52 0.51 0.50 0.51 0.51 0.47 0.44 0.45 0.41 0.34 0.28 0.29 0.29 0.39 0.45 0.44 0.45 0.46 0.47 0.47 0.55 0.65 0.67 0.70 0.72 0.69 0.70 0.72 0.76 0.78 0.76 0.73 0.73
0.69 0.66 0.64 0.67 0.67 0.66 0.66 0.60 0.52 0.46 0.38 0.33 0.28 0.25 0.30 0.30 0.35 0.38 0.40 0.42 0.50 0.49 0.53 0.51 0.46 0.42 0.41 0.41 0.36 0.33 0.30 0.27 0.33 0.40 0.45 0.47 0.46 0.47 0.48 0.49 0.50 0.51 0.50 0.58 0.66 0.69 0.68 0.67 0.67 0.69 0.75 0.76 0.73 0.74
0.65 0.58 0.64 0.64 0.65 0.62 0.61 0.53 0.46 0.40 0.35 0.32 0.27 0.29 0.27 0.31 0.34 0.37 0.40 0.43 0.49 0.46 0.41 0.43 0.37 0.35 0.44 0.37 0.33 0.37 0.33 0.38 0.43 0.45 0.48 0.48 0.48 0.49 0.50 0.51 0.51 0.50 0.51 0.51 0.52 0.61 0.65 0.66 0.65 0.64 0.64 0.66 0.70 0.70
0.55 0.62 0.63 0.63 0.62 0.59 0.53 0.50 0.40 0.36 0.30 0.33 0.28 0.28 0.29 0.29 0.33 0.35 0.36 0.40 0.41 0.43 0.43 0.39 0.44 0.37 0.34 0.31 0.33 0.41 0.44 0.48 0.49 0.48 0.47 0.47 0.49 0.50 0.49 0.48 0.51 0.53 0.52 0.52 0.52 0.52 0.53 0.60 0.63 0.61 0.62 0.64 0.64 0.63
0.58 0.61 0.62 0.63 0.60 0.50 0.41 0.39 0.40 0.29 0.31 0.35 0.34 0.33 0.30 0.29 0.32 0.34 0.34 0.34 0.35 0.38 0.40 0.40 0.36 0.32 0.33 0.39 0.39 0.42 0.44 0.44 0.44 0.46 0.46 0.46 0.48 0.45 0.45 0.46 0.48 0.49 0.50 0.51 0.53 0.51 0.51 0.52 0.53 0.58 0.61 0.61 0.59 0.60
0.62 0.61 0.61 0.62 0.58 0.44 0.35 0.35 0.39 0.32 0.28 0.33 0.36 0.32 0.29 0.26 0.27 0.26 0.25 0.23 0.23 0.22 0.20 0.22 0.26 0.33 0.36 0.40 0.42 0.41 0.41 0.41 0.39 0.36 0.33 0.34 0.35 0.36 0.36 0.38 0.41 0.44 0.46 0.48 0.50 0.51 0.50 0.50 0.53 0.53 0.54 0.56 0.57 0.56
0.55 0.55 0.57 0.57 0.50 0.44 0.37 0.35 0.32 0.34 0.34 0.31 0.35 0.34 0.30 0.29 0.24 0.20 0.18 0.21 0.19 0.16 0.13 0.15 0.17 0.21 0.27 0.26 0.24 0.22 0.19 0.17 0.14 0.15 0.15 0.16 0.19 0.21 0.22 0.24 0.28 0.33 0.37 0.41 0.43 0.47 0.49 0.48 0.50 0.52 0.53 0.53 0.54 0.55
0.51 0.56 0.50 0.51 0.42 0.40 0.37 0.40 0.34 0.34 0.33 0.33 0.32 0.32 0.26 0.23 0.21 0.21 0.24 0.21 0.19 0.18 0.20 0.21 0.21 0.23 0.22 0.20 0.18 0.16 0.15 0.14 0.14 0.14 0.15 0.15 0.12 0.12 0.12 0.14 0.16 0.18 0.21 0.27 0.36 0.41 0.46 0.49 0.50 0.50 0.51 0.52 0.54 0.53
0.55 0.52 0.45 0.43 0.36 0.35 0.32 0.38 0.30 0.32 0.29 0.30 0.31 0.29 0.27 0.26 0.28 0.30 0.22 0.23 0.21 0.22 0.23 0.24 0.24 0.23 0.21 0.18 0.17 0.16 0.16 0.14 0.11 0.11 0.11 0.12 0.13 0.14 0.14 0.15 0.16 0.15 0.15 0.17 0.23 0.29 0.40 0.47 0.49 0.49 0.49 0.51 0.51 0.51
0.54 0.42 0.35 0.34 0.34 0.29 0.31 0.27 0.30 0.29 0.31 0.31 0.28 0.26 0.27 0.27 0.29 0.24 0.20 0.21 0.22 0.24 0.23 0.23 0.23 0.20 0.18 0.17 0.15 0.16 0.15 0.14 0.13 0.12 0.13 0.12 0.11 0.12 0.14 0.15 0.15 0.15 0.15 0.17 0.21 0.24 0.29 0.36 0.45 0.48 0.48 0.47 0.49 0.50
0.35 0.32 0.32 0.27 0.31 0.26 0.24 0.24 0.25 0.26 0.27 0.29 0.28 0.26 0.25 0.26 0.21 0.20 0.20 0.20 0.21 0.22 0.22 0.22 0.19 0.17 0.14 0.14 0.14 0.14 0.16 0.15 0.12 0.11 0.12 0.13 0.13 0.14 0.14 0.16 0.16 0.17 0.19 0.18 0.19 0.22 0.25 0.30 0.36 0.43 0.46 0.47 0.47 0.49
0.26 0.30 0.26 0.26 0.26 0.24 0.23 0.21 0.23 0.24 0.26 0.27 0.27 0.26 0.25 0.23 0.20 0.18 0.19 0.20 0.20 0.20 0.17 0.16 0.15 0.14 0.14 0.14 0.13 0.13 0.15 0.16 0.15 0.12 0.12 0.14 0.15 0.16 0.15 0.15 0.15 0.16 0.21 0.20 0.19 0.21 0.23 0.27 0.30 0.35 0.42 0.46 0.47 0.46
0.25 0.24 0.28 0.31 0.28 0.26 0.24 0.24 0.25 0.26 0.26 0.25 0.24 0.23 0.22 0.18 0.18 0.20 0.22 0.21 0.19 0.19 0.21 0.20 0.18 0.16 0.15 0.15 0.16 0.17 0.17 0.16 0.14 0.14 0.17 0.19 0.20 0.20 0.19 0.17 0.16 0.18 0.20 0.20 0.19 0.19 0.22 0.25 0.28 0.32 0.37 0.43 0.47 0.48
0.29 0.27 0.23 0.26 0.25 0.26 0.22 0.23 0.23 0.24 0.24 0.25 0.22 0.20 0.20 0.19 0.19 0.21 0.21 0.23 0.23 0.22 0.21 0.20 0.19 0.19 0.17 0.17 0.16 0.15 0.15 0.17 0.19 0.20 0.20 0.21 0.22 0.23 0.23 0.22 0.22 0.22 0.22 0.23 0.22 0.21 0.23 0.26 0.28 0.31 0.34 0.38 0.44 0.46
0.25 0.28 0.28 0.24 0.25 0.25 0.25 0.24 0.25 0.24 0.25 0.24 0.22 0.22 0.22 0.24 0.25 0.23 0.23 0.23 0.23 0.20 0.18 0.17 0.17 0.17 0.16 0.16 0.15 0.17 0.19 0.19 0.18 0.16 0.16 0.15 0.17 0.19 0.22 0.22 0.23 0.24 0.24 0.25 0.25 0.24 0.26 0.28 0.30 0.32 0.35 0.36 0.41 0.44
0.26 0.30 0.26 0.24 0.24 0.24 0.28 0.30 0.28 0.29 0.29 0.28 0.27 0.26 0.25 0.25 0.25 0.25 0.23 0.21 0.20 0.18 0.17 0.17 0.16 0.15 0.13 0.14 0.15 0.18 0.20 0.20 0.20 0.19 0.16 0.16 0.17 0.21 0.22 0.23 0.23 0.25 0.25 0.23 0.23 0.26 0.30 0.31 0.31 0.32 0.33 0.35 0.39 0.41
0.30 0.28 0.25 0.25 0.24 0.27 0.29 0.31 0.32 0.31 0.30 0.28 0.27 0.24 0.24 0.24 0.23 0.24 0.23 0.22 0.21 0.19 0.17 0.14 0.14 0.14 0.15 0.16 0.17 0.17 0.17 0.21 0.21 0.21 0.21 0.21 0.22 0.23 0.24 0.25 0.26 0.26 0.23 0.23 0.26 0.28 0.29 0.29 0.28 0.32 0.33 0.35 0.38 0.39
0.28 0.26 0.25 0.23 0.25 0.28 0.30 0.30 0.29 0.29 0.29 0.28 0.26 0.26 0.23 0.22 0.20 0.20 0.20 0.19 0.17 0.14 0.14 0.14 0.14 0.16 0.18 0.20 0.20 0.21 0.22 0.22 0.22 0.23 0.23 0.24 0.25 0.27 0.27 0.27 0.27 0.26 0.25 0.27 0.29 0.30 0.30 0.28 0.28 0.31 0.32 0.34 0.36 0.37
0.27 0.27 0.27 0.27 0.27 0.27 0.29 0.29 0.28 0.26 0.26 0.24 0.24 0.22 0.20 0.19 0.16 0.17 0.20 0.19 0.16 0.15 0.14 0.16 0.17 0.19 0.20 0.21 0.22 0.22 0.22 0.23 0.24 0.25 0.27 0.29 0.30 0.30 0.29 0.28 0.28 0.28 0.29 0.29 0.30 0.30 0.29 0.28 0.29 0.31 0.33 0.34 0.35 0.37

GFSWCAN_prec_pwat_018.txt.gz
Precipitable_Water
0.68 0.69 0.71 0.73 0.76 0.78 0.78 0.74 0.73 0.65 0.57 0.51 0.56 0.54 0.54 0.55 0.52 0.45 0.35 0.37 0.27 0.24 0.29 0.48 0.51 0.47 0.49 0.49 0.39 0.46 0.45 0.50 0.48 0.37 0.35 0.34 0.34 0.40 0.38 0.41 0.39 0.36 0.34 0.34 0.36 0.31 0.27 0.55 0.55 0.43 0.51 0.59 0.59 0.60
0.71 0.69 0.70 0.74 0.77 0.78 0.78 0.73 0.71 0.71 0.63 0.54 0.55 0.55 0.52 0.54 0.51 0.51 0.37 0.43 0.40 0.26 0.19 0.38 0.52 0.59 0.60 0.63 0.56 0.56 0.50 0.50 0.52 0.44 0.43 0.44 0.37 0.41 0.41 0.31 0.48 0.37 0.42 0.39 0.41 0.37 0.49 0.55 0.54 0.59 0.63 0.59 0.59 0.60
0.70 0.70 0.74 0.76 0.76 0.78 0.79 0.74 0.70 0.67 0.70 0.60 0.54 0.53 0.55 0.54 0.54 0.49 0.43 0.45 0.39 0.26 0.19 0.20 0.24 0.46 0.59 0.66 0.73 0.56 0.58 0.63 0.59 0.63 0.53 0.49 0.39 0.45 0.35 0.37 0.42 0.48 0.54 0.47 0.48 0.50 0.53 0.57 0.59 0.63 0.64 0.60 0.62 0.65
0.74 0.75 0.74 0.75 0.76 0.78 0.77 0.76 0.72 0.67 0.69 0.67 0.57 0.56 0.55 0.53 0.53 0.57 0.49 0.47 0.41 0.29 0.17 0.14 0.41 0.47 0.67 0.76 0.74 0.79 0.74 0.72 0.69 0.66 0.54 0.50 0.43 0.55 0.43 0.45 0.45 0.49 0.53 0.48 0.49 0.54 0.58 0.60 0.63 0.62 0.61 0.64 0.64 0.68
0.75 0.75 0.74 0.75 0.78 0.76 0.78 0.77 0.74 0.70 0.70 0.64 0.56 0.55 0.55 0.57 0.55 0.53 0.49 0.48 0.46 0.29 0.18 0.19 0.28 0.49 0.70 0.78 0.77 0.78 0.74 0.69 0.63 0.55 0.53 0.48 0.54 0.51 0.52 0.49 0.43 0.50 0.46 0.40 0.39 0.56 0.58 0.60 0.66 0.66 0.61 0.62 0.63 0.65
0.76 0.75 0.75 0.75 0.75 0.76 0.77 0.77 0.75 0.69 0.68 0.63 0.56 0.56 0.54 0.54 0.52 0.45 0.30 0.46 0.48 0.41 0.22 0.15 0.41 0.55 0.71 0.78 0.73 0.72 0.71 0.69 0.65 0.57 0.54 0.58 0.63 0.53 0.43 0.39 0.48 0.54 0.58 0.58 0.53 0.61 0.61 0.63 0.66 0.66 0.62 0.64 0.64 0.65
0.77 0.75 0.75 0.74 0.75 0.75 0.76 0.77 0.74 0.69 0.68 0.56 0.53 0.56 0.52 0.51 0.49 0.32 0.26 0.41 0.50 0.42 0.27 0.27 0.37 0.59 0.73 0.73 0.72 0.70 0.73 0.69 0.64 0.59 0.53 0.54 0.54 0.57 0.46 0.38 0.52 0.61 0.66 0.66 0.66 0.64 0.59 0.64 0.62 0.66 0.65 0.67 0.68 0.66
0.77 0.76 0.75 0.75 0.74 0.74 0.75 0.76 0.71 0.68 0.60 0.51 0.53 0.52 0.52 0.48 0.41 0.33 0.42 0.49 0.49 0.42 0.44 0.35 0.39 0.53 0.72 0.58 0.56 0.71 0.63 0.65 0.63 0.57 0.58 0.52 0.54 0.51 0.40 0.51 0.59 0.64 0.64 0.66 0.66 0.69 0.66 0.68 0.69 0.66 0.67 0.67 0.66 0.62
0.77 0.75 0.75 0.75 0.74 0.73 0.75 0.75 0.68 0.68 0.53 0.47 0.57 0.55 0.47 0.39 0.31 0.38 0.57 0.60 0.60 0.51 0.39 0.41 0.39 0.40 0.69 0.60 0.64 0.62 0.66 0.51 0.62 0.50 0.50 0.52 0.45 0.39 0.46 0.50 0.52 0.56 0.57 0.57 0.61 0.65 0.66 0.66 0.65 0.64 0.64 0.63 0.64 0.63
0.76 0.75 0.76 0.74 0.73 0.73 0.74 0.71 0.69 0.61 0.44 0.54 0.56 0.45 0.34 0.41 0.57 0.57 0.53 0.47 0.48 0.50 0.49 0.43 0.55 0.47 0.60 0.56 0.54 0.54 0.58 0.50 0.44 0.51 0.60 0.47 0.40 0.52 0.53 0.54 0.53 0.52 0.57 0.61 0.55 0.53 0.61 0.62 0.64 0.63 0.63 0.64 0.64 0.66
0.75 0.74 0.74 0.73 0.72 0.72 0.74 0.70 0.72 0.60 0.40 0.42 0.44 0.37 0.47 0.56 0.51 0.46 0.37 0.38 0.44 0.41 0.49 0.52 0.56 0.51 0.66 0.49 0.50 0.58 0.50 0.51 0.38 0.43 0.43 0.37 0.36 0.46 0.54 0.51 0.48 0.51 0.55 0.63 0.67 0.65 0.66 0.70 0.68 0.67 0.66 0.67 0.66 0.70
0.75 0.74 0.73 0.73 0.72 0.71 0.72 0.70 0.71 0.58 0.39 0.37 0.41 0.53 0.50 0.46 0.41 0.35 0.33 0.39 0.39 0.39 0.51 0.51 0.54 0.60 0.61 0.66 0.53 0.53 0.42 0.45 0.34 0.51 0.40 0.31 0.41 0.49 0.45 0.43 0.47 0.54 0.60 0.64 0.69 0.69 0.72 0.72 0.72 0.71 0.70 0.68 0.67 0.71
0.75 0.74 0.73 0.72 0.70 0.71 0.69 0.68 0.70 0.60 0.47 0.46 0.38 0.35 0.38 0.39 0.29 0.27 0.25 0.31 0.35 0.45 0.51 0.53 0.51 0.58 0.60 0.60 0.49 0.44 0.37 0.34 0.46 0.36 0.32 0.36 0.46 0.45 0.44 0.45 0.49 0.61 0.68 0.70 0.71 0.72 0.74 0.73 0.74 0.73 0.73 0.72 0.71 0.76
0.72 0.73 0.73 0.70 0.70 0.70 0.69 0.68 0.68 0.54 0.43 0.33 0.29 0.26 0.30 0.28 0.30 0.31 0.33 0.36 0.44 0.47 0.50 0.53 0.51 0.51 0.55 0.48 0.47 0.37 0.42 0.42 0.31 0.26 0.28 0.41 0.46 0.44 0.47 0.48 0.50 0.58 0.66 0.67 0.72 0.75 0.73 0.74 0.72 0.73 0.76 0.77 0.72 0.72
0.69 0.68 0.68 0.68 0.69 0.69 0.68 0.67 0.62 0.55 0.40 0.30 0.30 0.23 0.27 0.33 0.37 0.39 0.41 0.41 0.46 0.51 0.50 0.50 0.51 0.52 0.48 0.44 0.45 0.42 0.36 0.30 0.30 0.28 0.38 0.45 0.44 0.46 0.48 0.49 0.49 0.49 0.52 0.63 0.68 0.72 0.73 0.70 0.73 0.72 0.78 0.78 0.74 0.72
0.69 0.66 0.63 0.66 0.66 0.67 0.66 0.63 0.56 0.51 0.42 0.35 0.32 0.27 0.30 0.30 0.32 0.36 0.40 0.40 0.48 0.49 0.51 0.50 0.45 0.42 0.41 0.42 0.38 0.35 0.32 0.27 0.32 0.40 0.45 0.46 0.45 0.46 0.46 0.48 0.50 0.51 0.51 0.51 0.55 0.63 0.67 0.69 0.68 0.70 0.75 0.77 0.76 0.74
0.64 0.55 0.64 0.65 0.65 0.64 0.61 0.53 0.48 0.39 0.37 0.33 0.32 0.37 0.31 0.28 0.27 0.37 0.41 0.44 0.50 0.46 0.40 0.43 0.36 0.35 0.44 0.37 0.34 0.39 0.34 0.38 0.42 0.45 0.48 0.48 0.47 0.48 0.48 0.47 0.49 0.51 0.51 0.52 0.52 0.52 0.55 0.63 0.65 0.66 0.65 0.70 0.75 0.74
0.53 0.60 0.63 0.62 0.59 0.57 0.54 0.50 0.41 0.36 0.31 0.34 0.34 0.37 0.35 0.31 0.26 0.33 0.39 0.44 0.44 0.43 0.43 0.39 0.44 0.36 0.33 0.30 0.32 0.40 0.45 0.47 0.48 0.48 0.48 0.48 0.48 0.49 0.45 0.44 0.46 0.48 0.48 0.50 0.52 0.53 0.53 0.52 0.55 0.59 0.62 0.63 0.65 0.69
0.58 0.60 0.61 0.58 0.55 0.47 0.40 0.39 0.41 0.31 0.30 0.34 0.39 0.42 0.37 0.32 0.32 0.32 0.36 0.38 0.40 0.44 0.44 0.41 0.36 0.32 0.33 0.40 0.40 0.42 0.44 0.47 0.46 0.47 0.46 0.45 0.45 0.42 0.39 0.39 0.39 0.39 0.41 0.44 0.46 0.48 0.51 0.52 0.51 0.53 0.56 0.58 0.58 0.60
0.59 0.62 0.60 0.58 0.53 0.40 0.34 0.34 0.39 0.30 0.28 0.32 0.36 0.37 0.41 0.37 0.31 0.29 0.32 0.32 0.31 0.28 0.26 0.27 0.30 0.35 0.38 0.42 0.44 0.44 0.42 0.42 0.40 0.36 0.33 0.32 0.30 0.30 0.29 0.29 0.28 0.27 0.28 0.31 0.36 0.42 0.45 0.47 0.50 0.51 0.51 0.53 0.54 0.55
0.53 0.57 0.57 0.54 0.46 0.40 0.35 0.33 0.31 0.31 0.33 0.32 0.35 0.33 0.32 0.36 0.32 0.27 0.24 0.28 0.24 0.17 0.13 0.15 0.16 0.20 0.26 0.27 0.28 0.27 0.25 0.22 0.16 0.14 0.13 0.13 0.16 0.16 0.16 0.16 0.16 0.17 0.18 0.19 0.22 0.27 0.34 0.40 0.45 0.48 0.49 0.49 0.52 0.54
0.48 0.55 0.49 0.49 0.39 0.37 0.34 0.37 0.33 0.33 0.30 0.31 0.32 0.34 0.31 0.30 0.29 0.28 0.28 0.23 0.20 0.17 0.18 0.17 0.17 0.19 0.22 0.24 0.24 0.21 0.18 0.17 0.16 0.15 0.15 0.14 0.11 0.11 0.11 0.12 0.12 0.12 0.13 0.14 0.15 0.17 0.21 0.28 0.37 0.43 0.45 0.47 0.49 0.50
0.50 0.49 0.44 0.42 0.34 0.31 0.28 0.37 0.30 0.30 0.27 0.29 0.31 0.29 0.30 0.30 0.32 0.34 0.25 0.26 0.25 0.26 0.25 0.24 0.24 0.24 0.25 0.26 0.23 0.19 0.17 0.15 0.13 0.12 0.12 0.13 0.13 0.13 0.13 0.13 0.14 0.14 0.13 0.14 0.15 0.14 0.15 0.21 0.26 0.30 0.37 0.43 0.46 0.46
0.49 0.40 0.34 0.33 0.32 0.26 0.28 0.27 0.30 0.28 0.28 0.28 0.27 0.25 0.27 0.29 0.32 0.28 0.25 0.28 0.29 0.27 0.25 0.25 0.25 0.24 0.24 0.23 0.20 0.17 0.17 0.17 0.15 0.14 0.14 0.13 0.12 0.11 0.12 0.12 0.13 0.15 0.16 0.16 0.16 0.16 0.17 0.18 0.23 0.25 0.28 0.32 0.40 0.44
0.31 0.31 0.32 0.26 0.29 0.25 0.21 0.22 0.24 0.24 0.23 0.26 0.27 0.28 0.27 0.29 0.24 0.23 0.24 0.26 0.26 0.25 0.26 0.26 0.25 0.24 0.21 0.18 0.18 0.17 0.19 0.17 0.15 0.13 0.14 0.14 0.13 0.12 0.12 0.14 0.15 0.17 0.18 0.17 0.17 0.18 0.19 0.19 0.20 0.22 0.24 0.26 0.32 0.39
0.24 0.30 0.26 0.25 0.24 0.22 0.21 0.20 0.22 0.22 0.24 0.24 0.27 0.29 0.27 0.25 0.23 0.22 0.23 0.25 0.25 0.25 0.24 0.22 0.20 0.19 0.19 0.19 0.16 0.15 0.16 0.18 0.17 0.14 0.14 0.14 0.14 0.14 0.14 0.15 0.15 0.16 0.20 0.20 0.19 0.17 0.18 0.19 0.20 0.21 0.23 0.26 0.29 0.34
0.21 0.23 0.27 0.28 0.26 0.24 0.22 0.23 0.24 0.23 0.22 0.23 0.26 0.26 0.24 0.21 0.20 0.22 0.24 0.25 0.24 0.23 0.24 0.25 0.24 0.22 0.18 0.17 0.18 0.18 0.18 0.19 0.18 0.16 0.15 0.16 0.17 0.19 0.19 0.17 0.17 0.19 0.21 0.21 0.20 0.20 0.18 0.18 0.19 0.20 0.21 0.26 0.28 0.32
0.24 0.25 0.20 0.22 0.22 0.24 0.21 0.21 0.21 0.21 0.24 0.29 0.26 0.21 0.21 0.20 0.20 0.23 0.24 0.25 0.25 0.26 0.26 0.25 0.25 0.23 0.21 0.19 0.19 0.19 0.18 0.17 0.16 0.16 0.17 0.19 0.21 0.21 0.21 0.21 0.21 0.21 0.22 0.22 0.22 0.22 0.22 0.21 0.21 0.21 0.21 0.23 0.27 0.31
0.20 0.23 0.23 0.19 0.21 0.22 0.21 0.21 0.22 0.25 0.27 0.27 0.24 0.23 0.23 0.25 0.27 0.27 0.26 0.27 0.27 0.25 0.23 0.22 0.21 0.21 0.20 0.19 0.18 0.17 0.16 0.15 0.15 0.14 0.15 0.15 0.16 0.18 0.20 0.20 0.20 0.21 0.22 0.23 0.24 0.24 0.25 0.25 0.24 0.23 0.23 0.24 0.28 0.30
0.16 0.22 0.21 0.20 0.20 0.20 0.23 0.25 0.25 0.28 0.30 0.31 0.30 0.27 0.26 0.26 0.28 0.29 0.27 0.26 0.24 0.21 0.21 0.20 0.20 0.19 0.17 0.15 0.14 0.15 0.17 0.18 0.18 0.17 0.15 0.15 0.16 0.19 0.20 0.20 0.21 0.21 0.22 0.22 0.23 0.24 0.26 0.27 0.28 0.27 0.24 0.24 0.25 0.27
0.19 0.22 0.21 0.22 0.22 0.25 0.27 0.29 0.30 0.30 0.30 0.30 0.30 0.28 0.27 0.28 0.29 0.29 0.28 0.27 0.25 0.23 0.21 0.20 0.19 0.17 0.15 0.14 0.14 0.14 0.15 0.19 0.19 0.19 0.19 0.20 0.20 0.21 0.21 0.22 0.23 0.24 0.24 0.24 0.24 0.25 0.25 0.25 0.25 0.24 0.23 0.24 0.26 0.27
0.22 0.22 0.22 0.21 0.23 0.26 0.28 0.28 0.28 0.27 0.28 0.28 0.28 0.29 0.29 0.28 0.26 0.27 0.26 0.24 0.21 0.19 0.18 0.17 0.15 0.14 0.16 0.17 0.18 0.18 0.19 0.19 0.20 0.20 0.21 0.21 0.22 0.23 0.24 0.25 0.27 0.27 0.27 0.26 0.26 0.26 0.25 0.24 0.24 0.25 0.25 0.26 0.26 0.27
0.26 0.26 0.25 0.25 0.25 0.25 0.27 0.27 0.27 0.27 0.27 0.27 0.27 0.28 0.27 0.26 0.23 0.24 0.24 0.22 0.19 0.18 0.16 0.16 0.16 0.17 0.18 0.19 0.19 0.20 0.21 0.21 0.22 0.23 0.24 0.24 0.25 0.27 0.30 0.30 0.29 0.28 0.27 0.27 0.26 0.26 0.26 0.27 0.27 0.26 0.26 0.26 0.27 0.28

GFSWCAN_prec_pwat_021.txt.gz
Precipitable_Water
0.66 0.68 0.66 0.67 0.69 0.69 0.70 0.75 0.75 0.76 0.78 0.72 0.62 0.59 0.58 0.55 0.56 0.50 0.43 0.45 0.32 0.25 0.23 0.26 0.41 0.40 0.45 0.45 0.35 0.44 0.43 0.46 0.44 0.35 0.34 0.34 0.33 0.37 0.37 0.38 0.36 0.35 0.32 0.29 0.32 0.30 0.25 0.52 0.55 0.45 0.51 0.57 0.60 0.58
0.66 0.69 0.67 0.69 0.70 0.71 0.71 0.75 0.75 0.74 0.74 0.78 0.67 0.58 0.54 0.58 0.59 0.59 0.46 0.53 0.53 0.38 0.28 0.31 0.27 0.42 0.49 0.54 0.50 0.53 0.44 0.47 0.48 0.40 0.40 0.41 0.35 0.40 0.38 0.30 0.46 0.35 0.40 0.36 0.38 0.37 0.47 0.55 0.55 0.61 0.60 0.58 0.58 0.58
0.70 0.72 0.70 0.73 0.74 0.72 0.72 0.74 0.76 0.75 0.73 0.72 0.75 0.66 0.56 0.55 0.57 0.56 0.50 0.51 0.50 0.40 0.35 0.34 0.24 0.22 0.41 0.45 0.61 0.47 0.53 0.58 0.55 0.60 0.50 0.47 0.37 0.43 0.34 0.37 0.41 0.47 0.52 0.44 0.46 0.50 0.53 0.56 0.62 0.63 0.64 0.61 0.61 0.63
0.75 0.74 0.73 0.74 0.73 0.72 0.73 0.74 0.76 0.75 0.74 0.74 0.77 0.66 0.58 0.55 0.55 0.59 0.52 0.54 0.49 0.37 0.23 0.21 0.32 0.28 0.41 0.51 0.54 0.58 0.65 0.71 0.67 0.62 0.50 0.46 0.40 0.50 0.41 0.43 0.43 0.48 0.52 0.46 0.45 0.51 0.56 0.61 0.64 0.63 0.63 0.64 0.63 0.66
0.73 0.73 0.75 0.75 0.72 0.73 0.73 0.74 0.76 0.75 0.74 0.72 0.73 0.68 0.61 0.59 0.60 0.56 0.53 0.50 0.49 0.34 0.20 0.19 0.24 0.20 0.22 0.40 0.61 0.67 0.65 0.67 0.61 0.53 0.49 0.44 0.52 0.49 0.50 0.48 0.41 0.48 0.44 0.40 0.38 0.51 0.52 0.55 0.64 0.66 0.64 0.63 0.63 0.65
0.75 0.76 0.76 0.75 0.73 0.74 0.74 0.74 0.76 0.76 0.73 0.73 0.73 0.61 0.58 0.58 0.55 0.48 0.34 0.43 0.47 0.43 0.26 0.16 0.21 0.18 0.32 0.43 0.61 0.66 0.71 0.70 0.64 0.55 0.52 0.55 0.61 0.51 0.41 0.37 0.45 0.51 0.55 0.58 0.52 0.59 0.59 0.61 0.65 0.67 0.64 0.65 0.65 0.66
0.78 0.78 0.78 0.75 0.74 0.73 0.74 0.74 0.75 0.74 0.72 0.71 0.61 0.54 0.56 0.53 0.50 0.38 0.27 0.37 0.49 0.49 0.29 0.20 0.25 0.36 0.40 0.56 0.66 0.67 0.73 0.70 0.65 0.58 0.53 0.53 0.53 0.55 0.45 0.37 0.48 0.57 0.60 0.62 0.66 0.63 0.56 0.61 0.60 0.67 0.68 0.67 0.67 0.69
0.79 0.78 0.77 0.76 0.74 0.74 0.73 0.73 0.75 0.72 0.70 0.62 0.50 0.58 0.55 0.52 0.48 0.39 0.47 0.56 0.57 0.46 0.42 0.30 0.30 0.38 0.58 0.55 0.55 0.70 0.63 0.64 0.63 0.58 0.58 0.51 0.54 0.52 0.38 0.47 0.51 0.52 0.56 0.58 0.63 0.64 0.62 0.65 0.67 0.67 0.69 0.67 0.64 0.65
0.77 0.76 0.76 0.75 0.74 0.74 0.73 0.73 0.74 0.70 0.68 0.50 0.57 0.60 0.54 0.48 0.39 0.43 0.58 0.62 0.64 0.50 0.35 0.37 0.35 0.37 0.64 0.58 0.60 0.60 0.62 0.47 0.62 0.51 0.51 0.51 0.45 0.37 0.42 0.46 0.48 0.52 0.50 0.52 0.58 0.59 0.60 0.62 0.62 0.65 0.66 0.64 0.61 0.61
0.75 0.75 0.75 0.74 0.74 0.73 0.72 0.73 0.72 0.71 0.66 0.44 0.54 0.48 0.36 0.46 0.60 0.63 0.54 0.46 0.46 0.47 0.46 0.39 0.48 0.42 0.60 0.53 0.52 0.52 0.56 0.48 0.42 0.49 0.58 0.45 0.41 0.49 0.49 0.50 0.51 0.52 0.50 0.48 0.47 0.52 0.56 0.56 0.61 0.64 0.65 0.64 0.63 0.62
0.75 0.75 0.74 0.73 0.74 0.72 0.71 0.73 0.72 0.71 0.59 0.38 0.37 0.39 0.47 0.56 0.49 0.47 0.40 0.39 0.42 0.38 0.47 0.50 0.52 0.49 0.63 0.46 0.48 0.55 0.48 0.49 0.37 0.43 0.46 0.40 0.37 0.44 0.50 0.50 0.52 0.48 0.48 0.54 0.58 0.64 0.68 0.64 0.64 0.67 0.67 0.66 0.65 0.63
0.75 0.74 0.73 0.73 0.73 0.71 0.71 0.72 0.70 0.66 0.58 0.41 0.38 0.43 0.45 0.41 0.41 0.34 0.32 0.37 0.38 0.37 0.49 0.48 0.53 0.56 0.59 0.64 0.52 0.54 0.44 0.46 0.34 0.50 0.41 0.32 0.41 0.46 0.49 0.48 0.44 0.49 0.57 0.61 0.65 0.67 0.68 0.68 0.70 0.71 0.70 0.68 0.68 0.66
0.67 0.71 0.71 0.71 0.71 0.70 0.70 0.69 0.69 0.69 0.60 0.51 0.42 0.34 0.33 0.36 0.30 0.27 0.24 0.29 0.34 0.45 0.50 0.51 0.49 0.56 0.60 0.60 0.51 0.48 0.38 0.36 0.47 0.37 0.33 0.38 0.45 0.48 0.45 0.44 0.47 0.60 0.63 0.65 0.66 0.70 0.71 0.73 0.74 0.73 0.70 0.71 0.72 0.68
0.65 0.68 0.67 0.68 0.71 0.69 0.69 0.68 0.68 0.62 0.52 0.37 0.31 0.25 0.28 0.28 0.31 0.31 0.32 0.34 0.43 0.46 0.50 0.52 0.51 0.51 0.55 0.50 0.49 0.37 0.41 0.42 0.31 0.27 0.27 0.38 0.45 0.46 0.47 0.50 0.50 0.51 0.56 0.61 0.65 0.72 0.73 0.75 0.73 0.73 0.73 0.74 0.74 0.70
0.63 0.66 0.66 0.66 0.67 0.68 0.68 0.67 0.65 0.57 0.47 0.33 0.32 0.24 0.26 0.34 0.38 0.39 0.40 0.39 0.44 0.49 0.49 0.49 0.51 0.52 0.48 0.44 0.45 0.41 0.35 0.30 0.31 0.28 0.35 0.44 0.47 0.46 0.47 0.48 0.50 0.50 0.50 0.51 0.59 0.65 0.69 0.71 0.71 0.72 0.74 0.76 0.75 0.73
0.58 0.64 0.61 0.63 0.65 0.66 0.66 0.63 0.59 0.53 0.45 0.37 0.34 0.28 0.31 0.30 0.31 0.34 0.36 0.37 0.46 0.46 0.50 0.50 0.45 0.42 0.40 0.42 0.37 0.34 0.32 0.29 0.33 0.39 0.45 0.48 0.46 0.44 0.46 0.46 0.47 0.50 0.51 0.52 0.53 0.54 0.58 0.64 0.66 0.68 0.72 0.74 0.74 0.73
0.57 0.52 0.62 0.63 0.64 0.64 0.62 0.54 0.49 0.40 0.36 0.34 0.31 0.37 0.36 0.36 0.29 0.29 0.35 0.42 0.50 0.44 0.38 0.42 0.35 0.34 0.43 0.36 0.34 0.39 0.35 0.40 0.43 0.45 0.48 0.48 0.47 0.47 0.48 0.45 0.46 0.48 0.49 0.50 0.51 0.53 0.53 0.54 0.56 0.62 0.64 0.67 0.72 0.74
0.44 0.55 0.62 0.63 0.59 0.56 0.52 0.49 0.42 0.36 0.29 0.32 0.31 0.34 0.37 0.41 0.36 0.30 0.33 0.42 0.45 0.43 0.42 0.38 0.43 0.35 0.32 0.30 0.34 0.40 0.44 0.47 0.49 0.48 0.48 0.48 0.48 0.49 0.46 0.42 0.42 0.41 0.40 0.42 0.44 0.46 0.49 0.50 0.51 0.51 0.54 0.63 0.65 0.68
0.45 0.55 0.61 0.60 0.57 0.47 0.37 0.37 0.40 0.30 0.30 0.32 0.34 0.35 0.38 0.42 0.45 0.38 0.32 0.37 0.43 0.47 0.44 0.40 0.35 0.32 0.33 0.39 0.40 0.43 0.46 0.47 0.46 0.49 0.49 0.48 0.48 0.45 0.42 0.39 0.37 0.33 0.32 0.32 0.33 0.35 0.37 0.41 0.44 0.49 0.51 0.51 0.53 0.60
0.52 0.56 0.58 0.59 0.57 0.41 0.33 0.31 0.36 0.28 0.26 0.29 0.33 0.34 0.35 0.38 0.43 0.42 0.32 0.31 0.33 0.34 0.33 0.31 0.33 0.37 0.39 0.42 0.46 0.45 0.46 0.46 0.42 0.38 0.36 0.37 0.37 0.34 0.29 0.27 0.24 0.23 0.23 0.24 0.24 0.26 0.28 0.30 0.36 0.41 0.45 0.48 0.48 0.49
0.51 0.51 0.52 0.53 0.48 0.44 0.35 0.30 0.27 0.28 0.28 0.28 0.33 0.35 0.35 0.36 0.36 0.38 0.32 0.31 0.30 0.25 0.20 0.22 0.26 0.30 0.36 0.36 0.36 0.34 0.34 0.33 0.29 0.25 0.19 0.16 0.17 0.17 0.16 0.16 0.15 0.14 0.14 0.14 0.14 0.14 0.15 0.17 0.21 0.28 0.34 0.41 0.46 0.47
0.41 0.47 0.44 0.48 0.39 0.39 0.34 0.34 0.29 0.31 0.28 0.29 0.30 0.31 0.30 0.30 0.32 0.34 0.38 0.33 0.28 0.24 0.24 0.20 0.19 0.16 0.16 0.17 0.20 0.23 0.24 0.21 0.19 0.17 0.16 0.15 0.12 0.11 0.11 0.11 0.11 0.10 0.11 0.13 0.14 0.13 0.13 0.14 0.14 0.19 0.24 0.29 0.36 0.42
0.42 0.42 0.37 0.39 0.33 0.31 0.28 0.35 0.28 0.29 0.25 0.26 0.29 0.27 0.29 0.30 0.32 0.36 0.31 0.32 0.31 0.31 0.25 0.23 0.23 0.23 0.21 0.24 0.26 0.25 0.22 0.19 0.17 0.16 0.14 0.13 0.13 0.14 0.13 0.13 0.13 0.12 0.11 0.12 0.14 0.14 0.14 0.16 0.17 0.17 0.20 0.23 0.25 0.29
0.45 0.34 0.29 0.30 0.30 0.25 0.28 0.25 0.28 0.26 0.26 0.25 0.25 0.23 0.25 0.27 0.32 0.29 0.26 0.28 0.31 0.34 0.34 0.32 0.28 0.26 0.26 0.26 0.24 0.23 0.22 0.21 0.18 0.16 0.15 0.14 0.13 0.13 0.13 0.13 0.13 0.13 0.14 0.15 0.16 0.16 0.16 0.17 0.19 0.19 0.19 0.19 0.21 0.23
0.29 0.28 0.29 0.23 0.27 0.23 0.20 0.20 0.21 0.22 0.21 0.23 0.24 0.25 0.27 0.29 0.25 0.25 0.24 0.27 0.30 0.30 0.31 0.29 0.28 0.27 0.24 0.24 0.25 0.24 0.22 0.19 0.17 0.16 0.17 0.17 0.15 0.14 0.13 0.13 0.14 0.15 0.18 0.17 0.16 0.16 0.17 0.18 0.18 0.18 0.19 0.19 0.19 0.22
0.22 0.29 0.25 0.24 0.22 0.21 0.19 0.17 0.18 0.19 0.22 0.22 0.24 0.27 0.27 0.24 0.22 0.22 0.23 0.25 0.26 0.27 0.28 0.27 0.25 0.25 0.24 0.24 0.22 0.20 0.21 0.22 0.20 0.16 0.16 0.17 0.17 0.15 0.13 0.13 0.14 0.15 0.19 0.19 0.19 0.18 0.18 0.18 0.18 0.17 0.17 0.19 0.21 0.21
0.19 0.22 0.27 0.29 0.25 0.23 0.20 0.20 0.21 0.20 0.20 0.20 0.23 0.25 0.24 0.22 0.21 0.23 0.24 0.25 0.25 0.26 0.27 0.27 0.25 0.25 0.23 0.23 0.24 0.24 0.23 0.22 0.20 0.18 0.19 0.19 0.18 0.17 0.16 0.16 0.16 0.18 0.20 0.20 0.19 0.19 0.18 0.18 0.18 0.18 0.18 0.19 0.21 0.22
0.19 0.22 0.17 0.21 0.23 0.23 0.19 0.18 0.17 0.18 0.19 0.23 0.25 0.22 0.24 0.23 0.20 0.22 0.24 0.27 0.26 0.26 0.26 0.28 0.30 0.30 0.28 0.26 0.25 0.24 0.22 0.22 0.21 0.20 0.18 0.16 0.16 0.19 0.20 0.20 0.20 0.20 0.21 0.21 0.20 0.20 0.19 0.19 0.19 0.20 0.20 0.20 0.21 0.23
0.17 0.19 0.18 0.16 0.18 0.20 0.19 0.17 0.17 0.19 0.23 0.25 0.24 0.23 0.25 0.27 0.28 0.28 0.28 0.29 0.29 0.28 0.27 0.26 0.26 0.26 0.25 0.24 0.23 0.22 0.20 0.18 0.16 0.13 0.12 0.13 0.15 0.17 0.19 0.19 0.19 0.19 0.19 0.19 0.20 0.21 0.22 0.22 0.22 0.21 0.22 0.22 0.23 0.24
0.15 0.19 0.16 0.15 0.14 0.13 0.17 0.19 0.18 0.21 0.25 0.27 0.27 0.27 0.28 0.29 0.32 0.32 0.29 0.28 0.27 0.26 0.25 0.25 0.24 0.22 0.20 0.19 0.19 0.19 0.19 0.17 0.17 0.16 0.15 0.15 0.15 0.17 0.18 0.18 0.18 0.19 0.20 0.20 0.20 0.20 0.22 0.22 0.23 0.23 0.23 0.24 0.24 0.24
0.18 0.18 0.16 0.15 0.14 0.15 0.17 0.19 0.22 0.23 0.24 0.25 0.27 0.26 0.26 0.29 0.32 0.33 0.33 0.33 0.32 0.30 0.27 0.25 0.23 0.22 0.21 0.20 0.18 0.15 0.14 0.17 0.18 0.18 0.18 0.18 0.18 0.18 0.19 0.19 0.20 0.22 0.22 0.22 0.21 0.22 0.22 0.23 0.23 0.23 0.24 0.24 0.25 0.25
0.20 0.17 0.14 0.13 0.13 0.16 0.18 0.17 0.20 0.22 0.23 0.24 0.25 0.27 0.28 0.27 0.26 0.30 0.33 0.33 0.31 0.27 0.25 0.23 0.21 0.20 0.20 0.18 0.17 0.17 0.19 0.19 0.19 0.19 0.19 0.19 0.20 0.21 0.22 0.22 0.23 0.24 0.24 0.25 0.26 0.26 0.25 0.25 0.25 0.26 0.26 0.25 0.25 0.24
0.22 0.21 0.17 0.15 0.15 0.15 0.16 0.19 0.21 0.23 0.25 0.25 0.26 0.27 0.27 0.26 0.25 0.29 0.32 0.32 0.29 0.25 0.21 0.20 0.19 0.18 0.17 0.18 0.18 0.19 0.20 0.20 0.20 0.21 0.22 0.23 0.25 0.25 0.26 0.26 0.27 0.28 0.28 0.27 0.26 0.25 0.25 0.25 0.24 0.25 0.25 0.25 0.25 0.25

GFSWCAN_prec_pwat_024.txt.gz
Precipitable_Water
0.71 0.65 0.63 0.65 0.66 0.69 0.68 0.68 0.70 0.71 0.71 0.74 0.80 0.77 0.69 0.59 0.56 0.53 0.45 0.48 0.39 0.30 0.28 0.29 0.31 0.27 0.36 0.42 0.34 0.41 0.40 0.43 0.42 0.35 0.33 0.32 0.31 0.36 0.34 0.36 0.34 0.31 0.29 0.29 0.29 0.24 0.20 0.48 0.49 0.44 0.55 0.61 0.60 0.58
0.71 0.64 0.65 0.67 0.68 0.72 0.71 0.69 0.71 0.71 0.70 0.74 0.76 0.79 0.77 0.67 0.56 0.61 0.48 0.56 0.56 0.44 0.37 0.41 0.39 0.35 0.30 0.45 0.42 0.49 0.42 0.41 0.42 0.36 0.37 0.38 0.33 0.37 0.35 0.28 0.44 0.31 0.36 0.33 0.35 0.32 0.41 0.54 0.54 0.60 0.63 0.61 0.60 0.58
0.70 0.70 0.70 0.71 0.72 0.71 0.69 0.70 0.72 0.73 0.72 0.72 0.73 0.79 0.76 0.71 0.66 0.58 0.53 0.54 0.54 0.45 0.43 0.44 0.36 0.39 0.40 0.35 0.47 0.40 0.51 0.56 0.51 0.54 0.45 0.43 0.34 0.41 0.31 0.33 0.37 0.44 0.50 0.40 0.41 0.45 0.49 0.56 0.61 0.65 0.67 0.63 0.64 0.63
0.72 0.72 0.75 0.74 0.73 0.72 0.71 0.72 0.72 0.73 0.73 0.74 0.73 0.75 0.78 0.73 0.68 0.67 0.59 0.59 0.53 0.43 0.29 0.24 0.33 0.29 0.39 0.40 0.40 0.45 0.54 0.62 0.62 0.60 0.48 0.42 0.36 0.47 0.38 0.40 0.39 0.45 0.49 0.44 0.42 0.48 0.52 0.57 0.63 0.65 0.66 0.65 0.65 0.65
0.71 0.73 0.73 0.73 0.74 0.74 0.72 0.71 0.72 0.73 0.74 0.74 0.73 0.74 0.75 0.67 0.63 0.64 0.56 0.51 0.50 0.35 0.22 0.24 0.31 0.27 0.27 0.28 0.30 0.41 0.50 0.54 0.52 0.52 0.46 0.41 0.47 0.46 0.47 0.46 0.40 0.47 0.42 0.38 0.37 0.49 0.50 0.53 0.60 0.66 0.64 0.64 0.65 0.64
0.69 0.73 0.75 0.74 0.74 0.74 0.73 0.72 0.72 0.73 0.74 0.72 0.72 0.75 0.67 0.60 0.60 0.49 0.34 0.44 0.48 0.48 0.32 0.24 0.33 0.27 0.23 0.24 0.23 0.29 0.53 0.57 0.55 0.56 0.50 0.52 0.56 0.47 0.38 0.36 0.45 0.49 0.53 0.55 0.49 0.57 0.56 0.59 0.63 0.65 0.64 0.65 0.67 0.66
0.72 0.73 0.76 0.76 0.77 0.75 0.74 0.73 0.73 0.72 0.75 0.71 0.74 0.63 0.58 0.58 0.49 0.40 0.35 0.43 0.53 0.54 0.35 0.25 0.25 0.39 0.38 0.25 0.27 0.40 0.58 0.61 0.62 0.60 0.51 0.50 0.51 0.51 0.42 0.34 0.47 0.52 0.54 0.56 0.58 0.58 0.57 0.62 0.56 0.63 0.66 0.67 0.69 0.68
0.75 0.76 0.77 0.78 0.76 0.75 0.73 0.72 0.72 0.73 0.72 0.73 0.63 0.54 0.60 0.58 0.53 0.42 0.50 0.57 0.57 0.44 0.39 0.28 0.29 0.34 0.42 0.29 0.32 0.57 0.55 0.59 0.60 0.55 0.56 0.50 0.53 0.49 0.36 0.45 0.49 0.52 0.52 0.52 0.55 0.58 0.59 0.62 0.62 0.63 0.66 0.66 0.66 0.65
0.76 0.76 0.76 0.75 0.76 0.73 0.73 0.72 0.72 0.73 0.72 0.72 0.53 0.59 0.57 0.53 0.44 0.47 0.61 0.63 0.60 0.44 0.34 0.36 0.30 0.28 0.52 0.43 0.54 0.55 0.60 0.46 0.62 0.51 0.51 0.52 0.44 0.35 0.42 0.46 0.46 0.49 0.48 0.49 0.52 0.52 0.53 0.56 0.58 0.60 0.63 0.63 0.63 0.63
0.69 0.74 0.73 0.74 0.73 0.73 0.73 0.71 0.72 0.72 0.71 0.63 0.50 0.45 0.39 0.47 0.58 0.59 0.56 0.46 0.46 0.45 0.44 0.38 0.47 0.40 0.52 0.54 0.51 0.51 0.55 0.47 0.39 0.47 0.56 0.45 0.39 0.48 0.48 0.49 0.49 0.49 0.50 0.49 0.42 0.42 0.48 0.53 0.57 0.58 0.62 0.65 0.66 0.65
0.63 0.65 0.71 0.73 0.72 0.73 0.71 0.70 0.71 0.70 0.65 0.52 0.40 0.34 0.43 0.53 0.45 0.46 0.39 0.37 0.40 0.36 0.44 0.46 0.49 0.45 0.62 0.46 0.47 0.54 0.45 0.46 0.35 0.41 0.41 0.38 0.35 0.44 0.50 0.48 0.49 0.50 0.50 0.48 0.51 0.58 0.59 0.63 0.64 0.62 0.64 0.68 0.70 0.67
0.59 0.61 0.64 0.67 0.70 0.72 0.70 0.69 0.70 0.64 0.60 0.58 0.51 0.49 0.42 0.36 0.36 0.34 0.33 0.37 0.37 0.35 0.46 0.45 0.49 0.54 0.57 0.62 0.50 0.50 0.42 0.44 0.31 0.49 0.40 0.31 0.39 0.49 0.49 0.47 0.48 0.47 0.47 0.58 0.62 0.62 0.63 0.65 0.69 0.67 0.69 0.71 0.69 0.68
0.56 0.61 0.63 0.64 0.66 0.69 0.69 0.68 0.68 0.67 0.63 0.58 0.48 0.39 0.35 0.33 0.27 0.27 0.25 0.29 0.31 0.43 0.47 0.48 0.46 0.53 0.57 0.57 0.49 0.47 0.39 0.36 0.48 0.38 0.32 0.36 0.45 0.48 0.49 0.48 0.44 0.50 0.61 0.63 0.63 0.63 0.68 0.68 0.72 0.72 0.70 0.70 0.71 0.68
0.53 0.61 0.64 0.64 0.65 0.66 0.67 0.67 0.66 0.62 0.51 0.40 0.32 0.27 0.30 0.28 0.31 0.33 0.33 0.35 0.41 0.43 0.47 0.49 0.48 0.48 0.53 0.48 0.48 0.39 0.43 0.42 0.32 0.27 0.28 0.38 0.44 0.49 0.47 0.48 0.48 0.49 0.51 0.56 0.59 0.63 0.68 0.70 0.72 0.74 0.74 0.73 0.71 0.70
0.52 0.55 0.62 0.62 0.64 0.65 0.66 0.65 0.63 0.56 0.46 0.36 0.32 0.25 0.28 0.33 0.36 0.39 0.41 0.39 0.41 0.46 0.45 0.47 0.49 0.50 0.47 0.44 0.45 0.43 0.36 0.31 0.32 0.30 0.35 0.42 0.47 0.47 0.46 0.47 0.48 0.50 0.51 0.51 0.52 0.54 0.60 0.65 0.70 0.72 0.73 0.73 0.73 0.71
0.48 0.52 0.56 0.62 0.62 0.63 0.63 0.61 0.57 0.51 0.43 0.36 0.35 0.29 0.32 0.31 0.30 0.34 0.33 0.33 0.43 0.44 0.47 0.47 0.43 0.41 0.40 0.42 0.37 0.34 0.32 0.29 0.34 0.40 0.44 0.48 0.48 0.46 0.47 0.46 0.47 0.49 0.49 0.49 0.51 0.53 0.54 0.55 0.57 0.61 0.67 0.69 0.72 0.72
0.50 0.44 0.57 0.60 0.61 0.61 0.60 0.53 0.48 0.39 0.34 0.31 0.29 0.35 0.34 0.33 0.32 0.35 0.38 0.33 0.44 0.43 0.37 0.41 0.35 0.35 0.44 0.37 0.34 0.39 0.35 0.40 0.45 0.46 0.48 0.49 0.49 0.48 0.48 0.45 0.45 0.44 0.43 0.43 0.44 0.47 0.48 0.51 0.53 0.53 0.52 0.57 0.67 0.70
0.41 0.49 0.58 0.59 0.57 0.55 0.51 0.47 0.39 0.34 0.27 0.29 0.28 0.31 0.35 0.37 0.36 0.39 0.43 0.39 0.36 0.41 0.42 0.37 0.41 0.35 0.32 0.30 0.33 0.40 0.44 0.47 0.49 0.49 0.50 0.50 0.49 0.50 0.47 0.44 0.43 0.40 0.38 0.37 0.36 0.37 0.39 0.39 0.40 0.42 0.47 0.51 0.53 0.58
0.42 0.50 0.57 0.59 0.56 0.48 0.40 0.38 0.37 0.26 0.26 0.29 0.31 0.34 0.34 0.34 0.40 0.43 0.44 0.43 0.37 0.43 0.43 0.39 0.34 0.31 0.33 0.38 0.39 0.43 0.45 0.46 0.45 0.47 0.48 0.49 0.49 0.48 0.46 0.44 0.41 0.35 0.32 0.31 0.30 0.29 0.29 0.32 0.33 0.34 0.37 0.41 0.45 0.49
0.48 0.52 0.56 0.57 0.57 0.43 0.34 0.34 0.38 0.28 0.21 0.25 0.30 0.30 0.32 0.34 0.39 0.41 0.41 0.42 0.39 0.31 0.32 0.32 0.32 0.37 0.40 0.43 0.46 0.47 0.47 0.48 0.46 0.42 0.40 0.40 0.39 0.37 0.34 0.29 0.26 0.25 0.25 0.25 0.23 0.21 0.19 0.18 0.20 0.22 0.26 0.29 0.33 0.40
0.46 0.50 0.52 0.51 0.47 0.43 0.37 0.31 0.29 0.28 0.25 0.24 0.29 0.29 0.29 0.33 0.33 0.35 0.37 0.41 0.36 0.30 0.24 0.23 0.27 0.39 0.45 0.46 0.46 0.43 0.41 0.40 0.37 0.35 0.31 0.28 0.26 0.22 0.20 0.19 0.18 0.17 0.15 0.15 0.14 0.13 0.13 0.13 0.13 0.14 0.15 0.19 0.24 0.27
0.41 0.46 0.44 0.46 0.38 0.38 0.34 0.34 0.28 0.29 0.26 0.25 0.26 0.28 0.26 0.26 0.28 0.32 0.37 0.34 0.33 0.34 0.36 0.27 0.23 0.21 0.25 0.28 0.31 0.31 0.31 0.31 0.28 0.25 0.22 0.19 0.15 0.14 0.13 0.13 0.12 0.12 0.12 0.12 0.12 0.11 0.12 0.14 0.15 0.16 0.16 0.17 0.20 0.22
0.44 0.42 0.40 0.37 0.30 0.30 0.27 0.33 0.25 0.25 0.22 0.22 0.24 0.23 0.24 0.26 0.28 0.33 0.29 0.31 0.33 0.36 0.39 0.38 0.32 0.25 0.21 0.20 0.20 0.21 0.23 0.22 0.20 0.18 0.17 0.16 0.16 0.15 0.14 0.14 0.14 0.13 0.12 0.12 0.14 0.14 0.14 0.16 0.16 0.17 0.18 0.18 0.17 0.18
0.45 0.33 0.27 0.27 0.28 0.24 0.27 0.23 0.25 0.23 0.22 0.22 0.22 0.19 0.21 0.23 0.28 0.26 0.24 0.27 0.31 0.34 0.35 0.36 0.36 0.31 0.29 0.28 0.26 0.25 0.26 0.25 0.21 0.20 0.19 0.17 0.15 0.15 0.15 0.14 0.15 0.14 0.14 0.14 0.15 0.15 0.16 0.16 0.18 0.18 0.18 0.17 0.18 0.17
0.27 0.27 0.28 0.25 0.29 0.24 0.21 0.19 0.20 0.19 0.17 0.20 0.20 0.20 0.23 0.26 0.23 0.23 0.23 0.27 0.29 0.27 0.30 0.33 0.34 0.33 0.31 0.27 0.26 0.26 0.29 0.26 0.22 0.19 0.19 0.19 0.17 0.17 0.16 0.16 0.16 0.16 0.16 0.16 0.17 0.17 0.17 0.17 0.18 0.18 0.18 0.17 0.17 0.18
0.21 0.27 0.25 0.24 0.23 0.21 0.21 0.17 0.17 0.17 0.18 0.18 0.20 0.23 0.24 0.22 0.20 0.21 0.24 0.26 0.25 0.27 0.28 0.28 0.29 0.28 0.27 0.27 0.26 0.26 0.27 0.27 0.23 0.20 0.19 0.20 0.19 0.17 0.16 0.15 0.14 0.14 0.19 0.20 0.19 0.18 0.18 0.18 0.18 0.17 0.17 0.18 0.18 0.18
0.20 0.22 0.27 0.30 0.27 0.25 0.23 0.22 0.21 0.20 0.17 0.17 0.19 0.21 0.21 0.19 0.19 0.24 0.25 0.24 0.24 0.26 0.27 0.28 0.27 0.26 0.25 0.27 0.29 0.29 0.27 0.26 0.24 0.23 0.23 0.22 0.21 0.21 0.20 0.17 0.15 0.17 0.21 0.20 0.19 0.18 0.17 0.17 0.17 0.18 0.18 0.18 0.18 0.19
0.22 0.21 0.17 0.21 0.23 0.24 0.21 0.20 0.19 0.18 0.18 0.20 0.20 0.18 0.19 0.21 0.22 0.24 0.27 0.29 0.30 0.26 0.26 0.29 0.30 0.31 0.30 0.30 0.29 0.28 0.27 0.27 0.27 0.25 0.24 0.22 0.21 0.20 0.19 0.19 0.20 0.21 0.21 0.20 0.20 0.19 0.19 0.18 0.18 0.18 0.18 0.18 0.18 0.20
0.16 0.19 0.18 0.15 0.17 0.19 0.20 0.18 0.17 0.18 0.20 0.20 0.17 0.17 0.19 0.24 0.27 0.28 0.29 0.30 0.32 0.31 0.27 0.26 0.27 0.28 0.29 0.29 0.28 0.27 0.26 0.24 0.22 0.19 0.17 0.15 0.14 0.16 0.19 0.20 0.20 0.20 0.19 0.19 0.19 0.20 0.19 0.19 0.19 0.19 0.19 0.20 0.21 0.22
0.15 0.19 0.16 0.15 0.14 0.13 0.15 0.19 0.17 0.19 0.20 0.21 0.21 0.20 0.21 0.23 0.27 0.30 0.30 0.31 0.32 0.32 0.30 0.28 0.28 0.28 0.27 0.24 0.23 0.22 0.22 0.22 0.22 0.19 0.15 0.14 0.15 0.18 0.19 0.19 0.19 0.19 0.19 0.19 0.18 0.19 0.20 0.20 0.20 0.20 0.20 0.21 0.21 0.22
0.18 0.18 0.16 0.15 0.13 0.15 0.17 0.19 0.19 0.19 0.17 0.15 0.16 0.16 0.18 0.22 0.25 0.29 0.29 0.31 0.33 0.33 0.33 0.32 0.32 0.31 0.28 0.25 0.23 0.21 0.20 0.22 0.21 0.19 0.18 0.18 0.19 0.19 0.19 0.20 0.20 0.20 0.20 0.20 0.20 0.20 0.20 0.20 0.20 0.21 0.21 0.22 0.23 0.23
0.16 0.15 0.14 0.13 0.13 0.17 0.18 0.17 0.17 0.16 0.15 0.14 0.15 0.17 0.19 0.20 0.20 0.25 0.29 0.31 0.31 0.31 0.32 0.31 0.29 0.27 0.26 0.25 0.23 0.22 0.22 0.19 0.18 0.19 0.19 0.19 0.19 0.20 0.21 0.22 0.23 0.22 0.22 0.22 0.23 0.23 0.23 0.24 0.24 0.24 0.24 0.24 0.25 0.25
0.17 0.16 0.15 0.16 0.17 0.16 0.17 0.16 0.16 0.15 0.15 0.14 0.15 0.18 0.20 0.22 0.21 0.27 0.30 0.32 0.31 0.31 0.31 0.30 0.28 0.25 0.22 0.20 0.19 0.18 0.19 0.20 0.20 0.20 0.21 0.22 0.22 0.23 0.24 0.24 0.25 0.25 0.25 0.26 0.26 0.27 0.26 0.24 0.24 0.24 0.24 0.24 0.25 0.26

GFSWCAN_prec_pwat_027.txt.gz
Precipitable_Water
0.73 0.72 0.66 0.64 0.66 0.67 0.70 0.69 0.67 0.68 0.70 0.71 0.71 0.71 0.76 0.75 0.70 0.60 0.50 0.50 0.40 0.31 0.28 0.31 0.34 0.26 0.26 0.34 0.30 0.40 0.40 0.42 0.41 0.33 0.32 0.32 0.29 0.33 0.31 0.34 0.32 0.30 0.28 0.27 0.28 0.23 0.18 0.39 0.43 0.41 0.53 0.60 0.62 0.62
0.74 0.74 0.65 0.66 0.69 0.73 0.71 0.69 0.68 0.69 0.72 0.72 0.71 0.71 0.75 0.74 0.73 0.72 0.52 0.55 0.53 0.41 0.36 0.42 0.42 0.42 0.38 0.32 0.39 0.45 0.42 0.40 0.42 0.35 0.34 0.35 0.31 0.36 0.34 0.25 0.43 0.30 0.33 0.31 0.33 0.31 0.39 0.48 0.50 0.58 0.61 0.61 0.64 0.63
0.71 0.71 0.68 0.70 0.73 0.76 0.73 0.70 0.69 0.71 0.72 0.73 0.72 0.69 0.72 0.76 0.74 0.69 0.61 0.65 0.63 0.52 0.46 0.46 0.40 0.44 0.47 0.45 0.44 0.37 0.48 0.56 0.49 0.54 0.42 0.39 0.31 0.38 0.29 0.31 0.36 0.42 0.46 0.37 0.38 0.42 0.45 0.49 0.55 0.61 0.65 0.64 0.67 0.67
0.67 0.67 0.69 0.69 0.72 0.75 0.73 0.72 0.69 0.69 0.71 0.74 0.72 0.72 0.72 0.74 0.74 0.70 0.62 0.67 0.60 0.49 0.37 0.31 0.38 0.32 0.38 0.40 0.38 0.39 0.48 0.62 0.60 0.56 0.45 0.41 0.34 0.44 0.35 0.38 0.36 0.42 0.46 0.41 0.40 0.46 0.50 0.53 0.57 0.61 0.65 0.67 0.67 0.66
0.66 0.66 0.67 0.67 0.70 0.73 0.73 0.72 0.71 0.70 0.70 0.73 0.71 0.70 0.72 0.74 0.69 0.65 0.63 0.62 0.60 0.42 0.28 0.28 0.38 0.37 0.38 0.36 0.31 0.31 0.32 0.44 0.50 0.51 0.45 0.40 0.44 0.42 0.43 0.42 0.36 0.45 0.41 0.38 0.37 0.49 0.49 0.50 0.57 0.62 0.61 0.63 0.66 0.65
0.62 0.65 0.68 0.70 0.71 0.75 0.75 0.73 0.72 0.71 0.71 0.73 0.71 0.71 0.72 0.58 0.64 0.56 0.41 0.49 0.53 0.51 0.33 0.26 0.34 0.33 0.35 0.37 0.30 0.27 0.26 0.32 0.46 0.49 0.51 0.51 0.54 0.45 0.35 0.31 0.42 0.47 0.51 0.51 0.47 0.57 0.55 0.57 0.60 0.64 0.60 0.60 0.64 0.66
0.58 0.63 0.70 0.73 0.73 0.75 0.75 0.73 0.72 0.71 0.71 0.71 0.72 0.70 0.56 0.64 0.58 0.44 0.38 0.47 0.57 0.53 0.36 0.26 0.27 0.37 0.38 0.33 0.27 0.24 0.25 0.30 0.46 0.49 0.52 0.51 0.50 0.49 0.40 0.30 0.42 0.48 0.50 0.51 0.54 0.55 0.50 0.56 0.56 0.63 0.62 0.63 0.66 0.67
0.58 0.63 0.69 0.75 0.75 0.75 0.74 0.72 0.72 0.71 0.71 0.71 0.72 0.66 0.60 0.62 0.61 0.50 0.56 0.60 0.60 0.46 0.40 0.27 0.29 0.33 0.45 0.29 0.22 0.30 0.24 0.32 0.49 0.50 0.57 0.53 0.53 0.49 0.35 0.41 0.46 0.49 0.50 0.51 0.52 0.53 0.52 0.55 0.57 0.55 0.60 0.61 0.61 0.63
0.53 0.57 0.62 0.66 0.71 0.74 0.72 0.72 0.72 0.71 0.71 0.70 0.66 0.59 0.59 0.57 0.47 0.48 0.60 0.63 0.60 0.46 0.34 0.34 0.31 0.32 0.49 0.45 0.45 0.38 0.41 0.38 0.54 0.47 0.52 0.52 0.45 0.36 0.40 0.44 0.46 0.48 0.48 0.48 0.51 0.50 0.50 0.49 0.48 0.52 0.57 0.59 0.59 0.61
0.52 0.55 0.58 0.59 0.64 0.68 0.70 0.70 0.69 0.71 0.69 0.62 0.60 0.52 0.41 0.46 0.54 0.55 0.52 0.46 0.45 0.47 0.46 0.37 0.44 0.38 0.49 0.47 0.45 0.44 0.49 0.43 0.38 0.48 0.57 0.44 0.40 0.48 0.50 0.50 0.50 0.49 0.49 0.49 0.44 0.42 0.44 0.50 0.51 0.53 0.57 0.60 0.61 0.64
0.51 0.53 0.54 0.54 0.57 0.61 0.67 0.68 0.69 0.67 0.65 0.55 0.47 0.44 0.52 0.52 0.41 0.41 0.39 0.38 0.40 0.37 0.44 0.45 0.46 0.42 0.57 0.45 0.46 0.53 0.45 0.47 0.37 0.44 0.42 0.38 0.35 0.43 0.49 0.49 0.51 0.51 0.49 0.49 0.48 0.53 0.54 0.55 0.56 0.58 0.63 0.66 0.65 0.67
0.48 0.52 0.52 0.52 0.54 0.58 0.61 0.65 0.66 0.60 0.56 0.56 0.54 0.58 0.57 0.44 0.33 0.33 0.34 0.38 0.36 0.35 0.45 0.43 0.47 0.51 0.54 0.62 0.50 0.50 0.43 0.44 0.33 0.50 0.39 0.31 0.39 0.46 0.48 0.49 0.48 0.48 0.49 0.47 0.55 0.58 0.61 0.61 0.62 0.62 0.64 0.66 0.69 0.72
0.46 0.51 0.53 0.54 0.55 0.56 0.58 0.60 0.61 0.61 0.59 0.54 0.45 0.38 0.37 0.36 0.27 0.27 0.27 0.31 0.32 0.41 0.45 0.46 0.43 0.51 0.55 0.56 0.48 0.46 0.37 0.35 0.46 0.36 0.30 0.35 0.42 0.46 0.49 0.50 0.48 0.47 0.52 0.58 0.59 0.60 0.62 0.65 0.69 0.67 0.67 0.69 0.69 0.69
0.45 0.49 0.52 0.54 0.57 0.56 0.58 0.59 0.59 0.56 0.47 0.37 0.30 0.24 0.30 0.29 0.33 0.33 0.32 0.35 0.41 0.41 0.42 0.45 0.45 0.47 0.51 0.46 0.47 0.38 0.43 0.42 0.32 0.28 0.28 0.37 0.42 0.47 0.49 0.49 0.48 0.48 0.50 0.52 0.55 0.57 0.60 0.65 0.68 0.72 0.74 0.76 0.74 0.70
0.47 0.50 0.53 0.54 0.56 0.57 0.58 0.58 0.55 0.51 0.41 0.32 0.32 0.23 0.25 0.33 0.36 0.37 0.39 0.37 0.37 0.39 0.40 0.40 0.44 0.48 0.45 0.42 0.44 0.41 0.35 0.30 0.31 0.29 0.36 0.42 0.45 0.47 0.45 0.46 0.48 0.48 0.49 0.50 0.52 0.52 0.54 0.58 0.62 0.65 0.70 0.72 0.72 0.71
0.49 0.51 0.49 0.56 0.57 0.57 0.56 0.54 0.52 0.46 0.38 0.33 0.32 0.27 0.30 0.31 0.32 0.35 0.35 0.35 0.42 0.37 0.41 0.42 0.39 0.39 0.38 0.40 0.36 0.33 0.32 0.29 0.34 0.40 0.45 0.47 0.47 0.46 0.45 0.46 0.47 0.48 0.46 0.45 0.47 0.49 0.50 0.51 0.52 0.55 0.59 0.61 0.65 0.68
0.49 0.42 0.53 0.58 0.57 0.55 0.54 0.48 0.41 0.33 0.29 0.27 0.25 0.31 0.31 0.30 0.30 0.33 0.38 0.39 0.45 0.39 0.33 0.38 0.32 0.33 0.42 0.35 0.33 0.39 0.34 0.39 0.44 0.47 0.50 0.51 0.49 0.48 0.48 0.46 0.46 0.44 0.42 0.42 0.42 0.43 0.42 0.43 0.44 0.44 0.44 0.49 0.53 0.59
0.40 0.46 0.54 0.57 0.56 0.53 0.49 0.46 0.37 0.30 0.23 0.23 0.21 0.25 0.29 0.31 0.30 0.33 0.37 0.41 0.41 0.39 0.35 0.34 0.39 0.33 0.32 0.30 0.34 0.42 0.46 0.48 0.49 0.49 0.51 0.52 0.52 0.52 0.49 0.46 0.45 0.43 0.41 0.40 0.37 0.36 0.36 0.36 0.33 0.33 0.35 0.38 0.42 0.46
0.43 0.47 0.52 0.55 0.56 0.48 0.39 0.37 0.38 0.26 0.24 0.25 0.26 0.28 0.29 0.30 0.33 0.35 0.38 0.42 0.43 0.44 0.39 0.34 0.32 0.31 0.32 0.38 0.39 0.44 0.46 0.47 0.46 0.47 0.49 0.50 0.51 0.51 0.49 0.47 0.44 0.41 0.36 0.32 0.31 0.30 0.29 0.28 0.26 0.23 0.23 0.27 0.28 0.32
0.52 0.52 0.51 0.50 0.54 0.44 0.36 0.34 0.37 0.28 0.22 0.23 0.24 0.24 0.26 0.28 0.32 0.33 0.34 0.38 0.39 0.37 0.33 0.30 0.27 0.33 0.40 0.44 0.47 0.47 0.49 0.50 0.47 0.42 0.42 0.44 0.44 0.41 0.37 0.35 0.31 0.28 0.27 0.27 0.25 0.25 0.23 0.21 0.20 0.18 0.17 0.18 0.20 0.22
0.48 0.52 0.50 0.49 0.45 0.45 0.39 0.31 0.28 0.27 0.25 0.23 0.24 0.24 0.23 0.27 0.27 0.27 0.28 0.34 0.33 0.32 0.30 0.33 0.34 0.29 0.33 0.45 0.49 0.49 0.47 0.45 0.42 0.42 0.41 0.37 0.37 0.34 0.30 0.25 0.22 0.20 0.18 0.17 0.16 0.15 0.15 0.15 0.15 0.16 0.16 0.15 0.17 0.19
0.44 0.48 0.44 0.47 0.41 0.38 0.34 0.35 0.29 0.27 0.25 0.24 0.23 0.22 0.20 0.21 0.22 0.25 0.29 0.28 0.28 0.31 0.34 0.35 0.37 0.38 0.30 0.26 0.31 0.37 0.39 0.40 0.39 0.37 0.35 0.32 0.27 0.22 0.19 0.17 0.17 0.15 0.15 0.14 0.13 0.12 0.12 0.14 0.15 0.16 0.17 0.18 0.19 0.18
0.47 0.45 0.41 0.39 0.32 0.31 0.27 0.33 0.25 0.25 0.21 0.21 0.22 0.17 0.19 0.21 0.23 0.26 0.23 0.26 0.28 0.33 0.35 0.36 0.38 0.40 0.37 0.32 0.25 0.23 0.27 0.29 0.25 0.25 0.22 0.19 0.16 0.16 0.15 0.16 0.16 0.15 0.14 0.14 0.14 0.14 0.14 0.16 0.16 0.16 0.18 0.18 0.17 0.17
0.49 0.38 0.30 0.28 0.28 0.23 0.27 0.22 0.24 0.22 0.22 0.20 0.19 0.18 0.19 0.19 0.23 0.20 0.19 0.23 0.28 0.32 0.29 0.30 0.35 0.36 0.37 0.35 0.26 0.22 0.22 0.23 0.23 0.23 0.21 0.19 0.17 0.16 0.16 0.16 0.17 0.17 0.16 0.16 0.14 0.14 0.16 0.16 0.17 0.18 0.18 0.17 0.17 0.17
0.29 0.27 0.27 0.22 0.25 0.21 0.19 0.18 0.19 0.20 0.19 0.20 0.16 0.16 0.19 0.22 0.19 0.18 0.19 0.24 0.27 0.25 0.26 0.28 0.29 0.33 0.34 0.33 0.33 0.31 0.31 0.29 0.27 0.26 0.24 0.22 0.20 0.19 0.18 0.18 0.18 0.18 0.18 0.16 0.14 0.15 0.17 0.18 0.18 0.18 0.18 0.18 0.17 0.17
0.20 0.24 0.22 0.21 0.21 0.19 0.19 0.17 0.20 0.20 0.21 0.20 0.18 0.20 0.21 0.19 0.17 0.17 0.21 0.23 0.24 0.25 0.25 0.27 0.28 0.29 0.30 0.33 0.31 0.30 0.29 0.32 0.31 0.26 0.23 0.22 0.21 0.19 0.18 0.17 0.16 0.17 0.20 0.18 0.17 0.18 0.19 0.19 0.19 0.19 0.19 0.19 0.18 0.18
0.19 0.19 0.25 0.29 0.26 0.24 0.22 0.23 0.23 0.21 0.20 0.20 0.20 0.20 0.19 0.15 0.15 0.20 0.24 0.25 0.27 0.29 0.26 0.27 0.28 0.28 0.28 0.29 0.31 0.33 0.32 0.32 0.30 0.27 0.27 0.25 0.24 0.24 0.22 0.20 0.19 0.20 0.20 0.19 0.20 0.20 0.19 0.19 0.19 0.19 0.18 0.18 0.18 0.18
0.22 0.21 0.17 0.22 0.24 0.25 0.22 0.22 0.21 0.21 0.21 0.23 0.22 0.18 0.17 0.16 0.18 0.22 0.22 0.26 0.29 0.31 0.33 0.32 0.30 0.32 0.32 0.32 0.31 0.31 0.32 0.31 0.29 0.28 0.28 0.27 0.27 0.26 0.25 0.23 0.21 0.21 0.21 0.22 0.22 0.22 0.21 0.19 0.18 0.18 0.17 0.17 0.17 0.18
0.21 0.23 0.22 0.19 0.21 0.22 0.22 0.21 0.20 0.21 0.22 0.21 0.17 0.15 0.15 0.18 0.21 0.22 0.24 0.26 0.29 0.30 0.30 0.32 0.31 0.29 0.29 0.30 0.31 0.30 0.30 0.28 0.25 0.22 0.21 0.20 0.20 0.21 0.21 0.20 0.20 0.22 0.22 0.21 0.21 0.21 0.20 0.20 0.19 0.19 0.19 0.19 0.19 0.19
0.19 0.22 0.19 0.18 0.16 0.14 0.15 0.18 0.17 0.19 0.20 0.21 0.20 0.19 0.17 0.16 0.19 0.21 0.21 0.23 0.26 0.27 0.29 0.30 0.32 0.33 0.32 0.31 0.30 0.30 0.30 0.28 0.26 0.22 0.19 0.19 0.20 0.20 0.19 0.20 0.21 0.21 0.21 0.20 0.19 0.19 0.20 0.20 0.20 0.20 0.19 0.19 0.19 0.19
0.21 0.20 0.17 0.16 0.13 0.15 0.16 0.17 0.18 0.18 0.18 0.17 0.18 0.16 0.14 0.14 0.13 0.14 0.15 0.20 0.25 0.27 0.28 0.28 0.30 0.31 0.31 0.31 0.31 0.29 0.27 0.27 0.25 0.24 0.23 0.23 0.21 0.20 0.20 0.21 0.21 0.21 0.21 0.21 0.20 0.19 0.19 0.20 0.20 0.19 0.19 0.20 0.20 0.21
0.17 0.16 0.15 0.13 0.12 0.15 0.16 0.16 0.16 0.16 0.16 0.16 0.16 0.16 0.15 0.13 0.11 0.13 0.15 0.20 0.24 0.25 0.27 0.29 0.29 0.30 0.31 0.32 0.31 0.30 0.28 0.24 0.22 0.22 0.21 0.20 0.20 0.21 0.21 0.21 0.22 0.22 0.22 0.22 0.22 0.21 0.21 0.21 0.22 0.23 0.24 0.24 0.24 0.24
0.18 0.17 0.16 0.16 0.15 0.13 0.14 0.15 0.15 0.14 0.14 0.14 0.14 0.15 0.14 0.13 0.11 0.13 0.19 0.24 0.27 0.27 0.28 0.30 0.31 0.31 0.31 0.29 0.27 0.22 0.21 0.20 0.20 0.21 0.22 0.22 0.22 0.22 0.22 0.23 0.23 0.23 0.23 0.22 0.23 0.24 0.25 0.26 0.25 0.24 0.24 0.23 0.23 0.23

GFSWCAN_prec_pwat_030.txt.gz
Precipitable_Water
0.64 0.64 0.65 0.60 0.62 0.64 0.69 0.70 0.68 0.66 0.67 0.69 0.70 0.70 0.71 0.73 0.70 0.68 0.62 0.62 0.44 0.34 0.29 0.28 0.30 0.25 0.24 0.29 0.26 0.36 0.38 0.42 0.42 0.33 0.31 0.30 0.30 0.32 0.30 0.33 0.30 0.28 0.27 0.27 0.29 0.23 0.18 0.38 0.41 0.34 0.45 0.56 0.61 0.63
0.63 0.65 0.65 0.62 0.64 0.68 0.71 0.69 0.68 0.67 0.68 0.68 0.69 0.69 0.70 0.72 0.71 0.69 0.57 0.66 0.66 0.52 0.42 0.45 0.42 0.42 0.38 0.35 0.34 0.41 0.40 0.39 0.43 0.37 0.35 0.33 0.29 0.34 0.33 0.25 0.39 0.28 0.33 0.28 0.30 0.30 0.38 0.43 0.43 0.51 0.58 0.58 0.61 0.64
0.61 0.63 0.64 0.64 0.64 0.69 0.70 0.70 0.69 0.68 0.67 0.69 0.71 0.70 0.70 0.71 0.72 0.70 0.62 0.63 0.62 0.53 0.49 0.50 0.44 0.48 0.52 0.50 0.49 0.34 0.44 0.54 0.53 0.54 0.43 0.39 0.30 0.35 0.26 0.29 0.34 0.40 0.44 0.35 0.35 0.38 0.41 0.47 0.53 0.54 0.56 0.58 0.64 0.68
0.58 0.59 0.60 0.62 0.65 0.68 0.69 0.70 0.70 0.69 0.69 0.69 0.69 0.70 0.69 0.70 0.71 0.70 0.62 0.64 0.59 0.52 0.39 0.38 0.49 0.43 0.46 0.44 0.43 0.42 0.41 0.55 0.56 0.58 0.49 0.41 0.33 0.40 0.32 0.34 0.33 0.40 0.44 0.38 0.37 0.42 0.48 0.51 0.54 0.57 0.58 0.61 0.64 0.67
0.56 0.56 0.57 0.60 0.65 0.69 0.69 0.70 0.71 0.70 0.69 0.69 0.69 0.69 0.69 0.71 0.64 0.59 0.61 0.62 0.63 0.48 0.32 0.34 0.42 0.41 0.42 0.42 0.41 0.39 0.33 0.30 0.41 0.43 0.47 0.44 0.46 0.40 0.40 0.39 0.32 0.41 0.39 0.36 0.34 0.46 0.46 0.49 0.56 0.59 0.58 0.58 0.62 0.64
0.54 0.53 0.54 0.56 0.64 0.70 0.71 0.72 0.71 0.70 0.70 0.70 0.70 0.70 0.71 0.64 0.63 0.56 0.42 0.54 0.60 0.58 0.39 0.28 0.39 0.37 0.36 0.36 0.33 0.32 0.32 0.29 0.31 0.35 0.43 0.54 0.56 0.45 0.34 0.30 0.37 0.43 0.47 0.50 0.46 0.53 0.53 0.56 0.57 0.58 0.56 0.58 0.60 0.61
0.51 0.51 0.53 0.55 0.61 0.65 0.70 0.73 0.71 0.68 0.69 0.70 0.70 0.71 0.70 0.62 0.61 0.50 0.44 0.51 0.62 0.60 0.39 0.30 0.28 0.33 0.39 0.42 0.35 0.29 0.33 0.30 0.27 0.32 0.37 0.48 0.54 0.54 0.41 0.29 0.39 0.44 0.47 0.50 0.53 0.53 0.49 0.53 0.52 0.58 0.57 0.59 0.62 0.63
0.54 0.51 0.52 0.53 0.58 0.60 0.64 0.67 0.67 0.67 0.69 0.71 0.71 0.69 0.66 0.64 0.63 0.52 0.56 0.61 0.62 0.50 0.41 0.30 0.30 0.34 0.48 0.37 0.29 0.28 0.22 0.24 0.28 0.27 0.39 0.45 0.55 0.51 0.39 0.41 0.44 0.47 0.47 0.48 0.51 0.53 0.52 0.52 0.52 0.54 0.56 0.55 0.55 0.58
0.48 0.49 0.49 0.52 0.53 0.56 0.57 0.59 0.64 0.65 0.67 0.67 0.64 0.64 0.65 0.57 0.47 0.47 0.58 0.63 0.63 0.48 0.36 0.36 0.32 0.28 0.50 0.44 0.43 0.36 0.28 0.18 0.28 0.33 0.40 0.47 0.46 0.39 0.42 0.44 0.45 0.46 0.46 0.46 0.51 0.52 0.51 0.49 0.49 0.51 0.51 0.50 0.52 0.56
0.46 0.47 0.49 0.50 0.50 0.52 0.54 0.56 0.57 0.61 0.62 0.59 0.53 0.51 0.46 0.50 0.59 0.56 0.53 0.47 0.47 0.47 0.46 0.38 0.45 0.36 0.46 0.46 0.43 0.42 0.40 0.32 0.26 0.36 0.52 0.43 0.44 0.50 0.49 0.51 0.51 0.50 0.50 0.50 0.45 0.44 0.46 0.48 0.48 0.52 0.53 0.55 0.57 0.58
0.45 0.47 0.49 0.49 0.50 0.50 0.53 0.54 0.55 0.54 0.54 0.49 0.44 0.41 0.53 0.62 0.52 0.42 0.39 0.39 0.41 0.37 0.43 0.43 0.45 0.40 0.53 0.41 0.42 0.49 0.43 0.44 0.35 0.42 0.42 0.40 0.37 0.44 0.51 0.51 0.53 0.53 0.52 0.51 0.50 0.50 0.53 0.54 0.53 0.55 0.56 0.58 0.60 0.65
0.47 0.50 0.49 0.49 0.51 0.51 0.52 0.53 0.53 0.49 0.46 0.48 0.48 0.51 0.50 0.45 0.37 0.34 0.35 0.39 0.37 0.34 0.43 0.41 0.44 0.47 0.50 0.57 0.48 0.49 0.42 0.44 0.34 0.51 0.41 0.32 0.39 0.47 0.48 0.49 0.51 0.52 0.51 0.49 0.50 0.50 0.57 0.58 0.58 0.57 0.57 0.58 0.61 0.65
0.47 0.51 0.50 0.50 0.50 0.50 0.51 0.51 0.52 0.52 0.48 0.43 0.37 0.31 0.33 0.37 0.31 0.30 0.27 0.32 0.33 0.39 0.42 0.43 0.40 0.47 0.52 0.55 0.48 0.45 0.38 0.36 0.48 0.38 0.32 0.36 0.43 0.46 0.48 0.49 0.49 0.50 0.49 0.50 0.55 0.59 0.57 0.58 0.60 0.62 0.63 0.65 0.63 0.66
0.41 0.48 0.51 0.53 0.52 0.53 0.53 0.52 0.51 0.47 0.39 0.28 0.23 0.18 0.25 0.28 0.31 0.32 0.33 0.33 0.38 0.37 0.35 0.36 0.39 0.43 0.49 0.45 0.46 0.37 0.42 0.43 0.33 0.29 0.29 0.37 0.43 0.45 0.48 0.50 0.48 0.47 0.51 0.54 0.55 0.56 0.56 0.59 0.63 0.68 0.69 0.71 0.72 0.71
0.45 0.49 0.53 0.55 0.56 0.55 0.54 0.51 0.49 0.44 0.34 0.25 0.25 0.17 0.19 0.29 0.32 0.35 0.38 0.38 0.40 0.42 0.38 0.33 0.38 0.43 0.43 0.41 0.44 0.41 0.35 0.30 0.31 0.30 0.36 0.42 0.45 0.46 0.46 0.47 0.49 0.48 0.49 0.49 0.51 0.51 0.53 0.56 0.57 0.59 0.63 0.66 0.69 0.70
0.50 0.51 0.51 0.56 0.57 0.58 0.55 0.51 0.46 0.40 0.32 0.26 0.25 0.20 0.22 0.22 0.26 0.31 0.32 0.33 0.41 0.42 0.42 0.40 0.34 0.34 0.36 0.40 0.36 0.33 0.32 0.29 0.34 0.41 0.46 0.48 0.47 0.46 0.44 0.46 0.47 0.46 0.44 0.44 0.46 0.45 0.47 0.47 0.46 0.47 0.50 0.53 0.57 0.61
0.49 0.42 0.51 0.55 0.56 0.55 0.54 0.47 0.39 0.31 0.26 0.22 0.19 0.24 0.23 0.22 0.22 0.26 0.30 0.33 0.40 0.37 0.33 0.36 0.31 0.30 0.38 0.34 0.33 0.38 0.34 0.39 0.44 0.46 0.50 0.52 0.51 0.48 0.46 0.46 0.45 0.45 0.45 0.44 0.43 0.43 0.43 0.43 0.43 0.41 0.39 0.40 0.42 0.47
0.43 0.48 0.54 0.55 0.54 0.52 0.47 0.44 0.36 0.29 0.22 0.23 0.19 0.22 0.25 0.26 0.25 0.26 0.30 0.33 0.33 0.36 0.36 0.33 0.37 0.31 0.31 0.29 0.32 0.41 0.47 0.51 0.51 0.50 0.51 0.53 0.52 0.52 0.49 0.47 0.46 0.45 0.44 0.43 0.41 0.39 0.38 0.36 0.32 0.30 0.30 0.33 0.31 0.32
0.46 0.51 0.55 0.55 0.53 0.47 0.38 0.37 0.37 0.25 0.24 0.25 0.25 0.27 0.27 0.27 0.29 0.29 0.30 0.33 0.35 0.40 0.37 0.35 0.30 0.28 0.29 0.34 0.37 0.41 0.46 0.49 0.47 0.48 0.50 0.51 0.52 0.53 0.51 0.50 0.47 0.44 0.43 0.38 0.34 0.32 0.31 0.30 0.28 0.26 0.24 0.23 0.23 0.24
0.52 0.55 0.55 0.55 0.54 0.42 0.35 0.34 0.39 0.29 0.23 0.23 0.23 0.23 0.25 0.25 0.27 0.27 0.28 0.30 0.31 0.31 0.28 0.27 0.28 0.31 0.34 0.41 0.46 0.47 0.49 0.51 0.50 0.46 0.45 0.45 0.46 0.45 0.43 0.40 0.37 0.35 0.30 0.28 0.27 0.27 0.25 0.23 0.23 0.21 0.20 0.20 0.18 0.18
0.51 0.54 0.54 0.53 0.48 0.46 0.40 0.33 0.30 0.29 0.26 0.22 0.24 0.22 0.21 0.24 0.23 0.21 0.23 0.29 0.26 0.25 0.24 0.28 0.30 0.34 0.38 0.41 0.42 0.40 0.47 0.52 0.48 0.46 0.45 0.44 0.45 0.43 0.38 0.34 0.30 0.24 0.22 0.21 0.20 0.19 0.19 0.18 0.18 0.18 0.18 0.18 0.19 0.19
0.47 0.52 0.49 0.49 0.40 0.39 0.36 0.36 0.31 0.29 0.25 0.23 0.23 0.23 0.19 0.19 0.19 0.21 0.24 0.21 0.21 0.23 0.27 0.28 0.31 0.34 0.36 0.38 0.39 0.34 0.33 0.40 0.42 0.41 0.42 0.43 0.40 0.37 0.33 0.28 0.22 0.20 0.20 0.19 0.18 0.17 0.16 0.16 0.16 0.17 0.16 0.18 0.19 0.18
0.51 0.48 0.41 0.39 0.32 0.31 0.28 0.34 0.27 0.27 0.23 0.22 0.23 0.20 0.18 0.18 0.21 0.25 0.20 0.21 0.22 0.26 0.29 0.31 0.31 0.33 0.35 0.38 0.40 0.39 0.35 0.30 0.30 0.34 0.37 0.37 0.33 0.29 0.24 0.20 0.19 0.17 0.16 0.17 0.17 0.16 0.15 0.16 0.17 0.17 0.18 0.19 0.18 0.17
0.50 0.37 0.30 0.28 0.27 0.24 0.28 0.24 0.26 0.24 0.24 0.21 0.20 0.18 0.18 0.19 0.20 0.18 0.17 0.19 0.22 0.25 0.26 0.26 0.28 0.29 0.30 0.34 0.37 0.37 0.35 0.31 0.25 0.25 0.26 0.23 0.20 0.17 0.17 0.16 0.16 0.17 0.17 0.17 0.17 0.17 0.16 0.15 0.17 0.17 0.17 0.17 0.17 0.16
0.29 0.28 0.28 0.22 0.26 0.23 0.20 0.19 0.19 0.20 0.18 0.20 0.17 0.17 0.19 0.22 0.17 0.16 0.17 0.20 0.22 0.23 0.24 0.25 0.27 0.30 0.31 0.32 0.35 0.37 0.37 0.33 0.28 0.25 0.27 0.26 0.22 0.20 0.19 0.18 0.19 0.19 0.21 0.19 0.17 0.16 0.15 0.15 0.16 0.17 0.17 0.17 0.17 0.17
0.21 0.25 0.22 0.20 0.20 0.19 0.19 0.16 0.18 0.18 0.18 0.18 0.19 0.21 0.22 0.21 0.17 0.17 0.18 0.21 0.23 0.24 0.25 0.24 0.25 0.27 0.28 0.30 0.31 0.35 0.37 0.36 0.33 0.29 0.30 0.29 0.25 0.22 0.21 0.20 0.19 0.19 0.22 0.21 0.19 0.17 0.16 0.17 0.18 0.19 0.19 0.19 0.20 0.19
0.19 0.19 0.23 0.28 0.25 0.24 0.21 0.21 0.22 0.20 0.19 0.18 0.20 0.21 0.21 0.19 0.18 0.20 0.24 0.24 0.24 0.24 0.28 0.32 0.32 0.29 0.28 0.31 0.35 0.35 0.35 0.35 0.33 0.33 0.34 0.32 0.29 0.27 0.25 0.22 0.21 0.23 0.24 0.23 0.21 0.20 0.19 0.19 0.20 0.20 0.20 0.20 0.20 0.20
0.22 0.21 0.17 0.21 0.22 0.23 0.20 0.21 0.20 0.20 0.21 0.24 0.23 0.20 0.19 0.19 0.19 0.26 0.24 0.23 0.23 0.24 0.27 0.30 0.31 0.33 0.35 0.33 0.33 0.34 0.33 0.34 0.34 0.33 0.33 0.31 0.30 0.29 0.29 0.29 0.29 0.28 0.26 0.23 0.21 0.20 0.21 0.21 0.21 0.21 0.20 0.20 0.20 0.21
0.21 0.23 0.22 0.19 0.20 0.21 0.21 0.20 0.21 0.25 0.27 0.23 0.18 0.16 0.17 0.21 0.21 0.20 0.20 0.20 0.20 0.20 0.22 0.24 0.26 0.30 0.32 0.34 0.35 0.33 0.32 0.31 0.29 0.28 0.27 0.26 0.25 0.24 0.25 0.24 0.25 0.23 0.21 0.21 0.22 0.23 0.23 0.22 0.22 0.21 0.21 0.21 0.21 0.21
0.20 0.24 0.21 0.20 0.19 0.18 0.20 0.22 0.20 0.22 0.21 0.21 0.20 0.19 0.19 0.19 0.20 0.20 0.18 0.16 0.14 0.13 0.15 0.18 0.21 0.26 0.28 0.30 0.30 0.31 0.34 0.34 0.33 0.30 0.26 0.24 0.24 0.23 0.22 0.22 0.23 0.22 0.22 0.21 0.21 0.22 0.23 0.22 0.22 0.21 0.21 0.20 0.20 0.19
0.23 0.22 0.20 0.19 0.16 0.18 0.19 0.19 0.19 0.18 0.17 0.16 0.17 0.15 0.14 0.16 0.17 0.18 0.17 0.15 0.14 0.13 0.12 0.14 0.19 0.25 0.27 0.28 0.29 0.29 0.30 0.33 0.34 0.33 0.32 0.30 0.27 0.23 0.23 0.23 0.22 0.21 0.21 0.21 0.21 0.21 0.21 0.21 0.20 0.20 0.20 0.19 0.20 0.20
0.19 0.17 0.16 0.14 0.14 0.16 0.18 0.16 0.16 0.15 0.14 0.13 0.13 0.14 0.14 0.14 0.13 0.16 0.16 0.14 0.12 0.12 0.14 0.17 0.21 0.25 0.28 0.29 0.31 0.32 0.33 0.31 0.30 0.29 0.26 0.23 0.22 0.22 0.21 0.21 0.22 0.22 0.21 0.21 0.21 0.21 0.21 0.20 0.20 0.20 0.20 0.21 0.23 0.24
0.18 0.18 0.18 0.17 0.16 0.15 0.16 0.16 0.14 0.13 0.12 0.11 0.11 0.12 0.12 0.12 0.12 0.15 0.17 0.15 0.14 0.15 0.20 0.25 0.27 0.28 0.29 0.30 0.30 0.30 0.30 0.28 0.24 0.22 0.22 0.22 0.22 0.23 0.22 0.22 0.22 0.22 0.21 0.21 0.21 0.21 0.21 0.21 0.22 0.24 0.24 0.25 0.24 0.23

GFSWCAN_prec_pwat_033.txt.gz
Precipitable_Water
0.57 0.58 0.59 0.54 0.54 0.57 0.60 0.65 0.64 0.62 0.65 0.65 0.66 0.66 0.66 0.67 0.68 0.65 0.59 0.63 0.55 0.48 0.39 0.33 0.28 0.23 0.22 0.23 0.23 0.37 0.36 0.40 0.41 0.33 0.32 0.32 0.29 0.34 0.30 0.32 0.30 0.28 0.27 0.26 0.27 0.23 0.18 0.37 0.42 0.33 0.43 0.52 0.57 0.61
0.57 0.59 0.59 0.57 0.56 0.60 0.64 0.67 0.65 0.65 0.65 0.65 0.68 0.68 0.67 0.67 0.69 0.68 0.56 0.62 0.63 0.52 0.50 0.52 0.45 0.41 0.37 0.32 0.30 0.35 0.38 0.40 0.44 0.35 0.33 0.34 0.27 0.32 0.32 0.26 0.37 0.27 0.31 0.29 0.29 0.29 0.37 0.40 0.42 0.50 0.52 0.52 0.56 0.61
0.57 0.59 0.59 0.59 0.59 0.61 0.65 0.66 0.66 0.66 0.66 0.67 0.68 0.68 0.67 0.67 0.69 0.71 0.61 0.61 0.57 0.49 0.49 0.51 0.48 0.50 0.48 0.47 0.50 0.33 0.37 0.51 0.52 0.55 0.46 0.41 0.30 0.33 0.26 0.28 0.33 0.37 0.41 0.34 0.34 0.36 0.38 0.42 0.49 0.49 0.53 0.53 0.59 0.64
0.57 0.57 0.58 0.56 0.58 0.59 0.60 0.63 0.66 0.68 0.67 0.68 0.69 0.67 0.67 0.67 0.69 0.69 0.55 0.56 0.54 0.49 0.41 0.44 0.54 0.49 0.57 0.55 0.52 0.50 0.43 0.48 0.51 0.54 0.50 0.46 0.38 0.42 0.30 0.33 0.32 0.38 0.41 0.36 0.34 0.39 0.44 0.45 0.48 0.53 0.55 0.57 0.57 0.60
0.55 0.57 0.56 0.56 0.57 0.57 0.59 0.61 0.68 0.70 0.68 0.68 0.68 0.68 0.69 0.72 0.64 0.62 0.58 0.59 0.61 0.49 0.38 0.40 0.48 0.47 0.46 0.44 0.40 0.40 0.37 0.35 0.32 0.33 0.41 0.44 0.50 0.48 0.46 0.39 0.30 0.37 0.35 0.32 0.31 0.42 0.42 0.45 0.53 0.56 0.55 0.56 0.57 0.57
0.53 0.56 0.52 0.54 0.57 0.58 0.57 0.60 0.64 0.66 0.66 0.67 0.68 0.68 0.70 0.69 0.63 0.60 0.46 0.57 0.61 0.60 0.43 0.33 0.44 0.41 0.39 0.42 0.40 0.38 0.36 0.33 0.31 0.28 0.29 0.39 0.55 0.52 0.41 0.35 0.36 0.39 0.43 0.46 0.41 0.50 0.51 0.54 0.58 0.59 0.56 0.55 0.57 0.57
0.52 0.51 0.52 0.55 0.59 0.59 0.56 0.56 0.56 0.57 0.60 0.64 0.68 0.70 0.69 0.66 0.63 0.51 0.43 0.52 0.61 0.61 0.41 0.33 0.34 0.40 0.41 0.45 0.42 0.39 0.37 0.31 0.28 0.28 0.25 0.27 0.37 0.48 0.45 0.36 0.45 0.40 0.44 0.46 0.52 0.52 0.48 0.50 0.49 0.55 0.55 0.56 0.57 0.57
0.50 0.51 0.53 0.55 0.59 0.57 0.53 0.52 0.52 0.53 0.55 0.60 0.64 0.63 0.61 0.68 0.63 0.55 0.57 0.60 0.63 0.52 0.45 0.34 0.34 0.37 0.48 0.40 0.37 0.41 0.29 0.28 0.26 0.24 0.25 0.23 0.29 0.41 0.37 0.46 0.49 0.47 0.48 0.48 0.48 0.51 0.49 0.51 0.52 0.52 0.54 0.54 0.52 0.51
0.46 0.49 0.50 0.56 0.55 0.54 0.51 0.48 0.51 0.51 0.52 0.54 0.53 0.55 0.61 0.58 0.49 0.52 0.62 0.63 0.66 0.52 0.38 0.37 0.32 0.30 0.50 0.45 0.45 0.41 0.35 0.25 0.26 0.20 0.21 0.26 0.32 0.33 0.46 0.50 0.48 0.50 0.47 0.47 0.49 0.50 0.50 0.48 0.49 0.50 0.51 0.51 0.50 0.50
0.45 0.47 0.50 0.55 0.52 0.50 0.49 0.49 0.48 0.50 0.49 0.46 0.42 0.41 0.40 0.49 0.62 0.61 0.54 0.48 0.49 0.49 0.47 0.38 0.44 0.36 0.45 0.44 0.40 0.40 0.41 0.34 0.27 0.27 0.36 0.31 0.32 0.44 0.53 0.56 0.56 0.54 0.52 0.51 0.45 0.44 0.46 0.46 0.49 0.50 0.52 0.53 0.53 0.52
0.43 0.48 0.52 0.53 0.52 0.48 0.48 0.49 0.47 0.45 0.45 0.38 0.32 0.31 0.43 0.54 0.48 0.44 0.40 0.40 0.42 0.37 0.42 0.43 0.43 0.38 0.51 0.39 0.39 0.45 0.40 0.41 0.32 0.38 0.34 0.32 0.33 0.45 0.54 0.55 0.57 0.56 0.54 0.53 0.53 0.52 0.52 0.52 0.52 0.52 0.52 0.55 0.55 0.57
0.46 0.50 0.54 0.54 0.53 0.49 0.48 0.48 0.45 0.42 0.38 0.37 0.36 0.39 0.39 0.37 0.38 0.36 0.36 0.39 0.37 0.34 0.41 0.38 0.38 0.42 0.47 0.54 0.44 0.47 0.40 0.42 0.33 0.48 0.39 0.34 0.43 0.50 0.52 0.53 0.54 0.55 0.55 0.54 0.54 0.52 0.54 0.55 0.57 0.55 0.54 0.54 0.54 0.56
0.47 0.49 0.52 0.53 0.53 0.52 0.49 0.47 0.48 0.45 0.42 0.37 0.29 0.25 0.26 0.30 0.26 0.26 0.25 0.30 0.31 0.38 0.39 0.37 0.34 0.40 0.49 0.53 0.46 0.44 0.37 0.36 0.48 0.38 0.34 0.39 0.46 0.49 0.50 0.52 0.52 0.54 0.54 0.52 0.51 0.52 0.57 0.57 0.59 0.58 0.57 0.60 0.62 0.60
0.43 0.49 0.51 0.52 0.52 0.53 0.51 0.50 0.47 0.41 0.34 0.24 0.20 0.15 0.19 0.20 0.21 0.23 0.27 0.31 0.38 0.38 0.38 0.39 0.35 0.36 0.44 0.43 0.45 0.37 0.42 0.43 0.33 0.30 0.31 0.39 0.43 0.47 0.49 0.50 0.49 0.49 0.49 0.50 0.55 0.58 0.57 0.56 0.57 0.60 0.62 0.65 0.66 0.66
0.43 0.49 0.52 0.54 0.56 0.56 0.54 0.51 0.46 0.41 0.31 0.21 0.21 0.15 0.16 0.22 0.24 0.25 0.27 0.29 0.35 0.38 0.39 0.37 0.37 0.37 0.37 0.39 0.43 0.40 0.35 0.31 0.32 0.31 0.39 0.44 0.46 0.47 0.47 0.48 0.48 0.48 0.50 0.50 0.52 0.53 0.53 0.54 0.53 0.52 0.55 0.57 0.61 0.64
0.48 0.52 0.52 0.58 0.58 0.56 0.54 0.50 0.45 0.38 0.31 0.24 0.22 0.18 0.19 0.18 0.21 0.25 0.26 0.25 0.32 0.34 0.37 0.39 0.35 0.33 0.32 0.37 0.35 0.34 0.32 0.31 0.36 0.43 0.48 0.51 0.49 0.47 0.46 0.47 0.47 0.45 0.43 0.43 0.45 0.43 0.44 0.47 0.45 0.44 0.46 0.46 0.46 0.48
0.50 0.43 0.52 0.57 0.58 0.58 0.56 0.48 0.41 0.31 0.26 0.21 0.19 0.23 0.23 0.21 0.21 0.24 0.26 0.27 0.32 0.28 0.26 0.31 0.28 0.30 0.37 0.32 0.32 0.38 0.35 0.41 0.47 0.49 0.50 0.53 0.52 0.50 0.47 0.47 0.45 0.43 0.43 0.44 0.46 0.45 0.43 0.44 0.42 0.39 0.37 0.40 0.40 0.38
0.41 0.47 0.51 0.55 0.55 0.54 0.51 0.46 0.36 0.29 0.22 0.23 0.19 0.22 0.24 0.25 0.24 0.25 0.28 0.31 0.28 0.27 0.29 0.27 0.32 0.28 0.28 0.28 0.30 0.39 0.46 0.51 0.54 0.52 0.52 0.53 0.54 0.53 0.48 0.47 0.46 0.46 0.46 0.47 0.47 0.44 0.41 0.37 0.35 0.32 0.31 0.30 0.31 0.31
0.43 0.48 0.51 0.55 0.57 0.47 0.41 0.40 0.39 0.25 0.25 0.26 0.26 0.26 0.26 0.26 0.29 0.29 0.29 0.30 0.31 0.32 0.29 0.28 0.24 0.24 0.26 0.32 0.34 0.38 0.41 0.43 0.45 0.51 0.51 0.53 0.53 0.53 0.52 0.50 0.48 0.46 0.46 0.45 0.41 0.37 0.34 0.33 0.31 0.29 0.28 0.27 0.24 0.24
0.48 0.52 0.54 0.57 0.56 0.44 0.35 0.35 0.40 0.30 0.24 0.25 0.26 0.25 0.24 0.23 0.26 0.26 0.27 0.27 0.27 0.25 0.22 0.20 0.21 0.25 0.27 0.32 0.38 0.43 0.48 0.50 0.48 0.47 0.50 0.51 0.50 0.49 0.47 0.46 0.44 0.41 0.39 0.34 0.30 0.29 0.28 0.26 0.26 0.25 0.23 0.23 0.21 0.20
0.48 0.55 0.56 0.54 0.50 0.48 0.39 0.34 0.32 0.32 0.30 0.25 0.26 0.25 0.23 0.24 0.21 0.22 0.22 0.26 0.23 0.20 0.19 0.22 0.22 0.26 0.31 0.34 0.37 0.39 0.39 0.41 0.40 0.46 0.48 0.47 0.49 0.48 0.47 0.46 0.42 0.36 0.31 0.26 0.24 0.23 0.23 0.22 0.22 0.22 0.21 0.20 0.21 0.20
0.44 0.53 0.48 0.52 0.43 0.41 0.37 0.39 0.34 0.32 0.28 0.27 0.25 0.25 0.22 0.20 0.20 0.21 0.24 0.21 0.19 0.21 0.24 0.23 0.25 0.27 0.29 0.30 0.33 0.37 0.39 0.41 0.39 0.37 0.42 0.47 0.44 0.45 0.45 0.45 0.39 0.32 0.25 0.22 0.22 0.21 0.20 0.20 0.21 0.21 0.20 0.19 0.21 0.19
0.51 0.49 0.44 0.43 0.35 0.33 0.29 0.35 0.28 0.28 0.25 0.25 0.24 0.21 0.20 0.20 0.21 0.23 0.19 0.21 0.19 0.24 0.26 0.25 0.25 0.27 0.27 0.29 0.31 0.31 0.35 0.38 0.39 0.35 0.31 0.36 0.39 0.42 0.43 0.41 0.35 0.27 0.22 0.21 0.21 0.20 0.20 0.19 0.19 0.19 0.19 0.19 0.19 0.18
0.49 0.39 0.33 0.30 0.30 0.26 0.30 0.26 0.26 0.23 0.23 0.21 0.20 0.19 0.20 0.20 0.22 0.19 0.17 0.18 0.20 0.25 0.25 0.22 0.22 0.22 0.26 0.30 0.32 0.33 0.34 0.38 0.40 0.40 0.36 0.33 0.28 0.30 0.35 0.33 0.25 0.22 0.21 0.21 0.19 0.18 0.17 0.17 0.17 0.17 0.17 0.17 0.17 0.17
0.29 0.28 0.28 0.24 0.29 0.23 0.20 0.19 0.19 0.19 0.17 0.20 0.19 0.19 0.19 0.20 0.17 0.18 0.16 0.18 0.21 0.25 0.25 0.23 0.21 0.23 0.26 0.29 0.30 0.34 0.38 0.40 0.39 0.33 0.32 0.29 0.26 0.25 0.23 0.20 0.19 0.18 0.19 0.18 0.18 0.18 0.19 0.19 0.18 0.17 0.16 0.16 0.16 0.16
0.20 0.24 0.23 0.23 0.21 0.19 0.18 0.16 0.17 0.17 0.18 0.18 0.18 0.20 0.21 0.20 0.18 0.16 0.19 0.23 0.25 0.25 0.24 0.24 0.24 0.26 0.29 0.31 0.31 0.32 0.33 0.40 0.41 0.35 0.31 0.32 0.31 0.27 0.23 0.19 0.18 0.18 0.21 0.22 0.21 0.20 0.20 0.20 0.18 0.16 0.16 0.17 0.18 0.18
0.19 0.20 0.25 0.28 0.24 0.21 0.20 0.21 0.21 0.19 0.18 0.17 0.19 0.19 0.20 0.17 0.17 0.19 0.24 0.26 0.25 0.25 0.27 0.27 0.25 0.25 0.27 0.30 0.35 0.36 0.35 0.35 0.36 0.35 0.36 0.36 0.36 0.34 0.30 0.26 0.25 0.26 0.27 0.26 0.26 0.24 0.23 0.22 0.20 0.19 0.20 0.21 0.22 0.21
0.22 0.23 0.18 0.21 0.22 0.24 0.21 0.20 0.19 0.18 0.19 0.22 0.22 0.19 0.19 0.19 0.18 0.23 0.26 0.29 0.30 0.28 0.25 0.24 0.22 0.21 0.23 0.27 0.29 0.32 0.36 0.37 0.36 0.35 0.35 0.35 0.35 0.34 0.33 0.32 0.31 0.30 0.30 0.30 0.29 0.28 0.25 0.22 0.21 0.21 0.21 0.21 0.21 0.22
0.22 0.23 0.22 0.20 0.22 0.22 0.21 0.19 0.19 0.20 0.22 0.21 0.19 0.20 0.21 0.22 0.22 0.21 0.22 0.23 0.23 0.21 0.18 0.17 0.16 0.17 0.19 0.24 0.26 0.26 0.31 0.34 0.33 0.31 0.29 0.29 0.29 0.30 0.32 0.31 0.30 0.29 0.28 0.26 0.27 0.26 0.23 0.21 0.22 0.22 0.22 0.22 0.22 0.23
0.21 0.25 0.22 0.21 0.20 0.18 0.20 0.23 0.22 0.24 0.25 0.24 0.24 0.21 0.19 0.19 0.19 0.21 0.19 0.18 0.17 0.16 0.15 0.15 0.15 0.15 0.14 0.17 0.19 0.22 0.28 0.32 0.33 0.31 0.30 0.30 0.32 0.33 0.31 0.29 0.28 0.27 0.26 0.24 0.24 0.23 0.23 0.23 0.23 0.22 0.22 0.21 0.21 0.21
0.25 0.24 0.22 0.21 0.19 0.19 0.21 0.22 0.21 0.21 0.20 0.19 0.19 0.17 0.15 0.15 0.15 0.17 0.16 0.16 0.15 0.16 0.16 0.14 0.14 0.14 0.13 0.16 0.19 0.22 0.25 0.30 0.32 0.33 0.35 0.35 0.35 0.34 0.33 0.32 0.29 0.26 0.24 0.23 0.21 0.21 0.21 0.21 0.21 0.21 0.21 0.20 0.20 0.21
0.22 0.20 0.19 0.16 0.16 0.18 0.19 0.17 0.17 0.16 0.16 0.15 0.15 0.15 0.15 0.14 0.12 0.14 0.16 0.15 0.16 0.16 0.16 0.15 0.14 0.14 0.17 0.20 0.25 0.28 0.30 0.30 0.31 0.32 0.33 0.33 0.33 0.31 0.27 0.24 0.22 0.22 0.21 0.21 0.20 0.20 0.21 0.21 0.21 0.20 0.20 0.20 0.20 0.20
0.18 0.18 0.17 0.17 0.16 0.15 0.16 0.17 0.16 0.15 0.14 0.13 0.13 0.13 0.13 0.13 0.11 0.15 0.15 0.15 0.17 0.18 0.18 0.17 0.19 0.21 0.23 0.27 0.28 0.27 0.29 0.31 0.31 0.31 0.29 0.26 0.23 0.22 0.22 0.22 0.22 0.22 0.21 0.21 0.21 0.21 0.21 0.20 0.20 0.20 0.20 0.21 0.22 0.23

GFSWCAN_prec_pwat_036.txt.gz
Precipitable_Water
0.56 0.58 0.57 0.53 0.51 0.54 0.58 0.61 0.64 0.62 0.62 0.61 0.64 0.65 0.65 0.66 0.65 0.62 0.56 0.61 0.50 0.43 0.47 0.47 0.37 0.27 0.23 0.21 0.24 0.35 0.35 0.40 0.39 0.31 0.29 0.28 0.27 0.33 0.31 0.32 0.31 0.27 0.26 0.26 0.27 0.23 0.18 0.42 0.40 0.34 0.43 0.52 0.56 0.57
0.56 0.58 0.56 0.55 0.54 0.55 0.58 0.62 0.64 0.64 0.63 0.63 0.63 0.64 0.64 0.63 0.66 0.68 0.53 0.63 0.62 0.47 0.41 0.54 0.54 0.45 0.37 0.32 0.25 0.25 0.32 0.38 0.41 0.34 0.35 0.34 0.29 0.29 0.29 0.25 0.38 0.28 0.31 0.27 0.28 0.26 0.38 0.42 0.41 0.50 0.53 0.52 0.55 0.59
0.57 0.58 0.57 0.57 0.57 0.55 0.56 0.60 0.63 0.63 0.64 0.64 0.65 0.66 0.65 0.63 0.66 0.68 0.59 0.58 0.54 0.43 0.41 0.46 0.48 0.55 0.53 0.45 0.44 0.29 0.31 0.40 0.45 0.52 0.44 0.42 0.32 0.34 0.24 0.24 0.32 0.35 0.40 0.33 0.33 0.35 0.38 0.40 0.46 0.50 0.53 0.53 0.56 0.60
0.55 0.55 0.55 0.53 0.53 0.55 0.56 0.59 0.61 0.62 0.64 0.63 0.63 0.65 0.66 0.67 0.68 0.62 0.55 0.57 0.54 0.46 0.35 0.39 0.54 0.50 0.57 0.55 0.48 0.45 0.45 0.50 0.49 0.47 0.44 0.44 0.40 0.47 0.36 0.35 0.33 0.37 0.38 0.34 0.33 0.38 0.42 0.43 0.45 0.49 0.52 0.55 0.55 0.58
0.54 0.53 0.52 0.50 0.52 0.53 0.53 0.58 0.60 0.62 0.62 0.60 0.60 0.62 0.66 0.68 0.65 0.61 0.61 0.61 0.60 0.46 0.36 0.40 0.52 0.54 0.53 0.54 0.50 0.46 0.39 0.35 0.33 0.28 0.28 0.28 0.41 0.46 0.47 0.46 0.38 0.42 0.34 0.31 0.30 0.41 0.41 0.43 0.49 0.51 0.52 0.54 0.57 0.56
0.50 0.51 0.50 0.50 0.51 0.51 0.54 0.59 0.60 0.61 0.58 0.55 0.55 0.59 0.65 0.64 0.63 0.57 0.48 0.58 0.58 0.57 0.44 0.35 0.48 0.46 0.45 0.45 0.44 0.40 0.42 0.39 0.35 0.29 0.26 0.28 0.33 0.37 0.36 0.33 0.44 0.48 0.47 0.43 0.38 0.48 0.49 0.52 0.55 0.58 0.56 0.56 0.57 0.56
0.50 0.50 0.47 0.47 0.51 0.51 0.54 0.55 0.54 0.53 0.53 0.53 0.55 0.57 0.57 0.59 0.62 0.49 0.45 0.54 0.63 0.60 0.42 0.34 0.36 0.44 0.46 0.48 0.49 0.46 0.45 0.36 0.31 0.28 0.24 0.22 0.22 0.31 0.30 0.30 0.44 0.51 0.50 0.50 0.50 0.50 0.48 0.51 0.48 0.55 0.54 0.55 0.56 0.55
0.49 0.48 0.47 0.49 0.50 0.49 0.49 0.52 0.52 0.53 0.52 0.53 0.51 0.49 0.48 0.59 0.58 0.52 0.59 0.64 0.65 0.53 0.47 0.37 0.37 0.41 0.50 0.43 0.40 0.47 0.39 0.38 0.35 0.31 0.28 0.22 0.23 0.23 0.19 0.31 0.46 0.59 0.56 0.55 0.50 0.52 0.51 0.54 0.54 0.51 0.52 0.51 0.50 0.51
0.48 0.47 0.47 0.48 0.48 0.47 0.48 0.49 0.51 0.52 0.50 0.47 0.42 0.45 0.49 0.44 0.43 0.51 0.63 0.63 0.67 0.53 0.39 0.39 0.34 0.32 0.52 0.45 0.47 0.42 0.41 0.31 0.37 0.31 0.25 0.22 0.19 0.19 0.20 0.24 0.42 0.57 0.55 0.54 0.53 0.52 0.52 0.51 0.50 0.51 0.50 0.50 0.48 0.49
0.44 0.45 0.49 0.48 0.46 0.45 0.47 0.49 0.50 0.48 0.45 0.43 0.39 0.33 0.29 0.35 0.46 0.51 0.54 0.49 0.49 0.49 0.47 0.37 0.43 0.35 0.44 0.43 0.40 0.39 0.40 0.33 0.30 0.33 0.32 0.28 0.27 0.26 0.30 0.45 0.46 0.57 0.58 0.59 0.51 0.47 0.49 0.48 0.49 0.50 0.50 0.51 0.51 0.51
0.42 0.47 0.50 0.49 0.47 0.44 0.46 0.49 0.48 0.45 0.44 0.35 0.28 0.26 0.34 0.44 0.41 0.41 0.38 0.39 0.41 0.37 0.42 0.41 0.41 0.37 0.46 0.37 0.37 0.45 0.37 0.38 0.30 0.37 0.32 0.34 0.34 0.40 0.44 0.45 0.52 0.55 0.59 0.59 0.57 0.55 0.54 0.52 0.52 0.52 0.52 0.53 0.52 0.51
0.42 0.46 0.51 0.50 0.48 0.46 0.48 0.48 0.47 0.43 0.39 0.35 0.31 0.35 0.38 0.34 0.30 0.24 0.25 0.34 0.36 0.33 0.41 0.39 0.39 0.40 0.43 0.51 0.41 0.44 0.37 0.40 0.31 0.45 0.37 0.33 0.45 0.52 0.55 0.54 0.57 0.60 0.59 0.58 0.58 0.56 0.57 0.58 0.57 0.57 0.56 0.55 0.55 0.54
0.44 0.48 0.51 0.50 0.50 0.49 0.50 0.49 0.49 0.45 0.43 0.38 0.28 0.22 0.25 0.24 0.16 0.14 0.13 0.18 0.21 0.32 0.37 0.37 0.34 0.39 0.43 0.48 0.43 0.42 0.36 0.34 0.47 0.37 0.34 0.41 0.46 0.50 0.53 0.54 0.55 0.58 0.59 0.59 0.58 0.58 0.57 0.58 0.60 0.58 0.56 0.58 0.58 0.59
0.45 0.48 0.48 0.47 0.50 0.50 0.51 0.51 0.50 0.45 0.38 0.25 0.19 0.13 0.14 0.14 0.15 0.16 0.17 0.20 0.26 0.27 0.28 0.31 0.34 0.35 0.39 0.37 0.42 0.35 0.41 0.41 0.32 0.30 0.32 0.42 0.45 0.47 0.51 0.53 0.53 0.53 0.56 0.55 0.55 0.55 0.56 0.57 0.57 0.57 0.55 0.54 0.56 0.58
0.46 0.48 0.47 0.49 0.50 0.53 0.55 0.55 0.50 0.46 0.36 0.24 0.21 0.14 0.14 0.19 0.20 0.21 0.23 0.22 0.26 0.29 0.27 0.26 0.29 0.35 0.35 0.34 0.38 0.39 0.34 0.30 0.33 0.33 0.42 0.49 0.51 0.49 0.48 0.50 0.50 0.49 0.51 0.52 0.55 0.57 0.57 0.56 0.53 0.48 0.47 0.49 0.48 0.48
0.45 0.47 0.46 0.50 0.53 0.54 0.54 0.54 0.49 0.45 0.36 0.28 0.24 0.18 0.21 0.17 0.18 0.22 0.23 0.21 0.27 0.26 0.28 0.30 0.26 0.26 0.30 0.35 0.33 0.32 0.32 0.30 0.36 0.44 0.50 0.52 0.53 0.51 0.49 0.49 0.47 0.45 0.45 0.46 0.48 0.48 0.47 0.46 0.44 0.42 0.44 0.45 0.46 0.47
0.47 0.42 0.48 0.50 0.55 0.55 0.55 0.48 0.43 0.35 0.31 0.27 0.22 0.26 0.24 0.22 0.21 0.22 0.24 0.24 0.29 0.22 0.19 0.22 0.20 0.23 0.30 0.28 0.30 0.38 0.34 0.40 0.45 0.48 0.52 0.54 0.53 0.53 0.50 0.48 0.46 0.41 0.41 0.41 0.42 0.44 0.45 0.43 0.41 0.38 0.35 0.36 0.40 0.40
0.40 0.45 0.49 0.51 0.51 0.51 0.49 0.45 0.37 0.32 0.26 0.28 0.23 0.25 0.26 0.26 0.25 0.25 0.27 0.28 0.26 0.24 0.23 0.20 0.24 0.18 0.20 0.20 0.21 0.31 0.37 0.41 0.45 0.47 0.49 0.50 0.55 0.54 0.52 0.46 0.46 0.46 0.47 0.51 0.51 0.51 0.50 0.43 0.38 0.36 0.35 0.34 0.33 0.33
0.43 0.47 0.50 0.51 0.50 0.44 0.36 0.38 0.38 0.27 0.29 0.31 0.31 0.30 0.28 0.28 0.30 0.29 0.29 0.29 0.29 0.30 0.25 0.22 0.18 0.16 0.16 0.22 0.23 0.27 0.33 0.37 0.41 0.47 0.49 0.52 0.54 0.56 0.56 0.55 0.52 0.49 0.50 0.49 0.45 0.40 0.37 0.35 0.33 0.33 0.31 0.30 0.28 0.27
0.49 0.51 0.52 0.51 0.52 0.39 0.32 0.32 0.39 0.30 0.26 0.30 0.30 0.27 0.28 0.27 0.29 0.28 0.28 0.28 0.26 0.24 0.20 0.17 0.16 0.18 0.19 0.22 0.28 0.30 0.33 0.37 0.38 0.36 0.40 0.45 0.52 0.55 0.52 0.50 0.49 0.50 0.43 0.41 0.38 0.33 0.30 0.29 0.28 0.27 0.26 0.26 0.24 0.23
0.48 0.51 0.53 0.53 0.48 0.43 0.36 0.32 0.31 0.33 0.32 0.28 0.30 0.28 0.26 0.28 0.25 0.25 0.24 0.28 0.24 0.21 0.19 0.20 0.19 0.22 0.27 0.28 0.30 0.32 0.32 0.34 0.33 0.35 0.36 0.37 0.43 0.50 0.52 0.50 0.48 0.45 0.42 0.38 0.33 0.28 0.27 0.25 0.25 0.25 0.24 0.23 0.24 0.24
0.42 0.50 0.45 0.50 0.42 0.41 0.36 0.39 0.34 0.34 0.29 0.28 0.27 0.27 0.23 0.21 0.22 0.23 0.26 0.22 0.20 0.19 0.21 0.21 0.22 0.25 0.25 0.25 0.26 0.27 0.28 0.29 0.31 0.33 0.38 0.41 0.38 0.38 0.43 0.46 0.46 0.45 0.43 0.38 0.31 0.25 0.24 0.24 0.23 0.22 0.22 0.22 0.23 0.23
0.49 0.48 0.44 0.43 0.34 0.33 0.29 0.37 0.30 0.31 0.26 0.25 0.25 0.22 0.20 0.19 0.20 0.23 0.18 0.19 0.19 0.22 0.23 0.25 0.27 0.26 0.24 0.25 0.26 0.26 0.28 0.30 0.31 0.31 0.32 0.37 0.40 0.39 0.37 0.41 0.45 0.43 0.42 0.36 0.29 0.25 0.24 0.24 0.22 0.22 0.21 0.20 0.20 0.20
0.49 0.39 0.33 0.30 0.31 0.27 0.32 0.28 0.31 0.28 0.26 0.23 0.21 0.18 0.18 0.19 0.21 0.18 0.15 0.16 0.19 0.22 0.24 0.25 0.24 0.21 0.23 0.25 0.26 0.28 0.29 0.33 0.35 0.35 0.36 0.38 0.39 0.37 0.34 0.34 0.36 0.39 0.39 0.32 0.26 0.24 0.24 0.23 0.22 0.21 0.19 0.18 0.17 0.17
0.31 0.30 0.30 0.26 0.30 0.25 0.23 0.22 0.22 0.21 0.17 0.18 0.17 0.17 0.19 0.20 0.16 0.15 0.14 0.15 0.19 0.22 0.24 0.26 0.26 0.25 0.24 0.25 0.27 0.30 0.35 0.34 0.33 0.36 0.44 0.41 0.36 0.35 0.32 0.30 0.29 0.29 0.27 0.21 0.19 0.21 0.21 0.22 0.21 0.20 0.20 0.19 0.17 0.16
0.20 0.24 0.23 0.23 0.23 0.21 0.19 0.17 0.18 0.17 0.18 0.18 0.19 0.20 0.19 0.18 0.16 0.14 0.15 0.20 0.24 0.25 0.26 0.26 0.26 0.24 0.22 0.22 0.20 0.22 0.28 0.36 0.37 0.34 0.35 0.37 0.33 0.31 0.30 0.29 0.26 0.23 0.22 0.20 0.19 0.19 0.20 0.21 0.21 0.20 0.20 0.19 0.18 0.17
0.19 0.19 0.24 0.28 0.24 0.22 0.20 0.20 0.20 0.19 0.17 0.17 0.18 0.18 0.18 0.16 0.14 0.16 0.23 0.26 0.26 0.27 0.29 0.30 0.29 0.26 0.23 0.20 0.20 0.21 0.23 0.27 0.29 0.35 0.38 0.37 0.38 0.38 0.35 0.31 0.28 0.28 0.26 0.25 0.24 0.24 0.23 0.23 0.23 0.23 0.22 0.21 0.20 0.20
0.23 0.21 0.16 0.20 0.21 0.22 0.19 0.20 0.19 0.18 0.19 0.22 0.20 0.16 0.15 0.15 0.15 0.24 0.26 0.28 0.26 0.25 0.24 0.24 0.24 0.23 0.21 0.21 0.21 0.21 0.21 0.24 0.28 0.29 0.34 0.40 0.39 0.37 0.35 0.35 0.35 0.35 0.33 0.32 0.30 0.30 0.29 0.28 0.27 0.27 0.25 0.22 0.21 0.23
0.22 0.23 0.22 0.19 0.21 0.22 0.21 0.20 0.20 0.21 0.23 0.21 0.17 0.16 0.17 0.20 0.22 0.22 0.25 0.26 0.25 0.22 0.18 0.16 0.15 0.18 0.18 0.18 0.19 0.20 0.21 0.22 0.20 0.20 0.22 0.26 0.32 0.35 0.38 0.37 0.35 0.34 0.33 0.32 0.32 0.30 0.29 0.27 0.26 0.25 0.24 0.22 0.23 0.23
0.20 0.24 0.20 0.20 0.19 0.18 0.20 0.24 0.22 0.25 0.25 0.24 0.24 0.22 0.20 0.20 0.22 0.24 0.22 0.20 0.18 0.15 0.15 0.16 0.17 0.18 0.16 0.16 0.15 0.16 0.19 0.21 0.21 0.20 0.20 0.24 0.29 0.33 0.35 0.35 0.35 0.34 0.33 0.32 0.30 0.30 0.31 0.29 0.27 0.25 0.23 0.22 0.22 0.22
0.24 0.24 0.22 0.21 0.18 0.21 0.23 0.25 0.25 0.24 0.23 0.21 0.21 0.18 0.16 0.17 0.18 0.19 0.18 0.17 0.16 0.15 0.14 0.15 0.16 0.19 0.18 0.16 0.15 0.14 0.15 0.21 0.24 0.27 0.30 0.31 0.32 0.33 0.33 0.34 0.35 0.34 0.33 0.32 0.30 0.27 0.24 0.22 0.21 0.20 0.20 0.20 0.21 0.21
0.23 0.21 0.20 0.17 0.18 0.22 0.22 0.20 0.19 0.18 0.18 0.16 0.15 0.16 0.15 0.14 0.12 0.14 0.16 0.15 0.14 0.12 0.13 0.16 0.17 0.19 0.20 0.19 0.18 0.19 0.22 0.26 0.29 0.29 0.30 0.31 0.32 0.33 0.33 0.34 0.33 0.30 0.26 0.22 0.21 0.20 0.20 0.20 0.20 0.20 0.20 0.20 0.20 0.20
0.21 0.21 0.20 0.19 0.17 0.16 0.17 0.17 0.15 0.15 0.15 0.14 0.14 0.14 0.14 0.13 0.11 0.13 0.17 0.17 0.15 0.14 0.15 0.18 0.21 0.21 0.21 0.20 0.21 0.24 0.26 0.25 0.25 0.27 0.28 0.29 0.28 0.26 0.23 0.22 0.22 0.22 0.21 0.21 0.21 0.21 0.21 0.20 0.20 0.20 0.20 0.20 0.20 0.21

GFSWCAN_prec_pwat_039.txt.gz
Precipitable_Water
0.58 0.57 0.56 0.52 0.52 0.53 0.55 0.58 0.62 0.61 0.59 0.58 0.60 0.61 0.62 0.62 0.63 0.60 0.56 0.60 0.48 0.38 0.40 0.45 0.45 0.32 0.28 0.25 0.24 0.35 0.37 0.41 0.38 0.30 0.28 0.26 0.25 0.28 0.30 0.32 0.31 0.28 0.25 0.25 0.28 0.23 0.18 0.42 0.41 0.32 0.43 0.51 0.49 0.46
0.56 0.58 0.55 0.55 0.53 0.53 0.54 0.58 0.61 0.59 0.58 0.57 0.58 0.59 0.61 0.62 0.64 0.63 0.51 0.57 0.56 0.42 0.37 0.48 0.50 0.54 0.42 0.36 0.28 0.25 0.33 0.36 0.39 0.33 0.34 0.34 0.26 0.29 0.28 0.23 0.37 0.28 0.32 0.27 0.27 0.26 0.37 0.45 0.43 0.48 0.52 0.52 0.56 0.56
0.56 0.56 0.56 0.56 0.55 0.54 0.54 0.56 0.59 0.56 0.57 0.58 0.55 0.56 0.60 0.62 0.66 0.61 0.51 0.57 0.56 0.46 0.40 0.42 0.42 0.51 0.56 0.49 0.46 0.30 0.29 0.33 0.37 0.44 0.39 0.39 0.31 0.37 0.26 0.25 0.28 0.33 0.40 0.33 0.33 0.35 0.38 0.41 0.46 0.50 0.52 0.54 0.57 0.61
0.56 0.55 0.56 0.54 0.53 0.53 0.54 0.55 0.56 0.55 0.56 0.57 0.53 0.53 0.58 0.62 0.63 0.60 0.54 0.59 0.54 0.47 0.35 0.38 0.52 0.50 0.58 0.58 0.51 0.46 0.41 0.41 0.40 0.41 0.37 0.40 0.37 0.46 0.38 0.39 0.36 0.37 0.38 0.33 0.33 0.38 0.41 0.43 0.45 0.48 0.51 0.54 0.55 0.58
0.54 0.53 0.52 0.50 0.50 0.52 0.54 0.55 0.54 0.54 0.55 0.53 0.51 0.53 0.56 0.62 0.60 0.60 0.56 0.57 0.60 0.45 0.35 0.39 0.51 0.54 0.53 0.55 0.55 0.55 0.52 0.50 0.42 0.33 0.29 0.26 0.31 0.31 0.33 0.36 0.36 0.46 0.42 0.34 0.28 0.41 0.40 0.41 0.47 0.51 0.49 0.52 0.56 0.55
0.51 0.50 0.48 0.47 0.49 0.52 0.54 0.54 0.52 0.52 0.48 0.49 0.51 0.53 0.54 0.53 0.58 0.56 0.46 0.59 0.61 0.58 0.44 0.35 0.46 0.47 0.49 0.50 0.51 0.47 0.43 0.42 0.40 0.32 0.28 0.28 0.31 0.28 0.22 0.20 0.25 0.32 0.48 0.54 0.45 0.48 0.46 0.49 0.52 0.55 0.54 0.56 0.58 0.57
0.49 0.48 0.46 0.46 0.49 0.52 0.53 0.50 0.48 0.46 0.45 0.46 0.48 0.50 0.49 0.51 0.52 0.43 0.41 0.53 0.63 0.60 0.42 0.36 0.39 0.48 0.49 0.51 0.50 0.49 0.50 0.45 0.41 0.35 0.31 0.29 0.27 0.28 0.22 0.15 0.22 0.37 0.43 0.53 0.57 0.58 0.46 0.48 0.49 0.56 0.56 0.56 0.57 0.56
0.49 0.47 0.46 0.48 0.51 0.51 0.49 0.48 0.47 0.47 0.44 0.44 0.42 0.41 0.47 0.51 0.52 0.45 0.59 0.62 0.64 0.52 0.48 0.37 0.37 0.42 0.52 0.45 0.43 0.50 0.43 0.43 0.41 0.36 0.35 0.28 0.29 0.28 0.17 0.17 0.18 0.29 0.43 0.53 0.58 0.60 0.57 0.56 0.56 0.55 0.55 0.54 0.49 0.48
0.49 0.47 0.47 0.50 0.51 0.49 0.49 0.47 0.46 0.43 0.41 0.40 0.37 0.43 0.46 0.39 0.34 0.40 0.59 0.66 0.65 0.50 0.37 0.36 0.32 0.30 0.49 0.44 0.48 0.45 0.43 0.32 0.38 0.32 0.31 0.28 0.26 0.24 0.24 0.20 0.22 0.28 0.45 0.52 0.60 0.63 0.60 0.54 0.53 0.54 0.54 0.53 0.50 0.49
0.48 0.48 0.49 0.50 0.49 0.48 0.46 0.46 0.43 0.41 0.38 0.38 0.36 0.30 0.26 0.32 0.44 0.46 0.42 0.39 0.44 0.46 0.45 0.36 0.42 0.34 0.42 0.41 0.40 0.39 0.40 0.33 0.28 0.32 0.38 0.30 0.28 0.38 0.35 0.30 0.46 0.43 0.49 0.56 0.53 0.53 0.55 0.52 0.53 0.54 0.54 0.55 0.53 0.51
0.46 0.46 0.49 0.50 0.48 0.46 0.46 0.44 0.42 0.40 0.37 0.31 0.25 0.23 0.35 0.46 0.38 0.33 0.25 0.24 0.27 0.27 0.33 0.36 0.38 0.33 0.43 0.36 0.37 0.43 0.36 0.36 0.28 0.34 0.32 0.32 0.34 0.45 0.52 0.40 0.43 0.49 0.56 0.57 0.60 0.59 0.59 0.58 0.56 0.56 0.56 0.56 0.54 0.53
0.44 0.47 0.51 0.50 0.47 0.47 0.47 0.45 0.42 0.37 0.32 0.31 0.29 0.33 0.36 0.31 0.26 0.20 0.17 0.21 0.20 0.17 0.25 0.24 0.27 0.34 0.39 0.47 0.39 0.42 0.35 0.37 0.28 0.43 0.34 0.31 0.41 0.49 0.52 0.53 0.53 0.53 0.55 0.57 0.61 0.59 0.60 0.61 0.61 0.59 0.58 0.56 0.56 0.56
0.45 0.47 0.52 0.51 0.48 0.49 0.48 0.47 0.45 0.42 0.40 0.35 0.27 0.22 0.23 0.21 0.13 0.09 0.09 0.13 0.14 0.20 0.23 0.22 0.19 0.26 0.35 0.44 0.39 0.40 0.35 0.33 0.45 0.35 0.33 0.38 0.47 0.49 0.51 0.54 0.55 0.58 0.60 0.60 0.60 0.61 0.61 0.62 0.62 0.60 0.57 0.56 0.57 0.56
0.47 0.50 0.49 0.51 0.48 0.48 0.48 0.48 0.46 0.43 0.35 0.23 0.19 0.15 0.15 0.14 0.13 0.14 0.14 0.16 0.22 0.22 0.21 0.22 0.20 0.22 0.29 0.31 0.39 0.33 0.39 0.41 0.31 0.29 0.32 0.42 0.48 0.51 0.50 0.51 0.52 0.53 0.57 0.58 0.59 0.60 0.58 0.59 0.59 0.58 0.53 0.50 0.48 0.46
0.50 0.50 0.50 0.50 0.50 0.51 0.51 0.50 0.48 0.43 0.33 0.24 0.22 0.16 0.16 0.21 0.22 0.22 0.23 0.21 0.23 0.25 0.22 0.20 0.22 0.23 0.25 0.28 0.35 0.36 0.33 0.30 0.33 0.30 0.37 0.46 0.50 0.52 0.50 0.50 0.49 0.50 0.52 0.54 0.56 0.55 0.55 0.57 0.56 0.51 0.45 0.47 0.47 0.46
0.48 0.48 0.48 0.52 0.53 0.52 0.50 0.49 0.44 0.41 0.34 0.29 0.27 0.21 0.23 0.20 0.19 0.22 0.22 0.22 0.27 0.25 0.25 0.24 0.19 0.18 0.20 0.23 0.23 0.27 0.30 0.28 0.30 0.37 0.44 0.48 0.47 0.50 0.52 0.51 0.47 0.44 0.45 0.47 0.48 0.54 0.53 0.47 0.44 0.41 0.40 0.39 0.41 0.41
0.44 0.39 0.48 0.52 0.55 0.53 0.51 0.42 0.38 0.31 0.28 0.26 0.24 0.29 0.26 0.25 0.23 0.23 0.25 0.25 0.32 0.25 0.19 0.20 0.15 0.16 0.20 0.17 0.17 0.25 0.24 0.27 0.32 0.35 0.42 0.47 0.49 0.50 0.53 0.52 0.49 0.41 0.40 0.39 0.42 0.45 0.44 0.46 0.45 0.38 0.35 0.35 0.40 0.40
0.40 0.46 0.50 0.51 0.50 0.45 0.42 0.39 0.32 0.29 0.24 0.26 0.23 0.27 0.30 0.29 0.26 0.27 0.28 0.29 0.27 0.25 0.23 0.20 0.23 0.16 0.13 0.12 0.12 0.17 0.21 0.28 0.32 0.34 0.37 0.44 0.50 0.52 0.53 0.51 0.50 0.49 0.49 0.54 0.56 0.55 0.51 0.47 0.46 0.42 0.38 0.38 0.38 0.37
0.44 0.47 0.49 0.49 0.46 0.36 0.30 0.34 0.35 0.24 0.26 0.27 0.28 0.30 0.30 0.31 0.33 0.33 0.32 0.32 0.32 0.32 0.27 0.24 0.19 0.16 0.15 0.17 0.16 0.17 0.22 0.24 0.26 0.30 0.34 0.37 0.41 0.46 0.50 0.53 0.54 0.51 0.52 0.54 0.52 0.45 0.41 0.38 0.34 0.32 0.31 0.31 0.30 0.30
0.51 0.51 0.51 0.50 0.46 0.32 0.28 0.30 0.37 0.28 0.24 0.28 0.28 0.26 0.27 0.28 0.31 0.31 0.30 0.30 0.29 0.27 0.23 0.20 0.17 0.18 0.18 0.18 0.22 0.23 0.25 0.27 0.26 0.26 0.28 0.32 0.37 0.42 0.44 0.49 0.52 0.54 0.53 0.52 0.44 0.41 0.35 0.32 0.31 0.30 0.29 0.29 0.28 0.27
0.49 0.49 0.50 0.48 0.43 0.39 0.34 0.30 0.29 0.30 0.30 0.27 0.28 0.27 0.26 0.28 0.26 0.24 0.23 0.29 0.26 0.23 0.19 0.20 0.19 0.20 0.23 0.24 0.27 0.28 0.26 0.26 0.24 0.24 0.25 0.26 0.32 0.35 0.40 0.44 0.49 0.53 0.48 0.45 0.42 0.39 0.35 0.29 0.27 0.28 0.27 0.27 0.28 0.28
0.42 0.48 0.45 0.46 0.39 0.39 0.35 0.38 0.31 0.33 0.29 0.27 0.27 0.27 0.24 0.22 0.21 0.23 0.27 0.23 0.21 0.20 0.20 0.19 0.20 0.21 0.22 0.23 0.25 0.26 0.27 0.27 0.27 0.28 0.29 0.30 0.30 0.32 0.33 0.39 0.41 0.43 0.45 0.46 0.45 0.41 0.34 0.27 0.27 0.27 0.26 0.25 0.25 0.25
0.45 0.43 0.39 0.40 0.32 0.32 0.29 0.37 0.30 0.30 0.25 0.24 0.25 0.23 0.22 0.22 0.23 0.25 0.19 0.20 0.18 0.18 0.20 0.22 0.23 0.26 0.25 0.25 0.27 0.28 0.30 0.29 0.29 0.29 0.31 0.33 0.34 0.34 0.35 0.39 0.41 0.39 0.39 0.43 0.46 0.43 0.35 0.28 0.27 0.26 0.26 0.25 0.24 0.22
0.47 0.38 0.31 0.28 0.30 0.26 0.31 0.28 0.31 0.27 0.26 0.24 0.23 0.20 0.21 0.21 0.22 0.18 0.15 0.14 0.14 0.18 0.20 0.21 0.23 0.23 0.23 0.26 0.27 0.27 0.26 0.27 0.27 0.29 0.31 0.34 0.37 0.38 0.37 0.39 0.40 0.40 0.37 0.38 0.40 0.40 0.31 0.26 0.26 0.25 0.25 0.24 0.24 0.22
0.30 0.30 0.31 0.26 0.30 0.26 0.24 0.23 0.23 0.22 0.19 0.21 0.20 0.19 0.19 0.21 0.17 0.15 0.12 0.12 0.16 0.19 0.22 0.24 0.25 0.25 0.24 0.25 0.24 0.22 0.22 0.22 0.20 0.20 0.25 0.33 0.36 0.35 0.33 0.35 0.37 0.38 0.39 0.36 0.33 0.29 0.23 0.21 0.21 0.22 0.23 0.24 0.23 0.23
0.23 0.28 0.26 0.25 0.26 0.23 0.21 0.18 0.18 0.18 0.19 0.18 0.19 0.20 0.20 0.18 0.15 0.12 0.13 0.16 0.19 0.22 0.23 0.24 0.26 0.29 0.30 0.29 0.27 0.26 0.24 0.24 0.23 0.21 0.21 0.25 0.33 0.35 0.33 0.31 0.32 0.33 0.35 0.31 0.25 0.21 0.19 0.19 0.20 0.22 0.23 0.24 0.24 0.24
0.20 0.20 0.26 0.30 0.25 0.23 0.20 0.20 0.20 0.18 0.17 0.16 0.18 0.18 0.17 0.14 0.12 0.14 0.19 0.23 0.25 0.27 0.29 0.29 0.29 0.27 0.26 0.24 0.22 0.21 0.21 0.21 0.21 0.23 0.25 0.24 0.28 0.35 0.38 0.34 0.31 0.33 0.34 0.31 0.26 0.23 0.22 0.21 0.22 0.23 0.23 0.24 0.25 0.24
0.22 0.22 0.18 0.21 0.21 0.22 0.18 0.18 0.17 0.16 0.17 0.20 0.20 0.16 0.15 0.14 0.13 0.19 0.22 0.25 0.28 0.27 0.25 0.24 0.25 0.24 0.21 0.18 0.17 0.17 0.18 0.19 0.20 0.22 0.23 0.23 0.24 0.28 0.34 0.40 0.41 0.39 0.37 0.36 0.34 0.32 0.31 0.29 0.28 0.28 0.28 0.27 0.27 0.27
0.22 0.23 0.22 0.19 0.21 0.21 0.19 0.18 0.18 0.19 0.22 0.21 0.17 0.16 0.16 0.19 0.21 0.22 0.23 0.24 0.24 0.23 0.21 0.19 0.17 0.16 0.16 0.16 0.17 0.19 0.21 0.19 0.17 0.15 0.15 0.17 0.18 0.20 0.27 0.32 0.37 0.39 0.39 0.38 0.37 0.36 0.33 0.32 0.31 0.30 0.29 0.28 0.27 0.26
0.21 0.25 0.21 0.20 0.19 0.16 0.17 0.22 0.20 0.22 0.24 0.23 0.23 0.21 0.20 0.21 0.22 0.24 0.22 0.22 0.20 0.18 0.17 0.17 0.16 0.16 0.15 0.15 0.16 0.18 0.21 0.20 0.18 0.17 0.16 0.17 0.19 0.23 0.27 0.29 0.32 0.34 0.35 0.35 0.35 0.35 0.36 0.34 0.33 0.32 0.31 0.29 0.27 0.24
0.25 0.25 0.22 0.20 0.17 0.18 0.22 0.24 0.24 0.24 0.23 0.22 0.22 0.20 0.17 0.18 0.18 0.20 0.19 0.18 0.17 0.16 0.16 0.14 0.14 0.15 0.15 0.17 0.19 0.18 0.17 0.20 0.20 0.21 0.23 0.25 0.28 0.30 0.31 0.31 0.32 0.33 0.33 0.33 0.33 0.32 0.32 0.31 0.29 0.26 0.24 0.22 0.21 0.21
0.22 0.20 0.18 0.16 0.17 0.21 0.23 0.21 0.20 0.18 0.18 0.17 0.16 0.17 0.15 0.15 0.12 0.13 0.16 0.16 0.15 0.15 0.15 0.15 0.14 0.15 0.18 0.19 0.21 0.21 0.21 0.21 0.23 0.26 0.28 0.26 0.26 0.28 0.32 0.33 0.34 0.33 0.33 0.32 0.29 0.26 0.23 0.21 0.20 0.20 0.20 0.20 0.21 0.21
0.21 0.21 0.20 0.20 0.19 0.19 0.20 0.19 0.17 0.14 0.13 0.12 0.12 0.13 0.13 0.13 0.12 0.14 0.17 0.18 0.17 0.16 0.16 0.16 0.16 0.17 0.18 0.19 0.21 0.21 0.21 0.21 0.23 0.25 0.24 0.24 0.23 0.22 0.22 0.22 0.21 0.21 0.20 0.20 0.21 0.21 0.21 0.21 0.21 0.21 0.20 0.20 0.20 0.20

GFSWCAN_prec_pwat_045.txt.gz
Precipitable_Water
0.94 0.80 0.66 0.55 0.56 0.55 0.55 0.58 0.59 0.54 0.52 0.52 0.51 0.54 0.57 0.56 0.55 0.51 0.45 0.49 0.39 0.32 0.36 0.40 0.42 0.36 0.30 0.32 0.35 0.41 0.41 0.42 0.40 0.31 0.30 0.28 0.26 0.28 0.27 0.32 0.32 0.30 0.27 0.25 0.27 0.24 0.19 0.38 0.39 0.31 0.39 0.44 0.49 0.50
0.96 0.76 0.61 0.54 0.54 0.53 0.54 0.56 0.57 0.54 0.53 0.52 0.51 0.51 0.55 0.54 0.55 0.53 0.41 0.51 0.52 0.38 0.38 0.47 0.45 0.48 0.47 0.38 0.31 0.37 0.39 0.39 0.40 0.34 0.33 0.32 0.28 0.30 0.26 0.20 0.34 0.27 0.33 0.29 0.30 0.26 0.37 0.42 0.43 0.48 0.50 0.47 0.50 0.54
0.88 0.75 0.56 0.53 0.54 0.54 0.54 0.56 0.54 0.54 0.53 0.50 0.48 0.49 0.53 0.55 0.54 0.52 0.45 0.48 0.44 0.37 0.39 0.39 0.38 0.45 0.52 0.52 0.47 0.28 0.33 0.43 0.41 0.42 0.36 0.33 0.25 0.32 0.22 0.23 0.26 0.31 0.37 0.31 0.32 0.33 0.36 0.41 0.44 0.47 0.50 0.50 0.54 0.59
0.84 0.64 0.55 0.55 0.53 0.55 0.54 0.53 0.53 0.53 0.53 0.48 0.47 0.49 0.52 0.52 0.55 0.51 0.45 0.51 0.45 0.40 0.32 0.38 0.53 0.48 0.53 0.54 0.53 0.49 0.39 0.39 0.38 0.35 0.27 0.26 0.25 0.36 0.29 0.35 0.35 0.37 0.39 0.35 0.33 0.38 0.41 0.41 0.45 0.48 0.49 0.52 0.53 0.58
0.76 0.62 0.58 0.54 0.52 0.55 0.54 0.53 0.52 0.52 0.50 0.46 0.46 0.49 0.50 0.51 0.52 0.50 0.51 0.53 0.53 0.40 0.31 0.36 0.47 0.52 0.53 0.53 0.51 0.54 0.48 0.38 0.35 0.29 0.29 0.31 0.33 0.31 0.32 0.30 0.24 0.28 0.25 0.23 0.23 0.39 0.40 0.41 0.48 0.54 0.49 0.49 0.52 0.54
0.67 0.67 0.56 0.53 0.55 0.55 0.52 0.52 0.52 0.50 0.46 0.45 0.45 0.44 0.46 0.51 0.52 0.46 0.38 0.51 0.55 0.53 0.38 0.31 0.46 0.45 0.49 0.50 0.49 0.48 0.49 0.46 0.42 0.36 0.36 0.39 0.41 0.35 0.25 0.23 0.29 0.32 0.31 0.28 0.25 0.28 0.32 0.41 0.53 0.55 0.54 0.54 0.56 0.55
0.67 0.63 0.56 0.56 0.56 0.54 0.53 0.52 0.50 0.46 0.44 0.43 0.40 0.41 0.42 0.45 0.46 0.37 0.35 0.46 0.56 0.51 0.37 0.32 0.36 0.43 0.46 0.48 0.52 0.49 0.51 0.48 0.46 0.43 0.39 0.38 0.37 0.37 0.31 0.24 0.30 0.35 0.34 0.29 0.28 0.27 0.23 0.29 0.36 0.58 0.57 0.56 0.59 0.60
0.66 0.57 0.57 0.56 0.55 0.54 0.52 0.51 0.46 0.45 0.42 0.40 0.41 0.39 0.39 0.42 0.43 0.37 0.47 0.49 0.48 0.37 0.34 0.23 0.26 0.33 0.45 0.38 0.40 0.49 0.43 0.44 0.43 0.41 0.42 0.38 0.39 0.35 0.27 0.35 0.40 0.41 0.39 0.35 0.36 0.38 0.34 0.33 0.37 0.47 0.64 0.60 0.54 0.55
0.62 0.60 0.57 0.56 0.55 0.54 0.50 0.49 0.45 0.42 0.39 0.40 0.43 0.40 0.35 0.30 0.27 0.33 0.46 0.47 0.41 0.29 0.20 0.18 0.14 0.14 0.34 0.35 0.42 0.43 0.44 0.34 0.42 0.36 0.37 0.38 0.34 0.31 0.38 0.41 0.43 0.46 0.40 0.38 0.45 0.44 0.41 0.42 0.42 0.46 0.59 0.62 0.57 0.55
0.61 0.58 0.55 0.54 0.55 0.53 0.50 0.46 0.44 0.41 0.40 0.43 0.37 0.27 0.20 0.29 0.40 0.41 0.34 0.26 0.27 0.26 0.24 0.17 0.22 0.15 0.24 0.25 0.30 0.35 0.40 0.35 0.30 0.35 0.41 0.35 0.33 0.43 0.47 0.48 0.48 0.48 0.49 0.45 0.42 0.42 0.46 0.46 0.46 0.46 0.56 0.61 0.64 0.59
0.59 0.55 0.54 0.54 0.56 0.50 0.46 0.45 0.43 0.42 0.41 0.32 0.24 0.23 0.35 0.43 0.33 0.26 0.18 0.17 0.18 0.15 0.20 0.20 0.20 0.16 0.26 0.19 0.21 0.33 0.32 0.36 0.29 0.35 0.34 0.33 0.31 0.38 0.49 0.49 0.50 0.52 0.51 0.51 0.51 0.53 0.55 0.53 0.52 0.50 0.56 0.62 0.64 0.63
0.54 0.55 0.56 0.57 0.52 0.46 0.47 0.45 0.44 0.38 0.34 0.31 0.30 0.38 0.37 0.28 0.22 0.15 0.13 0.16 0.14 0.11 0.18 0.16 0.17 0.19 0.23 0.31 0.26 0.30 0.29 0.35 0.28 0.41 0.33 0.27 0.30 0.39 0.45 0.47 0.50 0.51 0.51 0.52 0.54 0.53 0.56 0.56 0.58 0.59 0.60 0.61 0.63 0.64
0.53 0.54 0.53 0.52 0.48 0.47 0.46 0.46 0.47 0.43 0.39 0.34 0.27 0.25 0.24 0.21 0.12 0.10 0.09 0.12 0.12 0.17 0.19 0.18 0.14 0.19 0.24 0.28 0.25 0.26 0.25 0.28 0.42 0.33 0.28 0.25 0.30 0.37 0.43 0.45 0.48 0.51 0.49 0.52 0.53 0.55 0.55 0.57 0.59 0.58 0.57 0.58 0.59 0.58
0.51 0.52 0.53 0.49 0.47 0.47 0.45 0.45 0.44 0.41 0.35 0.26 0.21 0.18 0.19 0.15 0.14 0.15 0.15 0.16 0.21 0.22 0.21 0.21 0.18 0.18 0.22 0.21 0.22 0.18 0.23 0.31 0.26 0.24 0.23 0.26 0.27 0.34 0.39 0.41 0.43 0.45 0.46 0.46 0.51 0.53 0.53 0.55 0.55 0.57 0.58 0.55 0.50 0.47
0.53 0.55 0.52 0.49 0.48 0.47 0.45 0.45 0.45 0.42 0.32 0.24 0.23 0.18 0.19 0.23 0.24 0.25 0.26 0.24 0.25 0.27 0.24 0.22 0.21 0.21 0.20 0.19 0.22 0.19 0.17 0.18 0.17 0.14 0.17 0.20 0.23 0.27 0.29 0.33 0.35 0.40 0.43 0.44 0.45 0.49 0.52 0.53 0.53 0.55 0.56 0.45 0.42 0.42
0.57 0.54 0.49 0.51 0.47 0.46 0.45 0.44 0.42 0.38 0.30 0.24 0.23 0.20 0.23 0.21 0.22 0.24 0.25 0.25 0.29 0.29 0.28 0.25 0.19 0.17 0.17 0.19 0.16 0.14 0.15 0.12 0.15 0.20 0.20 0.22 0.21 0.21 0.24 0.28 0.31 0.36 0.41 0.43 0.46 0.45 0.50 0.51 0.51 0.50 0.44 0.42 0.43 0.41
0.51 0.44 0.52 0.50 0.48 0.49 0.46 0.39 0.35 0.27 0.23 0.21 0.19 0.23 0.22 0.22 0.22 0.26 0.28 0.28 0.33 0.26 0.20 0.21 0.16 0.15 0.21 0.16 0.14 0.20 0.18 0.21 0.19 0.20 0.23 0.23 0.21 0.22 0.23 0.25 0.27 0.30 0.36 0.42 0.49 0.50 0.51 0.53 0.53 0.52 0.51 0.45 0.40 0.39
0.43 0.49 0.51 0.48 0.48 0.46 0.40 0.37 0.28 0.23 0.18 0.21 0.17 0.19 0.23 0.25 0.24 0.26 0.28 0.31 0.29 0.26 0.24 0.20 0.24 0.18 0.15 0.13 0.14 0.17 0.23 0.23 0.23 0.22 0.22 0.22 0.23 0.22 0.24 0.23 0.24 0.26 0.31 0.40 0.47 0.51 0.51 0.51 0.49 0.49 0.48 0.44 0.42 0.38
0.47 0.49 0.50 0.48 0.46 0.36 0.29 0.29 0.29 0.18 0.20 0.22 0.23 0.24 0.25 0.26 0.28 0.28 0.28 0.31 0.32 0.33 0.29 0.25 0.20 0.18 0.18 0.20 0.19 0.19 0.19 0.21 0.20 0.21 0.21 0.22 0.23 0.24 0.26 0.27 0.27 0.28 0.28 0.33 0.40 0.48 0.50 0.51 0.50 0.42 0.37 0.39 0.39 0.36
0.49 0.52 0.51 0.48 0.41 0.28 0.23 0.25 0.31 0.22 0.18 0.21 0.23 0.22 0.24 0.25 0.27 0.28 0.28 0.29 0.29 0.28 0.24 0.21 0.19 0.20 0.19 0.19 0.21 0.21 0.22 0.24 0.23 0.20 0.19 0.20 0.25 0.26 0.26 0.28 0.29 0.30 0.31 0.31 0.35 0.44 0.49 0.50 0.52 0.46 0.38 0.33 0.30 0.30
0.52 0.52 0.52 0.48 0.38 0.32 0.27 0.26 0.24 0.24 0.24 0.20 0.22 0.23 0.24 0.26 0.25 0.25 0.25 0.30 0.27 0.24 0.21 0.22 0.21 0.21 0.23 0.23 0.24 0.24 0.22 0.23 0.21 0.22 0.22 0.23 0.23 0.23 0.22 0.24 0.29 0.32 0.30 0.30 0.31 0.36 0.45 0.48 0.51 0.46 0.41 0.34 0.30 0.29
0.49 0.52 0.46 0.44 0.34 0.32 0.30 0.32 0.27 0.28 0.24 0.22 0.22 0.25 0.24 0.22 0.23 0.24 0.28 0.25 0.23 0.23 0.23 0.20 0.19 0.20 0.19 0.19 0.19 0.21 0.22 0.24 0.25 0.27 0.27 0.25 0.23 0.21 0.21 0.21 0.23 0.25 0.31 0.32 0.33 0.34 0.39 0.48 0.51 0.49 0.43 0.35 0.30 0.29
0.48 0.45 0.41 0.38 0.29 0.27 0.27 0.34 0.26 0.24 0.18 0.21 0.25 0.23 0.23 0.23 0.24 0.27 0.22 0.23 0.21 0.21 0.21 0.20 0.19 0.20 0.20 0.22 0.23 0.24 0.25 0.24 0.24 0.23 0.25 0.26 0.29 0.30 0.24 0.21 0.22 0.22 0.25 0.32 0.34 0.36 0.38 0.42 0.46 0.47 0.47 0.41 0.33 0.29
0.47 0.36 0.29 0.27 0.27 0.24 0.29 0.25 0.26 0.22 0.23 0.24 0.23 0.21 0.22 0.22 0.23 0.20 0.17 0.16 0.17 0.18 0.19 0.18 0.19 0.19 0.21 0.22 0.24 0.26 0.27 0.29 0.29 0.30 0.29 0.27 0.26 0.25 0.22 0.20 0.20 0.21 0.23 0.29 0.34 0.34 0.38 0.40 0.41 0.42 0.43 0.40 0.33 0.29
0.23 0.26 0.25 0.22 0.26 0.22 0.20 0.19 0.20 0.22 0.21 0.23 0.22 0.21 0.21 0.21 0.17 0.15 0.13 0.12 0.15 0.16 0.17 0.20 0.21 0.21 0.22 0.24 0.25 0.27 0.29 0.29 0.28 0.27 0.27 0.27 0.24 0.20 0.17 0.18 0.20 0.21 0.23 0.25 0.31 0.33 0.36 0.40 0.40 0.40 0.38 0.35 0.29 0.25
0.18 0.23 0.19 0.20 0.21 0.19 0.20 0.20 0.22 0.22 0.22 0.21 0.20 0.20 0.19 0.17 0.14 0.11 0.12 0.13 0.15 0.17 0.18 0.20 0.21 0.22 0.21 0.23 0.22 0.23 0.25 0.26 0.25 0.21 0.20 0.20 0.18 0.16 0.16 0.16 0.17 0.19 0.22 0.24 0.31 0.33 0.35 0.38 0.37 0.37 0.35 0.30 0.25 0.22
0.17 0.20 0.25 0.29 0.27 0.26 0.24 0.25 0.25 0.21 0.18 0.16 0.17 0.16 0.16 0.13 0.11 0.12 0.15 0.17 0.18 0.21 0.23 0.24 0.24 0.22 0.21 0.21 0.22 0.22 0.23 0.23 0.21 0.20 0.19 0.19 0.18 0.19 0.20 0.19 0.19 0.20 0.23 0.25 0.28 0.34 0.32 0.32 0.31 0.29 0.26 0.23 0.20 0.20
0.24 0.25 0.22 0.26 0.27 0.28 0.24 0.23 0.20 0.17 0.17 0.19 0.18 0.14 0.13 0.12 0.11 0.15 0.18 0.21 0.22 0.22 0.23 0.24 0.23 0.22 0.20 0.20 0.20 0.20 0.19 0.20 0.19 0.19 0.18 0.18 0.19 0.22 0.23 0.24 0.24 0.23 0.25 0.27 0.27 0.34 0.36 0.34 0.32 0.30 0.27 0.26 0.25 0.26
0.26 0.28 0.27 0.24 0.25 0.23 0.22 0.19 0.18 0.19 0.20 0.18 0.15 0.13 0.13 0.16 0.17 0.18 0.20 0.22 0.23 0.21 0.19 0.17 0.16 0.19 0.18 0.19 0.19 0.19 0.19 0.17 0.15 0.12 0.12 0.12 0.16 0.20 0.23 0.23 0.22 0.22 0.24 0.26 0.27 0.28 0.35 0.40 0.39 0.37 0.35 0.35 0.35 0.35
0.25 0.27 0.21 0.20 0.18 0.17 0.18 0.21 0.19 0.21 0.22 0.22 0.20 0.18 0.17 0.17 0.20 0.23 0.22 0.21 0.19 0.15 0.15 0.15 0.15 0.15 0.15 0.15 0.14 0.15 0.18 0.18 0.17 0.15 0.13 0.14 0.18 0.21 0.22 0.23 0.23 0.23 0.25 0.25 0.25 0.26 0.29 0.30 0.32 0.34 0.34 0.34 0.34 0.33
0.24 0.23 0.21 0.20 0.18 0.19 0.20 0.22 0.23 0.23 0.22 0.21 0.21 0.18 0.16 0.18 0.18 0.20 0.19 0.18 0.15 0.13 0.13 0.11 0.12 0.14 0.15 0.15 0.14 0.14 0.14 0.16 0.17 0.18 0.18 0.20 0.20 0.21 0.22 0.25 0.26 0.27 0.27 0.27 0.27 0.29 0.30 0.31 0.31 0.31 0.31 0.31 0.31 0.31
0.22 0.20 0.18 0.16 0.17 0.21 0.22 0.20 0.19 0.18 0.18 0.17 0.16 0.18 0.18 0.18 0.14 0.15 0.15 0.14 0.11 0.10 0.11 0.13 0.13 0.13 0.16 0.18 0.18 0.17 0.17 0.17 0.17 0.18 0.19 0.19 0.18 0.19 0.20 0.21 0.22 0.22 0.23 0.23 0.24 0.25 0.26 0.27 0.28 0.28 0.28 0.27 0.27 0.26
0.19 0.20 0.20 0.19 0.18 0.17 0.19 0.19 0.17 0.16 0.16 0.15 0.15 0.15 0.15 0.14 0.10 0.12 0.14 0.14 0.12 0.12 0.12 0.14 0.16 0.18 0.18 0.18 0.17 0.17 0.17 0.17 0.18 0.20 0.21 0.21 0.21 0.22 0.23 0.23 0.23 0.23 0.22 0.22 0.21 0.21 0.21 0.20 0.20 0.20 0.20 0.20 0.21 0.21

GFSWCAN_prec_pwat_048.txt.gz
Precipitable_Water
1.29 1.22 0.97 0.81 0.72 0.62 0.58 0.60 0.57 0.54 0.54 0.53 0.52 0.53 0.52 0.52 0.51 0.45 0.43 0.48 0.36 0.31 0.35 0.38 0.38 0.32 0.31 0.33 0.35 0.41 0.43 0.44 0.43 0.33 0.31 0.29 0.27 0.29 0.28 0.31 0.31 0.30 0.28 0.27 0.27 0.23 0.19 0.39 0.41 0.32 0.38 0.45 0.46 0.47
1.24 1.13 1.01 0.89 0.65 0.60 0.60 0.57 0.55 0.53 0.56 0.53 0.52 0.54 0.53 0.53 0.50 0.47 0.37 0.47 0.46 0.34 0.35 0.43 0.43 0.45 0.45 0.38 0.30 0.40 0.40 0.42 0.44 0.36 0.34 0.33 0.27 0.31 0.26 0.20 0.33 0.25 0.33 0.30 0.32 0.28 0.38 0.43 0.42 0.47 0.48 0.46 0.49 0.49
1.19 1.09 0.98 0.78 0.62 0.58 0.57 0.59 0.57 0.56 0.55 0.53 0.54 0.55 0.54 0.53 0.50 0.46 0.41 0.44 0.40 0.35 0.36 0.37 0.36 0.43 0.49 0.50 0.49 0.27 0.36 0.43 0.42 0.45 0.38 0.34 0.25 0.31 0.22 0.23 0.26 0.31 0.37 0.31 0.32 0.36 0.39 0.42 0.46 0.49 0.50 0.49 0.52 0.55
1.13 1.05 0.93 0.68 0.60 0.56 0.56 0.58 0.59 0.58 0.57 0.54 0.55 0.55 0.53 0.53 0.49 0.47 0.42 0.46 0.41 0.36 0.29 0.34 0.48 0.46 0.52 0.52 0.52 0.50 0.40 0.41 0.41 0.40 0.31 0.28 0.23 0.32 0.25 0.30 0.30 0.33 0.32 0.27 0.25 0.27 0.30 0.35 0.44 0.47 0.47 0.52 0.53 0.55
1.09 1.03 0.86 0.63 0.59 0.58 0.58 0.60 0.57 0.59 0.55 0.54 0.55 0.54 0.52 0.50 0.49 0.48 0.47 0.48 0.48 0.35 0.28 0.32 0.42 0.47 0.51 0.51 0.50 0.52 0.49 0.40 0.35 0.29 0.27 0.25 0.30 0.29 0.29 0.28 0.25 0.31 0.30 0.28 0.26 0.31 0.28 0.27 0.29 0.31 0.43 0.49 0.54 0.54
1.07 0.98 0.78 0.62 0.57 0.58 0.59 0.55 0.61 0.56 0.52 0.53 0.54 0.49 0.50 0.49 0.48 0.43 0.34 0.45 0.50 0.46 0.33 0.29 0.41 0.41 0.44 0.48 0.50 0.49 0.48 0.46 0.42 0.36 0.34 0.35 0.38 0.37 0.29 0.27 0.31 0.34 0.37 0.41 0.36 0.39 0.36 0.31 0.32 0.30 0.36 0.47 0.52 0.57
1.04 0.96 0.69 0.56 0.60 0.58 0.53 0.58 0.58 0.55 0.53 0.51 0.48 0.47 0.50 0.50 0.44 0.34 0.29 0.37 0.46 0.42 0.29 0.26 0.28 0.37 0.41 0.44 0.48 0.47 0.49 0.47 0.45 0.42 0.39 0.38 0.38 0.41 0.35 0.29 0.37 0.42 0.45 0.47 0.46 0.39 0.34 0.36 0.31 0.34 0.34 0.39 0.53 0.58
1.00 0.79 0.61 0.63 0.60 0.56 0.56 0.58 0.56 0.53 0.52 0.47 0.46 0.43 0.45 0.43 0.39 0.28 0.35 0.38 0.38 0.26 0.22 0.12 0.14 0.22 0.31 0.31 0.34 0.45 0.41 0.43 0.43 0.41 0.42 0.39 0.40 0.38 0.31 0.39 0.44 0.45 0.45 0.45 0.43 0.43 0.43 0.43 0.42 0.42 0.40 0.36 0.43 0.54
0.92 0.73 0.68 0.60 0.58 0.57 0.57 0.55 0.54 0.51 0.49 0.46 0.45 0.44 0.37 0.32 0.27 0.31 0.42 0.39 0.33 0.24 0.13 0.13 0.10 0.09 0.24 0.22 0.30 0.37 0.41 0.33 0.41 0.36 0.37 0.39 0.35 0.31 0.37 0.41 0.43 0.45 0.43 0.43 0.46 0.46 0.43 0.42 0.44 0.46 0.45 0.40 0.38 0.52
0.80 0.75 0.66 0.58 0.57 0.57 0.57 0.55 0.50 0.49 0.51 0.47 0.40 0.28 0.21 0.30 0.41 0.40 0.31 0.22 0.23 0.22 0.21 0.14 0.19 0.12 0.20 0.20 0.21 0.26 0.33 0.31 0.29 0.36 0.41 0.35 0.32 0.36 0.41 0.45 0.48 0.48 0.48 0.47 0.41 0.39 0.41 0.42 0.44 0.45 0.45 0.49 0.45 0.54
0.83 0.71 0.62 0.59 0.60 0.60 0.55 0.50 0.49 0.52 0.49 0.36 0.27 0.25 0.36 0.45 0.33 0.25 0.16 0.15 0.17 0.14 0.18 0.18 0.18 0.14 0.24 0.16 0.18 0.26 0.26 0.31 0.26 0.33 0.33 0.29 0.25 0.30 0.40 0.41 0.45 0.48 0.48 0.48 0.49 0.49 0.49 0.48 0.47 0.47 0.47 0.49 0.52 0.59
0.75 0.64 0.59 0.63 0.60 0.55 0.51 0.51 0.52 0.44 0.37 0.34 0.34 0.40 0.37 0.28 0.21 0.15 0.14 0.16 0.15 0.11 0.19 0.17 0.18 0.19 0.22 0.28 0.22 0.24 0.23 0.29 0.24 0.37 0.31 0.24 0.25 0.29 0.33 0.37 0.40 0.41 0.43 0.43 0.47 0.49 0.51 0.51 0.52 0.51 0.50 0.52 0.54 0.60
0.64 0.58 0.63 0.60 0.55 0.51 0.54 0.53 0.47 0.44 0.40 0.37 0.30 0.27 0.24 0.20 0.13 0.11 0.10 0.13 0.13 0.19 0.21 0.20 0.16 0.20 0.23 0.26 0.22 0.21 0.18 0.19 0.31 0.26 0.25 0.24 0.23 0.23 0.27 0.28 0.30 0.36 0.38 0.37 0.41 0.46 0.52 0.51 0.53 0.53 0.53 0.56 0.56 0.56
0.60 0.65 0.61 0.56 0.53 0.57 0.52 0.48 0.49 0.43 0.37 0.27 0.23 0.20 0.20 0.16 0.15 0.15 0.15 0.16 0.21 0.24 0.22 0.22 0.20 0.19 0.23 0.20 0.22 0.16 0.21 0.23 0.19 0.18 0.19 0.20 0.18 0.19 0.22 0.23 0.23 0.23 0.28 0.33 0.34 0.41 0.45 0.50 0.51 0.53 0.54 0.54 0.50 0.48
0.64 0.64 0.57 0.58 0.58 0.51 0.51 0.52 0.47 0.41 0.33 0.25 0.24 0.19 0.20 0.23 0.25 0.25 0.26 0.25 0.27 0.28 0.26 0.23 0.23 0.22 0.20 0.19 0.22 0.19 0.16 0.15 0.19 0.15 0.17 0.21 0.20 0.20 0.20 0.20 0.21 0.21 0.23 0.25 0.30 0.32 0.42 0.46 0.50 0.51 0.53 0.52 0.46 0.48
0.67 0.58 0.57 0.57 0.50 0.50 0.51 0.44 0.43 0.39 0.32 0.25 0.23 0.20 0.22 0.21 0.21 0.24 0.25 0.25 0.29 0.29 0.29 0.26 0.20 0.18 0.17 0.19 0.17 0.14 0.14 0.13 0.16 0.21 0.21 0.22 0.21 0.22 0.21 0.20 0.21 0.22 0.22 0.23 0.26 0.30 0.35 0.46 0.49 0.50 0.53 0.53 0.49 0.49
0.52 0.49 0.55 0.52 0.52 0.48 0.44 0.40 0.36 0.29 0.25 0.22 0.19 0.22 0.21 0.21 0.20 0.22 0.26 0.27 0.33 0.27 0.21 0.21 0.15 0.14 0.21 0.17 0.15 0.19 0.17 0.21 0.24 0.21 0.22 0.22 0.21 0.21 0.21 0.21 0.23 0.25 0.25 0.26 0.26 0.27 0.32 0.42 0.50 0.49 0.48 0.51 0.52 0.48
0.46 0.50 0.55 0.52 0.45 0.41 0.39 0.36 0.29 0.26 0.21 0.22 0.18 0.19 0.22 0.24 0.22 0.24 0.27 0.29 0.28 0.27 0.25 0.20 0.22 0.18 0.15 0.14 0.14 0.18 0.20 0.25 0.24 0.23 0.22 0.22 0.22 0.22 0.22 0.23 0.25 0.25 0.27 0.28 0.28 0.28 0.30 0.35 0.45 0.47 0.48 0.50 0.50 0.47
0.47 0.53 0.54 0.48 0.43 0.35 0.28 0.29 0.30 0.21 0.23 0.23 0.23 0.24 0.24 0.24 0.26 0.27 0.28 0.30 0.32 0.32 0.29 0.25 0.20 0.18 0.17 0.19 0.18 0.19 0.20 0.21 0.21 0.21 0.21 0.22 0.23 0.22 0.23 0.24 0.23 0.22 0.22 0.26 0.28 0.28 0.30 0.31 0.44 0.48 0.49 0.46 0.41 0.41
0.54 0.54 0.50 0.44 0.39 0.28 0.25 0.27 0.33 0.22 0.19 0.21 0.24 0.22 0.23 0.23 0.25 0.26 0.27 0.29 0.29 0.28 0.24 0.22 0.20 0.21 0.20 0.21 0.22 0.22 0.23 0.23 0.22 0.19 0.17 0.18 0.20 0.23 0.21 0.20 0.19 0.20 0.20 0.20 0.27 0.32 0.31 0.31 0.36 0.48 0.49 0.48 0.43 0.37
0.52 0.48 0.45 0.40 0.34 0.31 0.28 0.27 0.24 0.24 0.23 0.20 0.23 0.23 0.22 0.24 0.23 0.24 0.26 0.31 0.28 0.24 0.21 0.23 0.22 0.23 0.25 0.24 0.24 0.23 0.21 0.21 0.19 0.19 0.18 0.17 0.21 0.22 0.24 0.27 0.30 0.28 0.21 0.19 0.19 0.25 0.32 0.31 0.35 0.42 0.48 0.48 0.46 0.37
0.46 0.47 0.40 0.40 0.32 0.30 0.29 0.33 0.27 0.27 0.23 0.22 0.23 0.24 0.21 0.19 0.21 0.24 0.28 0.26 0.24 0.23 0.23 0.22 0.21 0.21 0.20 0.19 0.19 0.21 0.21 0.22 0.24 0.24 0.24 0.24 0.22 0.23 0.24 0.27 0.30 0.32 0.24 0.18 0.19 0.21 0.27 0.34 0.37 0.40 0.45 0.47 0.48 0.40
0.46 0.40 0.34 0.34 0.27 0.27 0.27 0.36 0.25 0.25 0.19 0.21 0.23 0.19 0.19 0.21 0.24 0.27 0.23 0.24 0.22 0.21 0.22 0.22 0.21 0.20 0.19 0.20 0.21 0.23 0.24 0.25 0.24 0.24 0.24 0.26 0.27 0.27 0.27 0.28 0.28 0.25 0.19 0.18 0.20 0.21 0.22 0.31 0.36 0.38 0.42 0.46 0.46 0.44
0.39 0.30 0.28 0.26 0.26 0.22 0.29 0.25 0.27 0.24 0.24 0.21 0.19 0.17 0.21 0.23 0.25 0.23 0.19 0.17 0.17 0.19 0.18 0.18 0.18 0.17 0.19 0.20 0.20 0.21 0.22 0.24 0.23 0.25 0.27 0.25 0.23 0.25 0.27 0.23 0.22 0.19 0.18 0.19 0.21 0.21 0.22 0.28 0.35 0.36 0.40 0.40 0.42 0.44
0.23 0.27 0.28 0.24 0.26 0.22 0.21 0.22 0.22 0.22 0.19 0.19 0.19 0.21 0.22 0.24 0.20 0.17 0.14 0.13 0.14 0.15 0.16 0.17 0.17 0.19 0.18 0.19 0.19 0.19 0.22 0.23 0.20 0.20 0.24 0.25 0.22 0.21 0.18 0.17 0.17 0.17 0.20 0.20 0.21 0.21 0.22 0.27 0.33 0.36 0.39 0.40 0.39 0.39
0.20 0.26 0.23 0.23 0.23 0.22 0.21 0.19 0.20 0.18 0.20 0.20 0.21 0.23 0.22 0.19 0.15 0.12 0.13 0.14 0.14 0.16 0.17 0.17 0.17 0.17 0.18 0.20 0.18 0.18 0.19 0.22 0.21 0.18 0.19 0.20 0.19 0.18 0.16 0.15 0.15 0.17 0.23 0.23 0.23 0.22 0.21 0.24 0.30 0.33 0.36 0.38 0.39 0.38
0.21 0.22 0.26 0.30 0.26 0.25 0.22 0.22 0.23 0.22 0.20 0.20 0.21 0.19 0.18 0.14 0.13 0.13 0.15 0.17 0.16 0.19 0.19 0.20 0.19 0.18 0.18 0.17 0.18 0.19 0.20 0.21 0.20 0.19 0.20 0.20 0.19 0.19 0.18 0.16 0.15 0.20 0.25 0.25 0.24 0.23 0.22 0.23 0.29 0.33 0.32 0.33 0.32 0.31
0.25 0.26 0.21 0.24 0.23 0.24 0.20 0.21 0.21 0.21 0.21 0.22 0.20 0.16 0.14 0.13 0.11 0.15 0.16 0.19 0.20 0.20 0.20 0.19 0.20 0.19 0.17 0.16 0.17 0.16 0.17 0.19 0.19 0.19 0.19 0.18 0.18 0.18 0.18 0.19 0.21 0.25 0.26 0.25 0.23 0.23 0.24 0.25 0.28 0.34 0.33 0.31 0.28 0.26
0.25 0.27 0.26 0.21 0.22 0.23 0.24 0.23 0.23 0.24 0.23 0.20 0.16 0.15 0.15 0.17 0.17 0.18 0.19 0.20 0.21 0.20 0.17 0.15 0.14 0.14 0.14 0.15 0.15 0.16 0.17 0.17 0.15 0.13 0.13 0.12 0.13 0.16 0.19 0.21 0.22 0.23 0.23 0.23 0.24 0.23 0.26 0.26 0.26 0.28 0.36 0.37 0.35 0.34
0.24 0.27 0.23 0.24 0.23 0.22 0.24 0.25 0.22 0.23 0.23 0.22 0.21 0.19 0.18 0.18 0.20 0.23 0.21 0.20 0.20 0.18 0.16 0.14 0.12 0.11 0.11 0.12 0.12 0.14 0.16 0.17 0.17 0.16 0.13 0.13 0.14 0.17 0.19 0.18 0.19 0.21 0.24 0.26 0.26 0.27 0.28 0.30 0.31 0.30 0.28 0.28 0.31 0.33
0.29 0.27 0.25 0.23 0.21 0.21 0.22 0.23 0.23 0.22 0.21 0.20 0.20 0.18 0.17 0.18 0.19 0.20 0.19 0.20 0.18 0.17 0.14 0.11 0.11 0.12 0.12 0.12 0.12 0.13 0.13 0.17 0.18 0.18 0.18 0.17 0.17 0.18 0.18 0.19 0.19 0.19 0.21 0.21 0.23 0.24 0.25 0.26 0.27 0.28 0.28 0.29 0.30 0.30
0.26 0.23 0.21 0.18 0.18 0.20 0.21 0.19 0.18 0.17 0.16 0.16 0.16 0.18 0.18 0.17 0.13 0.15 0.18 0.15 0.13 0.11 0.12 0.13 0.12 0.12 0.14 0.15 0.16 0.17 0.18 0.18 0.19 0.18 0.17 0.17 0.19 0.20 0.21 0.21 0.21 0.22 0.22 0.22 0.22 0.23 0.22 0.22 0.22 0.22 0.23 0.24 0.25 0.25
0.21 0.21 0.20 0.18 0.17 0.16 0.17 0.18 0.16 0.15 0.15 0.14 0.15 0.16 0.16 0.16 0.12 0.14 0.16 0.15 0.13 0.13 0.13 0.14 0.15 0.16 0.17 0.18 0.18 0.18 0.18 0.18 0.18 0.19 0.20 0.21 0.22 0.22 0.22 0.22 0.22 0.22 0.22 0.21 0.21 0.21 0.21 0.21 0.21 0.21 0.21 0.21 0.21 0.21

GFSWCAN_prec_pwat_054.txt.gz
Precipitable_Water
1.01 1.00 1.14 1.22 1.24 1.23 1.15 1.02 0.77 0.63 0.62 0.57 0.56 0.56 0.57 0.52 0.51 0.44 0.42 0.45 0.34 0.29 0.33 0.35 0.36 0.33 0.35 0.37 0.35 0.38 0.40 0.42 0.42 0.34 0.32 0.31 0.30 0.32 0.30 0.32 0.30 0.28 0.27 0.28 0.29 0.25 0.21 0.41 0.43 0.33 0.40 0.43 0.42 0.42
1.01 1.00 1.14 1.19 1.22 1.19 1.10 0.97 0.72 0.61 0.59 0.56 0.57 0.58 0.59 0.53 0.51 0.45 0.37 0.45 0.42 0.31 0.33 0.41 0.40 0.40 0.37 0.39 0.39 0.43 0.40 0.41 0.44 0.39 0.37 0.37 0.31 0.32 0.28 0.22 0.34 0.26 0.30 0.27 0.29 0.31 0.42 0.44 0.43 0.46 0.45 0.42 0.42 0.40
1.00 1.04 1.19 1.18 1.17 1.13 1.05 0.97 0.67 0.61 0.57 0.55 0.60 0.60 0.57 0.58 0.53 0.46 0.41 0.41 0.37 0.31 0.32 0.34 0.33 0.42 0.46 0.44 0.43 0.31 0.41 0.46 0.43 0.50 0.45 0.40 0.30 0.34 0.25 0.26 0.29 0.34 0.37 0.31 0.29 0.33 0.35 0.38 0.43 0.44 0.43 0.42 0.41 0.41
1.00 1.09 1.17 1.16 1.15 1.09 1.00 0.78 0.64 0.57 0.55 0.59 0.62 0.61 0.58 0.53 0.50 0.46 0.40 0.45 0.41 0.35 0.28 0.32 0.45 0.40 0.48 0.49 0.47 0.43 0.38 0.41 0.42 0.41 0.36 0.36 0.31 0.38 0.29 0.30 0.27 0.29 0.28 0.26 0.25 0.28 0.31 0.36 0.40 0.42 0.41 0.41 0.38 0.38
0.92 1.04 1.14 1.14 1.10 1.04 0.93 0.69 0.62 0.57 0.54 0.62 0.64 0.58 0.52 0.55 0.52 0.49 0.47 0.49 0.44 0.33 0.24 0.28 0.36 0.40 0.45 0.46 0.44 0.44 0.41 0.38 0.34 0.30 0.29 0.28 0.32 0.29 0.29 0.29 0.26 0.29 0.28 0.26 0.26 0.36 0.36 0.38 0.43 0.45 0.40 0.39 0.41 0.41
1.02 1.06 1.12 1.11 1.08 0.99 0.80 0.70 0.60 0.55 0.60 0.63 0.59 0.55 0.55 0.54 0.50 0.43 0.36 0.44 0.46 0.41 0.27 0.17 0.28 0.30 0.37 0.40 0.39 0.39 0.39 0.37 0.35 0.31 0.30 0.32 0.37 0.35 0.28 0.26 0.34 0.38 0.43 0.45 0.38 0.44 0.44 0.46 0.47 0.48 0.44 0.44 0.45 0.44
1.06 1.07 1.11 1.09 1.02 0.92 0.77 0.65 0.59 0.59 0.62 0.60 0.59 0.56 0.57 0.52 0.47 0.38 0.30 0.38 0.45 0.40 0.25 0.18 0.17 0.24 0.33 0.34 0.34 0.35 0.40 0.38 0.36 0.34 0.32 0.32 0.33 0.35 0.31 0.26 0.36 0.43 0.47 0.49 0.49 0.47 0.42 0.46 0.43 0.49 0.49 0.49 0.49 0.47
1.00 1.07 1.07 1.03 0.97 0.92 0.72 0.63 0.59 0.63 0.61 0.59 0.57 0.55 0.53 0.51 0.49 0.36 0.40 0.40 0.38 0.23 0.17 0.12 0.14 0.18 0.28 0.23 0.23 0.35 0.30 0.34 0.35 0.34 0.36 0.34 0.37 0.37 0.29 0.36 0.39 0.42 0.42 0.43 0.44 0.45 0.43 0.45 0.47 0.47 0.49 0.49 0.46 0.45
1.01 1.06 1.04 0.98 0.98 0.84 0.67 0.63 0.63 0.59 0.60 0.57 0.54 0.52 0.46 0.42 0.33 0.34 0.44 0.39 0.34 0.21 0.11 0.12 0.10 0.09 0.25 0.23 0.28 0.30 0.31 0.24 0.32 0.28 0.29 0.32 0.29 0.24 0.28 0.28 0.30 0.32 0.34 0.34 0.35 0.36 0.35 0.36 0.38 0.42 0.44 0.46 0.46 0.45
1.02 1.04 1.02 1.00 0.92 0.74 0.68 0.63 0.58 0.59 0.59 0.53 0.41 0.34 0.29 0.38 0.44 0.42 0.31 0.23 0.20 0.19 0.17 0.13 0.19 0.12 0.21 0.21 0.20 0.22 0.26 0.22 0.20 0.26 0.32 0.26 0.24 0.28 0.28 0.30 0.31 0.31 0.28 0.28 0.23 0.21 0.23 0.23 0.26 0.30 0.35 0.41 0.44 0.47
1.02 1.02 0.99 0.97 0.87 0.73 0.64 0.60 0.58 0.59 0.55 0.38 0.32 0.31 0.44 0.51 0.35 0.25 0.17 0.15 0.15 0.12 0.18 0.18 0.19 0.15 0.26 0.18 0.18 0.24 0.21 0.23 0.17 0.23 0.24 0.22 0.19 0.20 0.25 0.24 0.24 0.24 0.25 0.25 0.25 0.25 0.25 0.23 0.22 0.25 0.28 0.33 0.38 0.44
1.02 0.99 0.98 0.95 0.80 0.67 0.64 0.55 0.55 0.50 0.41 0.38 0.39 0.43 0.42 0.31 0.21 0.16 0.15 0.16 0.14 0.12 0.20 0.19 0.21 0.22 0.25 0.30 0.23 0.25 0.20 0.22 0.17 0.30 0.23 0.17 0.22 0.22 0.20 0.19 0.23 0.24 0.23 0.21 0.22 0.21 0.22 0.23 0.23 0.23 0.25 0.28 0.33 0.37
0.99 0.98 0.97 0.86 0.73 0.68 0.56 0.52 0.51 0.48 0.45 0.41 0.31 0.28 0.27 0.23 0.17 0.15 0.12 0.13 0.13 0.19 0.21 0.22 0.20 0.25 0.27 0.29 0.25 0.24 0.19 0.20 0.30 0.21 0.18 0.22 0.23 0.21 0.21 0.21 0.22 0.23 0.22 0.21 0.21 0.23 0.24 0.25 0.26 0.26 0.25 0.28 0.31 0.34
0.98 0.97 0.92 0.80 0.72 0.60 0.52 0.51 0.51 0.43 0.34 0.27 0.26 0.23 0.22 0.20 0.19 0.17 0.16 0.16 0.21 0.23 0.23 0.24 0.23 0.24 0.27 0.23 0.25 0.19 0.24 0.27 0.19 0.17 0.18 0.24 0.24 0.24 0.26 0.26 0.25 0.23 0.22 0.22 0.23 0.23 0.24 0.25 0.25 0.26 0.28 0.29 0.29 0.30
0.96 0.93 0.86 0.74 0.63 0.54 0.54 0.52 0.45 0.39 0.31 0.26 0.27 0.23 0.24 0.26 0.25 0.25 0.26 0.27 0.29 0.30 0.26 0.24 0.24 0.24 0.23 0.21 0.23 0.22 0.19 0.17 0.19 0.20 0.25 0.27 0.27 0.27 0.27 0.27 0.25 0.23 0.22 0.21 0.23 0.23 0.23 0.22 0.23 0.24 0.26 0.28 0.30 0.31
0.93 0.88 0.75 0.67 0.57 0.57 0.52 0.48 0.42 0.38 0.35 0.32 0.32 0.30 0.30 0.27 0.26 0.27 0.26 0.24 0.28 0.27 0.26 0.24 0.20 0.18 0.18 0.20 0.18 0.17 0.16 0.15 0.20 0.25 0.26 0.26 0.26 0.24 0.23 0.23 0.23 0.22 0.21 0.22 0.22 0.20 0.18 0.17 0.17 0.19 0.24 0.28 0.30 0.31
0.87 0.73 0.72 0.62 0.60 0.56 0.49 0.40 0.41 0.35 0.33 0.32 0.31 0.32 0.27 0.23 0.22 0.24 0.25 0.25 0.30 0.24 0.19 0.20 0.16 0.15 0.21 0.17 0.16 0.20 0.17 0.21 0.23 0.26 0.28 0.26 0.22 0.22 0.23 0.22 0.20 0.19 0.19 0.20 0.19 0.20 0.23 0.25 0.22 0.19 0.19 0.24 0.30 0.31
0.76 0.72 0.68 0.61 0.56 0.49 0.42 0.43 0.38 0.34 0.31 0.32 0.27 0.25 0.25 0.25 0.23 0.24 0.27 0.29 0.27 0.24 0.23 0.19 0.21 0.17 0.15 0.14 0.14 0.19 0.22 0.23 0.24 0.24 0.23 0.23 0.21 0.20 0.19 0.19 0.20 0.21 0.20 0.20 0.23 0.25 0.28 0.30 0.30 0.24 0.22 0.24 0.28 0.32
0.71 0.70 0.65 0.56 0.46 0.39 0.36 0.38 0.40 0.32 0.32 0.30 0.29 0.28 0.26 0.26 0.28 0.29 0.29 0.30 0.30 0.29 0.25 0.23 0.19 0.17 0.16 0.19 0.18 0.20 0.22 0.22 0.20 0.20 0.18 0.17 0.18 0.19 0.20 0.21 0.23 0.22 0.22 0.23 0.25 0.26 0.27 0.26 0.26 0.24 0.21 0.24 0.25 0.32
0.71 0.62 0.55 0.49 0.45 0.38 0.34 0.34 0.40 0.33 0.27 0.28 0.30 0.26 0.25 0.24 0.26 0.27 0.28 0.29 0.27 0.26 0.22 0.20 0.18 0.19 0.20 0.21 0.23 0.22 0.22 0.21 0.18 0.15 0.15 0.17 0.19 0.20 0.21 0.22 0.23 0.25 0.26 0.26 0.26 0.27 0.27 0.24 0.22 0.21 0.20 0.23 0.24 0.27
0.60 0.55 0.51 0.47 0.42 0.41 0.36 0.34 0.31 0.32 0.30 0.27 0.28 0.25 0.23 0.25 0.24 0.24 0.25 0.29 0.26 0.23 0.20 0.22 0.22 0.23 0.25 0.25 0.24 0.22 0.19 0.19 0.17 0.17 0.16 0.16 0.18 0.20 0.21 0.22 0.24 0.25 0.24 0.23 0.21 0.21 0.20 0.18 0.18 0.20 0.21 0.22 0.24 0.27
0.54 0.54 0.47 0.48 0.40 0.37 0.34 0.37 0.31 0.31 0.28 0.27 0.26 0.24 0.22 0.21 0.21 0.23 0.27 0.24 0.23 0.22 0.24 0.23 0.23 0.23 0.22 0.20 0.20 0.19 0.20 0.20 0.19 0.19 0.20 0.20 0.17 0.17 0.17 0.19 0.19 0.19 0.20 0.21 0.21 0.19 0.18 0.18 0.18 0.19 0.22 0.24 0.26 0.28
0.52 0.48 0.43 0.40 0.31 0.30 0.30 0.35 0.25 0.25 0.21 0.23 0.24 0.21 0.22 0.22 0.23 0.26 0.21 0.24 0.23 0.26 0.26 0.25 0.22 0.22 0.20 0.21 0.19 0.18 0.20 0.19 0.18 0.19 0.19 0.19 0.19 0.19 0.18 0.17 0.18 0.17 0.16 0.18 0.20 0.19 0.18 0.19 0.19 0.20 0.22 0.24 0.25 0.26
0.49 0.39 0.34 0.30 0.29 0.27 0.30 0.25 0.27 0.25 0.25 0.23 0.22 0.20 0.22 0.22 0.24 0.21 0.19 0.21 0.22 0.24 0.23 0.20 0.20 0.18 0.18 0.18 0.16 0.16 0.18 0.20 0.19 0.19 0.20 0.18 0.15 0.14 0.15 0.15 0.17 0.18 0.19 0.18 0.18 0.17 0.18 0.18 0.20 0.22 0.23 0.23 0.23 0.23
0.31 0.31 0.31 0.29 0.32 0.25 0.23 0.22 0.22 0.21 0.20 0.22 0.21 0.20 0.21 0.23 0.20 0.19 0.19 0.20 0.21 0.19 0.18 0.18 0.17 0.17 0.16 0.16 0.16 0.17 0.19 0.18 0.16 0.14 0.15 0.16 0.14 0.13 0.13 0.14 0.16 0.18 0.19 0.18 0.17 0.17 0.18 0.19 0.22 0.23 0.23 0.23 0.22 0.22
0.24 0.29 0.27 0.26 0.25 0.23 0.22 0.18 0.18 0.19 0.20 0.20 0.20 0.21 0.22 0.21 0.19 0.18 0.19 0.19 0.18 0.17 0.16 0.16 0.16 0.16 0.16 0.17 0.16 0.16 0.17 0.19 0.17 0.13 0.13 0.15 0.14 0.14 0.13 0.12 0.12 0.14 0.19 0.19 0.17 0.16 0.17 0.19 0.22 0.23 0.22 0.21 0.22 0.25
0.21 0.23 0.29 0.31 0.27 0.24 0.20 0.21 0.21 0.20 0.18 0.17 0.19 0.21 0.22 0.18 0.17 0.18 0.20 0.20 0.18 0.18 0.18 0.18 0.18 0.17 0.17 0.17 0.18 0.19 0.19 0.17 0.15 0.14 0.15 0.15 0.16 0.17 0.16 0.13 0.13 0.15 0.18 0.19 0.18 0.17 0.17 0.17 0.20 0.23 0.23 0.21 0.23 0.28
0.24 0.25 0.21 0.24 0.24 0.24 0.21 0.21 0.19 0.19 0.20 0.22 0.22 0.19 0.18 0.18 0.17 0.20 0.20 0.20 0.20 0.20 0.19 0.19 0.20 0.20 0.19 0.19 0.19 0.19 0.17 0.16 0.15 0.15 0.14 0.15 0.16 0.16 0.16 0.17 0.17 0.19 0.19 0.18 0.18 0.18 0.19 0.19 0.19 0.23 0.25 0.24 0.24 0.27
0.23 0.26 0.24 0.22 0.22 0.23 0.23 0.23 0.22 0.23 0.24 0.23 0.21 0.20 0.21 0.23 0.23 0.21 0.20 0.20 0.20 0.19 0.18 0.18 0.19 0.21 0.19 0.19 0.19 0.18 0.17 0.15 0.12 0.10 0.10 0.10 0.11 0.14 0.18 0.19 0.18 0.18 0.19 0.18 0.19 0.20 0.20 0.21 0.23 0.24 0.25 0.27 0.29 0.29
0.24 0.27 0.23 0.23 0.22 0.22 0.24 0.24 0.23 0.26 0.28 0.27 0.26 0.25 0.24 0.23 0.22 0.22 0.20 0.19 0.18 0.17 0.18 0.19 0.19 0.17 0.15 0.14 0.13 0.14 0.15 0.16 0.16 0.15 0.13 0.12 0.14 0.18 0.19 0.18 0.18 0.19 0.19 0.19 0.18 0.18 0.19 0.20 0.23 0.24 0.25 0.25 0.26 0.26
0.30 0.28 0.25 0.24 0.22 0.24 0.26 0.28 0.30 0.29 0.27 0.25 0.25 0.22 0.19 0.19 0.19 0.20 0.18 0.18 0.18 0.18 0.17 0.15 0.15 0.15 0.14 0.14 0.13 0.12 0.12 0.15 0.16 0.17 0.18 0.18 0.18 0.19 0.18 0.19 0.20 0.20 0.19 0.19 0.18 0.17 0.17 0.18 0.19 0.20 0.21 0.21 0.22 0.22
0.28 0.25 0.23 0.22 0.25 0.28 0.29 0.26 0.25 0.24 0.22 0.21 0.18 0.18 0.18 0.17 0.14 0.16 0.18 0.18 0.16 0.14 0.15 0.15 0.14 0.14 0.15 0.16 0.17 0.18 0.18 0.18 0.18 0.18 0.19 0.19 0.19 0.20 0.21 0.21 0.21 0.21 0.19 0.18 0.18 0.18 0.18 0.18 0.19 0.19 0.19 0.19 0.20 0.20
0.28 0.28 0.27 0.25 0.24 0.23 0.24 0.23 0.21 0.19 0.18 0.16 0.16 0.16 0.15 0.15 0.12 0.16 0.18 0.17 0.16 0.15 0.14 0.15 0.16 0.17 0.18 0.19 0.19 0.20 0.20 0.20 0.21 0.22 0.22 0.22 0.23 0.23 0.22 0.22 0.21 0.20 0.19 0.19 0.19 0.19 0.19 0.20 0.20 0.20 0.20 0.20 0.20 0.21

GFSWCAN_prec_pwat_057.txt.gz
Precipitable_Water
0.72 0.82 0.89 0.97 1.05 1.10 1.20 1.19 1.17 1.06 0.89 0.73 0.67 0.54 0.53 0.50 0.49 0.47 0.42 0.46 0.37 0.33 0.36 0.40 0.40 0.36 0.39 0.38 0.34 0.37 0.37 0.41 0.41 0.35 0.33 0.32 0.30 0.32 0.31 0.33 0.31 0.30 0.28 0.28 0.29 0.26 0.22 0.41 0.42 0.33 0.39 0.43 0.42 0.42
0.74 0.81 0.88 0.97 1.07 1.08 1.17 1.16 1.09 0.98 0.85 0.73 0.60 0.53 0.54 0.54 0.51 0.53 0.41 0.48 0.44 0.36 0.35 0.43 0.43 0.45 0.44 0.43 0.39 0.41 0.39 0.39 0.43 0.38 0.36 0.36 0.31 0.34 0.30 0.24 0.35 0.24 0.28 0.26 0.27 0.28 0.38 0.40 0.40 0.44 0.44 0.41 0.40 0.39
0.72 0.81 0.90 0.97 1.08 1.11 1.14 1.12 1.05 0.86 0.75 0.69 0.57 0.56 0.55 0.53 0.53 0.55 0.45 0.44 0.40 0.33 0.33 0.33 0.31 0.38 0.42 0.43 0.48 0.37 0.41 0.43 0.43 0.50 0.43 0.39 0.31 0.35 0.26 0.27 0.29 0.33 0.36 0.29 0.27 0.33 0.34 0.35 0.38 0.39 0.39 0.40 0.42 0.42
0.72 0.84 0.90 0.98 1.04 1.06 1.10 1.07 0.96 0.73 0.66 0.64 0.60 0.58 0.57 0.55 0.55 0.48 0.41 0.45 0.43 0.36 0.27 0.30 0.44 0.38 0.45 0.44 0.40 0.39 0.40 0.46 0.45 0.43 0.38 0.38 0.33 0.38 0.32 0.33 0.30 0.33 0.32 0.28 0.27 0.29 0.31 0.33 0.37 0.41 0.43 0.44 0.43 0.42
0.78 0.87 0.94 1.06 1.09 1.06 1.06 1.02 0.91 0.70 0.65 0.61 0.61 0.59 0.57 0.55 0.51 0.48 0.47 0.49 0.48 0.37 0.25 0.30 0.38 0.42 0.43 0.43 0.40 0.39 0.37 0.35 0.34 0.31 0.31 0.30 0.34 0.33 0.32 0.30 0.26 0.30 0.28 0.25 0.26 0.37 0.36 0.37 0.42 0.45 0.43 0.43 0.44 0.43
0.83 0.86 0.92 1.03 1.05 1.05 1.02 1.01 0.87 0.72 0.61 0.61 0.65 0.60 0.54 0.50 0.51 0.47 0.37 0.46 0.47 0.41 0.25 0.19 0.34 0.36 0.38 0.39 0.37 0.36 0.34 0.33 0.33 0.30 0.28 0.30 0.33 0.30 0.25 0.24 0.32 0.36 0.40 0.44 0.40 0.47 0.46 0.45 0.47 0.48 0.46 0.46 0.48 0.48
0.82 0.86 0.91 0.93 0.99 1.01 1.00 0.90 0.77 0.66 0.63 0.61 0.62 0.57 0.53 0.53 0.51 0.41 0.37 0.42 0.44 0.37 0.21 0.18 0.18 0.28 0.36 0.35 0.35 0.34 0.36 0.34 0.33 0.30 0.28 0.28 0.29 0.32 0.28 0.24 0.31 0.37 0.44 0.45 0.49 0.46 0.38 0.40 0.39 0.44 0.46 0.47 0.48 0.51
0.82 0.88 0.95 0.99 0.97 0.97 0.98 0.81 0.72 0.63 0.60 0.62 0.57 0.55 0.53 0.53 0.51 0.41 0.48 0.48 0.41 0.25 0.22 0.15 0.16 0.20 0.31 0.25 0.23 0.33 0.29 0.32 0.32 0.30 0.32 0.29 0.31 0.32 0.25 0.32 0.35 0.37 0.38 0.37 0.37 0.38 0.37 0.37 0.35 0.33 0.37 0.39 0.39 0.42
0.86 0.92 0.99 0.97 0.96 0.97 0.87 0.79 0.68 0.60 0.62 0.59 0.56 0.52 0.50 0.46 0.36 0.39 0.51 0.45 0.35 0.23 0.14 0.15 0.13 0.12 0.27 0.25 0.29 0.29 0.31 0.23 0.30 0.26 0.27 0.30 0.27 0.23 0.28 0.28 0.28 0.30 0.28 0.29 0.28 0.27 0.25 0.23 0.23 0.24 0.25 0.27 0.28 0.32
0.88 0.95 0.97 0.95 0.95 0.93 0.84 0.72 0.67 0.59 0.61 0.58 0.49 0.41 0.36 0.40 0.49 0.44 0.31 0.23 0.22 0.21 0.20 0.15 0.20 0.14 0.24 0.24 0.22 0.24 0.28 0.23 0.19 0.25 0.30 0.24 0.22 0.29 0.28 0.28 0.27 0.26 0.25 0.23 0.19 0.17 0.19 0.19 0.20 0.20 0.19 0.22 0.23 0.25
0.90 0.96 0.96 0.95 0.95 0.93 0.82 0.67 0.59 0.61 0.56 0.48 0.39 0.33 0.43 0.50 0.36 0.27 0.19 0.18 0.18 0.15 0.19 0.18 0.20 0.17 0.28 0.21 0.21 0.26 0.22 0.24 0.19 0.24 0.22 0.21 0.19 0.23 0.26 0.23 0.24 0.24 0.23 0.22 0.22 0.22 0.23 0.22 0.22 0.22 0.22 0.23 0.24 0.24
0.94 0.95 0.94 0.94 0.94 0.87 0.70 0.59 0.61 0.53 0.50 0.42 0.36 0.41 0.41 0.33 0.27 0.19 0.17 0.18 0.17 0.15 0.20 0.19 0.20 0.24 0.26 0.31 0.24 0.27 0.23 0.24 0.19 0.31 0.25 0.19 0.26 0.26 0.21 0.20 0.22 0.24 0.24 0.23 0.23 0.22 0.23 0.24 0.25 0.25 0.25 0.25 0.25 0.27
0.95 0.95 0.94 0.94 0.92 0.75 0.65 0.61 0.54 0.52 0.45 0.37 0.29 0.27 0.25 0.25 0.21 0.18 0.14 0.16 0.15 0.19 0.21 0.21 0.20 0.25 0.28 0.31 0.26 0.25 0.21 0.20 0.30 0.23 0.20 0.24 0.27 0.24 0.22 0.22 0.23 0.25 0.26 0.25 0.24 0.25 0.26 0.26 0.26 0.24 0.23 0.24 0.25 0.26
0.94 0.93 0.94 0.93 0.83 0.70 0.64 0.57 0.52 0.45 0.36 0.27 0.22 0.19 0.22 0.20 0.21 0.20 0.20 0.20 0.23 0.24 0.23 0.24 0.24 0.26 0.28 0.24 0.25 0.20 0.23 0.26 0.19 0.17 0.19 0.25 0.24 0.25 0.26 0.27 0.27 0.26 0.27 0.27 0.26 0.24 0.23 0.23 0.21 0.20 0.20 0.20 0.20 0.21
0.93 0.94 0.93 0.86 0.77 0.67 0.59 0.57 0.47 0.39 0.31 0.23 0.25 0.21 0.22 0.27 0.28 0.30 0.30 0.26 0.27 0.29 0.28 0.26 0.25 0.25 0.23 0.21 0.22 0.21 0.19 0.16 0.18 0.18 0.24 0.27 0.26 0.27 0.27 0.27 0.26 0.24 0.22 0.21 0.20 0.20 0.21 0.19 0.18 0.20 0.23 0.23 0.21 0.20
0.93 0.90 0.87 0.82 0.70 0.63 0.59 0.50 0.43 0.38 0.31 0.27 0.28 0.25 0.28 0.28 0.30 0.31 0.30 0.27 0.31 0.29 0.28 0.25 0.21 0.19 0.18 0.19 0.18 0.16 0.16 0.14 0.18 0.24 0.27 0.25 0.26 0.27 0.24 0.23 0.22 0.21 0.19 0.19 0.19 0.20 0.20 0.18 0.22 0.24 0.26 0.28 0.29 0.25
0.88 0.80 0.85 0.73 0.67 0.60 0.53 0.44 0.38 0.31 0.28 0.29 0.28 0.32 0.34 0.35 0.34 0.31 0.29 0.26 0.31 0.27 0.21 0.21 0.17 0.16 0.21 0.17 0.16 0.19 0.16 0.20 0.22 0.23 0.24 0.24 0.23 0.23 0.21 0.19 0.18 0.18 0.19 0.20 0.21 0.20 0.21 0.24 0.26 0.26 0.24 0.24 0.26 0.24
0.82 0.85 0.77 0.69 0.61 0.53 0.48 0.40 0.34 0.31 0.28 0.31 0.31 0.33 0.35 0.32 0.27 0.26 0.28 0.30 0.29 0.25 0.23 0.20 0.21 0.17 0.15 0.14 0.15 0.19 0.22 0.24 0.23 0.23 0.22 0.22 0.21 0.19 0.18 0.18 0.19 0.20 0.20 0.21 0.22 0.23 0.25 0.25 0.25 0.25 0.26 0.25 0.22 0.21
0.86 0.80 0.73 0.63 0.54 0.44 0.35 0.35 0.36 0.28 0.32 0.36 0.38 0.37 0.31 0.28 0.31 0.31 0.30 0.31 0.30 0.29 0.25 0.23 0.19 0.17 0.16 0.19 0.19 0.21 0.22 0.22 0.20 0.20 0.19 0.18 0.18 0.17 0.17 0.18 0.19 0.20 0.21 0.22 0.22 0.23 0.24 0.24 0.23 0.23 0.22 0.21 0.19 0.20
0.82 0.74 0.65 0.56 0.48 0.34 0.31 0.34 0.41 0.34 0.34 0.37 0.37 0.31 0.27 0.26 0.29 0.30 0.29 0.29 0.28 0.26 0.22 0.19 0.19 0.20 0.20 0.21 0.23 0.23 0.23 0.23 0.19 0.15 0.15 0.16 0.17 0.17 0.17 0.17 0.17 0.18 0.18 0.18 0.19 0.20 0.21 0.21 0.22 0.21 0.20 0.19 0.18 0.18
0.72 0.64 0.58 0.49 0.40 0.38 0.37 0.36 0.38 0.40 0.37 0.33 0.31 0.28 0.25 0.28 0.26 0.26 0.26 0.29 0.25 0.23 0.20 0.22 0.22 0.23 0.25 0.25 0.26 0.24 0.22 0.19 0.16 0.15 0.15 0.14 0.18 0.18 0.18 0.19 0.19 0.18 0.16 0.16 0.16 0.16 0.18 0.18 0.19 0.20 0.18 0.18 0.19 0.20
0.63 0.59 0.47 0.45 0.38 0.38 0.37 0.43 0.40 0.40 0.36 0.32 0.28 0.28 0.24 0.22 0.22 0.24 0.28 0.25 0.24 0.24 0.24 0.23 0.23 0.24 0.24 0.23 0.23 0.22 0.20 0.18 0.18 0.17 0.18 0.19 0.17 0.17 0.17 0.17 0.16 0.13 0.14 0.16 0.16 0.17 0.17 0.18 0.19 0.19 0.19 0.19 0.21 0.22
0.57 0.48 0.41 0.40 0.35 0.36 0.36 0.44 0.35 0.35 0.29 0.27 0.28 0.24 0.22 0.21 0.23 0.27 0.22 0.25 0.25 0.27 0.26 0.26 0.26 0.26 0.23 0.23 0.22 0.20 0.19 0.18 0.16 0.17 0.18 0.18 0.18 0.17 0.16 0.15 0.14 0.13 0.12 0.14 0.17 0.18 0.18 0.19 0.19 0.19 0.19 0.21 0.23 0.23
0.50 0.41 0.35 0.36 0.37 0.34 0.39 0.34 0.35 0.30 0.29 0.27 0.25 0.22 0.21 0.22 0.25 0.23 0.20 0.22 0.23 0.25 0.25 0.25 0.24 0.21 0.20 0.19 0.17 0.16 0.18 0.18 0.17 0.17 0.18 0.17 0.14 0.13 0.15 0.13 0.13 0.14 0.15 0.15 0.16 0.16 0.18 0.18 0.18 0.18 0.19 0.22 0.24 0.24
0.37 0.39 0.39 0.34 0.37 0.31 0.30 0.30 0.29 0.27 0.23 0.24 0.21 0.20 0.22 0.25 0.21 0.21 0.20 0.21 0.23 0.23 0.23 0.22 0.20 0.19 0.17 0.16 0.17 0.17 0.19 0.19 0.17 0.15 0.17 0.17 0.15 0.13 0.12 0.13 0.14 0.15 0.17 0.15 0.14 0.15 0.16 0.17 0.17 0.17 0.18 0.21 0.23 0.23
0.34 0.36 0.34 0.32 0.30 0.27 0.26 0.24 0.24 0.23 0.23 0.21 0.22 0.23 0.24 0.22 0.19 0.18 0.20 0.22 0.22 0.21 0.20 0.18 0.17 0.17 0.16 0.17 0.17 0.17 0.18 0.20 0.19 0.16 0.16 0.17 0.15 0.13 0.12 0.11 0.11 0.13 0.17 0.17 0.17 0.15 0.15 0.16 0.16 0.17 0.18 0.20 0.24 0.24
0.29 0.29 0.33 0.36 0.31 0.29 0.27 0.27 0.26 0.23 0.22 0.20 0.20 0.20 0.20 0.17 0.17 0.20 0.22 0.23 0.21 0.21 0.22 0.21 0.19 0.18 0.18 0.19 0.20 0.20 0.21 0.21 0.19 0.18 0.18 0.17 0.17 0.17 0.16 0.14 0.14 0.16 0.19 0.20 0.20 0.18 0.16 0.16 0.17 0.17 0.19 0.21 0.23 0.25
0.32 0.30 0.27 0.29 0.30 0.30 0.26 0.26 0.25 0.22 0.21 0.21 0.20 0.17 0.17 0.18 0.18 0.21 0.22 0.24 0.23 0.23 0.22 0.21 0.20 0.20 0.20 0.20 0.21 0.21 0.20 0.20 0.19 0.18 0.17 0.16 0.17 0.17 0.18 0.18 0.19 0.19 0.20 0.21 0.20 0.19 0.19 0.18 0.18 0.18 0.20 0.21 0.24 0.26
0.29 0.31 0.29 0.27 0.28 0.28 0.26 0.24 0.22 0.22 0.23 0.22 0.21 0.21 0.22 0.24 0.25 0.24 0.24 0.24 0.24 0.22 0.19 0.19 0.19 0.21 0.20 0.21 0.20 0.19 0.18 0.16 0.14 0.11 0.11 0.12 0.13 0.16 0.18 0.18 0.19 0.19 0.20 0.20 0.20 0.20 0.20 0.20 0.20 0.19 0.20 0.23 0.25 0.27
0.27 0.30 0.26 0.25 0.23 0.23 0.26 0.27 0.25 0.27 0.27 0.27 0.27 0.25 0.25 0.25 0.26 0.27 0.24 0.22 0.20 0.18 0.19 0.19 0.19 0.18 0.17 0.16 0.14 0.14 0.16 0.17 0.17 0.16 0.14 0.14 0.15 0.18 0.19 0.19 0.20 0.20 0.21 0.20 0.19 0.19 0.20 0.19 0.19 0.18 0.18 0.19 0.22 0.23
0.29 0.27 0.24 0.24 0.24 0.26 0.26 0.27 0.28 0.29 0.29 0.27 0.26 0.24 0.23 0.23 0.22 0.22 0.20 0.20 0.19 0.19 0.18 0.17 0.16 0.16 0.15 0.14 0.14 0.13 0.13 0.17 0.17 0.19 0.20 0.20 0.20 0.21 0.21 0.21 0.22 0.22 0.21 0.20 0.19 0.18 0.17 0.17 0.17 0.17 0.17 0.18 0.19 0.20
0.28 0.26 0.24 0.24 0.25 0.28 0.30 0.29 0.28 0.26 0.25 0.25 0.23 0.23 0.21 0.19 0.16 0.18 0.20 0.19 0.18 0.15 0.15 0.15 0.14 0.14 0.16 0.17 0.17 0.18 0.19 0.19 0.21 0.22 0.23 0.23 0.23 0.23 0.23 0.23 0.23 0.23 0.21 0.20 0.19 0.18 0.18 0.17 0.18 0.18 0.18 0.19 0.19 0.20
0.29 0.29 0.29 0.28 0.27 0.27 0.28 0.26 0.24 0.23 0.23 0.21 0.20 0.19 0.18 0.16 0.14 0.17 0.19 0.18 0.15 0.14 0.13 0.15 0.16 0.17 0.18 0.18 0.18 0.20 0.22 0.23 0.24 0.24 0.23 0.23 0.24 0.24 0.24 0.23 0.23 0.21 0.20 0.19 0.19 0.19 0.19 0.19 0.19 0.20 0.20 0.20 0.20 0.21

GFSWCAN_prec_pwat_060.txt.gz
Precipitable_Water
0.48 0.47 0.52 0.63 0.81 0.88 0.94 1.05 1.10 1.12 1.08 1.05 0.97 0.68 0.49 0.48 0.48 0.46 0.43 0.52 0.43 0.33 0.38 0.40 0.40 0.39 0.39 0.38 0.32 0.36 0.36 0.39 0.38 0.32 0.31 0.30 0.28 0.30 0.30 0.34 0.31 0.28 0.26 0.26 0.28 0.26 0.22 0.42 0.42 0.33 0.39 0.44 0.44 0.44
0.50 0.46 0.52 0.68 0.82 0.89 0.92 0.97 1.06 1.08 1.05 1.01 0.96 0.75 0.51 0.50 0.52 0.49 0.42 0.50 0.51 0.39 0.39 0.46 0.46 0.49 0.47 0.46 0.41 0.40 0.38 0.39 0.41 0.37 0.35 0.35 0.29 0.32 0.30 0.25 0.37 0.27 0.30 0.28 0.29 0.29 0.39 0.40 0.36 0.42 0.43 0.42 0.43 0.41
0.52 0.47 0.54 0.71 0.83 0.90 0.96 1.05 1.05 1.04 1.00 0.95 0.89 0.74 0.54 0.54 0.53 0.50 0.45 0.46 0.45 0.38 0.37 0.38 0.36 0.46 0.50 0.51 0.53 0.37 0.39 0.42 0.41 0.48 0.40 0.37 0.30 0.35 0.26 0.27 0.31 0.33 0.35 0.28 0.27 0.33 0.34 0.37 0.40 0.41 0.41 0.39 0.41 0.43
0.52 0.50 0.57 0.73 0.85 0.92 1.05 1.04 1.02 1.00 0.98 0.90 0.85 0.62 0.55 0.56 0.54 0.52 0.46 0.49 0.45 0.38 0.28 0.30 0.43 0.38 0.45 0.46 0.46 0.48 0.46 0.46 0.45 0.44 0.37 0.35 0.31 0.37 0.31 0.33 0.31 0.33 0.33 0.28 0.28 0.32 0.35 0.37 0.39 0.42 0.43 0.44 0.44 0.46
0.48 0.51 0.61 0.79 0.85 0.89 0.89 0.99 1.00 0.98 0.95 0.89 0.78 0.62 0.57 0.55 0.56 0.54 0.50 0.50 0.50 0.37 0.27 0.30 0.39 0.42 0.43 0.40 0.36 0.38 0.39 0.38 0.36 0.32 0.31 0.28 0.33 0.31 0.31 0.29 0.26 0.31 0.29 0.25 0.26 0.36 0.38 0.39 0.44 0.45 0.43 0.43 0.44 0.44
0.47 0.53 0.67 0.80 0.86 0.89 0.96 0.98 0.97 0.93 0.85 0.75 0.68 0.62 0.57 0.55 0.53 0.47 0.37 0.47 0.49 0.45 0.31 0.26 0.39 0.39 0.41 0.41 0.37 0.34 0.34 0.32 0.31 0.28 0.26 0.27 0.31 0.28 0.20 0.20 0.27 0.31 0.33 0.35 0.35 0.44 0.44 0.45 0.42 0.42 0.38 0.39 0.41 0.43
0.48 0.58 0.79 0.84 0.92 0.99 0.99 0.98 0.94 0.84 0.71 0.74 0.66 0.61 0.57 0.56 0.52 0.44 0.38 0.43 0.49 0.43 0.24 0.21 0.23 0.36 0.39 0.38 0.37 0.35 0.35 0.31 0.30 0.26 0.25 0.25 0.25 0.26 0.23 0.19 0.27 0.30 0.35 0.38 0.41 0.40 0.34 0.34 0.32 0.36 0.33 0.30 0.31 0.31
0.53 0.73 0.82 0.85 0.96 0.96 0.96 0.95 0.93 0.77 0.69 0.66 0.70 0.62 0.53 0.55 0.54 0.43 0.46 0.46 0.37 0.26 0.25 0.16 0.17 0.23 0.35 0.26 0.25 0.35 0.30 0.31 0.30 0.27 0.28 0.25 0.27 0.27 0.20 0.27 0.30 0.33 0.34 0.34 0.34 0.33 0.31 0.30 0.27 0.24 0.24 0.23 0.21 0.21
0.62 0.75 0.81 0.85 0.92 0.93 0.93 0.93 0.87 0.66 0.65 0.71 0.60 0.53 0.54 0.50 0.43 0.40 0.47 0.40 0.33 0.22 0.15 0.19 0.15 0.13 0.30 0.27 0.30 0.31 0.33 0.24 0.30 0.25 0.25 0.27 0.25 0.20 0.26 0.29 0.29 0.31 0.27 0.25 0.25 0.25 0.22 0.20 0.20 0.22 0.22 0.22 0.21 0.21
0.66 0.74 0.83 0.90 0.93 0.92 0.93 0.91 0.74 0.67 0.67 0.62 0.53 0.48 0.42 0.48 0.54 0.49 0.38 0.24 0.20 0.22 0.21 0.17 0.23 0.16 0.26 0.26 0.24 0.26 0.28 0.24 0.19 0.25 0.30 0.24 0.22 0.30 0.31 0.31 0.31 0.26 0.25 0.24 0.19 0.16 0.18 0.18 0.20 0.20 0.21 0.23 0.24 0.24
0.68 0.79 0.89 0.92 0.92 0.91 0.91 0.82 0.67 0.61 0.63 0.54 0.45 0.43 0.52 0.54 0.41 0.29 0.20 0.17 0.18 0.16 0.21 0.21 0.22 0.18 0.30 0.22 0.22 0.28 0.23 0.25 0.19 0.25 0.24 0.23 0.22 0.27 0.32 0.29 0.27 0.27 0.26 0.25 0.24 0.23 0.24 0.23 0.22 0.23 0.24 0.25 0.24 0.23
0.76 0.84 0.90 0.91 0.91 0.90 0.86 0.71 0.62 0.60 0.57 0.49 0.47 0.48 0.42 0.32 0.23 0.18 0.18 0.19 0.17 0.14 0.21 0.19 0.22 0.24 0.27 0.31 0.25 0.27 0.23 0.25 0.19 0.31 0.24 0.19 0.27 0.31 0.30 0.24 0.24 0.25 0.24 0.24 0.25 0.24 0.24 0.24 0.26 0.26 0.25 0.22 0.20 0.20
0.82 0.88 0.91 0.90 0.89 0.89 0.80 0.65 0.58 0.60 0.57 0.50 0.34 0.27 0.23 0.24 0.19 0.19 0.16 0.18 0.16 0.20 0.22 0.22 0.20 0.25 0.27 0.30 0.27 0.26 0.21 0.21 0.30 0.22 0.19 0.23 0.28 0.27 0.24 0.23 0.23 0.25 0.25 0.26 0.26 0.26 0.25 0.23 0.24 0.23 0.19 0.19 0.23 0.22
0.86 0.90 0.90 0.89 0.89 0.85 0.69 0.61 0.60 0.58 0.46 0.29 0.21 0.17 0.17 0.18 0.23 0.27 0.26 0.21 0.25 0.24 0.24 0.24 0.23 0.24 0.29 0.26 0.25 0.20 0.24 0.24 0.18 0.16 0.17 0.24 0.25 0.24 0.25 0.27 0.26 0.25 0.26 0.24 0.22 0.21 0.19 0.18 0.19 0.19 0.18 0.23 0.23 0.21
0.89 0.90 0.89 0.88 0.87 0.76 0.64 0.61 0.60 0.48 0.36 0.24 0.21 0.16 0.19 0.27 0.30 0.31 0.29 0.28 0.29 0.30 0.26 0.25 0.25 0.26 0.23 0.21 0.23 0.22 0.19 0.16 0.17 0.16 0.23 0.26 0.24 0.24 0.25 0.26 0.24 0.21 0.20 0.17 0.17 0.17 0.18 0.19 0.18 0.18 0.21 0.23 0.25 0.25
0.89 0.87 0.84 0.86 0.84 0.66 0.63 0.59 0.50 0.41 0.31 0.24 0.23 0.22 0.26 0.27 0.30 0.30 0.29 0.28 0.34 0.33 0.29 0.25 0.22 0.20 0.19 0.20 0.17 0.16 0.16 0.13 0.16 0.22 0.27 0.25 0.24 0.25 0.24 0.22 0.19 0.18 0.18 0.18 0.19 0.19 0.19 0.19 0.19 0.20 0.22 0.24 0.25 0.25
0.85 0.77 0.84 0.84 0.69 0.63 0.60 0.51 0.40 0.29 0.27 0.26 0.24 0.28 0.30 0.29 0.31 0.33 0.35 0.33 0.35 0.28 0.22 0.22 0.18 0.17 0.22 0.17 0.16 0.19 0.15 0.18 0.23 0.24 0.24 0.23 0.22 0.21 0.20 0.18 0.17 0.17 0.18 0.18 0.19 0.19 0.20 0.22 0.23 0.22 0.21 0.21 0.22 0.22
0.79 0.83 0.84 0.75 0.65 0.61 0.53 0.43 0.31 0.27 0.26 0.30 0.27 0.31 0.35 0.37 0.35 0.36 0.35 0.32 0.28 0.25 0.24 0.21 0.23 0.18 0.16 0.14 0.15 0.19 0.21 0.25 0.23 0.22 0.22 0.22 0.20 0.18 0.17 0.16 0.17 0.17 0.17 0.17 0.17 0.16 0.16 0.16 0.16 0.17 0.20 0.21 0.21 0.20
0.82 0.83 0.79 0.67 0.61 0.51 0.39 0.34 0.31 0.26 0.31 0.35 0.37 0.38 0.37 0.36 0.37 0.33 0.30 0.30 0.30 0.29 0.26 0.24 0.19 0.17 0.17 0.19 0.19 0.21 0.22 0.22 0.20 0.21 0.21 0.19 0.18 0.16 0.16 0.17 0.17 0.17 0.16 0.15 0.15 0.14 0.15 0.16 0.17 0.18 0.18 0.20 0.18 0.18
0.84 0.80 0.69 0.63 0.54 0.40 0.34 0.31 0.37 0.31 0.31 0.36 0.38 0.33 0.32 0.32 0.34 0.30 0.29 0.29 0.28 0.26 0.22 0.19 0.19 0.21 0.21 0.22 0.24 0.22 0.23 0.23 0.21 0.18 0.15 0.16 0.17 0.16 0.17 0.17 0.17 0.17 0.16 0.14 0.13 0.14 0.14 0.14 0.16 0.18 0.18 0.18 0.18 0.17
0.75 0.71 0.64 0.57 0.48 0.41 0.36 0.31 0.32 0.36 0.35 0.33 0.37 0.35 0.34 0.35 0.29 0.27 0.26 0.29 0.24 0.21 0.20 0.22 0.22 0.24 0.26 0.26 0.26 0.25 0.24 0.23 0.19 0.17 0.15 0.14 0.16 0.17 0.17 0.18 0.17 0.16 0.14 0.13 0.12 0.12 0.14 0.13 0.15 0.17 0.18 0.18 0.18 0.19
0.69 0.66 0.57 0.53 0.41 0.37 0.34 0.36 0.35 0.39 0.36 0.35 0.35 0.35 0.31 0.27 0.24 0.25 0.28 0.23 0.22 0.23 0.24 0.24 0.24 0.25 0.25 0.24 0.25 0.25 0.24 0.22 0.19 0.18 0.19 0.18 0.16 0.16 0.16 0.16 0.15 0.13 0.13 0.12 0.14 0.14 0.14 0.15 0.15 0.16 0.17 0.17 0.18 0.18
0.65 0.57 0.49 0.43 0.35 0.34 0.33 0.41 0.36 0.40 0.34 0.34 0.34 0.29 0.25 0.22 0.24 0.27 0.21 0.23 0.24 0.28 0.27 0.27 0.28 0.27 0.26 0.27 0.24 0.22 0.22 0.19 0.17 0.17 0.17 0.17 0.17 0.17 0.17 0.16 0.16 0.14 0.12 0.12 0.16 0.16 0.15 0.16 0.16 0.16 0.16 0.17 0.17 0.18
0.56 0.46 0.38 0.35 0.36 0.34 0.39 0.36 0.40 0.38 0.37 0.33 0.29 0.26 0.23 0.22 0.25 0.22 0.19 0.22 0.25 0.27 0.26 0.26 0.27 0.25 0.25 0.22 0.18 0.19 0.19 0.19 0.18 0.17 0.18 0.17 0.15 0.15 0.17 0.15 0.15 0.15 0.15 0.14 0.15 0.16 0.16 0.16 0.17 0.17 0.16 0.16 0.17 0.18
0.41 0.38 0.38 0.34 0.40 0.35 0.34 0.34 0.35 0.35 0.32 0.32 0.27 0.24 0.23 0.26 0.21 0.20 0.19 0.22 0.24 0.24 0.25 0.25 0.25 0.23 0.19 0.18 0.18 0.18 0.20 0.19 0.18 0.16 0.17 0.19 0.18 0.17 0.16 0.15 0.15 0.15 0.17 0.16 0.16 0.16 0.16 0.16 0.17 0.17 0.16 0.16 0.17 0.18
0.36 0.40 0.37 0.34 0.34 0.34 0.34 0.32 0.32 0.32 0.31 0.28 0.26 0.26 0.27 0.24 0.20 0.18 0.21 0.23 0.23 0.23 0.23 0.22 0.20 0.19 0.18 0.19 0.17 0.17 0.18 0.21 0.20 0.18 0.18 0.20 0.19 0.18 0.15 0.13 0.13 0.13 0.19 0.19 0.18 0.16 0.15 0.16 0.17 0.17 0.16 0.17 0.18 0.19
0.34 0.35 0.38 0.39 0.37 0.35 0.35 0.36 0.35 0.31 0.27 0.24 0.25 0.24 0.21 0.18 0.18 0.21 0.24 0.24 0.22 0.24 0.24 0.24 0.22 0.20 0.18 0.18 0.20 0.21 0.22 0.22 0.21 0.20 0.20 0.20 0.19 0.18 0.17 0.16 0.15 0.18 0.21 0.20 0.19 0.18 0.16 0.17 0.17 0.17 0.17 0.18 0.18 0.20
0.35 0.37 0.33 0.34 0.34 0.36 0.32 0.31 0.29 0.28 0.27 0.28 0.26 0.22 0.20 0.19 0.19 0.22 0.22 0.26 0.26 0.25 0.25 0.24 0.24 0.22 0.20 0.20 0.21 0.21 0.20 0.20 0.19 0.18 0.17 0.16 0.18 0.19 0.20 0.21 0.21 0.21 0.21 0.21 0.20 0.20 0.20 0.19 0.18 0.18 0.18 0.18 0.18 0.20
0.34 0.37 0.37 0.32 0.32 0.32 0.31 0.30 0.29 0.29 0.30 0.28 0.25 0.23 0.21 0.23 0.25 0.25 0.26 0.26 0.26 0.25 0.22 0.21 0.20 0.22 0.22 0.22 0.21 0.20 0.18 0.17 0.14 0.12 0.12 0.12 0.14 0.16 0.20 0.20 0.20 0.21 0.22 0.22 0.22 0.22 0.22 0.21 0.20 0.19 0.19 0.18 0.18 0.19
0.32 0.36 0.33 0.33 0.31 0.30 0.31 0.33 0.32 0.32 0.31 0.28 0.26 0.25 0.26 0.26 0.28 0.30 0.27 0.25 0.23 0.21 0.20 0.20 0.20 0.20 0.18 0.16 0.14 0.15 0.18 0.18 0.18 0.16 0.14 0.14 0.16 0.20 0.22 0.22 0.22 0.22 0.22 0.22 0.21 0.21 0.21 0.20 0.19 0.18 0.17 0.18 0.18 0.18
0.35 0.33 0.31 0.32 0.31 0.32 0.32 0.33 0.32 0.30 0.29 0.28 0.29 0.27 0.26 0.26 0.26 0.26 0.24 0.24 0.22 0.20 0.19 0.18 0.17 0.16 0.15 0.15 0.15 0.14 0.14 0.17 0.18 0.19 0.20 0.21 0.21 0.22 0.22 0.22 0.23 0.23 0.22 0.21 0.20 0.19 0.18 0.18 0.17 0.17 0.17 0.17 0.18 0.18
0.30 0.29 0.28 0.27 0.28 0.31 0.32 0.29 0.28 0.28 0.28 0.27 0.26 0.26 0.24 0.22 0.19 0.21 0.24 0.22 0.19 0.17 0.17 0.15 0.14 0.14 0.16 0.17 0.17 0.18 0.18 0.19 0.20 0.20 0.20 0.21 0.21 0.22 0.23 0.23 0.23 0.22 0.22 0.21 0.20 0.19 0.19 0.18 0.18 0.17 0.18 0.18 0.19 0.19
0.30 0.30 0.30 0.29 0.28 0.28 0.29 0.29 0.27 0.26 0.26 0.24 0.23 0.22 0.22 0.20 0.17 0.19 0.22 0.20 0.18 0.16 0.14 0.15 0.16 0.17 0.18 0.18 0.18 0.19 0.20 0.20 0.20 0.21 0.22 0.22 0.22 0.23 0.25 0.24 0.24 0.24 0.23 0.22 0.21 0.21 0.20 0.20 0.20 0.20 0.20 0.20 0.20 0.20

GFSWCAN_prec_pwat_063.txt.gz
Precipitable_Water
0.61 0.60 0.59 0.54 0.52 0.51 0.68 0.84 0.89 1.02 1.02 1.03 1.03 0.97 0.73 0.60 0.58 0.45 0.41 0.51 0.44 0.36 0.40 0.45 0.45 0.41 0.38 0.37 0.30 0.36 0.35 0.37 0.35 0.28 0.27 0.26 0.25 0.27 0.27 0.30 0.27 0.26 0.24 0.25 0.28 0.25 0.22 0.41 0.42 0.33 0.39 0.45 0.46 0.46
0.59 0.57 0.58 0.54 0.52 0.53 0.72 0.84 0.89 0.89 0.98 1.01 0.98 0.90 0.66 0.60 0.55 0.50 0.39 0.51 0.51 0.40 0.40 0.50 0.51 0.53 0.49 0.47 0.40 0.40 0.35 0.37 0.39 0.32 0.32 0.32 0.26 0.29 0.27 0.21 0.35 0.25 0.30 0.27 0.27 0.27 0.36 0.39 0.38 0.42 0.42 0.39 0.38 0.38
0.53 0.54 0.55 0.54 0.51 0.58 0.76 0.84 0.92 0.97 0.97 0.98 0.96 0.88 0.64 0.56 0.52 0.48 0.45 0.47 0.45 0.39 0.40 0.42 0.41 0.49 0.54 0.53 0.54 0.36 0.40 0.44 0.42 0.47 0.37 0.34 0.26 0.32 0.23 0.25 0.28 0.32 0.35 0.28 0.28 0.33 0.34 0.35 0.39 0.41 0.40 0.39 0.42 0.43
0.48 0.56 0.54 0.54 0.52 0.72 0.77 0.87 0.96 0.98 0.98 0.97 0.96 0.84 0.58 0.56 0.54 0.52 0.47 0.51 0.46 0.41 0.33 0.36 0.49 0.44 0.52 0.52 0.51 0.50 0.45 0.45 0.47 0.44 0.36 0.32 0.27 0.34 0.28 0.29 0.28 0.32 0.32 0.28 0.28 0.33 0.35 0.37 0.39 0.41 0.42 0.44 0.43 0.43
0.51 0.55 0.53 0.52 0.58 0.77 0.84 0.96 0.96 0.96 0.96 0.96 0.95 0.87 0.60 0.58 0.55 0.52 0.52 0.53 0.53 0.39 0.30 0.34 0.43 0.46 0.47 0.45 0.45 0.46 0.44 0.41 0.38 0.33 0.31 0.28 0.33 0.30 0.29 0.28 0.24 0.30 0.27 0.24 0.22 0.31 0.32 0.35 0.41 0.42 0.36 0.35 0.36 0.35
0.55 0.53 0.52 0.51 0.70 0.79 0.84 0.85 0.92 0.93 0.94 0.95 0.90 0.73 0.64 0.57 0.56 0.49 0.39 0.49 0.52 0.46 0.34 0.26 0.41 0.39 0.42 0.40 0.36 0.36 0.39 0.39 0.36 0.31 0.28 0.30 0.33 0.27 0.18 0.16 0.23 0.27 0.30 0.30 0.26 0.35 0.37 0.39 0.37 0.37 0.32 0.31 0.31 0.29
0.51 0.51 0.50 0.54 0.70 0.80 0.86 0.88 0.92 0.92 0.92 0.93 0.80 0.68 0.64 0.61 0.55 0.44 0.36 0.42 0.51 0.44 0.33 0.28 0.29 0.39 0.43 0.40 0.37 0.33 0.33 0.31 0.29 0.27 0.25 0.24 0.24 0.26 0.21 0.16 0.23 0.28 0.31 0.33 0.38 0.34 0.29 0.31 0.28 0.30 0.28 0.27 0.26 0.25
0.49 0.50 0.49 0.62 0.75 0.82 0.89 0.92 0.92 0.91 0.85 0.73 0.71 0.66 0.63 0.57 0.54 0.46 0.49 0.51 0.48 0.32 0.26 0.18 0.24 0.30 0.39 0.30 0.28 0.36 0.29 0.30 0.29 0.27 0.28 0.24 0.25 0.24 0.17 0.24 0.28 0.31 0.33 0.34 0.33 0.32 0.29 0.28 0.27 0.25 0.25 0.23 0.21 0.21
0.49 0.48 0.65 0.74 0.83 0.91 0.92 0.92 0.90 0.85 0.74 0.71 0.67 0.64 0.57 0.51 0.45 0.42 0.47 0.44 0.36 0.21 0.16 0.18 0.17 0.17 0.34 0.30 0.31 0.31 0.33 0.24 0.31 0.26 0.27 0.29 0.25 0.20 0.24 0.27 0.30 0.32 0.30 0.28 0.27 0.25 0.24 0.23 0.23 0.23 0.23 0.22 0.22 0.22
0.49 0.64 0.70 0.79 0.91 0.93 0.92 0.89 0.84 0.77 0.72 0.68 0.64 0.51 0.41 0.48 0.56 0.50 0.39 0.22 0.19 0.21 0.21 0.19 0.23 0.18 0.27 0.27 0.26 0.26 0.28 0.24 0.20 0.26 0.32 0.26 0.24 0.31 0.33 0.35 0.36 0.34 0.28 0.25 0.20 0.19 0.21 0.20 0.20 0.21 0.21 0.23 0.23 0.23
0.57 0.65 0.73 0.84 0.89 0.90 0.89 0.87 0.80 0.70 0.73 0.62 0.50 0.46 0.55 0.57 0.43 0.32 0.21 0.16 0.18 0.15 0.20 0.22 0.22 0.19 0.32 0.22 0.23 0.28 0.23 0.25 0.20 0.26 0.25 0.23 0.22 0.28 0.34 0.33 0.32 0.29 0.26 0.26 0.25 0.25 0.24 0.22 0.22 0.22 0.23 0.23 0.22 0.19
0.56 0.65 0.78 0.84 0.88 0.88 0.87 0.82 0.66 0.63 0.60 0.56 0.51 0.55 0.50 0.39 0.29 0.20 0.18 0.18 0.16 0.13 0.20 0.18 0.21 0.25 0.28 0.32 0.24 0.26 0.23 0.25 0.20 0.31 0.23 0.18 0.25 0.30 0.31 0.29 0.26 0.25 0.24 0.24 0.24 0.23 0.24 0.24 0.23 0.21 0.21 0.20 0.18 0.21
0.56 0.70 0.82 0.87 0.87 0.86 0.85 0.73 0.63 0.64 0.62 0.55 0.46 0.38 0.33 0.26 0.18 0.16 0.15 0.16 0.16 0.20 0.21 0.21 0.19 0.24 0.27 0.29 0.26 0.26 0.21 0.20 0.29 0.22 0.18 0.21 0.27 0.28 0.27 0.24 0.23 0.25 0.24 0.24 0.25 0.24 0.22 0.20 0.19 0.19 0.19 0.19 0.19 0.20
0.62 0.80 0.87 0.87 0.86 0.84 0.76 0.66 0.67 0.65 0.54 0.38 0.31 0.24 0.21 0.19 0.18 0.19 0.16 0.16 0.23 0.22 0.21 0.22 0.23 0.24 0.28 0.25 0.25 0.20 0.25 0.25 0.17 0.15 0.15 0.22 0.25 0.25 0.24 0.24 0.24 0.23 0.24 0.21 0.19 0.17 0.16 0.17 0.17 0.18 0.19 0.20 0.21 0.21
0.73 0.85 0.87 0.87 0.84 0.81 0.67 0.65 0.65 0.56 0.42 0.29 0.24 0.16 0.19 0.26 0.30 0.33 0.33 0.28 0.27 0.27 0.25 0.23 0.25 0.27 0.25 0.23 0.24 0.23 0.19 0.15 0.16 0.15 0.20 0.25 0.25 0.23 0.23 0.25 0.24 0.21 0.19 0.16 0.16 0.16 0.16 0.17 0.17 0.17 0.19 0.21 0.22 0.22
0.85 0.85 0.82 0.85 0.84 0.74 0.66 0.65 0.57 0.46 0.36 0.28 0.23 0.19 0.25 0.25 0.28 0.30 0.29 0.26 0.31 0.29 0.29 0.26 0.22 0.21 0.20 0.21 0.18 0.16 0.15 0.13 0.15 0.20 0.26 0.26 0.23 0.23 0.25 0.23 0.21 0.18 0.16 0.16 0.16 0.17 0.16 0.16 0.15 0.15 0.15 0.16 0.16 0.18
0.81 0.74 0.82 0.82 0.79 0.69 0.61 0.55 0.47 0.37 0.33 0.26 0.22 0.26 0.27 0.28 0.33 0.32 0.31 0.30 0.35 0.29 0.23 0.24 0.19 0.19 0.23 0.18 0.16 0.19 0.15 0.16 0.21 0.24 0.26 0.25 0.23 0.22 0.21 0.18 0.17 0.16 0.15 0.15 0.15 0.15 0.14 0.14 0.14 0.13 0.12 0.13 0.16 0.17
0.74 0.81 0.82 0.79 0.71 0.61 0.55 0.51 0.41 0.36 0.29 0.28 0.25 0.26 0.28 0.32 0.33 0.35 0.36 0.37 0.33 0.27 0.25 0.21 0.23 0.19 0.17 0.15 0.16 0.18 0.20 0.23 0.25 0.23 0.23 0.23 0.22 0.20 0.18 0.16 0.16 0.16 0.16 0.16 0.16 0.14 0.14 0.13 0.12 0.12 0.14 0.14 0.15 0.16
0.79 0.80 0.79 0.73 0.62 0.51 0.43 0.40 0.39 0.31 0.31 0.31 0.31 0.32 0.34 0.36 0.38 0.37 0.35 0.34 0.31 0.29 0.25 0.23 0.20 0.19 0.19 0.21 0.19 0.21 0.21 0.22 0.22 0.22 0.22 0.22 0.19 0.17 0.16 0.17 0.17 0.17 0.17 0.16 0.15 0.14 0.14 0.14 0.14 0.14 0.14 0.15 0.14 0.15
0.82 0.80 0.74 0.65 0.55 0.42 0.36 0.35 0.40 0.30 0.28 0.31 0.33 0.34 0.34 0.36 0.38 0.35 0.32 0.29 0.26 0.25 0.23 0.21 0.20 0.21 0.21 0.22 0.23 0.22 0.22 0.25 0.23 0.20 0.18 0.17 0.17 0.17 0.16 0.17 0.17 0.19 0.18 0.17 0.16 0.16 0.14 0.13 0.15 0.15 0.15 0.16 0.15 0.14
0.75 0.72 0.65 0.56 0.46 0.42 0.37 0.34 0.31 0.32 0.32 0.32 0.36 0.35 0.33 0.35 0.32 0.29 0.27 0.28 0.23 0.22 0.21 0.23 0.22 0.25 0.26 0.26 0.26 0.26 0.25 0.24 0.21 0.20 0.16 0.15 0.17 0.17 0.17 0.18 0.20 0.19 0.17 0.16 0.14 0.13 0.14 0.14 0.15 0.16 0.16 0.16 0.16 0.17
0.68 0.65 0.56 0.51 0.41 0.39 0.35 0.38 0.32 0.34 0.33 0.34 0.34 0.36 0.32 0.29 0.29 0.27 0.27 0.22 0.21 0.22 0.25 0.24 0.24 0.26 0.25 0.24 0.25 0.26 0.26 0.25 0.23 0.20 0.19 0.19 0.16 0.16 0.16 0.16 0.17 0.16 0.16 0.16 0.15 0.14 0.14 0.15 0.17 0.17 0.17 0.16 0.17 0.17
0.65 0.57 0.48 0.45 0.36 0.35 0.33 0.40 0.30 0.32 0.27 0.29 0.34 0.32 0.29 0.29 0.29 0.30 0.22 0.21 0.22 0.27 0.29 0.28 0.27 0.28 0.26 0.28 0.28 0.26 0.25 0.22 0.18 0.17 0.17 0.18 0.18 0.18 0.18 0.18 0.19 0.18 0.16 0.15 0.17 0.16 0.16 0.18 0.18 0.18 0.17 0.16 0.16 0.16
0.59 0.50 0.40 0.37 0.35 0.32 0.35 0.31 0.32 0.30 0.31 0.31 0.32 0.30 0.30 0.29 0.30 0.23 0.18 0.19 0.22 0.26 0.27 0.27 0.27 0.26 0.26 0.27 0.23 0.21 0.22 0.21 0.18 0.18 0.19 0.18 0.17 0.18 0.19 0.19 0.19 0.19 0.18 0.17 0.17 0.17 0.18 0.19 0.19 0.18 0.17 0.16 0.16 0.15
0.45 0.42 0.41 0.35 0.37 0.32 0.31 0.30 0.31 0.31 0.30 0.34 0.32 0.31 0.30 0.30 0.23 0.19 0.18 0.20 0.23 0.24 0.25 0.26 0.26 0.25 0.22 0.21 0.21 0.20 0.21 0.20 0.18 0.17 0.18 0.20 0.19 0.19 0.18 0.17 0.17 0.18 0.19 0.17 0.17 0.18 0.18 0.18 0.18 0.17 0.17 0.16 0.16 0.16
0.38 0.42 0.39 0.37 0.34 0.32 0.31 0.31 0.31 0.32 0.34 0.35 0.35 0.34 0.31 0.27 0.21 0.18 0.21 0.24 0.25 0.25 0.25 0.24 0.23 0.22 0.22 0.22 0.19 0.18 0.19 0.22 0.21 0.18 0.19 0.20 0.19 0.16 0.15 0.14 0.14 0.15 0.20 0.20 0.18 0.17 0.17 0.18 0.18 0.18 0.17 0.17 0.17 0.16
0.36 0.36 0.38 0.40 0.38 0.37 0.35 0.37 0.37 0.36 0.35 0.33 0.33 0.31 0.28 0.22 0.20 0.23 0.28 0.28 0.25 0.26 0.26 0.25 0.24 0.23 0.21 0.21 0.21 0.21 0.22 0.22 0.21 0.19 0.19 0.18 0.18 0.19 0.18 0.16 0.16 0.19 0.22 0.22 0.22 0.21 0.20 0.20 0.19 0.19 0.18 0.18 0.18 0.18
0.37 0.36 0.32 0.36 0.37 0.38 0.34 0.36 0.37 0.35 0.34 0.33 0.32 0.28 0.24 0.23 0.23 0.25 0.26 0.28 0.27 0.27 0.26 0.27 0.27 0.25 0.22 0.21 0.21 0.21 0.21 0.20 0.18 0.17 0.17 0.17 0.18 0.19 0.20 0.22 0.23 0.24 0.23 0.23 0.23 0.22 0.21 0.21 0.20 0.19 0.18 0.17 0.17 0.18
0.36 0.37 0.38 0.35 0.37 0.37 0.38 0.37 0.36 0.37 0.37 0.32 0.26 0.25 0.25 0.27 0.28 0.27 0.27 0.27 0.28 0.26 0.25 0.24 0.23 0.24 0.22 0.22 0.21 0.19 0.18 0.17 0.15 0.12 0.11 0.12 0.15 0.18 0.21 0.21 0.21 0.21 0.22 0.22 0.23 0.23 0.22 0.21 0.20 0.19 0.18 0.17 0.17 0.18
0.35 0.39 0.36 0.37 0.35 0.35 0.38 0.39 0.36 0.37 0.37 0.34 0.32 0.30 0.30 0.29 0.29 0.30 0.29 0.28 0.26 0.25 0.24 0.23 0.22 0.20 0.17 0.16 0.15 0.16 0.17 0.17 0.17 0.16 0.14 0.15 0.16 0.19 0.19 0.19 0.20 0.21 0.22 0.21 0.21 0.20 0.20 0.20 0.19 0.18 0.17 0.17 0.17 0.17
0.41 0.40 0.38 0.37 0.35 0.36 0.37 0.39 0.38 0.37 0.34 0.32 0.32 0.27 0.25 0.27 0.29 0.31 0.29 0.27 0.25 0.24 0.21 0.19 0.18 0.17 0.16 0.15 0.15 0.14 0.14 0.17 0.19 0.19 0.19 0.19 0.20 0.19 0.19 0.20 0.22 0.22 0.22 0.22 0.22 0.21 0.20 0.19 0.18 0.18 0.17 0.17 0.17 0.17
0.39 0.37 0.36 0.33 0.33 0.35 0.36 0.34 0.34 0.31 0.28 0.26 0.26 0.28 0.28 0.27 0.23 0.25 0.27 0.26 0.22 0.19 0.18 0.17 0.15 0.15 0.17 0.17 0.18 0.18 0.19 0.19 0.19 0.19 0.19 0.20 0.20 0.20 0.20 0.22 0.23 0.24 0.24 0.24 0.23 0.22 0.22 0.21 0.20 0.20 0.19 0.18 0.18 0.18
0.35 0.35 0.36 0.34 0.33 0.32 0.33 0.31 0.29 0.27 0.28 0.28 0.29 0.29 0.26 0.23 0.20 0.24 0.26 0.24 0.20 0.18 0.17 0.17 0.17 0.18 0.18 0.18 0.19 0.19 0.20 0.20 0.20 0.20 0.20 0.21 0.21 0.21 0.22 0.23 0.25 0.25 0.24 0.23 0.22 0.22 0.21 0.21 0.20 0.20 0.20 0.20 0.19 0.19

GFSWCAN_prec_pwat_066.txt.gz
Precipitable_Water
0.61 0.62 0.64 0.61 0.61 0.58 0.56 0.53 0.71 0.83 0.89 0.95 0.96 0.98 0.94 0.88 0.70 0.57 0.43 0.52 0.46 0.38 0.42 0.47 0.47 0.42 0.40 0.38 0.29 0.36 0.35 0.38 0.36 0.28 0.26 0.25 0.23 0.26 0.25 0.27 0.25 0.23 0.22 0.22 0.24 0.21 0.17 0.37 0.39 0.31 0.36 0.41 0.41 0.41
0.61 0.61 0.61 0.60 0.57 0.57 0.55 0.58 0.79 0.83 0.88 0.96 0.97 0.96 0.93 0.77 0.65 0.49 0.38 0.49 0.54 0.44 0.44 0.53 0.53 0.54 0.50 0.47 0.40 0.40 0.34 0.36 0.37 0.31 0.30 0.30 0.25 0.27 0.25 0.20 0.33 0.23 0.27 0.24 0.25 0.23 0.33 0.37 0.36 0.41 0.41 0.37 0.36 0.35
0.60 0.61 0.61 0.55 0.57 0.56 0.55 0.58 0.79 0.84 0.89 0.95 0.95 0.94 0.85 0.73 0.60 0.47 0.42 0.46 0.48 0.42 0.41 0.45 0.44 0.52 0.55 0.54 0.54 0.38 0.40 0.44 0.41 0.45 0.37 0.34 0.26 0.31 0.22 0.24 0.28 0.32 0.35 0.27 0.27 0.30 0.33 0.37 0.40 0.39 0.39 0.36 0.39 0.41
0.59 0.60 0.56 0.55 0.57 0.55 0.53 0.62 0.76 0.84 0.93 0.93 0.91 0.88 0.76 0.68 0.58 0.49 0.43 0.49 0.46 0.41 0.34 0.38 0.53 0.48 0.54 0.54 0.52 0.50 0.46 0.49 0.48 0.45 0.37 0.33 0.27 0.34 0.28 0.29 0.28 0.31 0.32 0.28 0.28 0.32 0.34 0.36 0.38 0.38 0.38 0.39 0.37 0.36
0.59 0.58 0.51 0.57 0.55 0.53 0.65 0.76 0.81 0.88 0.93 0.93 0.90 0.83 0.74 0.61 0.54 0.50 0.50 0.52 0.51 0.39 0.33 0.37 0.45 0.50 0.51 0.50 0.48 0.48 0.46 0.42 0.40 0.36 0.33 0.29 0.34 0.31 0.31 0.30 0.27 0.32 0.29 0.24 0.22 0.30 0.30 0.31 0.37 0.38 0.33 0.31 0.30 0.28
0.57 0.53 0.55 0.54 0.54 0.64 0.78 0.92 0.93 0.94 0.93 0.91 0.89 0.79 0.71 0.59 0.53 0.48 0.40 0.52 0.54 0.50 0.38 0.31 0.44 0.43 0.46 0.46 0.44 0.44 0.43 0.41 0.39 0.33 0.32 0.33 0.36 0.31 0.21 0.18 0.24 0.29 0.32 0.32 0.27 0.33 0.34 0.36 0.37 0.36 0.30 0.28 0.27 0.27
0.56 0.53 0.56 0.54 0.60 0.72 0.82 0.87 0.92 0.92 0.91 0.90 0.83 0.75 0.66 0.58 0.52 0.43 0.38 0.46 0.54 0.50 0.36 0.30 0.31 0.41 0.44 0.40 0.37 0.37 0.40 0.38 0.35 0.32 0.28 0.26 0.26 0.29 0.22 0.16 0.24 0.29 0.32 0.33 0.35 0.33 0.30 0.31 0.27 0.29 0.27 0.27 0.28 0.28
0.54 0.53 0.53 0.53 0.57 0.75 0.82 0.86 0.91 0.89 0.87 0.87 0.80 0.72 0.66 0.58 0.54 0.46 0.53 0.55 0.52 0.36 0.34 0.27 0.29 0.33 0.41 0.31 0.28 0.36 0.29 0.30 0.29 0.27 0.28 0.24 0.26 0.24 0.17 0.23 0.28 0.32 0.33 0.33 0.32 0.31 0.28 0.29 0.28 0.26 0.27 0.27 0.25 0.24
0.52 0.52 0.50 0.50 0.59 0.77 0.81 0.89 0.88 0.86 0.86 0.87 0.75 0.69 0.62 0.52 0.44 0.46 0.55 0.51 0.42 0.27 0.19 0.21 0.23 0.22 0.38 0.32 0.33 0.32 0.33 0.24 0.32 0.25 0.26 0.28 0.24 0.19 0.23 0.26 0.30 0.32 0.32 0.30 0.29 0.27 0.26 0.24 0.23 0.24 0.25 0.24 0.22 0.21
0.50 0.50 0.47 0.49 0.67 0.78 0.83 0.88 0.87 0.85 0.84 0.76 0.65 0.54 0.45 0.51 0.57 0.50 0.37 0.27 0.23 0.22 0.23 0.20 0.28 0.22 0.31 0.28 0.26 0.27 0.29 0.25 0.20 0.25 0.31 0.25 0.23 0.30 0.33 0.35 0.35 0.36 0.33 0.28 0.21 0.20 0.22 0.22 0.22 0.21 0.21 0.22 0.24 0.24
0.48 0.47 0.49 0.63 0.75 0.83 0.88 0.87 0.85 0.76 0.72 0.61 0.53 0.48 0.55 0.55 0.44 0.37 0.26 0.20 0.18 0.15 0.21 0.23 0.23 0.20 0.33 0.22 0.22 0.27 0.23 0.24 0.18 0.24 0.24 0.23 0.21 0.27 0.33 0.33 0.34 0.32 0.29 0.25 0.24 0.24 0.24 0.22 0.21 0.21 0.21 0.19 0.18 0.18
0.47 0.52 0.66 0.80 0.89 0.90 0.88 0.85 0.76 0.67 0.62 0.59 0.59 0.57 0.48 0.39 0.30 0.24 0.22 0.20 0.16 0.14 0.21 0.20 0.23 0.27 0.28 0.30 0.23 0.26 0.21 0.23 0.19 0.30 0.23 0.18 0.23 0.28 0.29 0.29 0.28 0.26 0.24 0.23 0.24 0.23 0.23 0.23 0.21 0.18 0.16 0.16 0.17 0.18
0.51 0.65 0.70 0.86 0.87 0.87 0.85 0.78 0.67 0.65 0.64 0.59 0.49 0.41 0.36 0.31 0.22 0.18 0.15 0.15 0.16 0.20 0.22 0.22 0.20 0.24 0.26 0.27 0.25 0.25 0.21 0.21 0.29 0.21 0.18 0.19 0.24 0.26 0.27 0.27 0.23 0.24 0.23 0.23 0.23 0.24 0.21 0.18 0.17 0.17 0.16 0.17 0.18 0.18
0.59 0.65 0.74 0.83 0.85 0.84 0.82 0.72 0.67 0.69 0.58 0.42 0.34 0.30 0.25 0.20 0.20 0.17 0.18 0.19 0.21 0.21 0.20 0.21 0.20 0.22 0.25 0.22 0.26 0.21 0.26 0.25 0.17 0.15 0.14 0.19 0.24 0.26 0.26 0.24 0.22 0.22 0.23 0.23 0.21 0.18 0.16 0.16 0.16 0.17 0.18 0.18 0.17 0.15
0.57 0.67 0.75 0.84 0.83 0.83 0.78 0.70 0.69 0.64 0.47 0.36 0.30 0.23 0.22 0.28 0.28 0.29 0.26 0.23 0.25 0.25 0.21 0.20 0.21 0.22 0.22 0.23 0.26 0.25 0.20 0.16 0.16 0.14 0.17 0.23 0.26 0.25 0.23 0.22 0.23 0.24 0.23 0.19 0.17 0.16 0.16 0.16 0.15 0.13 0.13 0.14 0.14 0.14
0.60 0.71 0.78 0.82 0.81 0.79 0.70 0.67 0.63 0.52 0.43 0.33 0.30 0.25 0.28 0.28 0.25 0.26 0.23 0.22 0.26 0.24 0.24 0.22 0.19 0.19 0.20 0.22 0.20 0.18 0.16 0.13 0.15 0.18 0.23 0.25 0.24 0.23 0.22 0.24 0.25 0.22 0.18 0.16 0.16 0.16 0.15 0.14 0.13 0.12 0.13 0.13 0.14 0.14
0.65 0.72 0.81 0.81 0.80 0.74 0.65 0.62 0.52 0.41 0.36 0.29 0.27 0.31 0.29 0.27 0.27 0.30 0.31 0.29 0.32 0.25 0.21 0.22 0.19 0.20 0.25 0.19 0.17 0.20 0.16 0.17 0.19 0.22 0.25 0.25 0.24 0.22 0.24 0.23 0.20 0.18 0.16 0.16 0.16 0.16 0.16 0.16 0.14 0.12 0.11 0.11 0.13 0.14
0.69 0.79 0.81 0.78 0.76 0.67 0.63 0.57 0.43 0.38 0.33 0.34 0.27 0.26 0.30 0.32 0.32 0.32 0.33 0.35 0.31 0.28 0.25 0.23 0.26 0.21 0.18 0.16 0.17 0.20 0.21 0.23 0.25 0.26 0.26 0.26 0.24 0.23 0.21 0.18 0.17 0.17 0.16 0.17 0.18 0.17 0.17 0.15 0.13 0.12 0.13 0.14 0.14 0.15
0.76 0.78 0.78 0.76 0.67 0.58 0.50 0.46 0.43 0.35 0.35 0.32 0.30 0.31 0.33 0.35 0.39 0.39 0.37 0.36 0.34 0.32 0.27 0.24 0.20 0.19 0.19 0.21 0.20 0.21 0.22 0.23 0.22 0.23 0.24 0.24 0.23 0.20 0.18 0.18 0.17 0.17 0.18 0.18 0.18 0.18 0.18 0.17 0.16 0.15 0.15 0.15 0.14 0.15
0.79 0.77 0.75 0.68 0.61 0.47 0.43 0.42 0.45 0.35 0.30 0.30 0.30 0.29 0.32 0.33 0.36 0.34 0.33 0.31 0.29 0.26 0.23 0.21 0.21 0.22 0.22 0.23 0.24 0.23 0.23 0.25 0.23 0.21 0.20 0.21 0.19 0.18 0.17 0.17 0.17 0.19 0.19 0.19 0.19 0.19 0.18 0.17 0.16 0.16 0.16 0.16 0.16 0.16
0.74 0.72 0.67 0.60 0.51 0.47 0.42 0.41 0.38 0.38 0.36 0.29 0.30 0.32 0.31 0.34 0.31 0.31 0.28 0.30 0.24 0.22 0.22 0.24 0.24 0.26 0.27 0.26 0.26 0.26 0.26 0.26 0.23 0.21 0.19 0.16 0.18 0.18 0.17 0.18 0.19 0.19 0.18 0.17 0.17 0.17 0.18 0.16 0.17 0.18 0.18 0.18 0.19 0.19
0.67 0.68 0.58 0.53 0.43 0.42 0.40 0.44 0.38 0.40 0.36 0.31 0.31 0.33 0.31 0.28 0.28 0.29 0.29 0.24 0.21 0.23 0.26 0.25 0.25 0.25 0.24 0.24 0.25 0.27 0.27 0.27 0.25 0.23 0.21 0.20 0.17 0.16 0.16 0.17 0.18 0.17 0.17 0.18 0.18 0.17 0.17 0.18 0.20 0.20 0.20 0.19 0.20 0.18
0.66 0.59 0.50 0.45 0.37 0.36 0.36 0.44 0.33 0.34 0.28 0.29 0.32 0.29 0.28 0.28 0.30 0.31 0.24 0.23 0.22 0.27 0.30 0.28 0.27 0.28 0.26 0.27 0.28 0.28 0.27 0.25 0.22 0.20 0.19 0.19 0.19 0.18 0.18 0.19 0.19 0.18 0.17 0.17 0.18 0.18 0.18 0.20 0.21 0.21 0.20 0.19 0.18 0.18
0.60 0.48 0.40 0.37 0.35 0.32 0.37 0.33 0.34 0.32 0.32 0.29 0.27 0.25 0.28 0.29 0.31 0.27 0.22 0.21 0.22 0.26 0.27 0.27 0.27 0.26 0.27 0.27 0.25 0.24 0.24 0.24 0.21 0.20 0.20 0.19 0.17 0.17 0.19 0.18 0.17 0.17 0.17 0.17 0.18 0.18 0.19 0.19 0.20 0.20 0.20 0.19 0.19 0.19
0.44 0.42 0.42 0.35 0.36 0.31 0.31 0.31 0.30 0.28 0.27 0.28 0.27 0.28 0.30 0.33 0.26 0.23 0.22 0.22 0.22 0.22 0.24 0.27 0.27 0.27 0.25 0.22 0.22 0.23 0.24 0.22 0.19 0.17 0.18 0.19 0.19 0.18 0.15 0.15 0.15 0.16 0.18 0.17 0.18 0.19 0.20 0.21 0.21 0.20 0.20 0.20 0.19 0.18
0.37 0.42 0.38 0.35 0.32 0.30 0.31 0.28 0.29 0.28 0.28 0.30 0.32 0.32 0.34 0.33 0.29 0.24 0.25 0.24 0.21 0.22 0.24 0.26 0.26 0.25 0.24 0.23 0.22 0.22 0.21 0.23 0.21 0.18 0.18 0.18 0.17 0.15 0.13 0.13 0.14 0.16 0.21 0.21 0.20 0.19 0.19 0.19 0.19 0.19 0.19 0.19 0.19 0.18
0.36 0.36 0.39 0.40 0.36 0.34 0.33 0.35 0.34 0.33 0.33 0.34 0.35 0.33 0.32 0.30 0.28 0.27 0.28 0.28 0.24 0.26 0.28 0.28 0.27 0.25 0.23 0.23 0.24 0.24 0.24 0.23 0.21 0.18 0.18 0.17 0.17 0.18 0.18 0.17 0.16 0.18 0.20 0.20 0.20 0.20 0.19 0.19 0.18 0.18 0.18 0.18 0.18 0.17
0.39 0.37 0.33 0.36 0.36 0.36 0.33 0.35 0.35 0.35 0.36 0.37 0.36 0.34 0.33 0.32 0.27 0.29 0.29 0.30 0.29 0.29 0.28 0.28 0.28 0.27 0.25 0.25 0.24 0.23 0.22 0.20 0.17 0.17 0.17 0.17 0.19 0.19 0.20 0.20 0.20 0.21 0.21 0.22 0.22 0.22 0.21 0.20 0.18 0.18 0.17 0.17 0.16 0.17
0.35 0.38 0.38 0.35 0.37 0.38 0.38 0.37 0.38 0.41 0.40 0.37 0.35 0.34 0.33 0.33 0.33 0.30 0.30 0.30 0.29 0.29 0.27 0.26 0.26 0.26 0.26 0.25 0.23 0.20 0.19 0.17 0.14 0.12 0.12 0.13 0.15 0.17 0.20 0.20 0.19 0.19 0.21 0.21 0.22 0.23 0.23 0.23 0.21 0.20 0.18 0.17 0.17 0.17
0.36 0.40 0.37 0.37 0.36 0.36 0.39 0.40 0.40 0.44 0.44 0.42 0.38 0.35 0.32 0.30 0.31 0.32 0.30 0.29 0.28 0.27 0.26 0.26 0.26 0.24 0.21 0.19 0.17 0.17 0.17 0.17 0.17 0.16 0.15 0.14 0.16 0.18 0.19 0.19 0.18 0.19 0.21 0.22 0.22 0.22 0.23 0.22 0.22 0.21 0.20 0.19 0.18 0.17
0.40 0.39 0.38 0.37 0.36 0.40 0.42 0.45 0.45 0.44 0.42 0.39 0.37 0.31 0.28 0.30 0.32 0.33 0.31 0.31 0.29 0.28 0.26 0.24 0.22 0.20 0.18 0.17 0.15 0.15 0.15 0.18 0.19 0.19 0.19 0.18 0.18 0.19 0.19 0.19 0.20 0.22 0.23 0.22 0.22 0.21 0.21 0.20 0.20 0.20 0.19 0.19 0.19 0.18
0.40 0.39 0.38 0.35 0.37 0.41 0.43 0.41 0.39 0.37 0.36 0.34 0.30 0.29 0.29 0.28 0.25 0.28 0.30 0.29 0.27 0.24 0.23 0.21 0.18 0.18 0.18 0.18 0.18 0.18 0.19 0.19 0.20 0.20 0.19 0.19 0.19 0.20 0.20 0.21 0.23 0.24 0.23 0.22 0.22 0.21 0.20 0.20 0.20 0.19 0.19 0.19 0.19 0.20
0.40 0.40 0.40 0.38 0.36 0.36 0.39 0.37 0.35 0.33 0.32 0.30 0.29 0.28 0.26 0.25 0.24 0.29 0.32 0.30 0.26 0.23 0.21 0.20 0.20 0.19 0.19 0.18 0.18 0.19 0.19 0.20 0.21 0.21 0.21 0.21 0.21 0.21 0.22 0.23 0.24 0.23 0.23 0.22 0.22 0.22 0.21 0.21 0.20 0.20 0.19 0.19 0.19 0.20

GFSWCAN_prec_pwat_069.txt.gz
Precipitable_Water
0.61 0.62 0.61 0.60 0.63 0.60 0.56 0.56 0.58 0.70 0.81 0.90 0.93 0.90 0.92 0.92 0.94 0.78 0.51 0.53 0.46 0.38 0.43 0.50 0.50 0.44 0.42 0.40 0.32 0.39 0.37 0.38 0.36 0.27 0.25 0.24 0.22 0.24 0.23 0.25 0.23 0.22 0.20 0.20 0.22 0.18 0.14 0.34 0.34 0.26 0.32 0.38 0.39 0.38
0.61 0.62 0.61 0.59 0.60 0.56 0.53 0.55 0.61 0.72 0.81 0.90 0.94 0.93 0.93 0.92 0.84 0.66 0.44 0.51 0.54 0.44 0.43 0.54 0.53 0.55 0.51 0.47 0.41 0.41 0.35 0.37 0.38 0.31 0.30 0.30 0.24 0.27 0.25 0.18 0.30 0.21 0.25 0.22 0.23 0.22 0.32 0.35 0.34 0.39 0.40 0.35 0.35 0.33
0.64 0.62 0.60 0.60 0.59 0.53 0.55 0.58 0.62 0.74 0.84 0.91 0.93 0.93 0.92 0.90 0.69 0.58 0.46 0.47 0.49 0.43 0.45 0.47 0.45 0.53 0.57 0.54 0.54 0.38 0.40 0.44 0.40 0.44 0.37 0.33 0.25 0.30 0.21 0.23 0.27 0.31 0.35 0.27 0.27 0.30 0.31 0.34 0.38 0.39 0.40 0.36 0.36 0.36
0.62 0.61 0.59 0.60 0.55 0.54 0.54 0.56 0.60 0.79 0.83 0.90 0.92 0.91 0.90 0.80 0.62 0.52 0.43 0.48 0.48 0.43 0.36 0.40 0.55 0.50 0.57 0.55 0.52 0.52 0.48 0.49 0.48 0.45 0.36 0.33 0.28 0.35 0.28 0.29 0.27 0.31 0.33 0.29 0.27 0.31 0.33 0.35 0.37 0.37 0.38 0.35 0.33 0.33
0.62 0.59 0.59 0.56 0.54 0.55 0.52 0.53 0.63 0.78 0.84 0.91 0.91 0.88 0.84 0.78 0.58 0.51 0.48 0.50 0.51 0.40 0.31 0.37 0.47 0.52 0.55 0.52 0.49 0.50 0.47 0.44 0.41 0.36 0.34 0.31 0.35 0.32 0.31 0.30 0.26 0.32 0.29 0.25 0.23 0.30 0.30 0.30 0.36 0.37 0.32 0.31 0.31 0.27
0.61 0.59 0.56 0.54 0.54 0.53 0.66 0.75 0.80 0.79 0.87 0.89 0.87 0.89 0.76 0.64 0.56 0.47 0.36 0.48 0.51 0.48 0.37 0.32 0.47 0.46 0.49 0.50 0.46 0.45 0.45 0.43 0.40 0.35 0.33 0.35 0.38 0.33 0.24 0.21 0.26 0.30 0.34 0.34 0.30 0.35 0.32 0.34 0.36 0.37 0.33 0.30 0.28 0.26
0.60 0.57 0.55 0.53 0.54 0.62 0.73 0.83 0.86 0.89 0.91 0.89 0.88 0.79 0.68 0.61 0.52 0.41 0.37 0.44 0.51 0.49 0.37 0.34 0.34 0.43 0.46 0.45 0.44 0.43 0.44 0.41 0.37 0.34 0.31 0.30 0.30 0.32 0.25 0.18 0.23 0.28 0.31 0.32 0.34 0.33 0.30 0.33 0.30 0.34 0.30 0.28 0.28 0.28
0.59 0.55 0.54 0.53 0.58 0.72 0.75 0.83 0.89 0.89 0.89 0.88 0.83 0.74 0.67 0.63 0.56 0.45 0.51 0.54 0.52 0.41 0.39 0.29 0.29 0.34 0.43 0.35 0.32 0.40 0.33 0.35 0.33 0.31 0.30 0.25 0.26 0.25 0.18 0.22 0.26 0.30 0.32 0.31 0.31 0.32 0.30 0.32 0.31 0.28 0.27 0.26 0.24 0.24
0.58 0.55 0.52 0.54 0.58 0.72 0.79 0.88 0.89 0.88 0.85 0.84 0.75 0.69 0.61 0.54 0.44 0.45 0.56 0.54 0.49 0.34 0.24 0.27 0.25 0.24 0.40 0.35 0.35 0.32 0.32 0.22 0.31 0.24 0.25 0.27 0.22 0.18 0.21 0.24 0.28 0.31 0.31 0.31 0.32 0.28 0.26 0.24 0.23 0.23 0.23 0.23 0.22 0.21
0.57 0.54 0.51 0.54 0.58 0.71 0.80 0.86 0.86 0.85 0.84 0.75 0.67 0.55 0.43 0.48 0.59 0.56 0.44 0.35 0.31 0.27 0.27 0.22 0.32 0.26 0.33 0.31 0.28 0.28 0.30 0.25 0.19 0.24 0.30 0.24 0.21 0.28 0.30 0.32 0.33 0.34 0.35 0.33 0.24 0.21 0.21 0.20 0.21 0.21 0.21 0.22 0.22 0.21
0.55 0.52 0.50 0.55 0.58 0.72 0.79 0.84 0.85 0.85 0.78 0.65 0.55 0.49 0.56 0.62 0.49 0.36 0.28 0.23 0.21 0.18 0.24 0.24 0.30 0.26 0.36 0.25 0.25 0.29 0.23 0.25 0.17 0.21 0.22 0.21 0.20 0.25 0.31 0.32 0.34 0.35 0.32 0.27 0.24 0.23 0.23 0.22 0.21 0.21 0.21 0.20 0.19 0.17
0.55 0.50 0.50 0.56 0.59 0.69 0.77 0.83 0.82 0.75 0.68 0.62 0.59 0.60 0.54 0.42 0.34 0.26 0.24 0.23 0.18 0.15 0.22 0.23 0.27 0.30 0.31 0.33 0.25 0.25 0.20 0.23 0.17 0.28 0.23 0.17 0.21 0.26 0.28 0.29 0.30 0.29 0.27 0.23 0.22 0.22 0.23 0.23 0.23 0.20 0.18 0.16 0.17 0.17
0.55 0.48 0.52 0.57 0.58 0.67 0.80 0.83 0.80 0.72 0.68 0.62 0.52 0.42 0.38 0.35 0.26 0.22 0.20 0.16 0.16 0.20 0.24 0.26 0.23 0.26 0.28 0.27 0.23 0.23 0.19 0.20 0.29 0.22 0.18 0.19 0.23 0.25 0.27 0.28 0.27 0.26 0.23 0.22 0.22 0.23 0.23 0.21 0.20 0.17 0.16 0.17 0.17 0.16
0.51 0.47 0.51 0.56 0.67 0.77 0.85 0.83 0.76 0.69 0.61 0.47 0.41 0.35 0.32 0.25 0.25 0.21 0.21 0.21 0.21 0.22 0.23 0.24 0.21 0.21 0.23 0.21 0.23 0.19 0.25 0.25 0.19 0.16 0.14 0.18 0.22 0.24 0.27 0.28 0.25 0.22 0.22 0.22 0.23 0.23 0.20 0.17 0.16 0.16 0.16 0.15 0.14 0.13
0.48 0.49 0.62 0.78 0.84 0.82 0.84 0.77 0.70 0.64 0.52 0.40 0.35 0.28 0.27 0.25 0.28 0.27 0.26 0.26 0.25 0.26 0.24 0.22 0.21 0.22 0.21 0.20 0.23 0.22 0.20 0.17 0.17 0.15 0.17 0.21 0.24 0.25 0.26 0.25 0.23 0.22 0.23 0.23 0.22 0.18 0.16 0.16 0.15 0.14 0.15 0.14 0.14 0.13
0.48 0.59 0.68 0.78 0.82 0.84 0.78 0.70 0.64 0.59 0.47 0.39 0.34 0.30 0.30 0.26 0.26 0.26 0.26 0.22 0.28 0.28 0.23 0.21 0.18 0.16 0.17 0.19 0.18 0.17 0.17 0.15 0.16 0.19 0.21 0.25 0.25 0.25 0.25 0.24 0.23 0.24 0.24 0.21 0.18 0.16 0.16 0.16 0.15 0.15 0.16 0.14 0.14 0.14
0.46 0.54 0.70 0.78 0.80 0.77 0.71 0.63 0.58 0.47 0.40 0.36 0.32 0.34 0.31 0.28 0.26 0.25 0.25 0.27 0.30 0.21 0.17 0.17 0.15 0.17 0.23 0.19 0.18 0.21 0.18 0.18 0.19 0.21 0.26 0.26 0.25 0.25 0.24 0.23 0.24 0.23 0.20 0.18 0.16 0.16 0.17 0.18 0.18 0.17 0.15 0.15 0.15 0.15
0.43 0.63 0.75 0.77 0.75 0.67 0.63 0.62 0.51 0.41 0.36 0.37 0.34 0.31 0.31 0.34 0.29 0.28 0.28 0.29 0.25 0.21 0.20 0.19 0.23 0.21 0.19 0.18 0.19 0.21 0.22 0.23 0.25 0.27 0.27 0.26 0.26 0.25 0.24 0.22 0.21 0.19 0.18 0.17 0.17 0.18 0.18 0.18 0.18 0.17 0.18 0.18 0.16 0.15
0.53 0.68 0.75 0.75 0.69 0.60 0.56 0.54 0.46 0.36 0.39 0.40 0.38 0.35 0.33 0.31 0.32 0.32 0.32 0.32 0.32 0.31 0.27 0.25 0.22 0.21 0.21 0.23 0.21 0.22 0.23 0.24 0.23 0.25 0.27 0.27 0.25 0.23 0.22 0.20 0.19 0.18 0.18 0.18 0.18 0.18 0.19 0.19 0.19 0.20 0.20 0.19 0.17 0.17
0.64 0.70 0.73 0.72 0.64 0.54 0.49 0.47 0.48 0.40 0.37 0.38 0.36 0.34 0.32 0.31 0.34 0.36 0.35 0.33 0.30 0.28 0.25 0.23 0.23 0.23 0.23 0.24 0.25 0.24 0.24 0.26 0.24 0.22 0.22 0.23 0.23 0.21 0.19 0.19 0.19 0.19 0.18 0.18 0.18 0.19 0.19 0.19 0.20 0.21 0.20 0.20 0.19 0.19
0.65 0.68 0.70 0.64 0.54 0.51 0.46 0.43 0.40 0.41 0.41 0.38 0.35 0.31 0.30 0.33 0.31 0.31 0.31 0.32 0.27 0.24 0.23 0.24 0.25 0.27 0.28 0.26 0.27 0.26 0.25 0.26 0.24 0.23 0.21 0.20 0.20 0.19 0.19 0.19 0.19 0.19 0.18 0.18 0.17 0.17 0.18 0.17 0.18 0.19 0.19 0.20 0.21 0.21
0.61 0.66 0.59 0.57 0.49 0.45 0.42 0.45 0.39 0.43 0.40 0.37 0.29 0.30 0.30 0.29 0.28 0.28 0.29 0.26 0.25 0.24 0.26 0.26 0.27 0.26 0.25 0.25 0.25 0.27 0.28 0.28 0.26 0.24 0.23 0.21 0.18 0.18 0.17 0.18 0.18 0.17 0.17 0.16 0.15 0.15 0.15 0.17 0.19 0.20 0.20 0.21 0.21 0.21
0.61 0.59 0.53 0.49 0.41 0.38 0.39 0.46 0.37 0.40 0.33 0.29 0.28 0.26 0.28 0.28 0.28 0.29 0.24 0.26 0.26 0.29 0.30 0.29 0.29 0.29 0.27 0.27 0.27 0.28 0.28 0.25 0.23 0.23 0.21 0.20 0.20 0.19 0.19 0.19 0.19 0.16 0.14 0.14 0.16 0.17 0.17 0.20 0.20 0.21 0.21 0.20 0.20 0.19
0.61 0.50 0.44 0.40 0.37 0.34 0.41 0.37 0.39 0.37 0.35 0.28 0.24 0.24 0.26 0.27 0.28 0.24 0.22 0.24 0.26 0.29 0.29 0.29 0.29 0.27 0.28 0.27 0.26 0.26 0.25 0.26 0.24 0.23 0.22 0.20 0.18 0.18 0.19 0.18 0.16 0.16 0.16 0.18 0.18 0.18 0.19 0.19 0.20 0.19 0.19 0.18 0.18 0.18
0.42 0.40 0.41 0.36 0.37 0.33 0.34 0.35 0.34 0.34 0.30 0.26 0.24 0.25 0.27 0.28 0.23 0.23 0.23 0.24 0.26 0.26 0.28 0.29 0.28 0.27 0.25 0.25 0.25 0.25 0.26 0.25 0.22 0.20 0.21 0.21 0.20 0.18 0.15 0.15 0.16 0.18 0.20 0.18 0.17 0.18 0.18 0.19 0.19 0.19 0.18 0.17 0.16 0.16
0.34 0.39 0.36 0.34 0.33 0.30 0.32 0.31 0.31 0.30 0.32 0.29 0.26 0.28 0.28 0.26 0.25 0.24 0.26 0.27 0.26 0.26 0.25 0.25 0.25 0.26 0.25 0.25 0.24 0.24 0.24 0.25 0.23 0.20 0.21 0.20 0.17 0.15 0.14 0.14 0.14 0.16 0.20 0.19 0.17 0.17 0.18 0.19 0.19 0.19 0.18 0.18 0.17 0.16
0.33 0.35 0.38 0.39 0.35 0.34 0.33 0.35 0.34 0.32 0.31 0.29 0.28 0.28 0.29 0.28 0.29 0.32 0.35 0.37 0.33 0.32 0.29 0.27 0.27 0.25 0.24 0.26 0.27 0.26 0.26 0.26 0.23 0.21 0.19 0.18 0.18 0.19 0.17 0.16 0.16 0.18 0.20 0.19 0.18 0.19 0.19 0.20 0.20 0.20 0.20 0.20 0.18 0.17
0.38 0.37 0.32 0.34 0.34 0.34 0.31 0.33 0.34 0.33 0.34 0.36 0.34 0.32 0.32 0.32 0.32 0.35 0.37 0.36 0.34 0.31 0.29 0.30 0.28 0.28 0.28 0.27 0.27 0.26 0.25 0.23 0.20 0.19 0.18 0.19 0.19 0.19 0.19 0.19 0.20 0.20 0.19 0.19 0.20 0.22 0.21 0.21 0.20 0.20 0.20 0.19 0.19 0.19
0.35 0.37 0.36 0.33 0.34 0.34 0.35 0.36 0.37 0.40 0.41 0.39 0.35 0.35 0.35 0.37 0.38 0.38 0.38 0.34 0.32 0.30 0.28 0.27 0.28 0.29 0.28 0.28 0.27 0.24 0.22 0.20 0.16 0.14 0.14 0.14 0.15 0.17 0.19 0.19 0.19 0.19 0.19 0.20 0.22 0.23 0.22 0.22 0.21 0.21 0.20 0.19 0.19 0.19
0.35 0.39 0.35 0.35 0.34 0.34 0.36 0.39 0.39 0.43 0.44 0.41 0.40 0.39 0.38 0.39 0.40 0.41 0.37 0.32 0.29 0.27 0.27 0.28 0.28 0.27 0.26 0.24 0.21 0.20 0.20 0.19 0.18 0.17 0.15 0.15 0.16 0.18 0.18 0.19 0.19 0.19 0.21 0.22 0.21 0.21 0.21 0.21 0.21 0.20 0.19 0.19 0.19 0.19
0.39 0.38 0.36 0.35 0.35 0.38 0.40 0.43 0.45 0.45 0.44 0.42 0.41 0.38 0.37 0.38 0.38 0.35 0.32 0.30 0.29 0.29 0.29 0.28 0.27 0.26 0.23 0.21 0.19 0.17 0.16 0.18 0.19 0.19 0.19 0.19 0.19 0.19 0.19 0.19 0.19 0.21 0.22 0.22 0.21 0.21 0.20 0.20 0.20 0.19 0.19 0.19 0.19 0.19
0.37 0.36 0.35 0.35 0.38 0.42 0.44 0.44 0.43 0.42 0.41 0.41 0.41 0.40 0.36 0.31 0.27 0.29 0.32 0.32 0.31 0.29 0.28 0.28 0.25 0.22 0.23 0.22 0.20 0.20 0.19 0.19 0.19 0.19 0.19 0.19 0.19 0.20 0.20 0.20 0.22 0.22 0.22 0.22 0.21 0.22 0.21 0.21 0.20 0.20 0.20 0.19 0.19 0.19
0.37 0.38 0.38 0.38 0.38 0.38 0.41 0.42 0.40 0.39 0.39 0.37 0.36 0.36 0.33 0.29 0.26 0.31 0.35 0.34 0.31 0.29 0.28 0.26 0.25 0.24 0.22 0.21 0.20 0.19 0.19 0.19 0.20 0.21 0.21 0.21 0.21 0.21 0.21 0.22 0.23 0.23 0.23 0.22 0.22 0.22 0.22 0.21 0.21 0.21 0.21 0.20 0.20 0.20

GFSWCAN_prec_pwat_072.txt.gz
Precipitable_Water
0.53 0.60 0.62 0.61 0.60 0.58 0.60 0.55 0.55 0.68 0.72 0.84 0.91 0.93 0.92 0.93 0.88 0.79 0.56 0.55 0.47 0.41 0.44 0.46 0.46 0.42 0.42 0.42 0.34 0.39 0.38 0.38 0.35 0.27 0.25 0.24 0.22 0.24 0.23 0.24 0.23 0.22 0.20 0.19 0.21 0.17 0.13 0.32 0.33 0.24 0.30 0.35 0.36 0.37
0.55 0.61 0.62 0.60 0.58 0.58 0.60 0.55 0.59 0.69 0.76 0.86 0.92 0.90 0.91 0.91 0.89 0.80 0.54 0.53 0.56 0.47 0.43 0.53 0.52 0.54 0.51 0.49 0.45 0.43 0.36 0.36 0.38 0.30 0.28 0.29 0.22 0.25 0.24 0.17 0.30 0.19 0.24 0.20 0.22 0.21 0.31 0.35 0.33 0.37 0.38 0.36 0.37 0.36
0.57 0.61 0.60 0.59 0.56 0.57 0.56 0.55 0.62 0.69 0.80 0.88 0.93 0.93 0.91 0.91 0.88 0.74 0.52 0.49 0.50 0.44 0.44 0.47 0.44 0.51 0.57 0.55 0.56 0.39 0.41 0.44 0.40 0.43 0.36 0.31 0.24 0.28 0.20 0.21 0.25 0.29 0.33 0.25 0.25 0.29 0.31 0.34 0.36 0.38 0.39 0.37 0.39 0.37
0.60 0.60 0.59 0.57 0.55 0.57 0.55 0.58 0.63 0.69 0.77 0.88 0.91 0.93 0.93 0.89 0.74 0.57 0.47 0.49 0.48 0.47 0.38 0.40 0.54 0.49 0.57 0.56 0.53 0.52 0.48 0.48 0.47 0.44 0.35 0.32 0.28 0.35 0.27 0.28 0.27 0.30 0.32 0.28 0.27 0.31 0.33 0.34 0.36 0.37 0.38 0.37 0.35 0.33
0.61 0.60 0.59 0.55 0.53 0.57 0.57 0.55 0.59 0.68 0.78 0.90 0.90 0.90 0.92 0.80 0.62 0.53 0.49 0.49 0.51 0.40 0.34 0.38 0.47 0.52 0.54 0.53 0.50 0.51 0.48 0.44 0.41 0.36 0.34 0.30 0.35 0.33 0.32 0.30 0.26 0.32 0.28 0.24 0.23 0.30 0.30 0.30 0.34 0.37 0.34 0.32 0.31 0.29
0.60 0.60 0.57 0.51 0.55 0.54 0.52 0.59 0.65 0.69 0.78 0.89 0.88 0.88 0.89 0.72 0.57 0.46 0.34 0.47 0.50 0.49 0.36 0.33 0.48 0.46 0.49 0.51 0.48 0.47 0.46 0.44 0.41 0.36 0.34 0.35 0.38 0.33 0.24 0.21 0.27 0.30 0.33 0.33 0.29 0.34 0.33 0.34 0.34 0.34 0.32 0.32 0.31 0.28
0.61 0.59 0.55 0.51 0.53 0.56 0.69 0.71 0.73 0.72 0.82 0.86 0.87 0.86 0.82 0.70 0.52 0.36 0.31 0.43 0.51 0.48 0.36 0.32 0.34 0.44 0.48 0.48 0.46 0.44 0.45 0.41 0.38 0.35 0.31 0.30 0.31 0.32 0.25 0.19 0.24 0.27 0.29 0.31 0.33 0.33 0.28 0.31 0.29 0.35 0.34 0.30 0.28 0.27
0.60 0.59 0.54 0.50 0.54 0.69 0.74 0.80 0.78 0.81 0.83 0.85 0.85 0.80 0.71 0.61 0.52 0.41 0.48 0.50 0.48 0.39 0.37 0.29 0.30 0.35 0.46 0.38 0.36 0.43 0.36 0.37 0.35 0.32 0.31 0.27 0.28 0.27 0.18 0.21 0.24 0.28 0.30 0.30 0.31 0.32 0.29 0.31 0.32 0.30 0.29 0.25 0.22 0.21
0.60 0.58 0.52 0.49 0.55 0.70 0.76 0.80 0.83 0.85 0.86 0.84 0.79 0.68 0.57 0.50 0.41 0.44 0.52 0.49 0.47 0.34 0.27 0.28 0.25 0.24 0.42 0.37 0.37 0.36 0.36 0.26 0.34 0.26 0.26 0.28 0.22 0.17 0.19 0.21 0.24 0.28 0.28 0.28 0.31 0.30 0.29 0.26 0.24 0.23 0.21 0.21 0.20 0.20
0.59 0.57 0.52 0.49 0.57 0.71 0.77 0.80 0.82 0.85 0.83 0.77 0.66 0.54 0.45 0.53 0.60 0.54 0.44 0.36 0.35 0.35 0.30 0.23 0.30 0.27 0.35 0.33 0.31 0.30 0.31 0.25 0.21 0.25 0.31 0.23 0.20 0.25 0.27 0.28 0.29 0.32 0.32 0.32 0.27 0.24 0.23 0.20 0.20 0.20 0.20 0.21 0.21 0.21
0.61 0.58 0.51 0.48 0.55 0.69 0.80 0.80 0.79 0.78 0.76 0.64 0.53 0.49 0.58 0.65 0.52 0.37 0.31 0.28 0.29 0.21 0.26 0.26 0.27 0.29 0.37 0.28 0.27 0.31 0.25 0.26 0.17 0.21 0.22 0.20 0.18 0.23 0.29 0.30 0.32 0.34 0.34 0.32 0.27 0.24 0.22 0.21 0.20 0.20 0.20 0.21 0.20 0.18
0.61 0.59 0.52 0.50 0.54 0.67 0.79 0.78 0.77 0.70 0.63 0.61 0.59 0.61 0.57 0.45 0.36 0.28 0.25 0.25 0.21 0.18 0.24 0.24 0.27 0.33 0.33 0.36 0.28 0.28 0.21 0.22 0.16 0.27 0.21 0.17 0.21 0.26 0.27 0.28 0.30 0.32 0.31 0.28 0.26 0.22 0.22 0.22 0.23 0.22 0.21 0.18 0.17 0.18
0.62 0.59 0.52 0.52 0.52 0.62 0.77 0.78 0.77 0.72 0.67 0.61 0.52 0.45 0.39 0.34 0.26 0.22 0.20 0.21 0.20 0.22 0.24 0.27 0.26 0.32 0.32 0.30 0.25 0.23 0.17 0.17 0.26 0.20 0.18 0.20 0.23 0.25 0.26 0.28 0.28 0.29 0.28 0.25 0.22 0.22 0.23 0.23 0.24 0.21 0.18 0.18 0.18 0.16
0.63 0.58 0.54 0.52 0.53 0.56 0.73 0.78 0.77 0.68 0.60 0.50 0.43 0.35 0.33 0.30 0.28 0.25 0.23 0.22 0.23 0.22 0.24 0.27 0.25 0.25 0.26 0.23 0.23 0.17 0.22 0.23 0.17 0.16 0.16 0.19 0.21 0.24 0.27 0.28 0.27 0.26 0.25 0.23 0.22 0.23 0.23 0.22 0.19 0.18 0.17 0.18 0.17 0.15
0.64 0.60 0.55 0.50 0.52 0.57 0.71 0.78 0.76 0.66 0.56 0.44 0.40 0.32 0.33 0.34 0.33 0.33 0.31 0.29 0.25 0.26 0.28 0.25 0.23 0.25 0.21 0.21 0.23 0.22 0.18 0.15 0.17 0.16 0.19 0.21 0.23 0.26 0.27 0.27 0.27 0.26 0.24 0.23 0.24 0.23 0.21 0.18 0.16 0.16 0.17 0.19 0.19 0.18
0.66 0.61 0.54 0.48 0.49 0.61 0.71 0.78 0.69 0.62 0.52 0.43 0.38 0.32 0.36 0.34 0.30 0.32 0.29 0.27 0.29 0.29 0.27 0.24 0.22 0.18 0.18 0.20 0.19 0.16 0.15 0.13 0.15 0.19 0.22 0.25 0.26 0.27 0.28 0.28 0.27 0.25 0.24 0.24 0.24 0.20 0.17 0.16 0.17 0.18 0.19 0.19 0.20 0.20
0.65 0.53 0.51 0.41 0.49 0.64 0.73 0.66 0.60 0.53 0.47 0.39 0.36 0.39 0.34 0.34 0.30 0.29 0.28 0.27 0.32 0.25 0.20 0.21 0.16 0.16 0.22 0.17 0.16 0.18 0.16 0.17 0.21 0.22 0.26 0.28 0.27 0.28 0.28 0.26 0.25 0.25 0.24 0.21 0.19 0.17 0.17 0.19 0.19 0.19 0.17 0.18 0.20 0.21
0.57 0.54 0.48 0.55 0.74 0.71 0.65 0.60 0.53 0.47 0.40 0.40 0.37 0.37 0.35 0.35 0.31 0.29 0.28 0.31 0.28 0.23 0.22 0.19 0.21 0.17 0.16 0.15 0.16 0.19 0.22 0.24 0.26 0.27 0.28 0.28 0.27 0.26 0.25 0.24 0.24 0.22 0.20 0.18 0.18 0.18 0.18 0.18 0.18 0.17 0.19 0.20 0.20 0.19
0.62 0.53 0.64 0.63 0.68 0.62 0.53 0.53 0.52 0.37 0.39 0.43 0.43 0.40 0.35 0.35 0.35 0.32 0.30 0.29 0.28 0.26 0.22 0.19 0.17 0.17 0.17 0.20 0.21 0.24 0.25 0.25 0.25 0.27 0.27 0.28 0.27 0.25 0.24 0.23 0.20 0.19 0.19 0.18 0.18 0.18 0.19 0.19 0.19 0.18 0.17 0.18 0.17 0.18
0.63 0.58 0.66 0.65 0.67 0.55 0.48 0.48 0.53 0.40 0.38 0.42 0.43 0.37 0.33 0.33 0.35 0.35 0.33 0.28 0.26 0.24 0.20 0.19 0.19 0.22 0.24 0.26 0.26 0.25 0.26 0.27 0.25 0.23 0.24 0.25 0.25 0.23 0.20 0.19 0.19 0.19 0.19 0.19 0.18 0.19 0.16 0.15 0.16 0.17 0.18 0.19 0.19 0.19
0.60 0.61 0.64 0.62 0.57 0.55 0.49 0.45 0.45 0.43 0.41 0.41 0.42 0.39 0.32 0.33 0.30 0.28 0.27 0.28 0.24 0.23 0.24 0.27 0.27 0.29 0.30 0.29 0.29 0.27 0.27 0.26 0.24 0.24 0.22 0.21 0.22 0.21 0.20 0.20 0.20 0.19 0.18 0.17 0.15 0.14 0.15 0.16 0.17 0.18 0.19 0.20 0.20 0.20
0.58 0.61 0.54 0.56 0.49 0.48 0.45 0.46 0.44 0.44 0.41 0.40 0.40 0.37 0.32 0.27 0.27 0.28 0.30 0.27 0.26 0.27 0.28 0.29 0.29 0.29 0.28 0.27 0.27 0.28 0.28 0.28 0.27 0.26 0.25 0.23 0.19 0.19 0.19 0.19 0.19 0.18 0.16 0.15 0.15 0.15 0.17 0.18 0.19 0.20 0.19 0.19 0.19 0.18
0.57 0.55 0.50 0.47 0.40 0.39 0.38 0.47 0.39 0.40 0.35 0.36 0.36 0.30 0.29 0.27 0.29 0.32 0.26 0.26 0.27 0.30 0.32 0.31 0.30 0.30 0.28 0.28 0.29 0.29 0.30 0.27 0.25 0.25 0.24 0.22 0.21 0.21 0.20 0.20 0.19 0.16 0.14 0.15 0.18 0.18 0.18 0.18 0.19 0.19 0.19 0.20 0.19 0.17
0.57 0.46 0.38 0.37 0.37 0.34 0.40 0.37 0.40 0.37 0.37 0.35 0.32 0.28 0.26 0.28 0.31 0.27 0.23 0.24 0.26 0.30 0.31 0.31 0.30 0.28 0.29 0.29 0.28 0.28 0.28 0.28 0.26 0.25 0.23 0.21 0.20 0.20 0.21 0.18 0.17 0.17 0.18 0.19 0.19 0.18 0.17 0.17 0.18 0.19 0.19 0.19 0.19 0.18
0.38 0.36 0.37 0.31 0.36 0.34 0.32 0.33 0.34 0.34 0.32 0.34 0.32 0.29 0.26 0.29 0.26 0.25 0.23 0.22 0.25 0.28 0.30 0.31 0.30 0.29 0.27 0.28 0.28 0.28 0.29 0.28 0.25 0.23 0.23 0.23 0.21 0.19 0.16 0.17 0.17 0.18 0.20 0.18 0.17 0.16 0.16 0.17 0.19 0.19 0.19 0.19 0.18 0.19
0.29 0.33 0.31 0.31 0.32 0.31 0.32 0.30 0.30 0.32 0.32 0.32 0.31 0.30 0.27 0.25 0.24 0.23 0.24 0.23 0.25 0.27 0.30 0.30 0.29 0.28 0.27 0.28 0.26 0.26 0.26 0.28 0.26 0.23 0.23 0.22 0.19 0.16 0.15 0.15 0.15 0.16 0.20 0.19 0.17 0.15 0.16 0.18 0.19 0.18 0.18 0.19 0.19 0.18
0.27 0.28 0.31 0.34 0.32 0.32 0.32 0.34 0.35 0.34 0.32 0.30 0.29 0.27 0.25 0.23 0.23 0.25 0.27 0.27 0.26 0.28 0.31 0.31 0.30 0.28 0.26 0.25 0.27 0.28 0.28 0.28 0.26 0.24 0.22 0.20 0.20 0.20 0.18 0.16 0.16 0.18 0.20 0.19 0.17 0.18 0.18 0.19 0.18 0.18 0.18 0.19 0.19 0.18
0.32 0.29 0.24 0.28 0.30 0.33 0.31 0.33 0.33 0.34 0.37 0.36 0.32 0.27 0.25 0.26 0.27 0.29 0.31 0.33 0.35 0.37 0.39 0.39 0.37 0.33 0.29 0.27 0.28 0.28 0.27 0.27 0.25 0.22 0.20 0.20 0.20 0.20 0.20 0.20 0.20 0.20 0.19 0.18 0.19 0.20 0.20 0.20 0.19 0.19 0.19 0.18 0.18 0.19
0.27 0.29 0.30 0.28 0.30 0.32 0.34 0.36 0.36 0.39 0.41 0.39 0.35 0.32 0.32 0.33 0.35 0.36 0.38 0.41 0.41 0.39 0.35 0.33 0.31 0.30 0.29 0.30 0.29 0.28 0.26 0.23 0.19 0.16 0.16 0.15 0.16 0.18 0.19 0.20 0.19 0.19 0.18 0.19 0.20 0.21 0.21 0.21 0.20 0.20 0.20 0.19 0.19 0.19
0.28 0.32 0.30 0.31 0.31 0.31 0.35 0.39 0.38 0.40 0.41 0.41 0.41 0.40 0.38 0.36 0.38 0.41 0.41 0.40 0.39 0.36 0.33 0.29 0.29 0.29 0.28 0.27 0.26 0.25 0.25 0.23 0.21 0.19 0.16 0.16 0.17 0.19 0.19 0.19 0.19 0.18 0.19 0.20 0.20 0.20 0.21 0.21 0.21 0.20 0.20 0.19 0.19 0.19
0.34 0.34 0.33 0.33 0.33 0.36 0.37 0.40 0.42 0.43 0.44 0.41 0.40 0.36 0.36 0.38 0.40 0.42 0.41 0.39 0.38 0.35 0.31 0.29 0.29 0.29 0.27 0.26 0.24 0.22 0.20 0.22 0.22 0.21 0.20 0.20 0.20 0.19 0.19 0.19 0.19 0.19 0.20 0.20 0.20 0.20 0.20 0.20 0.20 0.20 0.19 0.19 0.19 0.19
0.35 0.34 0.34 0.33 0.35 0.39 0.41 0.40 0.40 0.40 0.41 0.43 0.41 0.40 0.38 0.37 0.35 0.38 0.40 0.39 0.36 0.32 0.30 0.29 0.28 0.28 0.27 0.26 0.25 0.25 0.23 0.22 0.21 0.20 0.20 0.20 0.20 0.20 0.20 0.20 0.19 0.20 0.21 0.21 0.21 0.21 0.21 0.20 0.20 0.20 0.20 0.20 0.19 0.19
0.35 0.36 0.36 0.36 0.35 0.37 0.40 0.41 0.40 0.40 0.42 0.41 0.41 0.41 0.40 0.38 0.36 0.38 0.39 0.35 0.31 0.29 0.30 0.31 0.31 0.28 0.27 0.27 0.26 0.23 0.23 0.22 0.21 0.21 0.21 0.21 0.22 0.21 0.21 0.20 0.21 0.21 0.21 0.22 0.22 0.21 0.21 0.20 0.20 0.20 0.21 0.20 0.20 0.20

GFSWCAN_prec_pwat_075.txt.gz
Precipitable_Water
0.34 0.49 0.55 0.57 0.58 0.56 0.54 0.59 0.58 0.69 0.73 0.79 0.89 0.90 0.88 0.84 0.82 0.66 0.51 0.55 0.49 0.42 0.44 0.47 0.49 0.44 0.42 0.40 0.33 0.40 0.38 0.40 0.35 0.26 0.25 0.24 0.21 0.24 0.22 0.24 0.23 0.22 0.20 0.19 0.21 0.16 0.12 0.30 0.30 0.22 0.27 0.32 0.33 0.34
0.37 0.49 0.58 0.57 0.57 0.54 0.56 0.55 0.63 0.71 0.74 0.84 0.90 0.90 0.90 0.86 0.81 0.65 0.44 0.54 0.58 0.47 0.44 0.51 0.51 0.56 0.53 0.51 0.45 0.43 0.37 0.38 0.38 0.30 0.28 0.29 0.23 0.25 0.23 0.16 0.28 0.18 0.24 0.19 0.21 0.19 0.29 0.32 0.31 0.34 0.35 0.32 0.33 0.34
0.39 0.51 0.56 0.58 0.57 0.54 0.55 0.54 0.63 0.69 0.76 0.85 0.91 0.90 0.89 0.86 0.81 0.70 0.52 0.51 0.51 0.45 0.43 0.45 0.43 0.53 0.59 0.57 0.59 0.40 0.41 0.44 0.40 0.43 0.35 0.30 0.23 0.27 0.19 0.21 0.24 0.28 0.32 0.24 0.24 0.27 0.29 0.32 0.34 0.36 0.37 0.35 0.36 0.36
0.41 0.53 0.55 0.56 0.53 0.52 0.54 0.55 0.59 0.66 0.75 0.85 0.90 0.90 0.89 0.86 0.81 0.73 0.50 0.49 0.48 0.46 0.36 0.39 0.54 0.50 0.57 0.56 0.53 0.53 0.48 0.48 0.45 0.41 0.33 0.29 0.25 0.33 0.25 0.27 0.25 0.29 0.31 0.26 0.25 0.29 0.31 0.33 0.35 0.36 0.36 0.37 0.36 0.35
0.42 0.54 0.56 0.54 0.49 0.52 0.54 0.55 0.57 0.65 0.76 0.83 0.86 0.89 0.87 0.84 0.75 0.61 0.49 0.48 0.49 0.39 0.33 0.36 0.46 0.51 0.54 0.53 0.51 0.50 0.47 0.42 0.38 0.33 0.30 0.27 0.31 0.30 0.31 0.30 0.24 0.30 0.26 0.23 0.21 0.29 0.29 0.29 0.34 0.36 0.34 0.33 0.33 0.31
0.42 0.53 0.55 0.52 0.49 0.51 0.51 0.57 0.61 0.64 0.75 0.83 0.86 0.87 0.83 0.74 0.61 0.46 0.35 0.45 0.48 0.46 0.38 0.32 0.45 0.45 0.48 0.50 0.48 0.46 0.44 0.42 0.39 0.34 0.32 0.33 0.37 0.32 0.24 0.21 0.26 0.29 0.31 0.32 0.28 0.33 0.33 0.34 0.36 0.36 0.32 0.32 0.32 0.31
0.43 0.53 0.54 0.49 0.46 0.52 0.62 0.66 0.69 0.67 0.74 0.83 0.84 0.87 0.80 0.71 0.60 0.38 0.27 0.40 0.49 0.46 0.35 0.32 0.34 0.43 0.47 0.46 0.45 0.43 0.43 0.40 0.37 0.34 0.31 0.31 0.32 0.33 0.25 0.19 0.24 0.26 0.29 0.31 0.33 0.33 0.29 0.31 0.28 0.33 0.33 0.33 0.32 0.29
0.44 0.53 0.53 0.47 0.45 0.61 0.66 0.71 0.71 0.68 0.77 0.80 0.81 0.82 0.74 0.71 0.59 0.41 0.41 0.46 0.45 0.38 0.35 0.28 0.29 0.34 0.45 0.37 0.36 0.43 0.37 0.38 0.37 0.33 0.32 0.28 0.30 0.29 0.20 0.22 0.24 0.26 0.29 0.29 0.31 0.32 0.29 0.30 0.32 0.32 0.33 0.29 0.24 0.21
0.44 0.53 0.54 0.47 0.46 0.63 0.75 0.75 0.77 0.78 0.77 0.77 0.74 0.72 0.67 0.58 0.47 0.42 0.46 0.45 0.43 0.33 0.25 0.27 0.24 0.24 0.43 0.38 0.38 0.39 0.38 0.29 0.36 0.28 0.29 0.29 0.24 0.18 0.20 0.21 0.23 0.26 0.27 0.27 0.31 0.30 0.29 0.28 0.27 0.25 0.22 0.21 0.20 0.20
0.45 0.54 0.56 0.46 0.47 0.63 0.76 0.79 0.80 0.77 0.75 0.71 0.65 0.55 0.45 0.48 0.57 0.52 0.41 0.33 0.31 0.33 0.31 0.25 0.29 0.27 0.35 0.35 0.33 0.32 0.33 0.27 0.21 0.25 0.30 0.23 0.20 0.24 0.25 0.26 0.27 0.29 0.31 0.30 0.26 0.25 0.25 0.22 0.21 0.20 0.20 0.21 0.22 0.22
0.45 0.57 0.58 0.49 0.46 0.57 0.74 0.77 0.78 0.76 0.71 0.61 0.51 0.47 0.58 0.63 0.51 0.42 0.30 0.27 0.28 0.23 0.27 0.30 0.29 0.26 0.37 0.30 0.30 0.33 0.26 0.27 0.19 0.20 0.21 0.20 0.18 0.23 0.29 0.30 0.30 0.31 0.33 0.32 0.30 0.26 0.25 0.23 0.21 0.21 0.21 0.23 0.23 0.21
0.45 0.57 0.59 0.52 0.47 0.50 0.71 0.74 0.75 0.69 0.62 0.59 0.57 0.61 0.58 0.47 0.40 0.33 0.30 0.27 0.23 0.20 0.24 0.24 0.28 0.30 0.34 0.38 0.31 0.31 0.24 0.24 0.16 0.25 0.20 0.16 0.20 0.26 0.27 0.28 0.30 0.33 0.33 0.31 0.29 0.25 0.24 0.22 0.23 0.23 0.23 0.21 0.19 0.18
0.46 0.57 0.60 0.55 0.51 0.47 0.70 0.73 0.71 0.69 0.62 0.58 0.51 0.46 0.42 0.39 0.30 0.26 0.25 0.24 0.19 0.21 0.25 0.26 0.27 0.31 0.34 0.35 0.31 0.26 0.19 0.17 0.25 0.19 0.16 0.18 0.23 0.26 0.26 0.28 0.30 0.32 0.31 0.29 0.26 0.24 0.23 0.23 0.24 0.23 0.20 0.18 0.17 0.17
0.45 0.57 0.62 0.58 0.54 0.47 0.65 0.73 0.69 0.62 0.55 0.46 0.41 0.35 0.35 0.30 0.29 0.29 0.25 0.27 0.25 0.23 0.23 0.28 0.28 0.30 0.32 0.25 0.23 0.19 0.22 0.23 0.17 0.14 0.14 0.19 0.22 0.25 0.27 0.29 0.30 0.29 0.28 0.26 0.24 0.23 0.24 0.24 0.22 0.20 0.18 0.18 0.19 0.19
0.44 0.54 0.62 0.60 0.57 0.50 0.54 0.72 0.73 0.63 0.51 0.43 0.40 0.33 0.33 0.36 0.35 0.34 0.33 0.31 0.30 0.29 0.26 0.25 0.26 0.27 0.26 0.22 0.23 0.23 0.19 0.16 0.16 0.14 0.16 0.20 0.23 0.26 0.27 0.29 0.30 0.29 0.27 0.25 0.24 0.24 0.23 0.21 0.18 0.16 0.18 0.19 0.20 0.20
0.46 0.52 0.59 0.61 0.60 0.52 0.51 0.66 0.67 0.63 0.53 0.43 0.38 0.34 0.36 0.37 0.37 0.36 0.34 0.30 0.34 0.31 0.29 0.26 0.21 0.19 0.20 0.21 0.21 0.19 0.16 0.14 0.14 0.17 0.20 0.24 0.26 0.28 0.29 0.30 0.29 0.28 0.26 0.24 0.25 0.23 0.19 0.18 0.17 0.18 0.19 0.20 0.20 0.20
0.47 0.46 0.59 0.63 0.62 0.56 0.53 0.52 0.57 0.51 0.47 0.41 0.35 0.40 0.36 0.37 0.36 0.36 0.35 0.32 0.38 0.31 0.23 0.20 0.16 0.17 0.24 0.19 0.19 0.20 0.15 0.15 0.18 0.21 0.25 0.29 0.28 0.28 0.29 0.29 0.27 0.25 0.24 0.23 0.20 0.19 0.18 0.19 0.19 0.19 0.17 0.17 0.17 0.17
0.42 0.51 0.58 0.65 0.64 0.57 0.48 0.44 0.47 0.45 0.39 0.40 0.37 0.39 0.40 0.40 0.40 0.37 0.36 0.35 0.34 0.30 0.24 0.19 0.22 0.19 0.18 0.18 0.17 0.19 0.20 0.21 0.23 0.27 0.29 0.29 0.29 0.28 0.27 0.25 0.24 0.23 0.20 0.19 0.19 0.19 0.19 0.18 0.17 0.15 0.15 0.16 0.16 0.17
0.46 0.53 0.59 0.68 0.63 0.50 0.39 0.36 0.43 0.34 0.38 0.40 0.42 0.45 0.43 0.41 0.42 0.41 0.36 0.35 0.34 0.31 0.24 0.21 0.18 0.17 0.18 0.20 0.19 0.20 0.22 0.24 0.27 0.29 0.29 0.29 0.28 0.27 0.25 0.24 0.21 0.20 0.20 0.19 0.19 0.18 0.18 0.17 0.16 0.16 0.17 0.17 0.17 0.18
0.60 0.63 0.65 0.68 0.63 0.46 0.36 0.33 0.41 0.34 0.33 0.37 0.43 0.44 0.43 0.40 0.40 0.38 0.35 0.33 0.30 0.26 0.21 0.19 0.19 0.21 0.21 0.21 0.23 0.24 0.27 0.30 0.29 0.26 0.26 0.27 0.27 0.26 0.23 0.21 0.20 0.20 0.20 0.19 0.19 0.17 0.16 0.15 0.18 0.18 0.18 0.19 0.18 0.18
0.64 0.66 0.68 0.65 0.54 0.49 0.43 0.34 0.33 0.35 0.38 0.36 0.41 0.44 0.42 0.40 0.35 0.34 0.31 0.32 0.27 0.23 0.20 0.21 0.21 0.22 0.26 0.28 0.29 0.31 0.31 0.29 0.26 0.25 0.25 0.25 0.26 0.24 0.22 0.22 0.21 0.20 0.19 0.17 0.15 0.15 0.16 0.17 0.18 0.18 0.17 0.18 0.20 0.20
0.63 0.68 0.59 0.57 0.47 0.45 0.41 0.41 0.34 0.37 0.37 0.38 0.39 0.42 0.40 0.35 0.32 0.31 0.33 0.29 0.26 0.22 0.22 0.22 0.24 0.28 0.30 0.30 0.31 0.31 0.30 0.29 0.28 0.27 0.28 0.26 0.23 0.22 0.21 0.21 0.20 0.18 0.17 0.15 0.16 0.17 0.18 0.18 0.17 0.17 0.17 0.19 0.20 0.19
0.62 0.58 0.51 0.48 0.40 0.37 0.35 0.42 0.32 0.33 0.31 0.35 0.37 0.35 0.37 0.36 0.33 0.33 0.27 0.27 0.27 0.27 0.28 0.29 0.33 0.34 0.32 0.31 0.31 0.31 0.31 0.28 0.27 0.27 0.26 0.25 0.24 0.23 0.22 0.21 0.19 0.16 0.15 0.17 0.19 0.19 0.17 0.17 0.16 0.17 0.18 0.18 0.18 0.18
0.56 0.46 0.38 0.36 0.35 0.31 0.36 0.33 0.34 0.32 0.34 0.33 0.32 0.32 0.35 0.35 0.34 0.27 0.24 0.24 0.25 0.28 0.31 0.33 0.33 0.31 0.31 0.30 0.29 0.29 0.29 0.30 0.28 0.28 0.27 0.25 0.23 0.22 0.22 0.19 0.18 0.18 0.19 0.19 0.19 0.18 0.17 0.16 0.17 0.18 0.18 0.17 0.17 0.18
0.35 0.34 0.35 0.29 0.33 0.30 0.28 0.29 0.30 0.30 0.30 0.32 0.32 0.31 0.33 0.36 0.29 0.25 0.23 0.24 0.27 0.30 0.32 0.32 0.31 0.30 0.29 0.30 0.30 0.30 0.31 0.30 0.28 0.26 0.26 0.26 0.24 0.21 0.19 0.18 0.19 0.19 0.20 0.18 0.17 0.16 0.16 0.17 0.18 0.18 0.17 0.17 0.17 0.18
0.28 0.31 0.29 0.29 0.29 0.28 0.27 0.25 0.26 0.25 0.29 0.31 0.32 0.34 0.33 0.30 0.28 0.24 0.23 0.26 0.28 0.29 0.29 0.29 0.29 0.30 0.30 0.30 0.29 0.29 0.30 0.32 0.30 0.25 0.25 0.26 0.22 0.18 0.17 0.17 0.16 0.17 0.20 0.19 0.17 0.16 0.16 0.17 0.17 0.17 0.17 0.18 0.18 0.17
0.26 0.27 0.31 0.37 0.33 0.29 0.27 0.29 0.29 0.28 0.27 0.30 0.33 0.33 0.31 0.26 0.26 0.26 0.27 0.28 0.30 0.31 0.31 0.31 0.30 0.29 0.30 0.32 0.32 0.32 0.32 0.32 0.29 0.26 0.27 0.25 0.23 0.21 0.20 0.17 0.16 0.18 0.20 0.19 0.18 0.18 0.17 0.17 0.17 0.18 0.18 0.18 0.18 0.18
0.32 0.32 0.25 0.27 0.28 0.28 0.25 0.25 0.26 0.28 0.31 0.35 0.34 0.31 0.30 0.30 0.29 0.30 0.29 0.31 0.34 0.34 0.32 0.32 0.32 0.32 0.33 0.33 0.32 0.32 0.32 0.32 0.28 0.26 0.25 0.24 0.23 0.22 0.21 0.21 0.21 0.21 0.20 0.19 0.19 0.19 0.19 0.19 0.19 0.19 0.18 0.18 0.18 0.18
0.28 0.29 0.28 0.24 0.26 0.28 0.28 0.27 0.28 0.32 0.36 0.34 0.33 0.33 0.34 0.39 0.37 0.33 0.33 0.33 0.35 0.33 0.31 0.29 0.30 0.36 0.36 0.35 0.34 0.34 0.32 0.28 0.23 0.21 0.20 0.19 0.19 0.19 0.21 0.21 0.21 0.20 0.19 0.19 0.20 0.20 0.20 0.20 0.20 0.19 0.19 0.19 0.19 0.19
0.27 0.29 0.26 0.27 0.25 0.24 0.27 0.30 0.31 0.36 0.37 0.38 0.39 0.39 0.38 0.39 0.38 0.36 0.34 0.35 0.34 0.34 0.35 0.36 0.37 0.37 0.33 0.32 0.31 0.30 0.29 0.27 0.26 0.23 0.20 0.19 0.18 0.20 0.20 0.21 0.20 0.19 0.19 0.19 0.19 0.19 0.20 0.20 0.20 0.20 0.19 0.19 0.19 0.19
0.30 0.28 0.25 0.26 0.25 0.27 0.30 0.34 0.37 0.37 0.39 0.41 0.44 0.41 0.37 0.38 0.42 0.42 0.41 0.40 0.40 0.39 0.38 0.37 0.37 0.35 0.32 0.30 0.28 0.27 0.25 0.27 0.26 0.25 0.24 0.21 0.21 0.21 0.21 0.21 0.20 0.19 0.20 0.19 0.19 0.19 0.20 0.20 0.19 0.19 0.19 0.19 0.19 0.19
0.29 0.26 0.25 0.23 0.25 0.31 0.35 0.34 0.36 0.37 0.38 0.39 0.39 0.42 0.42 0.38 0.36 0.38 0.41 0.41 0.39 0.37 0.37 0.36 0.34 0.32 0.32 0.31 0.29 0.27 0.27 0.26 0.26 0.24 0.22 0.21 0.21 0.22 0.22 0.21 0.20 0.20 0.20 0.19 0.19 0.20 0.20 0.19 0.19 0.19 0.19 0.20 0.19 0.19
0.30 0.30 0.29 0.28 0.29 0.32 0.35 0.37 0.37 0.37 0.39 0.38 0.38 0.38 0.37 0.37 0.34 0.38 0.43 0.45 0.42 0.38 0.37 0.36 0.36 0.34 0.31 0.29 0.28 0.29 0.28 0.27 0.25 0.23 0.23 0.23 0.23 0.23 0.22 0.21 0.21 0.21 0.20 0.20 0.20 0.20 0.19 0.19 0.19 0.20 0.20 0.20 0.20 0.20

GFSWCAN_prec_pwat_078.txt.gz
Precipitable_Water
0.42 0.34 0.47 0.52 0.54 0.56 0.55 0.57 0.61 0.68 0.74 0.84 0.85 0.85 0.83 0.77 0.68 0.52 0.47 0.55 0.46 0.39 0.43 0.48 0.47 0.40 0.40 0.39 0.31 0.39 0.37 0.38 0.33 0.25 0.23 0.22 0.21 0.23 0.21 0.23 0.20 0.20 0.19 0.18 0.19 0.15 0.12 0.29 0.28 0.20 0.25 0.29 0.31 0.32
0.41 0.34 0.49 0.52 0.51 0.54 0.53 0.55 0.62 0.68 0.75 0.85 0.83 0.83 0.80 0.71 0.59 0.50 0.43 0.54 0.54 0.42 0.41 0.52 0.53 0.54 0.51 0.49 0.43 0.42 0.36 0.37 0.36 0.28 0.26 0.27 0.21 0.23 0.21 0.16 0.26 0.17 0.22 0.19 0.19 0.18 0.27 0.30 0.30 0.33 0.33 0.30 0.32 0.33
0.37 0.35 0.49 0.53 0.50 0.50 0.51 0.55 0.62 0.68 0.77 0.85 0.84 0.82 0.83 0.79 0.70 0.58 0.46 0.52 0.50 0.42 0.42 0.43 0.43 0.53 0.58 0.56 0.56 0.38 0.40 0.42 0.38 0.41 0.32 0.29 0.22 0.26 0.18 0.19 0.22 0.26 0.30 0.23 0.22 0.25 0.27 0.31 0.33 0.35 0.36 0.35 0.36 0.37
0.35 0.36 0.48 0.51 0.49 0.49 0.50 0.55 0.60 0.64 0.75 0.82 0.85 0.83 0.83 0.80 0.74 0.65 0.45 0.51 0.49 0.44 0.34 0.37 0.52 0.49 0.57 0.57 0.54 0.52 0.46 0.46 0.42 0.39 0.31 0.28 0.24 0.31 0.23 0.25 0.24 0.27 0.29 0.25 0.24 0.27 0.29 0.31 0.33 0.35 0.35 0.37 0.36 0.37
0.35 0.36 0.49 0.49 0.46 0.48 0.51 0.52 0.56 0.64 0.72 0.79 0.82 0.84 0.83 0.80 0.72 0.60 0.48 0.48 0.49 0.40 0.32 0.36 0.46 0.51 0.53 0.52 0.50 0.50 0.46 0.42 0.37 0.32 0.30 0.26 0.30 0.29 0.28 0.28 0.23 0.28 0.25 0.22 0.19 0.27 0.28 0.28 0.33 0.35 0.34 0.35 0.36 0.33
0.34 0.36 0.49 0.49 0.44 0.45 0.50 0.52 0.56 0.63 0.70 0.79 0.79 0.78 0.77 0.74 0.63 0.50 0.35 0.45 0.47 0.47 0.38 0.29 0.44 0.44 0.47 0.49 0.48 0.46 0.44 0.41 0.38 0.34 0.31 0.33 0.36 0.30 0.23 0.20 0.24 0.28 0.30 0.31 0.27 0.31 0.31 0.33 0.35 0.36 0.34 0.34 0.33 0.32
0.34 0.35 0.50 0.50 0.42 0.46 0.55 0.58 0.63 0.64 0.71 0.79 0.78 0.77 0.71 0.69 0.60 0.39 0.30 0.41 0.47 0.44 0.35 0.31 0.32 0.42 0.45 0.44 0.45 0.44 0.44 0.40 0.37 0.34 0.31 0.31 0.32 0.33 0.25 0.18 0.23 0.26 0.30 0.31 0.33 0.33 0.29 0.32 0.29 0.33 0.33 0.33 0.34 0.32
0.36 0.34 0.49 0.52 0.41 0.55 0.62 0.62 0.64 0.62 0.70 0.76 0.77 0.76 0.71 0.68 0.58 0.43 0.40 0.44 0.45 0.36 0.34 0.26 0.27 0.32 0.43 0.36 0.35 0.43 0.37 0.38 0.37 0.33 0.32 0.28 0.30 0.29 0.20 0.23 0.24 0.25 0.27 0.29 0.30 0.32 0.30 0.31 0.31 0.31 0.33 0.32 0.26 0.22
0.37 0.34 0.51 0.53 0.44 0.55 0.64 0.66 0.63 0.66 0.73 0.74 0.74 0.70 0.64 0.59 0.48 0.45 0.48 0.44 0.41 0.32 0.23 0.25 0.22 0.22 0.41 0.38 0.39 0.39 0.39 0.30 0.37 0.30 0.30 0.30 0.25 0.20 0.22 0.23 0.22 0.25 0.26 0.27 0.31 0.31 0.30 0.28 0.27 0.27 0.24 0.22 0.20 0.21
0.40 0.36 0.49 0.56 0.46 0.54 0.67 0.69 0.73 0.72 0.70 0.68 0.62 0.51 0.44 0.52 0.61 0.54 0.43 0.34 0.32 0.31 0.28 0.21 0.27 0.23 0.34 0.36 0.34 0.33 0.35 0.28 0.22 0.25 0.31 0.24 0.20 0.25 0.26 0.27 0.27 0.28 0.30 0.30 0.26 0.25 0.26 0.24 0.22 0.21 0.21 0.22 0.22 0.22
0.45 0.38 0.48 0.58 0.50 0.50 0.66 0.69 0.69 0.67 0.65 0.58 0.47 0.42 0.52 0.59 0.45 0.38 0.33 0.30 0.28 0.22 0.24 0.25 0.28 0.25 0.34 0.32 0.33 0.35 0.27 0.27 0.20 0.22 0.23 0.19 0.17 0.21 0.28 0.29 0.31 0.31 0.31 0.31 0.30 0.28 0.27 0.24 0.22 0.21 0.21 0.23 0.23 0.22
0.48 0.41 0.46 0.57 0.53 0.51 0.64 0.65 0.66 0.64 0.60 0.55 0.50 0.55 0.52 0.43 0.38 0.31 0.31 0.32 0.28 0.20 0.23 0.22 0.27 0.31 0.32 0.40 0.34 0.33 0.26 0.26 0.17 0.26 0.20 0.15 0.18 0.24 0.27 0.29 0.31 0.32 0.33 0.32 0.31 0.28 0.26 0.24 0.23 0.23 0.23 0.22 0.21 0.18
0.52 0.44 0.45 0.57 0.55 0.52 0.61 0.66 0.64 0.65 0.63 0.56 0.45 0.39 0.37 0.36 0.30 0.26 0.26 0.29 0.29 0.27 0.24 0.25 0.25 0.30 0.32 0.37 0.32 0.28 0.24 0.21 0.26 0.20 0.16 0.17 0.22 0.24 0.26 0.28 0.31 0.34 0.35 0.33 0.30 0.28 0.25 0.23 0.24 0.23 0.21 0.20 0.18 0.18
0.57 0.47 0.45 0.56 0.57 0.54 0.60 0.65 0.62 0.56 0.50 0.42 0.37 0.29 0.31 0.28 0.30 0.31 0.31 0.30 0.32 0.31 0.26 0.26 0.26 0.28 0.31 0.30 0.28 0.21 0.25 0.24 0.19 0.16 0.14 0.19 0.22 0.23 0.27 0.30 0.31 0.31 0.32 0.30 0.27 0.25 0.24 0.24 0.22 0.21 0.19 0.19 0.19 0.18
0.61 0.51 0.48 0.55 0.58 0.58 0.63 0.62 0.61 0.54 0.42 0.37 0.36 0.30 0.30 0.33 0.34 0.34 0.35 0.34 0.34 0.35 0.32 0.25 0.25 0.27 0.27 0.25 0.25 0.24 0.23 0.19 0.19 0.16 0.18 0.21 0.22 0.25 0.28 0.30 0.31 0.30 0.28 0.27 0.25 0.24 0.24 0.22 0.19 0.17 0.19 0.20 0.20 0.18
0.65 0.56 0.50 0.53 0.59 0.61 0.64 0.62 0.58 0.53 0.43 0.36 0.34 0.30 0.34 0.34 0.34 0.35 0.34 0.33 0.36 0.35 0.34 0.30 0.23 0.20 0.21 0.22 0.20 0.18 0.19 0.16 0.17 0.19 0.21 0.23 0.24 0.27 0.30 0.31 0.30 0.29 0.28 0.26 0.24 0.24 0.21 0.18 0.17 0.18 0.19 0.19 0.17 0.16
0.68 0.55 0.50 0.53 0.60 0.64 0.62 0.56 0.53 0.44 0.39 0.34 0.29 0.34 0.35 0.37 0.35 0.35 0.38 0.37 0.40 0.35 0.29 0.26 0.20 0.17 0.21 0.19 0.18 0.20 0.17 0.17 0.20 0.21 0.25 0.26 0.27 0.30 0.32 0.30 0.30 0.28 0.25 0.24 0.22 0.20 0.19 0.19 0.19 0.18 0.15 0.15 0.16 0.17
0.67 0.59 0.54 0.55 0.62 0.60 0.55 0.51 0.46 0.41 0.33 0.33 0.27 0.27 0.34 0.38 0.39 0.38 0.39 0.41 0.38 0.34 0.31 0.26 0.25 0.21 0.18 0.15 0.14 0.17 0.20 0.23 0.25 0.25 0.28 0.30 0.33 0.33 0.31 0.29 0.27 0.26 0.23 0.21 0.20 0.19 0.19 0.18 0.16 0.15 0.16 0.17 0.16 0.17
0.69 0.58 0.58 0.59 0.59 0.52 0.44 0.44 0.45 0.33 0.33 0.33 0.33 0.33 0.33 0.38 0.43 0.43 0.42 0.41 0.41 0.39 0.31 0.29 0.24 0.21 0.19 0.19 0.17 0.19 0.22 0.24 0.25 0.28 0.31 0.34 0.34 0.30 0.28 0.27 0.25 0.22 0.21 0.21 0.20 0.19 0.18 0.17 0.16 0.18 0.18 0.17 0.15 0.17
0.66 0.60 0.60 0.64 0.59 0.47 0.40 0.41 0.46 0.36 0.29 0.32 0.34 0.31 0.31 0.33 0.41 0.44 0.43 0.40 0.39 0.33 0.28 0.24 0.24 0.23 0.22 0.20 0.21 0.21 0.24 0.28 0.29 0.29 0.31 0.32 0.32 0.29 0.27 0.25 0.23 0.22 0.21 0.21 0.19 0.18 0.17 0.17 0.19 0.18 0.17 0.16 0.16 0.17
0.65 0.61 0.65 0.65 0.55 0.50 0.43 0.38 0.35 0.35 0.32 0.30 0.31 0.31 0.29 0.31 0.35 0.40 0.42 0.43 0.36 0.31 0.27 0.27 0.25 0.23 0.24 0.25 0.25 0.26 0.28 0.30 0.30 0.30 0.30 0.30 0.30 0.28 0.26 0.25 0.24 0.22 0.21 0.18 0.16 0.16 0.17 0.18 0.18 0.17 0.16 0.16 0.18 0.19
0.67 0.64 0.60 0.60 0.47 0.46 0.43 0.44 0.38 0.38 0.34 0.31 0.30 0.29 0.25 0.24 0.28 0.36 0.43 0.40 0.37 0.33 0.30 0.26 0.24 0.24 0.23 0.24 0.26 0.28 0.31 0.33 0.33 0.33 0.33 0.30 0.26 0.26 0.25 0.25 0.23 0.21 0.19 0.17 0.17 0.17 0.18 0.18 0.18 0.17 0.17 0.18 0.18 0.18
0.65 0.61 0.53 0.50 0.42 0.39 0.36 0.44 0.36 0.36 0.30 0.29 0.30 0.25 0.24 0.23 0.27 0.37 0.37 0.40 0.41 0.38 0.31 0.27 0.27 0.27 0.25 0.27 0.29 0.31 0.34 0.33 0.31 0.30 0.30 0.27 0.27 0.27 0.27 0.26 0.24 0.19 0.17 0.18 0.20 0.20 0.19 0.18 0.17 0.17 0.18 0.18 0.17 0.18
0.65 0.52 0.45 0.42 0.40 0.34 0.37 0.33 0.36 0.33 0.32 0.30 0.28 0.25 0.25 0.25 0.28 0.32 0.34 0.37 0.40 0.36 0.30 0.28 0.26 0.25 0.26 0.28 0.31 0.33 0.33 0.33 0.30 0.29 0.28 0.27 0.26 0.27 0.28 0.25 0.22 0.20 0.20 0.20 0.20 0.19 0.18 0.16 0.17 0.17 0.17 0.17 0.17 0.17
0.44 0.41 0.42 0.35 0.38 0.33 0.30 0.29 0.29 0.28 0.26 0.27 0.26 0.25 0.27 0.29 0.25 0.29 0.32 0.36 0.38 0.32 0.28 0.28 0.28 0.28 0.28 0.31 0.32 0.32 0.34 0.33 0.30 0.27 0.28 0.29 0.28 0.28 0.27 0.23 0.21 0.21 0.22 0.20 0.19 0.18 0.17 0.17 0.17 0.17 0.17 0.17 0.17 0.17
0.34 0.38 0.34 0.31 0.31 0.29 0.27 0.25 0.26 0.26 0.26 0.23 0.24 0.26 0.29 0.27 0.25 0.28 0.32 0.38 0.38 0.33 0.28 0.25 0.24 0.27 0.32 0.33 0.31 0.31 0.32 0.34 0.32 0.28 0.29 0.30 0.29 0.27 0.23 0.20 0.19 0.20 0.22 0.21 0.19 0.17 0.17 0.17 0.17 0.17 0.17 0.17 0.17 0.17
0.30 0.29 0.33 0.38 0.34 0.32 0.29 0.29 0.29 0.27 0.25 0.24 0.24 0.25 0.26 0.23 0.23 0.29 0.35 0.38 0.36 0.38 0.30 0.27 0.30 0.32 0.30 0.30 0.33 0.35 0.36 0.35 0.32 0.30 0.32 0.32 0.30 0.27 0.24 0.21 0.20 0.21 0.22 0.21 0.19 0.18 0.18 0.17 0.17 0.18 0.17 0.18 0.18 0.18
0.34 0.33 0.27 0.30 0.29 0.29 0.25 0.25 0.24 0.24 0.25 0.28 0.28 0.25 0.24 0.24 0.25 0.31 0.33 0.37 0.39 0.39 0.31 0.31 0.35 0.34 0.32 0.32 0.33 0.34 0.34 0.34 0.33 0.33 0.33 0.31 0.28 0.27 0.26 0.25 0.24 0.23 0.22 0.21 0.20 0.20 0.19 0.19 0.18 0.18 0.18 0.17 0.18 0.19
0.31 0.33 0.32 0.27 0.26 0.25 0.25 0.24 0.24 0.26 0.27 0.27 0.25 0.25 0.26 0.31 0.35 0.35 0.36 0.35 0.41 0.43 0.31 0.32 0.34 0.33 0.33 0.33 0.34 0.33 0.33 0.34 0.31 0.28 0.27 0.24 0.23 0.24 0.26 0.24 0.23 0.22 0.21 0.20 0.21 0.21 0.20 0.20 0.20 0.19 0.19 0.18 0.19 0.19
0.29 0.31 0.27 0.25 0.23 0.23 0.25 0.27 0.27 0.30 0.30 0.31 0.32 0.31 0.31 0.33 0.37 0.44 0.43 0.42 0.39 0.37 0.35 0.34 0.34 0.34 0.31 0.31 0.31 0.33 0.35 0.34 0.32 0.29 0.24 0.22 0.23 0.25 0.24 0.23 0.22 0.21 0.20 0.20 0.20 0.20 0.21 0.20 0.20 0.19 0.18 0.18 0.19 0.19
0.30 0.28 0.25 0.24 0.24 0.26 0.28 0.30 0.31 0.31 0.31 0.31 0.32 0.31 0.31 0.34 0.38 0.44 0.46 0.45 0.43 0.40 0.37 0.35 0.33 0.32 0.31 0.32 0.33 0.32 0.32 0.33 0.31 0.28 0.27 0.27 0.26 0.25 0.23 0.22 0.22 0.21 0.20 0.20 0.20 0.19 0.19 0.19 0.18 0.18 0.18 0.18 0.19 0.19
0.28 0.27 0.24 0.22 0.24 0.29 0.31 0.29 0.29 0.29 0.29 0.28 0.29 0.32 0.33 0.33 0.35 0.42 0.47 0.44 0.36 0.34 0.33 0.32 0.31 0.33 0.36 0.35 0.35 0.35 0.33 0.30 0.28 0.28 0.28 0.27 0.26 0.24 0.23 0.23 0.21 0.21 0.21 0.20 0.20 0.20 0.19 0.19 0.18 0.18 0.19 0.19 0.19 0.19
0.28 0.27 0.26 0.25 0.24 0.25 0.28 0.29 0.29 0.29 0.29 0.28 0.29 0.31 0.34 0.35 0.35 0.39 0.45 0.44 0.36 0.37 0.38 0.38 0.37 0.37 0.36 0.35 0.35 0.33 0.30 0.29 0.29 0.29 0.29 0.28 0.26 0.24 0.23 0.22 0.22 0.21 0.21 0.20 0.20 0.19 0.19 0.19 0.18 0.18 0.18 0.18 0.19 0.19

GFSWCAN_prec_pwat_084.txt.gz
Precipitable_Water
0.78 0.73 0.54 0.42 0.41 0.49 0.52 0.50 0.63 0.70 0.75 0.75 0.70 0.56 0.54 0.51 0.50 0.51 0.47 0.54 0.44 0.32 0.34 0.38 0.39 0.35 0.36 0.35 0.27 0.33 0.32 0.32 0.30 0.23 0.22 0.20 0.19 0.20 0.18 0.20 0.18 0.17 0.16 0.16 0.17 0.14 0.11 0.28 0.25 0.17 0.25 0.28 0.29 0.29
0.79 0.74 0.56 0.43 0.38 0.47 0.50 0.51 0.62 0.68 0.74 0.75 0.68 0.64 0.58 0.58 0.53 0.53 0.42 0.54 0.54 0.40 0.37 0.45 0.45 0.46 0.44 0.43 0.37 0.37 0.34 0.34 0.32 0.26 0.25 0.23 0.20 0.20 0.19 0.15 0.25 0.14 0.19 0.19 0.18 0.20 0.28 0.27 0.27 0.31 0.32 0.29 0.29 0.29
0.80 0.74 0.58 0.43 0.39 0.47 0.48 0.50 0.59 0.67 0.73 0.74 0.69 0.68 0.66 0.60 0.58 0.51 0.47 0.51 0.50 0.41 0.39 0.39 0.37 0.46 0.51 0.49 0.51 0.34 0.36 0.39 0.36 0.39 0.31 0.27 0.20 0.24 0.16 0.18 0.20 0.23 0.26 0.20 0.20 0.24 0.25 0.27 0.31 0.33 0.33 0.32 0.34 0.34
0.82 0.75 0.59 0.43 0.38 0.47 0.47 0.46 0.57 0.65 0.73 0.74 0.73 0.72 0.70 0.59 0.58 0.53 0.46 0.51 0.51 0.44 0.34 0.34 0.49 0.45 0.52 0.53 0.50 0.48 0.42 0.44 0.41 0.38 0.30 0.27 0.22 0.29 0.21 0.22 0.21 0.24 0.27 0.22 0.21 0.24 0.28 0.29 0.31 0.32 0.33 0.35 0.34 0.35
0.86 0.77 0.61 0.44 0.39 0.43 0.44 0.46 0.51 0.64 0.71 0.77 0.73 0.73 0.72 0.65 0.57 0.55 0.50 0.51 0.51 0.43 0.30 0.33 0.43 0.48 0.50 0.50 0.48 0.49 0.46 0.40 0.37 0.33 0.30 0.26 0.29 0.27 0.27 0.25 0.19 0.24 0.21 0.19 0.18 0.27 0.28 0.28 0.31 0.33 0.31 0.32 0.34 0.34
0.88 0.80 0.67 0.43 0.39 0.44 0.41 0.44 0.44 0.59 0.67 0.71 0.77 0.73 0.71 0.65 0.57 0.50 0.38 0.47 0.50 0.50 0.36 0.26 0.41 0.41 0.45 0.47 0.46 0.44 0.44 0.42 0.39 0.35 0.33 0.32 0.35 0.29 0.23 0.20 0.23 0.26 0.28 0.29 0.26 0.31 0.31 0.32 0.33 0.34 0.33 0.33 0.34 0.33
0.90 0.84 0.72 0.44 0.40 0.46 0.39 0.41 0.44 0.54 0.64 0.69 0.72 0.69 0.68 0.66 0.58 0.42 0.32 0.40 0.46 0.47 0.36 0.27 0.28 0.37 0.42 0.42 0.43 0.43 0.45 0.41 0.40 0.37 0.32 0.32 0.32 0.32 0.27 0.19 0.23 0.27 0.29 0.30 0.32 0.32 0.28 0.31 0.30 0.33 0.33 0.32 0.33 0.32
0.92 0.86 0.78 0.48 0.38 0.49 0.41 0.48 0.51 0.49 0.62 0.70 0.70 0.68 0.68 0.66 0.63 0.52 0.48 0.44 0.45 0.35 0.34 0.24 0.24 0.27 0.39 0.33 0.33 0.40 0.37 0.40 0.39 0.36 0.34 0.30 0.32 0.31 0.21 0.23 0.25 0.27 0.29 0.30 0.30 0.33 0.32 0.33 0.33 0.31 0.32 0.31 0.29 0.26
0.94 0.88 0.83 0.58 0.40 0.49 0.50 0.52 0.56 0.52 0.54 0.70 0.72 0.67 0.64 0.60 0.52 0.52 0.56 0.50 0.47 0.36 0.25 0.24 0.18 0.18 0.34 0.33 0.36 0.37 0.38 0.30 0.40 0.31 0.31 0.32 0.28 0.22 0.22 0.24 0.26 0.27 0.26 0.26 0.31 0.31 0.31 0.29 0.29 0.30 0.30 0.27 0.23 0.21
0.97 0.91 0.85 0.64 0.47 0.52 0.56 0.58 0.58 0.51 0.56 0.68 0.62 0.49 0.44 0.54 0.63 0.58 0.48 0.37 0.36 0.37 0.38 0.26 0.30 0.21 0.29 0.30 0.30 0.32 0.34 0.31 0.26 0.30 0.35 0.27 0.23 0.26 0.29 0.30 0.30 0.30 0.31 0.32 0.28 0.28 0.28 0.27 0.28 0.28 0.25 0.24 0.23 0.22
1.00 0.94 0.87 0.69 0.54 0.57 0.63 0.59 0.59 0.58 0.56 0.51 0.46 0.43 0.50 0.57 0.52 0.43 0.33 0.30 0.32 0.29 0.34 0.35 0.35 0.27 0.35 0.26 0.27 0.34 0.29 0.28 0.21 0.27 0.25 0.24 0.21 0.21 0.26 0.29 0.31 0.33 0.35 0.34 0.33 0.33 0.33 0.31 0.29 0.26 0.24 0.23 0.24 0.23
1.03 0.97 0.89 0.73 0.62 0.60 0.68 0.65 0.61 0.55 0.51 0.49 0.47 0.51 0.48 0.41 0.35 0.29 0.25 0.29 0.27 0.25 0.32 0.30 0.32 0.35 0.33 0.37 0.30 0.32 0.26 0.26 0.17 0.30 0.23 0.19 0.20 0.26 0.26 0.28 0.31 0.34 0.34 0.34 0.34 0.32 0.31 0.30 0.28 0.25 0.24 0.24 0.24 0.22
1.05 1.00 0.92 0.77 0.71 0.64 0.70 0.68 0.61 0.59 0.55 0.48 0.39 0.32 0.31 0.32 0.24 0.20 0.18 0.21 0.25 0.30 0.31 0.31 0.30 0.35 0.35 0.36 0.32 0.29 0.24 0.21 0.27 0.19 0.16 0.17 0.20 0.25 0.27 0.31 0.31 0.33 0.33 0.34 0.34 0.34 0.32 0.29 0.28 0.26 0.25 0.25 0.22 0.19
1.06 1.03 0.95 0.82 0.78 0.69 0.72 0.71 0.63 0.57 0.49 0.37 0.32 0.25 0.24 0.22 0.24 0.23 0.23 0.26 0.30 0.31 0.29 0.31 0.31 0.32 0.34 0.31 0.32 0.26 0.29 0.27 0.18 0.14 0.13 0.16 0.19 0.23 0.29 0.31 0.31 0.31 0.33 0.36 0.36 0.34 0.31 0.29 0.27 0.27 0.25 0.22 0.20 0.19
1.05 1.03 0.96 0.86 0.83 0.75 0.78 0.75 0.68 0.61 0.48 0.36 0.34 0.25 0.25 0.28 0.30 0.30 0.31 0.28 0.29 0.32 0.32 0.30 0.30 0.31 0.29 0.29 0.29 0.28 0.23 0.19 0.19 0.15 0.16 0.19 0.21 0.23 0.25 0.27 0.30 0.32 0.37 0.37 0.36 0.33 0.31 0.29 0.27 0.25 0.23 0.22 0.21 0.19
1.04 0.97 0.90 0.87 0.87 0.80 0.83 0.79 0.69 0.61 0.52 0.41 0.36 0.30 0.32 0.28 0.29 0.30 0.29 0.28 0.32 0.32 0.33 0.32 0.28 0.25 0.24 0.26 0.24 0.22 0.20 0.18 0.18 0.20 0.22 0.22 0.23 0.23 0.24 0.26 0.30 0.35 0.39 0.39 0.36 0.33 0.31 0.28 0.25 0.23 0.22 0.21 0.19 0.18
0.98 0.85 0.94 0.87 0.87 0.84 0.83 0.75 0.68 0.57 0.47 0.42 0.37 0.40 0.36 0.30 0.30 0.31 0.32 0.31 0.37 0.31 0.25 0.26 0.22 0.22 0.26 0.22 0.22 0.24 0.20 0.20 0.24 0.23 0.25 0.24 0.24 0.24 0.25 0.27 0.31 0.34 0.36 0.37 0.35 0.33 0.30 0.27 0.24 0.22 0.19 0.19 0.20 0.19
0.87 0.93 0.92 0.87 0.88 0.83 0.76 0.72 0.64 0.56 0.45 0.46 0.39 0.39 0.38 0.35 0.30 0.30 0.32 0.35 0.33 0.31 0.30 0.26 0.28 0.22 0.20 0.19 0.20 0.23 0.25 0.26 0.26 0.25 0.24 0.27 0.27 0.27 0.28 0.28 0.31 0.33 0.35 0.38 0.35 0.31 0.27 0.24 0.23 0.21 0.20 0.20 0.20 0.18
0.91 0.92 0.89 0.89 0.85 0.75 0.64 0.64 0.63 0.48 0.48 0.49 0.50 0.47 0.43 0.39 0.38 0.37 0.37 0.37 0.38 0.38 0.33 0.29 0.24 0.21 0.23 0.27 0.26 0.27 0.27 0.27 0.25 0.26 0.28 0.28 0.28 0.29 0.30 0.31 0.33 0.34 0.37 0.36 0.31 0.28 0.26 0.25 0.23 0.22 0.22 0.21 0.18 0.18
0.91 0.90 0.87 0.87 0.82 0.66 0.57 0.56 0.64 0.53 0.46 0.49 0.53 0.48 0.45 0.42 0.41 0.37 0.37 0.36 0.35 0.33 0.28 0.25 0.23 0.25 0.26 0.28 0.29 0.27 0.27 0.27 0.29 0.27 0.27 0.29 0.30 0.31 0.31 0.32 0.34 0.35 0.36 0.33 0.30 0.29 0.26 0.24 0.24 0.24 0.23 0.21 0.18 0.18
0.81 0.82 0.83 0.79 0.70 0.67 0.59 0.54 0.50 0.51 0.52 0.48 0.49 0.50 0.47 0.47 0.43 0.39 0.35 0.39 0.34 0.30 0.27 0.29 0.27 0.27 0.30 0.30 0.33 0.34 0.33 0.30 0.27 0.26 0.26 0.26 0.30 0.33 0.33 0.35 0.35 0.35 0.32 0.31 0.29 0.27 0.26 0.24 0.24 0.24 0.22 0.19 0.20 0.19
0.76 0.79 0.70 0.70 0.60 0.59 0.56 0.58 0.50 0.51 0.47 0.46 0.45 0.46 0.42 0.40 0.40 0.40 0.43 0.37 0.34 0.33 0.31 0.29 0.31 0.32 0.31 0.29 0.29 0.34 0.37 0.39 0.31 0.29 0.29 0.30 0.28 0.30 0.31 0.32 0.34 0.32 0.31 0.31 0.29 0.26 0.25 0.25 0.25 0.23 0.21 0.20 0.20 0.19
0.73 0.70 0.62 0.59 0.51 0.49 0.47 0.56 0.45 0.45 0.38 0.39 0.41 0.38 0.39 0.40 0.42 0.46 0.38 0.38 0.37 0.39 0.34 0.33 0.34 0.36 0.34 0.34 0.33 0.33 0.35 0.36 0.33 0.28 0.28 0.29 0.29 0.30 0.30 0.33 0.34 0.30 0.30 0.31 0.31 0.28 0.26 0.26 0.24 0.22 0.20 0.20 0.19 0.18
0.70 0.58 0.49 0.46 0.47 0.42 0.45 0.40 0.44 0.41 0.39 0.36 0.35 0.34 0.36 0.38 0.42 0.39 0.35 0.37 0.38 0.40 0.36 0.33 0.36 0.35 0.35 0.34 0.31 0.31 0.34 0.36 0.35 0.29 0.29 0.29 0.27 0.28 0.32 0.34 0.33 0.33 0.32 0.32 0.31 0.28 0.26 0.25 0.23 0.21 0.21 0.20 0.19 0.18
0.46 0.43 0.45 0.40 0.45 0.39 0.35 0.34 0.35 0.35 0.32 0.34 0.34 0.33 0.35 0.38 0.34 0.33 0.31 0.33 0.35 0.36 0.35 0.35 0.35 0.34 0.32 0.31 0.30 0.31 0.36 0.37 0.35 0.28 0.28 0.29 0.28 0.29 0.32 0.34 0.32 0.31 0.35 0.33 0.28 0.27 0.26 0.24 0.22 0.21 0.20 0.19 0.19 0.18
0.37 0.42 0.39 0.39 0.38 0.36 0.34 0.31 0.32 0.33 0.34 0.33 0.34 0.37 0.37 0.34 0.31 0.29 0.32 0.35 0.35 0.34 0.34 0.32 0.30 0.29 0.30 0.32 0.30 0.30 0.36 0.41 0.40 0.28 0.27 0.29 0.29 0.30 0.32 0.30 0.27 0.30 0.36 0.33 0.28 0.26 0.25 0.22 0.21 0.20 0.20 0.20 0.19 0.18
0.35 0.37 0.42 0.46 0.41 0.39 0.35 0.36 0.37 0.34 0.32 0.31 0.33 0.33 0.33 0.30 0.29 0.31 0.36 0.34 0.31 0.31 0.32 0.33 0.33 0.32 0.31 0.34 0.35 0.37 0.42 0.43 0.37 0.28 0.29 0.30 0.32 0.36 0.32 0.30 0.29 0.32 0.35 0.33 0.28 0.26 0.24 0.22 0.21 0.20 0.20 0.20 0.19 0.18
0.41 0.41 0.34 0.38 0.39 0.38 0.34 0.34 0.33 0.32 0.33 0.36 0.35 0.31 0.30 0.29 0.29 0.33 0.31 0.31 0.32 0.32 0.33 0.35 0.37 0.38 0.37 0.37 0.39 0.41 0.42 0.42 0.36 0.28 0.27 0.29 0.34 0.34 0.36 0.38 0.35 0.35 0.35 0.31 0.28 0.27 0.24 0.22 0.21 0.21 0.20 0.19 0.18 0.18
0.37 0.40 0.39 0.34 0.35 0.35 0.34 0.33 0.33 0.35 0.38 0.36 0.32 0.31 0.32 0.33 0.32 0.30 0.31 0.31 0.32 0.31 0.29 0.30 0.33 0.37 0.39 0.39 0.41 0.46 0.43 0.39 0.30 0.23 0.23 0.26 0.29 0.33 0.36 0.37 0.38 0.37 0.34 0.28 0.28 0.27 0.24 0.23 0.22 0.22 0.21 0.19 0.19 0.19
0.34 0.39 0.34 0.34 0.33 0.32 0.34 0.38 0.37 0.39 0.40 0.40 0.39 0.36 0.33 0.31 0.32 0.34 0.32 0.31 0.29 0.29 0.31 0.32 0.33 0.34 0.33 0.34 0.40 0.48 0.48 0.38 0.30 0.27 0.28 0.32 0.31 0.31 0.33 0.35 0.37 0.36 0.30 0.28 0.27 0.26 0.25 0.24 0.24 0.22 0.20 0.18 0.19 0.18
0.38 0.37 0.34 0.35 0.33 0.36 0.39 0.40 0.40 0.40 0.39 0.36 0.34 0.30 0.28 0.29 0.30 0.31 0.31 0.32 0.32 0.33 0.32 0.32 0.34 0.35 0.36 0.38 0.45 0.46 0.43 0.37 0.33 0.35 0.34 0.31 0.30 0.32 0.33 0.38 0.38 0.31 0.28 0.27 0.26 0.24 0.23 0.22 0.21 0.19 0.18 0.18 0.18 0.17
0.37 0.36 0.35 0.33 0.34 0.37 0.39 0.37 0.36 0.33 0.31 0.29 0.27 0.28 0.27 0.26 0.23 0.26 0.30 0.31 0.30 0.30 0.32 0.33 0.33 0.35 0.41 0.48 0.51 0.45 0.35 0.32 0.33 0.34 0.32 0.31 0.32 0.34 0.37 0.38 0.31 0.28 0.28 0.26 0.24 0.23 0.23 0.21 0.20 0.18 0.18 0.18 0.17 0.16
0.35 0.36 0.35 0.34 0.33 0.32 0.33 0.32 0.30 0.28 0.28 0.26 0.25 0.26 0.26 0.26 0.23 0.27 0.31 0.32 0.31 0.32 0.33 0.36 0.38 0.42 0.48 0.53 0.52 0.41 0.37 0.37 0.35 0.34 0.34 0.31 0.29 0.33 0.36 0.32 0.28 0.29 0.27 0.24 0.23 0.23 0.21 0.20 0.18 0.18 0.18 0.17 0.16 0.17

GFSWCAN_prec_pwat_087.txt.gz
Precipitable_Water
0.87 0.80 0.74 0.63 0.48 0.37 0.47 0.51 0.65 0.68 0.74 0.65 0.57 0.59 0.59 0.57 0.53 0.51 0.49 0.55 0.44 0.30 0.34 0.38 0.39 0.34 0.34 0.32 0.23 0.30 0.29 0.30 0.28 0.20 0.19 0.18 0.17 0.19 0.16 0.19 0.16 0.14 0.14 0.15 0.16 0.13 0.10 0.28 0.25 0.16 0.23 0.27 0.27 0.29
0.88 0.84 0.78 0.64 0.49 0.38 0.43 0.47 0.61 0.68 0.74 0.71 0.57 0.59 0.59 0.58 0.53 0.54 0.44 0.54 0.52 0.38 0.34 0.43 0.43 0.45 0.43 0.41 0.36 0.35 0.32 0.33 0.30 0.25 0.24 0.22 0.19 0.20 0.18 0.12 0.24 0.14 0.17 0.17 0.18 0.17 0.27 0.28 0.26 0.30 0.30 0.28 0.29 0.30
0.91 0.87 0.82 0.66 0.50 0.36 0.41 0.46 0.56 0.66 0.75 0.73 0.63 0.56 0.59 0.58 0.56 0.51 0.47 0.51 0.50 0.39 0.37 0.38 0.36 0.45 0.50 0.48 0.50 0.34 0.36 0.39 0.36 0.39 0.31 0.27 0.18 0.24 0.15 0.16 0.19 0.22 0.26 0.18 0.18 0.21 0.23 0.26 0.30 0.32 0.32 0.31 0.34 0.35
0.91 0.88 0.87 0.70 0.51 0.36 0.39 0.45 0.51 0.61 0.71 0.76 0.72 0.66 0.55 0.57 0.56 0.51 0.46 0.51 0.50 0.42 0.30 0.33 0.47 0.44 0.52 0.51 0.49 0.48 0.42 0.44 0.41 0.39 0.30 0.26 0.21 0.29 0.20 0.22 0.20 0.22 0.25 0.21 0.20 0.22 0.25 0.28 0.29 0.31 0.32 0.34 0.34 0.35
0.91 0.90 0.90 0.76 0.54 0.35 0.40 0.40 0.45 0.57 0.67 0.72 0.76 0.74 0.69 0.56 0.54 0.53 0.48 0.48 0.51 0.42 0.28 0.29 0.41 0.46 0.49 0.50 0.48 0.49 0.46 0.41 0.38 0.32 0.30 0.25 0.30 0.28 0.27 0.25 0.19 0.23 0.19 0.18 0.16 0.22 0.24 0.26 0.32 0.33 0.31 0.32 0.33 0.33
0.92 0.91 0.93 0.83 0.61 0.35 0.44 0.37 0.40 0.49 0.64 0.68 0.71 0.73 0.69 0.66 0.56 0.47 0.36 0.47 0.48 0.49 0.36 0.24 0.40 0.39 0.43 0.46 0.45 0.44 0.45 0.43 0.41 0.36 0.33 0.34 0.37 0.31 0.23 0.19 0.21 0.24 0.27 0.28 0.23 0.30 0.31 0.33 0.34 0.35 0.33 0.34 0.34 0.33
0.93 0.92 0.94 0.88 0.70 0.35 0.47 0.37 0.38 0.41 0.57 0.64 0.66 0.66 0.64 0.64 0.62 0.43 0.33 0.36 0.43 0.46 0.32 0.26 0.27 0.37 0.39 0.39 0.40 0.40 0.42 0.41 0.40 0.37 0.33 0.33 0.33 0.34 0.27 0.19 0.23 0.27 0.29 0.30 0.33 0.33 0.30 0.33 0.31 0.36 0.35 0.34 0.34 0.32
0.94 0.92 0.94 0.90 0.79 0.40 0.46 0.42 0.39 0.43 0.53 0.60 0.66 0.61 0.63 0.63 0.63 0.54 0.53 0.48 0.44 0.36 0.32 0.21 0.21 0.25 0.36 0.30 0.30 0.40 0.35 0.36 0.35 0.34 0.35 0.31 0.33 0.32 0.21 0.23 0.27 0.29 0.31 0.32 0.33 0.34 0.34 0.36 0.36 0.34 0.34 0.33 0.30 0.29
0.95 0.93 0.95 0.92 0.85 0.53 0.46 0.49 0.50 0.52 0.49 0.59 0.65 0.60 0.58 0.55 0.50 0.55 0.63 0.58 0.48 0.37 0.29 0.29 0.19 0.16 0.34 0.30 0.34 0.34 0.35 0.27 0.37 0.30 0.30 0.32 0.28 0.21 0.22 0.23 0.26 0.28 0.28 0.30 0.33 0.34 0.34 0.34 0.34 0.33 0.32 0.32 0.28 0.25
0.95 0.95 0.97 0.94 0.87 0.66 0.53 0.57 0.57 0.60 0.56 0.59 0.58 0.46 0.38 0.48 0.60 0.59 0.53 0.42 0.37 0.36 0.36 0.29 0.36 0.28 0.33 0.31 0.28 0.28 0.32 0.27 0.22 0.27 0.32 0.26 0.23 0.25 0.26 0.29 0.31 0.31 0.32 0.34 0.30 0.29 0.31 0.32 0.33 0.33 0.32 0.29 0.26 0.25
0.97 0.97 0.98 0.96 0.87 0.72 0.67 0.66 0.63 0.59 0.57 0.48 0.42 0.38 0.49 0.53 0.48 0.41 0.33 0.29 0.30 0.26 0.31 0.32 0.34 0.30 0.39 0.30 0.30 0.35 0.30 0.28 0.19 0.22 0.21 0.18 0.17 0.21 0.25 0.25 0.30 0.33 0.35 0.35 0.35 0.34 0.36 0.35 0.34 0.33 0.31 0.28 0.26 0.26
0.97 0.99 0.99 0.98 0.88 0.78 0.78 0.72 0.66 0.54 0.47 0.48 0.47 0.50 0.45 0.40 0.36 0.29 0.25 0.27 0.24 0.22 0.30 0.28 0.31 0.34 0.34 0.39 0.32 0.34 0.28 0.29 0.20 0.32 0.23 0.15 0.16 0.21 0.23 0.23 0.26 0.30 0.33 0.33 0.34 0.35 0.37 0.37 0.36 0.33 0.29 0.28 0.27 0.27
0.98 1.01 1.01 0.99 0.90 0.83 0.85 0.79 0.72 0.64 0.59 0.52 0.43 0.35 0.32 0.29 0.22 0.20 0.17 0.18 0.20 0.25 0.28 0.29 0.27 0.32 0.34 0.35 0.31 0.29 0.25 0.24 0.32 0.24 0.20 0.20 0.21 0.22 0.22 0.23 0.25 0.30 0.30 0.30 0.31 0.34 0.38 0.37 0.35 0.32 0.29 0.29 0.28 0.24
0.99 1.02 1.02 1.01 0.92 0.87 0.90 0.85 0.76 0.67 0.55 0.40 0.33 0.26 0.25 0.23 0.22 0.21 0.20 0.21 0.26 0.26 0.26 0.27 0.28 0.28 0.32 0.29 0.30 0.24 0.28 0.27 0.20 0.17 0.16 0.18 0.21 0.24 0.25 0.25 0.25 0.25 0.27 0.27 0.28 0.32 0.36 0.37 0.34 0.33 0.31 0.29 0.25 0.23
1.02 1.03 1.03 0.99 0.92 0.87 0.93 0.89 0.80 0.70 0.55 0.42 0.37 0.26 0.26 0.30 0.31 0.30 0.31 0.28 0.28 0.30 0.28 0.27 0.28 0.29 0.27 0.27 0.28 0.26 0.23 0.18 0.19 0.16 0.17 0.21 0.23 0.25 0.27 0.28 0.26 0.26 0.26 0.26 0.30 0.33 0.34 0.37 0.35 0.32 0.31 0.27 0.26 0.24
1.03 1.01 0.95 0.97 0.91 0.88 0.93 0.89 0.80 0.74 0.62 0.49 0.43 0.34 0.35 0.31 0.30 0.31 0.30 0.29 0.33 0.32 0.32 0.29 0.25 0.22 0.22 0.23 0.22 0.21 0.20 0.18 0.16 0.19 0.22 0.24 0.23 0.25 0.28 0.29 0.29 0.30 0.30 0.30 0.32 0.33 0.33 0.35 0.35 0.31 0.28 0.26 0.25 0.23
0.99 0.86 0.96 0.96 0.91 0.89 0.90 0.81 0.75 0.66 0.59 0.51 0.46 0.48 0.41 0.36 0.32 0.33 0.34 0.32 0.38 0.34 0.26 0.25 0.20 0.20 0.25 0.20 0.19 0.22 0.21 0.21 0.23 0.22 0.22 0.22 0.22 0.23 0.27 0.29 0.30 0.32 0.32 0.33 0.33 0.33 0.35 0.36 0.34 0.28 0.25 0.25 0.24 0.25
0.86 0.92 0.95 0.93 0.89 0.85 0.79 0.76 0.67 0.60 0.51 0.52 0.50 0.52 0.51 0.46 0.39 0.36 0.37 0.38 0.36 0.33 0.32 0.26 0.28 0.23 0.20 0.17 0.17 0.20 0.24 0.25 0.25 0.25 0.25 0.27 0.27 0.26 0.28 0.28 0.29 0.31 0.33 0.33 0.33 0.34 0.36 0.34 0.29 0.27 0.25 0.25 0.25 0.25
0.90 0.91 0.92 0.89 0.85 0.74 0.64 0.64 0.67 0.52 0.52 0.54 0.56 0.56 0.54 0.52 0.50 0.46 0.40 0.38 0.38 0.38 0.34 0.31 0.27 0.24 0.21 0.22 0.22 0.24 0.26 0.26 0.25 0.27 0.29 0.30 0.30 0.28 0.28 0.28 0.29 0.30 0.31 0.32 0.33 0.34 0.33 0.32 0.30 0.27 0.25 0.26 0.24 0.23
0.91 0.90 0.89 0.86 0.81 0.64 0.56 0.57 0.67 0.57 0.49 0.53 0.56 0.54 0.54 0.54 0.54 0.50 0.48 0.46 0.42 0.38 0.33 0.31 0.28 0.28 0.26 0.27 0.28 0.27 0.26 0.27 0.26 0.25 0.29 0.33 0.31 0.32 0.31 0.30 0.30 0.32 0.32 0.33 0.33 0.33 0.31 0.32 0.30 0.27 0.27 0.27 0.24 0.22
0.82 0.82 0.83 0.78 0.67 0.64 0.60 0.56 0.54 0.55 0.55 0.50 0.53 0.54 0.51 0.54 0.51 0.50 0.49 0.52 0.45 0.40 0.36 0.36 0.33 0.31 0.31 0.31 0.32 0.31 0.29 0.28 0.28 0.29 0.29 0.31 0.33 0.29 0.30 0.31 0.31 0.31 0.31 0.32 0.31 0.30 0.32 0.32 0.29 0.28 0.29 0.26 0.24 0.23
0.74 0.79 0.69 0.67 0.58 0.57 0.56 0.59 0.52 0.54 0.51 0.49 0.50 0.51 0.48 0.46 0.47 0.48 0.51 0.46 0.44 0.46 0.47 0.44 0.41 0.39 0.35 0.33 0.33 0.35 0.34 0.34 0.33 0.32 0.34 0.36 0.35 0.30 0.27 0.28 0.29 0.28 0.29 0.29 0.28 0.28 0.32 0.31 0.30 0.31 0.28 0.25 0.24 0.23
0.72 0.68 0.61 0.57 0.49 0.49 0.48 0.58 0.47 0.48 0.42 0.43 0.47 0.44 0.44 0.44 0.46 0.50 0.42 0.43 0.44 0.49 0.48 0.47 0.46 0.45 0.41 0.39 0.39 0.38 0.39 0.37 0.36 0.35 0.35 0.36 0.37 0.36 0.30 0.29 0.29 0.28 0.28 0.28 0.28 0.31 0.30 0.33 0.34 0.30 0.26 0.24 0.23 0.22
0.68 0.56 0.48 0.45 0.46 0.41 0.48 0.44 0.47 0.45 0.43 0.41 0.40 0.39 0.40 0.41 0.46 0.41 0.35 0.36 0.39 0.43 0.41 0.41 0.42 0.40 0.40 0.39 0.36 0.37 0.38 0.39 0.38 0.37 0.37 0.37 0.36 0.36 0.31 0.28 0.30 0.30 0.29 0.27 0.30 0.30 0.34 0.35 0.32 0.28 0.25 0.22 0.22 0.21
0.44 0.41 0.43 0.38 0.45 0.40 0.38 0.37 0.38 0.39 0.36 0.38 0.38 0.38 0.39 0.42 0.36 0.34 0.32 0.34 0.38 0.37 0.38 0.39 0.39 0.38 0.36 0.36 0.37 0.37 0.38 0.38 0.36 0.34 0.36 0.37 0.38 0.37 0.31 0.29 0.29 0.29 0.29 0.29 0.29 0.30 0.35 0.34 0.30 0.27 0.23 0.22 0.21 0.21
0.34 0.40 0.38 0.38 0.38 0.37 0.35 0.33 0.34 0.35 0.36 0.36 0.37 0.39 0.40 0.36 0.32 0.29 0.31 0.37 0.37 0.36 0.34 0.33 0.32 0.32 0.33 0.34 0.33 0.33 0.34 0.37 0.36 0.33 0.34 0.37 0.38 0.36 0.29 0.25 0.25 0.26 0.32 0.30 0.29 0.32 0.36 0.33 0.28 0.25 0.22 0.22 0.23 0.22
0.33 0.34 0.40 0.45 0.41 0.39 0.36 0.37 0.38 0.36 0.34 0.33 0.36 0.36 0.36 0.31 0.29 0.33 0.38 0.40 0.37 0.35 0.34 0.33 0.32 0.31 0.30 0.33 0.36 0.36 0.37 0.38 0.37 0.35 0.37 0.38 0.40 0.40 0.33 0.26 0.24 0.26 0.30 0.31 0.33 0.36 0.36 0.31 0.27 0.24 0.22 0.22 0.22 0.21
0.39 0.39 0.33 0.37 0.38 0.39 0.35 0.35 0.35 0.34 0.35 0.37 0.37 0.33 0.32 0.31 0.31 0.37 0.38 0.40 0.39 0.38 0.35 0.34 0.34 0.34 0.34 0.35 0.38 0.38 0.38 0.39 0.39 0.39 0.41 0.41 0.41 0.39 0.33 0.30 0.29 0.30 0.32 0.37 0.35 0.37 0.35 0.30 0.26 0.23 0.22 0.22 0.22 0.22
0.36 0.39 0.39 0.35 0.36 0.37 0.37 0.35 0.36 0.38 0.40 0.38 0.35 0.34 0.35 0.38 0.40 0.39 0.40 0.40 0.38 0.34 0.31 0.30 0.31 0.34 0.34 0.35 0.36 0.37 0.37 0.36 0.35 0.33 0.33 0.37 0.37 0.32 0.31 0.30 0.29 0.31 0.35 0.36 0.40 0.39 0.33 0.29 0.25 0.23 0.23 0.23 0.22 0.22
0.35 0.40 0.36 0.36 0.35 0.34 0.38 0.40 0.39 0.41 0.42 0.41 0.41 0.39 0.38 0.39 0.40 0.42 0.40 0.36 0.33 0.31 0.31 0.31 0.32 0.31 0.30 0.30 0.31 0.32 0.35 0.35 0.38 0.37 0.37 0.39 0.36 0.31 0.29 0.28 0.31 0.35 0.38 0.40 0.40 0.35 0.31 0.28 0.25 0.23 0.23 0.23 0.21 0.20
0.39 0.38 0.36 0.36 0.35 0.38 0.39 0.42 0.42 0.42 0.41 0.39 0.39 0.37 0.36 0.38 0.40 0.40 0.37 0.35 0.33 0.32 0.31 0.30 0.30 0.31 0.30 0.30 0.30 0.30 0.30 0.38 0.44 0.47 0.47 0.42 0.35 0.31 0.29 0.32 0.33 0.32 0.36 0.40 0.37 0.31 0.28 0.25 0.23 0.22 0.22 0.21 0.20 0.19
0.35 0.34 0.33 0.32 0.33 0.38 0.40 0.39 0.38 0.37 0.38 0.36 0.36 0.37 0.37 0.35 0.29 0.31 0.32 0.32 0.30 0.28 0.29 0.30 0.29 0.29 0.32 0.33 0.34 0.34 0.37 0.44 0.50 0.50 0.45 0.35 0.32 0.32 0.34 0.31 0.30 0.34 0.41 0.37 0.31 0.29 0.27 0.23 0.22 0.22 0.22 0.20 0.19 0.18
0.35 0.35 0.35 0.34 0.34 0.34 0.37 0.37 0.36 0.35 0.35 0.34 0.35 0.35 0.32 0.30 0.26 0.29 0.32 0.32 0.30 0.29 0.29 0.30 0.31 0.32 0.33 0.34 0.35 0.38 0.45 0.50 0.48 0.45 0.41 0.36 0.36 0.36 0.32 0.31 0.34 0.40 0.36 0.31 0.30 0.28 0.24 0.23 0.22 0.22 0.21 0.20 0.18 0.16

GFSWCAN_prec_pwat_090.txt.gz
Precipitable_Water
0.95 0.91 0.91 0.82 0.66 0.46 0.40 0.45 0.60 0.65 0.70 0.60 0.54 0.54 0.51 0.48 0.50 0.49 0.49 0.55 0.44 0.32 0.33 0.39 0.40 0.35 0.35 0.33 0.24 0.31 0.28 0.30 0.27 0.20 0.19 0.18 0.17 0.19 0.17 0.18 0.16 0.14 0.13 0.13 0.16 0.12 0.09 0.28 0.25 0.17 0.21 0.27 0.27 0.28
0.92 0.95 0.91 0.87 0.72 0.50 0.38 0.41 0.55 0.62 0.69 0.66 0.58 0.56 0.53 0.50 0.47 0.49 0.42 0.53 0.53 0.39 0.34 0.43 0.44 0.45 0.44 0.43 0.37 0.37 0.33 0.34 0.32 0.26 0.25 0.23 0.19 0.21 0.18 0.12 0.23 0.15 0.17 0.15 0.17 0.14 0.25 0.29 0.25 0.28 0.29 0.26 0.27 0.28
0.94 0.99 0.91 0.91 0.81 0.57 0.35 0.38 0.48 0.61 0.67 0.70 0.67 0.61 0.56 0.52 0.48 0.46 0.42 0.48 0.47 0.37 0.36 0.37 0.35 0.44 0.48 0.47 0.49 0.32 0.37 0.39 0.38 0.41 0.33 0.29 0.20 0.24 0.16 0.16 0.18 0.21 0.26 0.19 0.17 0.17 0.21 0.26 0.29 0.31 0.31 0.30 0.32 0.34
1.03 1.01 0.91 0.91 0.89 0.66 0.37 0.38 0.42 0.55 0.65 0.71 0.70 0.70 0.65 0.54 0.49 0.46 0.41 0.46 0.45 0.40 0.28 0.32 0.46 0.42 0.50 0.50 0.48 0.46 0.42 0.44 0.42 0.39 0.31 0.27 0.22 0.29 0.21 0.22 0.20 0.22 0.24 0.21 0.20 0.22 0.24 0.26 0.29 0.31 0.32 0.34 0.34 0.35
1.04 1.01 0.91 0.92 0.92 0.78 0.43 0.40 0.39 0.48 0.59 0.70 0.72 0.71 0.71 0.66 0.54 0.46 0.44 0.45 0.47 0.36 0.26 0.28 0.38 0.41 0.46 0.47 0.47 0.49 0.47 0.43 0.39 0.33 0.31 0.26 0.31 0.29 0.29 0.26 0.20 0.23 0.20 0.18 0.15 0.22 0.22 0.24 0.30 0.35 0.33 0.33 0.35 0.35
1.04 0.99 0.92 0.92 0.93 0.87 0.54 0.42 0.37 0.41 0.52 0.64 0.68 0.70 0.70 0.66 0.65 0.55 0.35 0.45 0.44 0.46 0.31 0.21 0.37 0.35 0.40 0.43 0.42 0.41 0.42 0.41 0.40 0.37 0.34 0.36 0.38 0.32 0.24 0.20 0.23 0.25 0.27 0.27 0.23 0.28 0.29 0.32 0.36 0.38 0.36 0.37 0.38 0.37
1.04 0.99 0.94 0.93 0.94 0.90 0.70 0.45 0.41 0.38 0.43 0.57 0.64 0.65 0.62 0.63 0.61 0.49 0.40 0.41 0.43 0.44 0.30 0.21 0.22 0.34 0.36 0.36 0.37 0.37 0.40 0.38 0.37 0.35 0.32 0.32 0.33 0.34 0.27 0.19 0.23 0.26 0.29 0.31 0.33 0.33 0.30 0.34 0.33 0.38 0.38 0.39 0.39 0.37
1.05 1.00 0.94 0.94 0.94 0.91 0.84 0.51 0.48 0.40 0.40 0.52 0.59 0.58 0.58 0.60 0.60 0.52 0.57 0.57 0.48 0.38 0.36 0.22 0.22 0.25 0.34 0.27 0.27 0.37 0.32 0.34 0.33 0.31 0.32 0.28 0.30 0.31 0.21 0.22 0.26 0.28 0.29 0.31 0.34 0.36 0.36 0.38 0.39 0.38 0.40 0.39 0.35 0.33
1.05 1.01 0.93 0.94 0.94 0.92 0.87 0.59 0.56 0.49 0.48 0.49 0.56 0.56 0.53 0.51 0.45 0.50 0.62 0.61 0.56 0.40 0.28 0.28 0.23 0.20 0.38 0.33 0.36 0.36 0.37 0.27 0.35 0.28 0.28 0.28 0.23 0.18 0.19 0.23 0.25 0.27 0.26 0.27 0.31 0.34 0.35 0.35 0.36 0.37 0.38 0.37 0.34 0.32
1.05 1.02 0.93 0.94 0.94 0.94 0.88 0.69 0.66 0.63 0.63 0.54 0.49 0.41 0.34 0.44 0.58 0.56 0.50 0.44 0.42 0.41 0.37 0.27 0.33 0.27 0.33 0.33 0.33 0.33 0.36 0.30 0.25 0.29 0.35 0.27 0.21 0.23 0.25 0.27 0.28 0.30 0.31 0.32 0.27 0.26 0.29 0.31 0.33 0.35 0.36 0.37 0.35 0.31
1.07 1.04 0.95 0.95 0.95 0.95 0.87 0.75 0.77 0.77 0.71 0.52 0.37 0.33 0.45 0.51 0.46 0.41 0.34 0.32 0.30 0.23 0.27 0.28 0.31 0.28 0.37 0.26 0.28 0.34 0.29 0.30 0.21 0.25 0.25 0.22 0.20 0.21 0.24 0.23 0.24 0.25 0.30 0.32 0.33 0.31 0.31 0.32 0.33 0.36 0.37 0.36 0.34 0.31
1.07 1.05 0.97 0.97 0.97 0.96 0.86 0.86 0.86 0.73 0.63 0.55 0.49 0.49 0.43 0.36 0.34 0.30 0.27 0.27 0.24 0.20 0.27 0.26 0.28 0.32 0.32 0.37 0.29 0.32 0.26 0.27 0.19 0.29 0.24 0.18 0.20 0.22 0.24 0.24 0.25 0.27 0.29 0.30 0.32 0.30 0.29 0.30 0.34 0.35 0.34 0.32 0.32 0.33
1.07 1.05 1.00 0.98 0.99 0.96 0.87 0.91 0.86 0.76 0.68 0.59 0.49 0.41 0.33 0.30 0.23 0.22 0.19 0.19 0.20 0.24 0.28 0.28 0.26 0.30 0.32 0.34 0.29 0.28 0.23 0.23 0.31 0.23 0.19 0.20 0.20 0.20 0.22 0.24 0.26 0.31 0.33 0.32 0.31 0.31 0.30 0.31 0.32 0.31 0.30 0.32 0.34 0.33
1.05 1.05 1.03 1.00 1.00 0.96 0.89 0.93 0.87 0.75 0.64 0.51 0.44 0.35 0.31 0.26 0.23 0.22 0.21 0.21 0.25 0.27 0.27 0.27 0.26 0.27 0.30 0.26 0.27 0.21 0.25 0.25 0.20 0.17 0.17 0.18 0.18 0.21 0.23 0.26 0.25 0.26 0.28 0.29 0.29 0.29 0.30 0.31 0.31 0.32 0.33 0.33 0.33 0.31
1.03 1.03 1.03 1.00 1.00 0.95 0.90 0.94 0.88 0.75 0.62 0.51 0.46 0.35 0.34 0.37 0.34 0.31 0.30 0.29 0.31 0.31 0.29 0.27 0.28 0.28 0.26 0.25 0.26 0.23 0.19 0.17 0.18 0.18 0.19 0.19 0.21 0.22 0.23 0.26 0.26 0.25 0.25 0.26 0.26 0.27 0.29 0.31 0.31 0.31 0.34 0.34 0.32 0.29
0.99 0.99 0.95 0.99 0.98 0.92 0.91 0.91 0.82 0.74 0.64 0.54 0.50 0.41 0.43 0.40 0.36 0.36 0.33 0.29 0.33 0.32 0.32 0.30 0.26 0.23 0.23 0.25 0.22 0.20 0.17 0.15 0.17 0.21 0.21 0.21 0.22 0.22 0.23 0.25 0.27 0.28 0.27 0.27 0.27 0.28 0.29 0.30 0.30 0.30 0.34 0.32 0.31 0.28
0.94 0.84 0.95 0.97 0.95 0.90 0.89 0.79 0.73 0.63 0.59 0.53 0.47 0.53 0.51 0.46 0.41 0.39 0.38 0.36 0.39 0.33 0.26 0.27 0.22 0.22 0.26 0.23 0.20 0.22 0.18 0.19 0.20 0.20 0.22 0.22 0.21 0.23 0.27 0.31 0.31 0.31 0.30 0.29 0.29 0.30 0.30 0.30 0.30 0.30 0.27 0.29 0.30 0.29
0.82 0.89 0.94 0.93 0.90 0.83 0.75 0.72 0.64 0.58 0.49 0.52 0.48 0.52 0.53 0.54 0.51 0.47 0.46 0.46 0.41 0.36 0.32 0.27 0.29 0.25 0.24 0.21 0.20 0.22 0.24 0.26 0.25 0.24 0.25 0.26 0.27 0.28 0.29 0.31 0.33 0.32 0.31 0.31 0.31 0.30 0.30 0.29 0.29 0.27 0.27 0.32 0.30 0.27
0.84 0.87 0.90 0.89 0.83 0.70 0.61 0.61 0.63 0.49 0.51 0.54 0.54 0.55 0.55 0.57 0.59 0.56 0.52 0.50 0.49 0.47 0.40 0.35 0.30 0.29 0.25 0.27 0.24 0.25 0.26 0.27 0.27 0.27 0.27 0.28 0.27 0.28 0.32 0.34 0.32 0.31 0.31 0.31 0.31 0.30 0.31 0.31 0.28 0.25 0.29 0.32 0.27 0.28
0.85 0.86 0.86 0.83 0.80 0.63 0.54 0.55 0.64 0.54 0.48 0.53 0.55 0.53 0.54 0.54 0.57 0.56 0.55 0.54 0.51 0.46 0.39 0.36 0.37 0.37 0.35 0.33 0.33 0.31 0.32 0.32 0.31 0.28 0.27 0.28 0.30 0.31 0.33 0.37 0.37 0.32 0.33 0.34 0.34 0.33 0.29 0.28 0.26 0.26 0.29 0.28 0.29 0.31
0.76 0.79 0.80 0.75 0.65 0.63 0.57 0.53 0.52 0.54 0.54 0.50 0.53 0.54 0.53 0.56 0.55 0.54 0.53 0.57 0.51 0.44 0.41 0.45 0.45 0.48 0.48 0.47 0.42 0.39 0.37 0.36 0.33 0.31 0.30 0.30 0.33 0.33 0.34 0.37 0.40 0.40 0.32 0.32 0.32 0.31 0.30 0.27 0.24 0.25 0.25 0.31 0.35 0.30
0.68 0.76 0.65 0.64 0.56 0.54 0.53 0.57 0.53 0.54 0.52 0.49 0.49 0.51 0.48 0.48 0.50 0.52 0.56 0.50 0.47 0.50 0.51 0.50 0.48 0.48 0.47 0.46 0.45 0.44 0.43 0.41 0.38 0.36 0.36 0.36 0.34 0.34 0.35 0.36 0.36 0.38 0.36 0.32 0.33 0.31 0.30 0.26 0.24 0.24 0.28 0.35 0.34 0.29
0.68 0.62 0.57 0.54 0.46 0.45 0.45 0.56 0.47 0.47 0.43 0.44 0.46 0.44 0.44 0.45 0.49 0.55 0.48 0.49 0.49 0.55 0.54 0.52 0.49 0.49 0.46 0.46 0.45 0.45 0.45 0.43 0.39 0.36 0.35 0.35 0.37 0.39 0.39 0.38 0.37 0.37 0.36 0.34 0.34 0.33 0.29 0.25 0.24 0.27 0.32 0.34 0.31 0.27
0.64 0.51 0.44 0.42 0.42 0.38 0.44 0.42 0.46 0.44 0.43 0.40 0.39 0.38 0.39 0.43 0.48 0.44 0.41 0.44 0.49 0.53 0.53 0.51 0.47 0.43 0.43 0.42 0.40 0.40 0.41 0.40 0.38 0.37 0.37 0.36 0.36 0.37 0.38 0.38 0.38 0.38 0.38 0.35 0.35 0.32 0.28 0.24 0.26 0.31 0.32 0.31 0.29 0.25
0.40 0.38 0.40 0.35 0.41 0.37 0.36 0.36 0.37 0.38 0.35 0.37 0.37 0.37 0.38 0.43 0.39 0.37 0.36 0.41 0.46 0.47 0.49 0.49 0.45 0.42 0.38 0.38 0.38 0.37 0.39 0.38 0.35 0.33 0.36 0.36 0.36 0.35 0.35 0.35 0.36 0.38 0.38 0.33 0.32 0.29 0.26 0.24 0.29 0.32 0.32 0.31 0.27 0.24
0.31 0.36 0.34 0.34 0.34 0.34 0.34 0.32 0.33 0.34 0.35 0.35 0.36 0.39 0.40 0.38 0.34 0.32 0.36 0.41 0.44 0.46 0.46 0.43 0.40 0.38 0.37 0.37 0.35 0.34 0.34 0.37 0.36 0.32 0.33 0.35 0.34 0.32 0.30 0.30 0.30 0.34 0.37 0.33 0.31 0.28 0.24 0.25 0.30 0.33 0.33 0.30 0.27 0.24
0.30 0.31 0.36 0.42 0.38 0.35 0.33 0.35 0.37 0.35 0.34 0.33 0.35 0.36 0.36 0.33 0.32 0.35 0.42 0.44 0.43 0.44 0.43 0.40 0.39 0.37 0.35 0.35 0.35 0.36 0.36 0.37 0.36 0.35 0.37 0.36 0.36 0.35 0.32 0.30 0.31 0.35 0.35 0.32 0.30 0.27 0.24 0.27 0.33 0.36 0.32 0.29 0.26 0.25
0.35 0.34 0.28 0.32 0.33 0.34 0.32 0.33 0.33 0.32 0.34 0.37 0.37 0.33 0.32 0.32 0.33 0.40 0.42 0.44 0.43 0.42 0.42 0.43 0.42 0.40 0.37 0.35 0.35 0.34 0.35 0.36 0.37 0.37 0.36 0.36 0.37 0.38 0.39 0.38 0.38 0.39 0.35 0.33 0.29 0.27 0.27 0.33 0.39 0.35 0.30 0.27 0.25 0.25
0.33 0.35 0.35 0.31 0.32 0.33 0.33 0.32 0.33 0.36 0.39 0.38 0.34 0.34 0.35 0.40 0.42 0.41 0.43 0.43 0.43 0.42 0.40 0.39 0.38 0.38 0.37 0.36 0.35 0.34 0.34 0.34 0.32 0.29 0.29 0.31 0.34 0.36 0.41 0.40 0.39 0.38 0.36 0.32 0.28 0.29 0.32 0.40 0.37 0.32 0.29 0.26 0.25 0.25
0.30 0.36 0.32 0.31 0.29 0.28 0.32 0.36 0.36 0.40 0.42 0.42 0.42 0.41 0.41 0.42 0.44 0.46 0.44 0.43 0.41 0.40 0.40 0.39 0.37 0.35 0.33 0.32 0.31 0.31 0.33 0.33 0.33 0.31 0.29 0.31 0.35 0.38 0.39 0.41 0.38 0.37 0.33 0.28 0.28 0.35 0.43 0.39 0.34 0.31 0.27 0.25 0.25 0.24
0.36 0.34 0.32 0.32 0.30 0.33 0.36 0.39 0.41 0.41 0.41 0.40 0.41 0.39 0.40 0.42 0.43 0.44 0.43 0.42 0.41 0.40 0.39 0.38 0.36 0.34 0.32 0.30 0.29 0.28 0.28 0.32 0.34 0.34 0.35 0.36 0.37 0.37 0.41 0.41 0.36 0.32 0.28 0.27 0.35 0.42 0.39 0.34 0.31 0.28 0.25 0.24 0.24 0.23
0.34 0.33 0.31 0.28 0.30 0.34 0.38 0.37 0.38 0.38 0.38 0.39 0.39 0.41 0.40 0.38 0.35 0.39 0.41 0.41 0.39 0.38 0.37 0.34 0.31 0.29 0.31 0.31 0.32 0.32 0.33 0.32 0.32 0.33 0.36 0.38 0.39 0.42 0.43 0.37 0.35 0.31 0.28 0.31 0.37 0.36 0.34 0.32 0.30 0.26 0.25 0.24 0.23 0.22
0.33 0.34 0.34 0.33 0.32 0.33 0.36 0.36 0.36 0.36 0.37 0.37 0.37 0.38 0.38 0.36 0.32 0.37 0.42 0.43 0.40 0.34 0.30 0.30 0.31 0.32 0.32 0.32 0.32 0.33 0.34 0.34 0.34 0.37 0.43 0.44 0.44 0.41 0.39 0.35 0.31 0.30 0.29 0.35 0.36 0.35 0.33 0.30 0.27 0.25 0.24 0.23 0.22 0.21

GFSWCAN_prec_pwat_093.txt.gz
Precipitable_Water
1.05 1.04 0.92 0.91 0.90 0.81 0.49 0.40 0.44 0.61 0.66 0.66 0.55 0.55 0.55 0.52 0.49 0.45 0.43 0.50 0.40 0.30 0.31 0.36 0.39 0.35 0.36 0.34 0.23 0.30 0.26 0.30 0.25 0.19 0.18 0.19 0.16 0.18 0.17 0.17 0.16 0.14 0.13 0.13 0.15 0.12 0.08 0.26 0.26 0.16 0.18 0.25 0.25 0.27
1.04 1.02 0.93 0.93 0.89 0.88 0.64 0.41 0.40 0.55 0.65 0.66 0.63 0.57 0.55 0.54 0.50 0.49 0.37 0.48 0.48 0.35 0.32 0.40 0.40 0.43 0.42 0.42 0.36 0.35 0.30 0.31 0.32 0.25 0.25 0.25 0.19 0.21 0.19 0.12 0.21 0.14 0.17 0.14 0.17 0.14 0.22 0.28 0.24 0.27 0.28 0.25 0.26 0.27
1.04 1.03 1.00 0.96 0.91 0.90 0.79 0.49 0.41 0.44 0.61 0.67 0.66 0.66 0.60 0.54 0.49 0.47 0.41 0.46 0.43 0.34 0.32 0.33 0.31 0.40 0.45 0.44 0.46 0.30 0.35 0.37 0.35 0.39 0.31 0.28 0.20 0.24 0.16 0.16 0.17 0.20 0.24 0.18 0.18 0.16 0.19 0.24 0.28 0.30 0.31 0.29 0.31 0.32
1.05 1.03 1.04 1.03 0.93 0.91 0.88 0.59 0.45 0.41 0.53 0.66 0.70 0.67 0.67 0.63 0.51 0.45 0.40 0.47 0.45 0.37 0.25 0.28 0.43 0.38 0.46 0.46 0.45 0.44 0.41 0.42 0.42 0.39 0.31 0.27 0.22 0.28 0.21 0.22 0.19 0.21 0.24 0.20 0.19 0.20 0.23 0.24 0.26 0.30 0.32 0.34 0.35 0.36
1.05 1.04 1.03 1.02 0.96 0.92 0.90 0.73 0.50 0.44 0.44 0.59 0.68 0.69 0.68 0.65 0.61 0.52 0.42 0.44 0.48 0.37 0.25 0.26 0.35 0.39 0.42 0.43 0.43 0.45 0.42 0.39 0.37 0.32 0.30 0.26 0.30 0.29 0.29 0.27 0.21 0.25 0.20 0.18 0.16 0.21 0.22 0.22 0.28 0.32 0.33 0.35 0.37 0.37
1.05 1.04 1.02 1.01 0.95 0.94 0.93 0.85 0.59 0.50 0.43 0.49 0.62 0.67 0.68 0.65 0.64 0.56 0.42 0.49 0.44 0.47 0.31 0.20 0.34 0.31 0.35 0.38 0.39 0.40 0.42 0.40 0.38 0.34 0.32 0.34 0.37 0.32 0.24 0.20 0.22 0.25 0.27 0.27 0.23 0.28 0.29 0.31 0.33 0.35 0.36 0.38 0.40 0.40
1.06 1.05 1.02 1.01 0.95 0.94 0.95 0.91 0.69 0.58 0.47 0.45 0.56 0.66 0.62 0.59 0.59 0.48 0.41 0.47 0.49 0.46 0.32 0.24 0.25 0.33 0.36 0.36 0.36 0.36 0.40 0.37 0.36 0.33 0.30 0.30 0.31 0.33 0.25 0.18 0.24 0.27 0.29 0.30 0.32 0.32 0.29 0.31 0.31 0.37 0.39 0.41 0.42 0.42
1.06 1.06 1.03 1.02 0.98 0.95 0.96 0.92 0.79 0.65 0.55 0.50 0.56 0.60 0.57 0.57 0.54 0.48 0.55 0.58 0.54 0.43 0.37 0.24 0.24 0.28 0.40 0.32 0.31 0.39 0.35 0.36 0.34 0.31 0.32 0.29 0.31 0.30 0.20 0.21 0.25 0.27 0.27 0.27 0.29 0.32 0.33 0.35 0.37 0.37 0.40 0.40 0.38 0.39
1.06 1.05 1.06 1.03 1.00 0.95 0.95 0.93 0.85 0.67 0.63 0.58 0.58 0.59 0.52 0.47 0.40 0.44 0.58 0.58 0.56 0.43 0.30 0.28 0.22 0.19 0.37 0.33 0.36 0.37 0.38 0.30 0.37 0.30 0.30 0.30 0.28 0.22 0.22 0.24 0.25 0.27 0.26 0.26 0.28 0.29 0.31 0.30 0.32 0.34 0.36 0.35 0.35 0.36
1.04 1.06 1.06 1.06 1.02 0.96 0.95 0.93 0.87 0.71 0.73 0.72 0.57 0.47 0.36 0.41 0.53 0.51 0.45 0.40 0.41 0.41 0.38 0.27 0.32 0.26 0.32 0.31 0.31 0.31 0.35 0.29 0.24 0.29 0.35 0.27 0.24 0.27 0.27 0.26 0.24 0.24 0.28 0.30 0.27 0.25 0.27 0.28 0.29 0.31 0.31 0.32 0.33 0.33
1.00 1.05 1.05 1.06 1.03 0.98 0.96 0.94 0.88 0.80 0.83 0.68 0.50 0.44 0.52 0.57 0.46 0.38 0.32 0.31 0.31 0.25 0.28 0.28 0.30 0.27 0.36 0.26 0.27 0.32 0.28 0.29 0.21 0.24 0.24 0.21 0.19 0.22 0.24 0.23 0.25 0.25 0.26 0.27 0.31 0.32 0.32 0.30 0.31 0.31 0.30 0.32 0.33 0.31
0.94 1.00 1.04 1.04 1.03 1.00 0.97 0.95 0.88 0.86 0.78 0.68 0.62 0.60 0.53 0.42 0.38 0.33 0.29 0.28 0.25 0.20 0.24 0.22 0.26 0.30 0.31 0.35 0.28 0.30 0.25 0.26 0.18 0.28 0.22 0.17 0.19 0.22 0.23 0.21 0.22 0.26 0.27 0.28 0.31 0.32 0.32 0.31 0.32 0.32 0.32 0.31 0.29 0.29
0.87 0.94 1.02 1.04 1.02 0.99 0.99 0.95 0.92 0.91 0.86 0.74 0.59 0.49 0.42 0.39 0.30 0.29 0.25 0.24 0.21 0.24 0.25 0.26 0.25 0.29 0.31 0.32 0.28 0.27 0.23 0.21 0.29 0.21 0.17 0.18 0.20 0.21 0.21 0.21 0.25 0.28 0.29 0.30 0.31 0.32 0.31 0.30 0.30 0.30 0.29 0.28 0.27 0.28
0.78 0.87 0.99 1.02 1.02 0.99 0.97 0.94 0.95 0.88 0.76 0.59 0.50 0.39 0.36 0.32 0.31 0.32 0.32 0.28 0.29 0.28 0.29 0.28 0.26 0.25 0.28 0.26 0.28 0.21 0.25 0.25 0.19 0.16 0.15 0.19 0.19 0.20 0.21 0.24 0.26 0.26 0.28 0.28 0.28 0.28 0.27 0.27 0.27 0.28 0.27 0.27 0.26 0.26
0.79 0.81 0.96 0.98 1.00 0.98 0.96 0.93 0.92 0.82 0.69 0.56 0.50 0.39 0.38 0.40 0.40 0.40 0.38 0.35 0.35 0.36 0.33 0.29 0.29 0.28 0.25 0.24 0.25 0.24 0.20 0.17 0.18 0.16 0.19 0.19 0.20 0.22 0.21 0.23 0.26 0.27 0.28 0.27 0.27 0.27 0.27 0.28 0.28 0.28 0.28 0.28 0.27 0.25
0.75 0.82 0.87 0.95 0.97 0.96 0.93 0.89 0.82 0.75 0.66 0.58 0.53 0.44 0.44 0.42 0.42 0.42 0.39 0.35 0.39 0.37 0.36 0.32 0.27 0.26 0.24 0.25 0.22 0.20 0.18 0.16 0.18 0.21 0.22 0.21 0.21 0.21 0.21 0.23 0.25 0.30 0.31 0.31 0.30 0.29 0.29 0.29 0.29 0.29 0.29 0.27 0.26 0.25
0.71 0.65 0.80 0.91 0.94 0.93 0.88 0.76 0.70 0.60 0.55 0.53 0.49 0.52 0.49 0.48 0.44 0.45 0.46 0.41 0.43 0.36 0.30 0.30 0.26 0.24 0.29 0.24 0.23 0.25 0.20 0.22 0.23 0.22 0.23 0.24 0.23 0.24 0.26 0.26 0.27 0.30 0.32 0.33 0.33 0.31 0.30 0.31 0.31 0.29 0.27 0.27 0.26 0.28
0.58 0.70 0.75 0.84 0.88 0.83 0.73 0.67 0.60 0.53 0.46 0.51 0.47 0.49 0.53 0.53 0.51 0.51 0.54 0.50 0.44 0.38 0.35 0.31 0.32 0.27 0.25 0.24 0.23 0.25 0.26 0.28 0.26 0.25 0.27 0.27 0.28 0.31 0.32 0.32 0.33 0.33 0.34 0.34 0.33 0.31 0.30 0.30 0.30 0.30 0.29 0.29 0.27 0.27
0.56 0.68 0.74 0.79 0.79 0.67 0.57 0.56 0.59 0.46 0.47 0.51 0.53 0.53 0.54 0.53 0.56 0.57 0.56 0.57 0.55 0.50 0.43 0.39 0.33 0.30 0.33 0.34 0.31 0.30 0.29 0.30 0.29 0.29 0.30 0.32 0.32 0.31 0.32 0.31 0.32 0.34 0.35 0.36 0.36 0.34 0.33 0.33 0.33 0.32 0.31 0.28 0.25 0.25
0.55 0.62 0.74 0.76 0.74 0.59 0.50 0.50 0.59 0.51 0.45 0.49 0.53 0.51 0.51 0.51 0.54 0.56 0.57 0.57 0.55 0.51 0.42 0.38 0.39 0.42 0.43 0.44 0.43 0.39 0.37 0.36 0.35 0.33 0.33 0.34 0.36 0.36 0.34 0.33 0.34 0.36 0.36 0.36 0.39 0.41 0.37 0.34 0.34 0.32 0.30 0.26 0.24 0.23
0.52 0.58 0.72 0.70 0.60 0.59 0.53 0.48 0.48 0.50 0.50 0.48 0.52 0.52 0.51 0.53 0.51 0.52 0.54 0.59 0.54 0.48 0.43 0.46 0.48 0.51 0.53 0.55 0.54 0.51 0.47 0.46 0.43 0.41 0.40 0.39 0.41 0.38 0.36 0.36 0.36 0.37 0.36 0.36 0.36 0.37 0.40 0.36 0.34 0.33 0.30 0.25 0.23 0.29
0.51 0.62 0.60 0.60 0.50 0.49 0.49 0.53 0.49 0.51 0.47 0.46 0.49 0.50 0.47 0.47 0.47 0.49 0.56 0.51 0.49 0.50 0.51 0.53 0.54 0.55 0.56 0.57 0.56 0.54 0.52 0.50 0.48 0.46 0.46 0.45 0.42 0.41 0.40 0.39 0.37 0.35 0.36 0.37 0.38 0.36 0.37 0.38 0.36 0.33 0.28 0.24 0.25 0.30
0.57 0.53 0.50 0.50 0.42 0.40 0.40 0.52 0.43 0.45 0.40 0.40 0.45 0.43 0.42 0.44 0.48 0.54 0.46 0.47 0.47 0.54 0.57 0.58 0.58 0.61 0.58 0.60 0.58 0.55 0.53 0.50 0.47 0.46 0.45 0.43 0.42 0.42 0.40 0.38 0.37 0.35 0.34 0.36 0.39 0.38 0.37 0.38 0.36 0.33 0.27 0.23 0.27 0.29
0.55 0.45 0.39 0.38 0.38 0.34 0.40 0.37 0.42 0.41 0.41 0.39 0.39 0.37 0.38 0.41 0.47 0.44 0.39 0.41 0.46 0.52 0.53 0.53 0.55 0.56 0.57 0.58 0.57 0.54 0.50 0.47 0.44 0.43 0.42 0.40 0.38 0.37 0.37 0.36 0.36 0.36 0.37 0.38 0.38 0.37 0.36 0.36 0.36 0.32 0.25 0.23 0.28 0.28
0.33 0.33 0.35 0.31 0.37 0.33 0.31 0.31 0.32 0.34 0.33 0.35 0.35 0.36 0.38 0.42 0.38 0.37 0.34 0.38 0.44 0.45 0.47 0.49 0.50 0.50 0.50 0.53 0.56 0.52 0.49 0.46 0.41 0.39 0.40 0.40 0.37 0.36 0.34 0.34 0.34 0.34 0.36 0.35 0.34 0.34 0.34 0.36 0.33 0.28 0.22 0.26 0.29 0.29
0.25 0.32 0.29 0.29 0.31 0.29 0.29 0.26 0.27 0.29 0.32 0.32 0.35 0.38 0.41 0.38 0.34 0.31 0.33 0.40 0.43 0.44 0.45 0.47 0.48 0.50 0.51 0.53 0.49 0.45 0.44 0.44 0.42 0.38 0.38 0.39 0.36 0.34 0.31 0.30 0.30 0.31 0.36 0.35 0.34 0.33 0.33 0.33 0.31 0.25 0.23 0.29 0.31 0.30
0.25 0.27 0.32 0.39 0.35 0.31 0.28 0.30 0.31 0.30 0.29 0.31 0.32 0.34 0.35 0.32 0.30 0.32 0.39 0.43 0.43 0.47 0.49 0.49 0.51 0.49 0.47 0.45 0.44 0.43 0.43 0.43 0.41 0.39 0.40 0.39 0.38 0.37 0.34 0.31 0.30 0.32 0.35 0.34 0.34 0.34 0.33 0.32 0.29 0.24 0.26 0.32 0.33 0.31
0.28 0.30 0.23 0.27 0.29 0.30 0.26 0.27 0.28 0.28 0.29 0.33 0.34 0.31 0.30 0.30 0.30 0.38 0.41 0.45 0.49 0.50 0.48 0.47 0.47 0.46 0.42 0.42 0.43 0.43 0.42 0.42 0.40 0.39 0.38 0.37 0.37 0.36 0.35 0.35 0.37 0.38 0.38 0.37 0.37 0.36 0.34 0.33 0.27 0.24 0.30 0.35 0.34 0.31
0.23 0.27 0.28 0.26 0.28 0.28 0.28 0.27 0.28 0.31 0.33 0.32 0.30 0.31 0.32 0.37 0.40 0.41 0.42 0.46 0.48 0.45 0.42 0.41 0.41 0.43 0.43 0.43 0.43 0.42 0.40 0.38 0.35 0.31 0.29 0.28 0.28 0.30 0.35 0.36 0.38 0.40 0.39 0.39 0.38 0.36 0.34 0.30 0.26 0.28 0.37 0.35 0.31 0.28
0.21 0.28 0.25 0.26 0.26 0.24 0.26 0.31 0.30 0.34 0.36 0.36 0.37 0.37 0.37 0.39 0.42 0.45 0.44 0.43 0.45 0.45 0.43 0.42 0.41 0.41 0.40 0.40 0.39 0.38 0.39 0.38 0.36 0.32 0.27 0.26 0.27 0.30 0.33 0.35 0.37 0.38 0.38 0.38 0.36 0.35 0.33 0.30 0.29 0.37 0.36 0.32 0.29 0.27
0.24 0.25 0.24 0.26 0.25 0.28 0.32 0.34 0.35 0.36 0.37 0.36 0.38 0.35 0.36 0.39 0.42 0.45 0.45 0.45 0.46 0.48 0.44 0.40 0.40 0.41 0.40 0.39 0.38 0.37 0.34 0.35 0.34 0.33 0.32 0.31 0.31 0.32 0.35 0.37 0.37 0.39 0.38 0.36 0.34 0.33 0.29 0.32 0.37 0.35 0.32 0.29 0.27 0.27
0.24 0.24 0.24 0.23 0.25 0.31 0.35 0.33 0.33 0.33 0.34 0.34 0.34 0.35 0.36 0.35 0.34 0.38 0.42 0.43 0.43 0.43 0.43 0.42 0.40 0.40 0.41 0.41 0.41 0.39 0.37 0.33 0.31 0.31 0.31 0.31 0.32 0.33 0.37 0.40 0.41 0.42 0.39 0.36 0.34 0.29 0.32 0.36 0.35 0.32 0.30 0.28 0.27 0.26
0.25 0.25 0.26 0.27 0.27 0.28 0.31 0.32 0.32 0.31 0.33 0.33 0.33 0.34 0.35 0.35 0.31 0.37 0.44 0.46 0.45 0.44 0.42 0.42 0.43 0.43 0.42 0.40 0.37 0.35 0.33 0.32 0.32 0.32 0.32 0.33 0.33 0.34 0.39 0.42 0.43 0.41 0.36 0.31 0.27 0.32 0.37 0.34 0.33 0.31 0.28 0.27 0.25 0.24

GFSWCAN_prec_pwat_096.txt.gz
Precipitable_Water
1.08 1.05 0.99 0.98 0.92 0.94 0.86 0.63 0.46 0.48 0.65 0.67 0.64 0.55 0.53 0.53 0.48 0.45 0.41 0.50 0.39 0.27 0.28 0.31 0.32 0.28 0.30 0.29 0.20 0.26 0.24 0.27 0.23 0.17 0.17 0.17 0.16 0.17 0.16 0.17 0.15 0.13 0.12 0.12 0.15 0.12 0.08 0.23 0.24 0.16 0.17 0.23 0.24 0.24
1.08 1.07 1.01 0.96 0.94 0.98 0.91 0.81 0.54 0.42 0.57 0.68 0.67 0.65 0.57 0.54 0.47 0.47 0.37 0.47 0.48 0.35 0.30 0.38 0.37 0.39 0.38 0.37 0.32 0.31 0.26 0.26 0.27 0.21 0.22 0.23 0.18 0.20 0.18 0.12 0.20 0.13 0.16 0.13 0.15 0.12 0.19 0.25 0.23 0.26 0.27 0.25 0.26 0.27
1.07 1.07 1.04 0.98 0.98 1.00 0.95 0.88 0.71 0.47 0.45 0.62 0.69 0.67 0.65 0.60 0.51 0.44 0.41 0.45 0.41 0.33 0.31 0.31 0.29 0.38 0.43 0.43 0.46 0.28 0.32 0.35 0.32 0.35 0.28 0.25 0.19 0.23 0.16 0.16 0.17 0.20 0.24 0.19 0.18 0.16 0.18 0.22 0.26 0.29 0.30 0.29 0.31 0.32
1.06 1.06 1.06 1.01 0.99 1.00 1.00 0.91 0.86 0.59 0.47 0.52 0.67 0.71 0.67 0.65 0.60 0.48 0.40 0.44 0.43 0.36 0.23 0.25 0.40 0.37 0.45 0.45 0.44 0.44 0.41 0.43 0.41 0.38 0.30 0.26 0.22 0.28 0.21 0.22 0.20 0.22 0.25 0.22 0.21 0.21 0.23 0.25 0.26 0.27 0.30 0.33 0.34 0.36
1.02 1.06 1.06 1.03 1.01 0.98 0.96 0.93 0.89 0.75 0.55 0.47 0.59 0.69 0.70 0.66 0.63 0.59 0.55 0.48 0.48 0.36 0.24 0.25 0.34 0.37 0.41 0.42 0.41 0.43 0.41 0.38 0.36 0.31 0.28 0.25 0.29 0.28 0.28 0.26 0.20 0.24 0.21 0.19 0.17 0.22 0.22 0.22 0.27 0.29 0.29 0.31 0.35 0.36
1.01 1.02 1.04 1.04 1.01 1.00 0.94 0.92 0.90 0.86 0.65 0.56 0.49 0.63 0.69 0.68 0.63 0.56 0.42 0.55 0.52 0.51 0.34 0.21 0.34 0.32 0.36 0.36 0.36 0.38 0.40 0.40 0.38 0.33 0.30 0.32 0.35 0.30 0.21 0.17 0.20 0.23 0.25 0.25 0.22 0.27 0.26 0.27 0.30 0.32 0.31 0.35 0.39 0.40
0.95 1.00 1.00 1.01 1.02 1.00 0.97 0.92 0.91 0.89 0.72 0.66 0.57 0.58 0.66 0.63 0.59 0.47 0.41 0.47 0.52 0.49 0.34 0.26 0.26 0.37 0.38 0.37 0.37 0.37 0.41 0.39 0.38 0.35 0.31 0.31 0.32 0.34 0.26 0.18 0.21 0.24 0.26 0.27 0.29 0.28 0.24 0.26 0.26 0.31 0.32 0.35 0.38 0.38
0.87 0.95 1.02 0.99 1.02 1.00 0.99 0.95 0.92 0.89 0.79 0.71 0.65 0.65 0.64 0.61 0.56 0.47 0.54 0.58 0.53 0.42 0.39 0.27 0.24 0.27 0.39 0.32 0.31 0.40 0.36 0.37 0.38 0.35 0.36 0.32 0.34 0.33 0.23 0.24 0.27 0.28 0.28 0.28 0.28 0.30 0.29 0.30 0.32 0.32 0.34 0.35 0.34 0.34
0.75 0.89 0.98 1.01 1.01 1.00 0.99 0.98 0.94 0.90 0.82 0.75 0.73 0.71 0.64 0.54 0.43 0.42 0.56 0.55 0.54 0.43 0.29 0.27 0.20 0.17 0.35 0.32 0.34 0.35 0.36 0.28 0.37 0.30 0.31 0.32 0.28 0.22 0.22 0.25 0.26 0.27 0.24 0.25 0.29 0.30 0.30 0.29 0.30 0.32 0.32 0.32 0.31 0.30
0.68 0.74 0.91 0.98 1.02 1.01 0.99 0.98 0.96 0.91 0.81 0.83 0.74 0.60 0.49 0.54 0.60 0.54 0.43 0.37 0.38 0.39 0.38 0.25 0.29 0.23 0.30 0.29 0.28 0.29 0.33 0.29 0.24 0.29 0.35 0.27 0.23 0.27 0.28 0.28 0.26 0.25 0.26 0.25 0.23 0.24 0.27 0.27 0.28 0.29 0.29 0.31 0.31 0.31
0.65 0.69 0.76 0.89 0.99 1.01 1.00 0.96 0.95 0.89 0.89 0.77 0.63 0.55 0.65 0.69 0.56 0.47 0.37 0.33 0.35 0.30 0.32 0.30 0.30 0.27 0.35 0.26 0.26 0.31 0.26 0.27 0.20 0.23 0.23 0.21 0.18 0.22 0.23 0.22 0.24 0.24 0.23 0.24 0.26 0.29 0.31 0.30 0.28 0.28 0.29 0.30 0.30 0.30
0.63 0.66 0.72 0.79 0.93 0.99 1.00 0.96 0.92 0.85 0.83 0.78 0.70 0.72 0.65 0.53 0.45 0.39 0.37 0.37 0.33 0.28 0.31 0.26 0.29 0.33 0.35 0.38 0.31 0.30 0.24 0.24 0.17 0.27 0.22 0.16 0.18 0.21 0.21 0.22 0.22 0.23 0.26 0.28 0.30 0.28 0.32 0.33 0.32 0.30 0.30 0.30 0.30 0.30
0.59 0.64 0.68 0.75 0.86 0.96 0.96 0.97 0.93 0.89 0.86 0.79 0.68 0.58 0.53 0.49 0.38 0.32 0.29 0.34 0.34 0.35 0.30 0.30 0.27 0.32 0.34 0.35 0.30 0.28 0.23 0.21 0.28 0.21 0.17 0.17 0.19 0.20 0.20 0.21 0.22 0.26 0.30 0.30 0.29 0.31 0.33 0.33 0.33 0.31 0.31 0.31 0.30 0.28
0.57 0.61 0.66 0.72 0.80 0.92 0.96 0.95 0.92 0.86 0.76 0.61 0.54 0.45 0.45 0.39 0.37 0.38 0.38 0.41 0.43 0.40 0.36 0.34 0.30 0.28 0.31 0.29 0.30 0.23 0.26 0.27 0.20 0.17 0.15 0.19 0.20 0.20 0.21 0.21 0.22 0.24 0.28 0.28 0.29 0.31 0.31 0.32 0.31 0.31 0.32 0.32 0.30 0.27
0.50 0.57 0.68 0.69 0.73 0.83 0.91 0.90 0.88 0.82 0.67 0.55 0.53 0.41 0.41 0.44 0.45 0.45 0.45 0.41 0.42 0.43 0.39 0.35 0.34 0.32 0.28 0.27 0.28 0.26 0.23 0.19 0.20 0.17 0.20 0.21 0.20 0.21 0.22 0.22 0.23 0.25 0.27 0.28 0.30 0.31 0.32 0.31 0.31 0.31 0.33 0.31 0.30 0.28
0.49 0.55 0.58 0.68 0.69 0.77 0.85 0.88 0.79 0.73 0.62 0.54 0.52 0.44 0.45 0.42 0.44 0.47 0.48 0.45 0.49 0.48 0.46 0.42 0.34 0.29 0.27 0.27 0.25 0.22 0.21 0.18 0.19 0.23 0.25 0.22 0.22 0.23 0.24 0.25 0.27 0.30 0.31 0.31 0.32 0.32 0.32 0.31 0.31 0.31 0.31 0.30 0.30 0.29
0.50 0.48 0.62 0.67 0.72 0.77 0.79 0.72 0.65 0.56 0.52 0.48 0.45 0.51 0.48 0.46 0.45 0.46 0.47 0.46 0.52 0.48 0.38 0.35 0.29 0.27 0.32 0.27 0.26 0.28 0.24 0.24 0.26 0.26 0.26 0.25 0.24 0.25 0.28 0.30 0.32 0.34 0.34 0.35 0.36 0.34 0.33 0.33 0.32 0.30 0.28 0.30 0.31 0.29
0.45 0.52 0.58 0.64 0.72 0.71 0.65 0.61 0.55 0.49 0.42 0.46 0.43 0.45 0.49 0.51 0.50 0.50 0.51 0.51 0.49 0.46 0.43 0.37 0.36 0.30 0.26 0.25 0.28 0.31 0.32 0.31 0.31 0.28 0.27 0.27 0.28 0.29 0.32 0.33 0.34 0.36 0.35 0.35 0.36 0.37 0.37 0.35 0.33 0.31 0.32 0.33 0.32 0.31
0.46 0.52 0.58 0.61 0.67 0.58 0.49 0.50 0.52 0.40 0.42 0.46 0.49 0.50 0.51 0.50 0.53 0.55 0.55 0.55 0.56 0.56 0.48 0.43 0.36 0.30 0.32 0.36 0.34 0.40 0.41 0.36 0.33 0.33 0.32 0.32 0.34 0.35 0.36 0.38 0.40 0.39 0.38 0.38 0.39 0.37 0.37 0.37 0.36 0.36 0.36 0.35 0.33 0.31
0.51 0.55 0.57 0.60 0.62 0.52 0.44 0.44 0.51 0.44 0.40 0.44 0.49 0.48 0.48 0.48 0.50 0.51 0.53 0.57 0.56 0.51 0.47 0.42 0.38 0.39 0.41 0.43 0.44 0.46 0.49 0.52 0.45 0.38 0.35 0.37 0.40 0.42 0.43 0.45 0.45 0.43 0.42 0.41 0.41 0.41 0.39 0.37 0.37 0.38 0.38 0.37 0.35 0.31
0.47 0.47 0.49 0.55 0.50 0.46 0.45 0.43 0.40 0.42 0.42 0.41 0.46 0.49 0.48 0.50 0.48 0.47 0.48 0.54 0.51 0.48 0.44 0.46 0.48 0.52 0.53 0.53 0.54 0.54 0.53 0.54 0.54 0.53 0.51 0.49 0.52 0.51 0.50 0.50 0.49 0.48 0.45 0.43 0.41 0.40 0.40 0.37 0.38 0.39 0.39 0.38 0.37 0.33
0.45 0.51 0.47 0.47 0.39 0.41 0.40 0.47 0.43 0.45 0.40 0.39 0.42 0.47 0.43 0.41 0.43 0.46 0.51 0.47 0.47 0.48 0.50 0.50 0.52 0.54 0.55 0.55 0.58 0.60 0.59 0.58 0.58 0.57 0.55 0.54 0.51 0.51 0.50 0.50 0.47 0.44 0.42 0.41 0.40 0.38 0.37 0.38 0.39 0.39 0.39 0.39 0.37 0.33
0.54 0.52 0.44 0.43 0.36 0.35 0.34 0.46 0.38 0.39 0.34 0.34 0.39 0.38 0.38 0.39 0.43 0.50 0.43 0.45 0.45 0.51 0.54 0.54 0.55 0.57 0.56 0.58 0.59 0.59 0.61 0.61 0.59 0.59 0.57 0.55 0.53 0.50 0.47 0.45 0.43 0.40 0.38 0.39 0.39 0.38 0.36 0.38 0.38 0.38 0.39 0.38 0.35 0.30
0.52 0.41 0.34 0.32 0.34 0.28 0.35 0.32 0.37 0.36 0.36 0.34 0.32 0.31 0.33 0.37 0.43 0.41 0.36 0.38 0.42 0.49 0.50 0.51 0.53 0.51 0.53 0.53 0.52 0.55 0.58 0.59 0.57 0.58 0.61 0.57 0.51 0.47 0.44 0.42 0.41 0.40 0.39 0.38 0.37 0.36 0.36 0.36 0.36 0.35 0.36 0.35 0.33 0.28
0.31 0.31 0.33 0.30 0.33 0.28 0.25 0.23 0.27 0.29 0.28 0.30 0.30 0.31 0.33 0.39 0.35 0.34 0.32 0.34 0.40 0.43 0.46 0.48 0.49 0.49 0.47 0.48 0.49 0.51 0.55 0.54 0.53 0.52 0.58 0.56 0.48 0.46 0.43 0.42 0.40 0.40 0.40 0.36 0.35 0.34 0.34 0.34 0.34 0.33 0.33 0.33 0.31 0.25
0.23 0.29 0.29 0.25 0.25 0.26 0.26 0.23 0.22 0.24 0.27 0.28 0.30 0.33 0.34 0.33 0.31 0.29 0.30 0.34 0.37 0.41 0.43 0.44 0.45 0.46 0.47 0.48 0.47 0.48 0.52 0.55 0.54 0.53 0.54 0.48 0.44 0.42 0.39 0.37 0.35 0.36 0.40 0.38 0.35 0.33 0.32 0.33 0.32 0.32 0.32 0.33 0.31 0.24
0.22 0.26 0.29 0.33 0.29 0.27 0.24 0.23 0.24 0.24 0.23 0.24 0.26 0.28 0.30 0.26 0.26 0.28 0.34 0.37 0.37 0.41 0.45 0.47 0.48 0.47 0.46 0.47 0.49 0.51 0.54 0.54 0.52 0.49 0.47 0.46 0.44 0.43 0.40 0.36 0.34 0.37 0.38 0.38 0.37 0.35 0.34 0.33 0.32 0.32 0.33 0.33 0.29 0.25
0.27 0.30 0.25 0.27 0.25 0.24 0.22 0.23 0.21 0.20 0.23 0.28 0.27 0.25 0.25 0.25 0.23 0.30 0.34 0.39 0.42 0.46 0.50 0.51 0.51 0.51 0.49 0.47 0.47 0.46 0.45 0.46 0.46 0.46 0.45 0.44 0.43 0.42 0.41 0.40 0.39 0.38 0.37 0.38 0.38 0.38 0.36 0.35 0.34 0.33 0.33 0.31 0.26 0.29
0.23 0.27 0.26 0.22 0.24 0.25 0.24 0.21 0.20 0.22 0.26 0.26 0.24 0.25 0.26 0.30 0.32 0.34 0.37 0.40 0.43 0.44 0.43 0.43 0.45 0.48 0.47 0.46 0.46 0.44 0.42 0.42 0.41 0.38 0.36 0.36 0.35 0.35 0.37 0.36 0.35 0.35 0.37 0.37 0.38 0.38 0.37 0.36 0.35 0.34 0.33 0.29 0.27 0.32
0.20 0.25 0.22 0.22 0.22 0.19 0.20 0.23 0.21 0.26 0.30 0.31 0.32 0.32 0.31 0.31 0.35 0.39 0.39 0.39 0.38 0.39 0.41 0.43 0.43 0.43 0.43 0.41 0.40 0.40 0.43 0.43 0.43 0.40 0.37 0.35 0.33 0.34 0.33 0.33 0.33 0.35 0.37 0.37 0.36 0.36 0.37 0.37 0.37 0.35 0.30 0.26 0.28 0.36
0.21 0.21 0.20 0.19 0.17 0.19 0.22 0.24 0.26 0.29 0.31 0.31 0.33 0.30 0.28 0.32 0.36 0.39 0.38 0.39 0.40 0.41 0.41 0.41 0.42 0.43 0.43 0.42 0.41 0.40 0.39 0.43 0.45 0.44 0.44 0.41 0.37 0.34 0.33 0.33 0.34 0.36 0.38 0.37 0.36 0.36 0.36 0.35 0.32 0.28 0.25 0.28 0.37 0.35
0.20 0.19 0.17 0.15 0.16 0.21 0.23 0.22 0.23 0.24 0.26 0.28 0.29 0.31 0.30 0.30 0.28 0.33 0.38 0.39 0.38 0.37 0.38 0.41 0.41 0.42 0.46 0.47 0.47 0.45 0.44 0.44 0.44 0.44 0.43 0.39 0.36 0.34 0.34 0.34 0.34 0.36 0.38 0.38 0.37 0.36 0.34 0.31 0.28 0.27 0.32 0.37 0.34 0.28
0.22 0.22 0.20 0.19 0.18 0.18 0.21 0.24 0.24 0.24 0.26 0.27 0.28 0.31 0.31 0.30 0.26 0.31 0.38 0.40 0.37 0.38 0.39 0.42 0.44 0.45 0.45 0.46 0.45 0.45 0.44 0.44 0.45 0.43 0.39 0.36 0.35 0.34 0.33 0.34 0.34 0.36 0.37 0.38 0.37 0.34 0.33 0.30 0.30 0.34 0.35 0.32 0.29 0.28

GFSWCAN_prec_pwat_099.txt.gz
Precipitable_Water
1.07 1.08 1.07 1.05 1.01 0.96 0.94 0.93 0.86 0.58 0.46 0.60 0.68 0.63 0.55 0.53 0.48 0.45 0.41 0.49 0.39 0.28 0.28 0.30 0.31 0.25 0.27 0.27 0.20 0.25 0.24 0.26 0.22 0.17 0.16 0.16 0.15 0.16 0.16 0.17 0.14 0.13 0.12 0.12 0.15 0.12 0.08 0.21 0.23 0.15 0.17 0.22 0.23 0.24
1.06 1.05 1.07 1.05 1.02 1.00 0.99 0.97 0.88 0.81 0.53 0.52 0.62 0.71 0.65 0.57 0.50 0.46 0.37 0.49 0.48 0.35 0.30 0.38 0.37 0.39 0.37 0.36 0.30 0.30 0.25 0.26 0.27 0.21 0.21 0.22 0.18 0.20 0.17 0.12 0.20 0.14 0.16 0.14 0.15 0.13 0.19 0.24 0.22 0.26 0.26 0.24 0.25 0.26
1.02 1.04 1.04 1.05 1.02 1.00 1.00 0.99 0.94 0.88 0.71 0.55 0.57 0.66 0.71 0.66 0.59 0.47 0.40 0.45 0.42 0.33 0.29 0.29 0.28 0.37 0.43 0.41 0.45 0.28 0.31 0.34 0.32 0.37 0.28 0.25 0.18 0.23 0.16 0.16 0.18 0.20 0.24 0.20 0.19 0.18 0.20 0.23 0.27 0.29 0.30 0.30 0.32 0.34
0.94 0.99 1.01 1.04 1.03 0.99 0.99 0.99 0.94 0.90 0.83 0.67 0.59 0.60 0.67 0.70 0.65 0.59 0.47 0.47 0.44 0.36 0.23 0.23 0.38 0.34 0.42 0.43 0.43 0.43 0.39 0.41 0.39 0.38 0.30 0.26 0.21 0.28 0.20 0.20 0.18 0.19 0.21 0.18 0.18 0.18 0.20 0.21 0.22 0.24 0.25 0.29 0.31 0.34
0.89 0.94 0.97 1.00 1.03 1.01 0.98 0.97 0.94 0.89 0.88 0.72 0.67 0.65 0.62 0.66 0.66 0.63 0.58 0.54 0.52 0.41 0.28 0.28 0.35 0.35 0.38 0.39 0.38 0.39 0.37 0.36 0.34 0.29 0.26 0.24 0.29 0.27 0.26 0.24 0.17 0.21 0.17 0.14 0.12 0.19 0.19 0.19 0.23 0.25 0.24 0.24 0.28 0.29
0.83 0.88 0.94 0.99 0.98 0.99 0.98 0.97 0.94 0.90 0.88 0.79 0.69 0.68 0.70 0.66 0.64 0.55 0.43 0.56 0.55 0.52 0.37 0.26 0.38 0.37 0.39 0.40 0.39 0.38 0.37 0.36 0.35 0.32 0.29 0.32 0.35 0.29 0.21 0.18 0.23 0.25 0.27 0.26 0.22 0.26 0.26 0.27 0.28 0.29 0.27 0.27 0.29 0.31
0.75 0.83 0.88 0.92 0.95 0.96 0.97 0.95 0.94 0.91 0.88 0.84 0.71 0.70 0.74 0.72 0.62 0.48 0.42 0.49 0.54 0.50 0.35 0.26 0.25 0.36 0.39 0.38 0.36 0.36 0.40 0.39 0.39 0.36 0.33 0.33 0.35 0.37 0.29 0.21 0.24 0.27 0.29 0.29 0.30 0.29 0.25 0.28 0.26 0.31 0.31 0.32 0.33 0.33
0.66 0.69 0.80 0.88 0.90 0.92 0.95 0.94 0.93 0.92 0.89 0.87 0.75 0.73 0.76 0.75 0.70 0.55 0.58 0.63 0.59 0.45 0.38 0.26 0.23 0.24 0.38 0.31 0.30 0.39 0.34 0.37 0.37 0.35 0.35 0.32 0.34 0.34 0.23 0.24 0.27 0.28 0.29 0.29 0.29 0.30 0.30 0.32 0.32 0.31 0.33 0.34 0.32 0.32
0.65 0.65 0.66 0.74 0.86 0.92 0.98 0.95 0.93 0.92 0.90 0.86 0.78 0.77 0.72 0.67 0.57 0.56 0.66 0.63 0.60 0.48 0.32 0.27 0.19 0.16 0.32 0.29 0.33 0.33 0.35 0.26 0.35 0.29 0.30 0.33 0.28 0.21 0.23 0.24 0.26 0.27 0.27 0.26 0.27 0.28 0.28 0.29 0.29 0.30 0.31 0.33 0.32 0.31
0.58 0.60 0.61 0.64 0.72 0.84 0.95 0.97 0.97 0.92 0.89 0.85 0.78 0.62 0.52 0.62 0.72 0.69 0.59 0.50 0.48 0.47 0.46 0.32 0.30 0.22 0.28 0.27 0.27 0.28 0.32 0.27 0.23 0.28 0.34 0.27 0.21 0.25 0.28 0.29 0.30 0.29 0.28 0.28 0.22 0.20 0.22 0.25 0.29 0.29 0.31 0.33 0.33 0.32
0.53 0.56 0.60 0.62 0.63 0.74 0.86 0.92 0.94 0.91 0.86 0.78 0.63 0.56 0.66 0.74 0.61 0.54 0.45 0.42 0.45 0.42 0.46 0.43 0.39 0.30 0.36 0.26 0.26 0.31 0.27 0.28 0.21 0.25 0.25 0.22 0.18 0.22 0.27 0.24 0.26 0.27 0.26 0.25 0.24 0.26 0.28 0.31 0.31 0.31 0.31 0.33 0.34 0.32
0.46 0.51 0.55 0.61 0.62 0.67 0.76 0.86 0.89 0.82 0.77 0.76 0.69 0.70 0.66 0.55 0.49 0.42 0.38 0.41 0.39 0.37 0.44 0.42 0.40 0.43 0.42 0.41 0.31 0.31 0.25 0.27 0.19 0.28 0.23 0.17 0.20 0.24 0.24 0.23 0.23 0.23 0.23 0.25 0.29 0.30 0.31 0.31 0.34 0.33 0.31 0.32 0.33 0.33
0.45 0.46 0.49 0.56 0.60 0.62 0.67 0.75 0.84 0.84 0.83 0.76 0.65 0.56 0.51 0.49 0.38 0.32 0.29 0.34 0.38 0.44 0.44 0.42 0.37 0.40 0.42 0.43 0.36 0.31 0.23 0.21 0.28 0.22 0.18 0.18 0.21 0.21 0.20 0.20 0.21 0.25 0.27 0.28 0.29 0.29 0.30 0.32 0.35 0.34 0.32 0.34 0.34 0.33
0.44 0.47 0.49 0.55 0.61 0.62 0.65 0.72 0.77 0.80 0.71 0.56 0.49 0.41 0.42 0.38 0.36 0.36 0.37 0.40 0.44 0.45 0.44 0.44 0.42 0.39 0.42 0.37 0.36 0.27 0.30 0.28 0.20 0.18 0.17 0.21 0.22 0.21 0.20 0.22 0.22 0.23 0.25 0.27 0.30 0.32 0.33 0.35 0.36 0.37 0.37 0.37 0.35 0.33
0.42 0.46 0.48 0.48 0.53 0.58 0.64 0.71 0.71 0.74 0.60 0.49 0.48 0.37 0.38 0.41 0.42 0.41 0.43 0.42 0.44 0.47 0.45 0.42 0.41 0.40 0.36 0.33 0.34 0.32 0.28 0.24 0.23 0.19 0.21 0.23 0.22 0.21 0.21 0.22 0.24 0.26 0.28 0.29 0.32 0.34 0.35 0.36 0.36 0.37 0.38 0.37 0.35 0.33
0.40 0.42 0.42 0.44 0.47 0.58 0.68 0.73 0.64 0.63 0.55 0.48 0.45 0.40 0.39 0.39 0.41 0.43 0.44 0.44 0.49 0.48 0.50 0.44 0.37 0.35 0.33 0.32 0.30 0.28 0.27 0.25 0.25 0.27 0.28 0.27 0.24 0.25 0.25 0.26 0.27 0.30 0.31 0.33 0.35 0.36 0.36 0.36 0.36 0.37 0.38 0.37 0.35 0.33
0.39 0.37 0.42 0.48 0.52 0.59 0.68 0.62 0.52 0.42 0.44 0.42 0.37 0.43 0.39 0.38 0.38 0.42 0.46 0.46 0.53 0.47 0.42 0.41 0.35 0.34 0.38 0.34 0.31 0.34 0.32 0.28 0.29 0.31 0.33 0.30 0.27 0.27 0.28 0.29 0.31 0.33 0.34 0.35 0.36 0.37 0.37 0.38 0.39 0.39 0.37 0.37 0.35 0.34
0.35 0.41 0.43 0.52 0.56 0.57 0.57 0.56 0.47 0.44 0.32 0.37 0.35 0.35 0.40 0.40 0.40 0.44 0.48 0.51 0.49 0.46 0.44 0.38 0.39 0.34 0.33 0.31 0.30 0.33 0.34 0.34 0.35 0.34 0.35 0.33 0.32 0.31 0.32 0.32 0.34 0.36 0.40 0.41 0.43 0.44 0.43 0.41 0.38 0.37 0.38 0.39 0.37 0.35
0.38 0.41 0.42 0.48 0.56 0.51 0.44 0.45 0.49 0.36 0.39 0.42 0.36 0.37 0.40 0.41 0.46 0.48 0.50 0.54 0.55 0.53 0.47 0.42 0.36 0.34 0.35 0.38 0.40 0.39 0.39 0.39 0.34 0.34 0.38 0.43 0.45 0.38 0.36 0.36 0.37 0.39 0.44 0.48 0.48 0.49 0.48 0.48 0.46 0.45 0.43 0.40 0.36 0.36
0.40 0.44 0.45 0.50 0.56 0.46 0.39 0.40 0.46 0.38 0.36 0.40 0.40 0.36 0.39 0.41 0.45 0.46 0.47 0.51 0.52 0.50 0.44 0.41 0.37 0.37 0.39 0.44 0.45 0.47 0.50 0.48 0.45 0.43 0.44 0.47 0.49 0.49 0.47 0.47 0.46 0.50 0.53 0.53 0.52 0.51 0.50 0.48 0.46 0.44 0.42 0.41 0.38 0.36
0.40 0.42 0.44 0.50 0.47 0.48 0.42 0.38 0.36 0.38 0.39 0.36 0.38 0.39 0.38 0.40 0.40 0.41 0.43 0.50 0.46 0.42 0.40 0.42 0.43 0.47 0.50 0.50 0.51 0.53 0.54 0.54 0.52 0.52 0.53 0.51 0.54 0.53 0.54 0.57 0.56 0.54 0.53 0.52 0.50 0.49 0.48 0.43 0.42 0.42 0.41 0.40 0.40 0.39
0.40 0.47 0.43 0.47 0.40 0.40 0.37 0.41 0.37 0.40 0.36 0.34 0.34 0.38 0.35 0.33 0.34 0.38 0.46 0.42 0.40 0.42 0.44 0.44 0.46 0.49 0.50 0.51 0.53 0.57 0.58 0.58 0.58 0.56 0.57 0.57 0.55 0.57 0.59 0.60 0.57 0.53 0.51 0.49 0.47 0.44 0.42 0.43 0.43 0.41 0.40 0.39 0.40 0.39
0.46 0.47 0.42 0.41 0.34 0.32 0.27 0.36 0.28 0.29 0.25 0.25 0.30 0.28 0.29 0.30 0.34 0.43 0.36 0.39 0.38 0.42 0.46 0.47 0.48 0.51 0.50 0.53 0.55 0.56 0.57 0.55 0.53 0.54 0.55 0.56 0.58 0.60 0.62 0.62 0.61 0.57 0.52 0.48 0.46 0.43 0.41 0.42 0.42 0.41 0.40 0.39 0.37 0.37
0.48 0.39 0.32 0.30 0.32 0.26 0.30 0.26 0.29 0.26 0.26 0.23 0.24 0.24 0.26 0.29 0.35 0.32 0.29 0.31 0.33 0.39 0.40 0.42 0.46 0.47 0.49 0.50 0.50 0.51 0.54 0.55 0.54 0.54 0.55 0.54 0.54 0.56 0.57 0.58 0.61 0.58 0.50 0.46 0.44 0.43 0.43 0.42 0.42 0.40 0.38 0.36 0.36 0.35
0.29 0.30 0.31 0.25 0.32 0.27 0.23 0.23 0.24 0.24 0.20 0.22 0.23 0.24 0.27 0.33 0.29 0.28 0.25 0.25 0.28 0.31 0.35 0.40 0.43 0.45 0.43 0.44 0.47 0.51 0.55 0.54 0.51 0.50 0.53 0.53 0.53 0.54 0.54 0.55 0.56 0.50 0.48 0.43 0.42 0.41 0.40 0.41 0.40 0.38 0.36 0.36 0.35 0.34
0.22 0.27 0.25 0.24 0.23 0.22 0.21 0.18 0.19 0.19 0.20 0.21 0.22 0.26 0.28 0.28 0.26 0.24 0.23 0.24 0.27 0.30 0.33 0.36 0.39 0.41 0.41 0.44 0.46 0.48 0.50 0.54 0.53 0.50 0.52 0.53 0.53 0.51 0.51 0.48 0.42 0.41 0.46 0.45 0.42 0.40 0.39 0.39 0.38 0.36 0.35 0.35 0.34 0.33
0.22 0.21 0.25 0.31 0.29 0.29 0.24 0.23 0.25 0.23 0.21 0.19 0.22 0.25 0.26 0.22 0.21 0.22 0.26 0.30 0.33 0.36 0.40 0.42 0.43 0.43 0.42 0.44 0.48 0.51 0.53 0.53 0.51 0.51 0.54 0.53 0.54 0.52 0.47 0.42 0.40 0.43 0.45 0.44 0.41 0.40 0.40 0.39 0.37 0.36 0.34 0.34 0.34 0.33
0.26 0.27 0.20 0.23 0.24 0.25 0.24 0.23 0.22 0.20 0.20 0.23 0.23 0.21 0.20 0.19 0.17 0.22 0.27 0.32 0.35 0.37 0.38 0.42 0.48 0.54 0.52 0.51 0.52 0.51 0.51 0.51 0.50 0.49 0.49 0.48 0.47 0.47 0.46 0.46 0.45 0.44 0.42 0.41 0.40 0.40 0.39 0.39 0.37 0.35 0.34 0.33 0.33 0.34
0.24 0.28 0.25 0.20 0.21 0.22 0.23 0.21 0.20 0.21 0.23 0.21 0.19 0.20 0.20 0.23 0.25 0.26 0.29 0.34 0.36 0.36 0.34 0.35 0.39 0.46 0.47 0.47 0.49 0.49 0.49 0.48 0.43 0.38 0.39 0.39 0.40 0.41 0.43 0.43 0.42 0.41 0.41 0.39 0.39 0.39 0.39 0.38 0.36 0.36 0.35 0.34 0.33 0.33
0.21 0.25 0.23 0.22 0.20 0.19 0.21 0.26 0.24 0.28 0.31 0.30 0.29 0.27 0.25 0.23 0.26 0.32 0.32 0.32 0.32 0.32 0.34 0.37 0.38 0.39 0.40 0.41 0.42 0.44 0.47 0.48 0.45 0.40 0.38 0.39 0.41 0.43 0.42 0.40 0.39 0.39 0.39 0.37 0.38 0.38 0.39 0.37 0.36 0.35 0.34 0.34 0.33 0.30
0.24 0.24 0.22 0.21 0.18 0.19 0.21 0.24 0.27 0.28 0.27 0.26 0.27 0.23 0.19 0.21 0.24 0.28 0.28 0.28 0.29 0.32 0.32 0.33 0.34 0.37 0.38 0.40 0.42 0.42 0.42 0.46 0.44 0.44 0.45 0.45 0.45 0.44 0.44 0.43 0.40 0.39 0.38 0.38 0.37 0.38 0.37 0.35 0.34 0.33 0.33 0.32 0.30 0.25
0.19 0.18 0.17 0.17 0.17 0.21 0.23 0.22 0.22 0.22 0.22 0.21 0.18 0.20 0.19 0.19 0.17 0.19 0.23 0.27 0.27 0.28 0.29 0.31 0.32 0.34 0.38 0.40 0.43 0.46 0.47 0.47 0.46 0.45 0.45 0.46 0.46 0.46 0.46 0.44 0.40 0.38 0.37 0.37 0.37 0.37 0.36 0.34 0.33 0.33 0.32 0.28 0.25 0.26
0.22 0.21 0.20 0.20 0.19 0.19 0.21 0.22 0.20 0.19 0.18 0.17 0.15 0.17 0.19 0.20 0.17 0.18 0.24 0.30 0.30 0.30 0.33 0.34 0.35 0.37 0.39 0.40 0.42 0.45 0.48 0.49 0.49 0.49 0.48 0.48 0.47 0.47 0.45 0.41 0.39 0.37 0.36 0.36 0.36 0.36 0.35 0.33 0.32 0.31 0.28 0.25 0.32 0.36

GFSWCAN_prec_pwat_102.txt.gz
Precipitable_Water
1.03 1.04 1.04 1.05 1.02 1.01 0.99 0.98 0.97 0.91 0.80 0.52 0.55 0.66 0.68 0.60 0.48 0.41 0.37 0.45 0.38 0.29 0.29 0.31 0.31 0.26 0.27 0.27 0.20 0.25 0.24 0.26 0.24 0.17 0.16 0.16 0.16 0.17 0.17 0.17 0.15 0.15 0.14 0.15 0.18 0.15 0.11 0.22 0.25 0.16 0.19 0.21 0.24 0.27
0.99 1.01 1.03 1.04 1.02 1.00 0.99 0.99 0.99 0.94 0.90 0.74 0.63 0.62 0.67 0.66 0.62 0.51 0.34 0.43 0.43 0.32 0.30 0.38 0.38 0.39 0.36 0.34 0.29 0.29 0.24 0.25 0.26 0.21 0.21 0.21 0.17 0.20 0.18 0.13 0.20 0.14 0.17 0.14 0.15 0.12 0.17 0.22 0.21 0.25 0.24 0.23 0.24 0.26
0.94 0.95 1.00 1.02 1.03 1.01 0.99 0.98 0.98 0.95 0.89 0.83 0.71 0.73 0.69 0.67 0.65 0.57 0.47 0.48 0.42 0.30 0.27 0.28 0.28 0.37 0.42 0.42 0.45 0.28 0.30 0.33 0.30 0.34 0.27 0.24 0.17 0.22 0.15 0.16 0.17 0.18 0.20 0.16 0.15 0.15 0.16 0.19 0.22 0.24 0.26 0.25 0.27 0.29
0.90 0.91 0.94 0.97 0.98 1.00 1.00 0.98 0.99 0.95 0.89 0.87 0.75 0.71 0.76 0.73 0.68 0.65 0.54 0.53 0.48 0.39 0.27 0.27 0.37 0.33 0.42 0.41 0.41 0.42 0.37 0.39 0.38 0.36 0.28 0.24 0.19 0.24 0.18 0.18 0.15 0.17 0.18 0.16 0.16 0.17 0.19 0.21 0.23 0.24 0.24 0.26 0.27 0.30
0.85 0.86 0.89 0.94 0.96 0.96 0.98 0.98 0.97 0.97 0.91 0.87 0.83 0.70 0.72 0.75 0.76 0.70 0.63 0.59 0.55 0.40 0.29 0.31 0.39 0.43 0.45 0.43 0.38 0.41 0.41 0.39 0.35 0.29 0.26 0.23 0.28 0.26 0.25 0.24 0.18 0.23 0.19 0.18 0.16 0.21 0.21 0.21 0.24 0.28 0.27 0.26 0.28 0.28
0.82 0.80 0.82 0.87 0.92 0.94 0.97 0.97 0.95 0.95 0.93 0.88 0.86 0.74 0.71 0.70 0.75 0.68 0.53 0.62 0.61 0.57 0.38 0.25 0.37 0.36 0.40 0.40 0.39 0.39 0.40 0.39 0.37 0.33 0.32 0.35 0.39 0.32 0.24 0.20 0.25 0.28 0.29 0.28 0.24 0.27 0.26 0.28 0.30 0.32 0.30 0.31 0.31 0.30
0.74 0.75 0.76 0.79 0.85 0.90 0.91 0.94 0.95 0.95 0.91 0.89 0.85 0.80 0.73 0.73 0.69 0.57 0.52 0.59 0.62 0.60 0.44 0.34 0.29 0.34 0.36 0.37 0.37 0.36 0.40 0.38 0.37 0.35 0.32 0.32 0.33 0.36 0.28 0.19 0.25 0.29 0.30 0.31 0.31 0.30 0.26 0.28 0.27 0.33 0.34 0.34 0.34 0.34
0.61 0.65 0.71 0.73 0.74 0.81 0.86 0.89 0.93 0.93 0.91 0.88 0.86 0.81 0.76 0.76 0.73 0.62 0.65 0.70 0.68 0.56 0.50 0.37 0.36 0.36 0.41 0.28 0.25 0.35 0.32 0.34 0.35 0.33 0.33 0.30 0.33 0.32 0.21 0.23 0.28 0.31 0.31 0.30 0.30 0.31 0.29 0.30 0.30 0.32 0.34 0.35 0.33 0.33
0.56 0.59 0.63 0.66 0.67 0.68 0.73 0.84 0.91 0.92 0.93 0.87 0.85 0.82 0.73 0.67 0.59 0.62 0.71 0.69 0.66 0.54 0.41 0.39 0.34 0.31 0.47 0.39 0.36 0.33 0.33 0.25 0.34 0.27 0.28 0.30 0.25 0.18 0.20 0.24 0.27 0.29 0.29 0.29 0.31 0.31 0.29 0.27 0.24 0.26 0.31 0.32 0.32 0.33
0.51 0.53 0.56 0.58 0.61 0.64 0.66 0.74 0.88 0.96 0.92 0.89 0.81 0.65 0.51 0.62 0.71 0.71 0.61 0.53 0.51 0.52 0.49 0.40 0.43 0.35 0.43 0.42 0.38 0.37 0.37 0.29 0.24 0.27 0.33 0.26 0.21 0.24 0.27 0.28 0.28 0.29 0.31 0.31 0.27 0.24 0.24 0.24 0.23 0.26 0.30 0.33 0.34 0.34
0.47 0.48 0.51 0.55 0.57 0.62 0.64 0.67 0.76 0.83 0.86 0.76 0.63 0.59 0.68 0.74 0.63 0.54 0.46 0.43 0.44 0.38 0.43 0.44 0.43 0.38 0.45 0.36 0.36 0.40 0.36 0.35 0.26 0.27 0.25 0.22 0.18 0.21 0.26 0.26 0.26 0.26 0.28 0.28 0.27 0.25 0.25 0.26 0.27 0.30 0.30 0.33 0.35 0.36
0.41 0.44 0.47 0.50 0.53 0.57 0.63 0.65 0.72 0.71 0.71 0.73 0.69 0.72 0.68 0.57 0.50 0.42 0.38 0.40 0.38 0.36 0.42 0.42 0.43 0.45 0.44 0.46 0.39 0.40 0.33 0.33 0.25 0.35 0.28 0.19 0.20 0.24 0.25 0.24 0.24 0.23 0.22 0.21 0.23 0.24 0.26 0.28 0.30 0.33 0.34 0.34 0.36 0.38
0.38 0.39 0.43 0.46 0.49 0.51 0.59 0.64 0.69 0.70 0.73 0.68 0.61 0.54 0.51 0.49 0.38 0.32 0.27 0.31 0.35 0.40 0.42 0.43 0.40 0.45 0.46 0.45 0.39 0.36 0.31 0.30 0.36 0.29 0.26 0.26 0.25 0.25 0.24 0.23 0.22 0.23 0.25 0.27 0.28 0.28 0.29 0.31 0.33 0.36 0.37 0.38 0.39 0.40
0.34 0.35 0.36 0.39 0.44 0.46 0.52 0.61 0.67 0.64 0.60 0.43 0.44 0.36 0.36 0.35 0.36 0.35 0.35 0.36 0.42 0.44 0.43 0.44 0.41 0.40 0.43 0.39 0.39 0.32 0.35 0.35 0.27 0.24 0.26 0.29 0.30 0.29 0.27 0.25 0.24 0.25 0.27 0.29 0.30 0.31 0.32 0.34 0.37 0.39 0.40 0.42 0.41 0.41
0.34 0.34 0.35 0.36 0.39 0.44 0.47 0.58 0.63 0.64 0.47 0.43 0.37 0.31 0.30 0.36 0.39 0.40 0.42 0.41 0.44 0.46 0.44 0.41 0.39 0.39 0.37 0.35 0.35 0.33 0.28 0.25 0.27 0.25 0.28 0.31 0.32 0.28 0.25 0.26 0.27 0.28 0.29 0.30 0.32 0.32 0.33 0.34 0.35 0.37 0.39 0.40 0.40 0.41
0.36 0.34 0.32 0.33 0.33 0.40 0.45 0.51 0.60 0.56 0.48 0.43 0.38 0.30 0.34 0.33 0.35 0.39 0.41 0.41 0.46 0.46 0.47 0.43 0.38 0.35 0.33 0.33 0.30 0.28 0.26 0.24 0.26 0.31 0.35 0.39 0.31 0.27 0.28 0.29 0.30 0.32 0.33 0.33 0.33 0.33 0.34 0.36 0.37 0.38 0.39 0.40 0.41 0.42
0.37 0.32 0.34 0.35 0.40 0.47 0.53 0.52 0.50 0.42 0.41 0.38 0.33 0.30 0.28 0.30 0.32 0.37 0.40 0.42 0.49 0.46 0.40 0.40 0.36 0.35 0.38 0.32 0.29 0.32 0.29 0.31 0.36 0.38 0.38 0.37 0.32 0.29 0.30 0.31 0.33 0.36 0.38 0.39 0.39 0.38 0.39 0.46 0.48 0.48 0.46 0.43 0.43 0.43
0.34 0.37 0.37 0.38 0.44 0.46 0.46 0.45 0.42 0.40 0.34 0.36 0.33 0.32 0.31 0.27 0.29 0.34 0.39 0.43 0.43 0.43 0.42 0.39 0.42 0.34 0.31 0.29 0.30 0.35 0.39 0.39 0.42 0.42 0.41 0.38 0.35 0.33 0.35 0.36 0.39 0.40 0.41 0.44 0.44 0.44 0.44 0.46 0.53 0.52 0.52 0.50 0.48 0.46
0.37 0.38 0.38 0.37 0.42 0.41 0.34 0.37 0.40 0.29 0.30 0.35 0.40 0.37 0.34 0.35 0.37 0.35 0.36 0.41 0.45 0.46 0.44 0.42 0.37 0.32 0.30 0.35 0.37 0.39 0.39 0.43 0.44 0.44 0.44 0.39 0.37 0.38 0.38 0.39 0.41 0.42 0.45 0.47 0.48 0.49 0.53 0.56 0.56 0.55 0.54 0.51 0.46 0.44
0.40 0.39 0.39 0.39 0.46 0.37 0.32 0.34 0.42 0.31 0.25 0.29 0.32 0.32 0.39 0.37 0.41 0.42 0.43 0.42 0.41 0.41 0.38 0.35 0.34 0.33 0.33 0.38 0.41 0.42 0.43 0.45 0.45 0.46 0.50 0.56 0.60 0.58 0.47 0.49 0.50 0.51 0.53 0.57 0.58 0.58 0.57 0.56 0.55 0.54 0.53 0.48 0.44 0.42
0.42 0.40 0.38 0.37 0.40 0.42 0.37 0.33 0.31 0.35 0.36 0.31 0.34 0.34 0.33 0.37 0.36 0.38 0.39 0.45 0.38 0.34 0.32 0.35 0.35 0.39 0.43 0.44 0.45 0.45 0.45 0.46 0.45 0.46 0.47 0.50 0.57 0.58 0.60 0.60 0.57 0.54 0.55 0.60 0.58 0.58 0.57 0.55 0.52 0.51 0.49 0.47 0.45 0.44
0.40 0.42 0.36 0.36 0.34 0.37 0.33 0.35 0.34 0.37 0.33 0.31 0.31 0.33 0.29 0.27 0.29 0.33 0.39 0.36 0.34 0.35 0.36 0.35 0.37 0.41 0.43 0.44 0.45 0.47 0.48 0.49 0.51 0.51 0.52 0.53 0.52 0.54 0.54 0.55 0.54 0.54 0.56 0.57 0.59 0.61 0.61 0.60 0.55 0.51 0.47 0.45 0.46 0.44
0.45 0.41 0.36 0.35 0.30 0.29 0.25 0.36 0.28 0.29 0.24 0.26 0.29 0.26 0.26 0.25 0.28 0.36 0.31 0.31 0.29 0.30 0.33 0.36 0.37 0.40 0.41 0.43 0.46 0.47 0.49 0.49 0.49 0.50 0.51 0.52 0.53 0.53 0.53 0.54 0.55 0.54 0.55 0.59 0.61 0.59 0.60 0.59 0.52 0.48 0.46 0.45 0.44 0.41
0.45 0.34 0.28 0.25 0.27 0.24 0.29 0.25 0.28 0.26 0.26 0.23 0.21 0.19 0.20 0.22 0.27 0.26 0.23 0.24 0.25 0.28 0.30 0.33 0.35 0.34 0.36 0.38 0.38 0.40 0.45 0.49 0.49 0.51 0.53 0.53 0.52 0.52 0.53 0.53 0.55 0.56 0.56 0.58 0.59 0.58 0.56 0.51 0.49 0.47 0.44 0.42 0.41 0.39
0.26 0.25 0.26 0.20 0.28 0.25 0.22 0.22 0.23 0.23 0.19 0.19 0.19 0.18 0.19 0.25 0.22 0.22 0.19 0.19 0.21 0.23 0.27 0.30 0.33 0.34 0.33 0.35 0.37 0.38 0.44 0.47 0.45 0.46 0.51 0.54 0.53 0.53 0.53 0.54 0.54 0.55 0.56 0.55 0.54 0.51 0.47 0.46 0.46 0.46 0.43 0.41 0.39 0.38
0.20 0.22 0.19 0.21 0.22 0.23 0.21 0.18 0.19 0.19 0.21 0.21 0.22 0.23 0.25 0.24 0.22 0.19 0.18 0.17 0.20 0.25 0.28 0.34 0.37 0.39 0.40 0.41 0.38 0.38 0.40 0.47 0.47 0.46 0.51 0.54 0.54 0.52 0.50 0.50 0.50 0.52 0.56 0.53 0.49 0.46 0.44 0.45 0.45 0.44 0.41 0.40 0.39 0.36
0.19 0.17 0.26 0.29 0.24 0.27 0.24 0.23 0.22 0.22 0.21 0.20 0.20 0.20 0.22 0.18 0.17 0.17 0.18 0.24 0.27 0.33 0.37 0.37 0.37 0.37 0.38 0.42 0.49 0.51 0.50 0.48 0.47 0.47 0.52 0.54 0.54 0.55 0.53 0.50 0.49 0.51 0.51 0.48 0.46 0.45 0.44 0.44 0.43 0.42 0.40 0.38 0.37 0.36
0.22 0.22 0.19 0.26 0.26 0.25 0.20 0.19 0.19 0.20 0.20 0.22 0.22 0.20 0.20 0.21 0.17 0.22 0.25 0.29 0.31 0.32 0.33 0.33 0.35 0.37 0.38 0.40 0.45 0.45 0.50 0.52 0.50 0.50 0.51 0.52 0.51 0.52 0.51 0.48 0.48 0.48 0.47 0.47 0.45 0.44 0.43 0.42 0.41 0.39 0.38 0.36 0.36 0.36
0.18 0.19 0.21 0.20 0.23 0.24 0.24 0.23 0.21 0.21 0.23 0.23 0.23 0.23 0.24 0.25 0.25 0.27 0.29 0.31 0.31 0.27 0.24 0.24 0.26 0.30 0.31 0.35 0.39 0.42 0.45 0.47 0.44 0.40 0.40 0.42 0.41 0.43 0.45 0.46 0.46 0.46 0.45 0.44 0.44 0.43 0.42 0.41 0.41 0.39 0.37 0.37 0.36 0.35
0.17 0.21 0.19 0.19 0.21 0.20 0.23 0.27 0.24 0.26 0.27 0.26 0.27 0.25 0.24 0.23 0.25 0.32 0.30 0.28 0.24 0.21 0.19 0.21 0.22 0.23 0.23 0.26 0.30 0.35 0.40 0.43 0.47 0.45 0.43 0.43 0.42 0.43 0.44 0.44 0.44 0.45 0.44 0.42 0.41 0.41 0.42 0.42 0.41 0.38 0.36 0.35 0.34 0.34
0.22 0.22 0.20 0.21 0.18 0.19 0.21 0.24 0.25 0.25 0.26 0.25 0.27 0.25 0.21 0.23 0.23 0.24 0.24 0.22 0.20 0.19 0.18 0.17 0.20 0.23 0.22 0.22 0.25 0.29 0.32 0.40 0.42 0.45 0.49 0.50 0.47 0.44 0.44 0.45 0.46 0.46 0.45 0.43 0.41 0.40 0.40 0.40 0.38 0.36 0.35 0.34 0.34 0.34
0.22 0.19 0.18 0.17 0.17 0.21 0.24 0.23 0.24 0.23 0.22 0.21 0.20 0.20 0.20 0.19 0.17 0.18 0.18 0.19 0.17 0.15 0.15 0.17 0.19 0.19 0.24 0.26 0.28 0.32 0.34 0.38 0.40 0.42 0.46 0.51 0.50 0.47 0.46 0.46 0.48 0.47 0.46 0.44 0.41 0.39 0.39 0.38 0.37 0.36 0.34 0.33 0.33 0.32
0.21 0.21 0.20 0.21 0.20 0.19 0.19 0.21 0.20 0.19 0.19 0.18 0.17 0.18 0.19 0.18 0.15 0.15 0.19 0.20 0.17 0.17 0.18 0.21 0.24 0.28 0.30 0.31 0.32 0.33 0.34 0.37 0.40 0.42 0.44 0.46 0.50 0.49 0.46 0.49 0.52 0.48 0.46 0.43 0.40 0.39 0.38 0.38 0.35 0.34 0.33 0.33 0.32 0.28

GFSWCAN_prec_pwat_105.txt.gz
Precipitable_Water
0.91 0.94 0.98 0.99 1.02 1.01 1.00 0.96 0.98 0.97 0.93 0.85 0.67 0.63 0.63 0.64 0.63 0.51 0.42 0.45 0.38 0.29 0.28 0.28 0.28 0.23 0.24 0.24 0.18 0.27 0.23 0.26 0.25 0.19 0.17 0.17 0.16 0.18 0.16 0.17 0.15 0.15 0.15 0.15 0.17 0.15 0.10 0.21 0.20 0.13 0.17 0.19 0.22 0.22
0.92 0.92 0.94 0.97 1.00 1.02 1.01 0.97 0.96 0.97 0.93 0.88 0.80 0.68 0.75 0.73 0.62 0.57 0.46 0.52 0.49 0.34 0.30 0.36 0.34 0.35 0.32 0.31 0.26 0.28 0.25 0.25 0.26 0.21 0.21 0.21 0.17 0.19 0.15 0.11 0.19 0.12 0.14 0.13 0.13 0.12 0.19 0.20 0.18 0.22 0.23 0.22 0.24 0.24
0.93 0.91 0.92 0.95 0.97 1.00 1.02 1.01 0.96 0.97 0.94 0.88 0.87 0.75 0.71 0.75 0.75 0.69 0.56 0.51 0.49 0.40 0.37 0.35 0.30 0.38 0.39 0.37 0.40 0.23 0.29 0.31 0.29 0.33 0.26 0.23 0.16 0.20 0.14 0.15 0.15 0.17 0.18 0.14 0.13 0.14 0.16 0.19 0.22 0.24 0.27 0.25 0.27 0.28
0.91 0.91 0.89 0.90 0.93 0.98 0.97 0.99 0.99 0.95 0.96 0.92 0.86 0.82 0.74 0.73 0.73 0.74 0.64 0.66 0.58 0.45 0.30 0.32 0.41 0.37 0.43 0.44 0.44 0.44 0.38 0.37 0.35 0.35 0.28 0.24 0.19 0.24 0.17 0.18 0.18 0.19 0.21 0.18 0.17 0.20 0.22 0.23 0.24 0.26 0.26 0.27 0.27 0.28
0.87 0.88 0.87 0.85 0.88 0.94 0.97 0.97 0.98 0.97 0.95 0.93 0.88 0.85 0.76 0.73 0.71 0.72 0.71 0.69 0.69 0.54 0.41 0.37 0.43 0.42 0.45 0.45 0.43 0.44 0.41 0.37 0.35 0.31 0.28 0.24 0.28 0.27 0.26 0.26 0.20 0.26 0.22 0.21 0.19 0.25 0.24 0.24 0.26 0.27 0.27 0.27 0.29 0.29
0.83 0.84 0.86 0.84 0.84 0.87 0.93 0.94 0.95 0.98 0.94 0.92 0.90 0.86 0.81 0.75 0.72 0.66 0.55 0.67 0.68 0.66 0.50 0.41 0.53 0.47 0.48 0.46 0.40 0.38 0.40 0.40 0.39 0.35 0.31 0.33 0.36 0.28 0.21 0.18 0.22 0.26 0.28 0.28 0.24 0.28 0.28 0.28 0.29 0.30 0.29 0.29 0.32 0.32
0.81 0.80 0.77 0.79 0.80 0.80 0.84 0.90 0.93 0.94 0.93 0.92 0.88 0.86 0.83 0.76 0.70 0.58 0.53 0.60 0.63 0.62 0.46 0.38 0.40 0.49 0.49 0.50 0.47 0.43 0.44 0.40 0.37 0.34 0.30 0.29 0.29 0.31 0.25 0.15 0.20 0.25 0.27 0.28 0.30 0.29 0.25 0.28 0.26 0.31 0.31 0.32 0.33 0.35
0.73 0.72 0.70 0.71 0.72 0.74 0.76 0.78 0.85 0.90 0.91 0.93 0.88 0.86 0.82 0.81 0.74 0.62 0.68 0.73 0.70 0.57 0.52 0.38 0.38 0.39 0.50 0.43 0.41 0.49 0.42 0.43 0.42 0.38 0.37 0.31 0.32 0.30 0.19 0.19 0.22 0.26 0.29 0.30 0.30 0.31 0.30 0.32 0.30 0.29 0.29 0.30 0.30 0.31
0.62 0.63 0.63 0.66 0.68 0.68 0.69 0.70 0.72 0.81 0.88 0.87 0.86 0.84 0.78 0.70 0.59 0.62 0.73 0.71 0.68 0.57 0.43 0.42 0.35 0.32 0.47 0.43 0.45 0.45 0.47 0.38 0.45 0.37 0.38 0.38 0.33 0.23 0.19 0.22 0.24 0.27 0.28 0.28 0.30 0.32 0.32 0.30 0.29 0.27 0.28 0.27 0.29 0.32
0.52 0.54 0.56 0.56 0.59 0.63 0.66 0.67 0.70 0.78 0.84 0.82 0.77 0.66 0.56 0.65 0.76 0.73 0.63 0.55 0.53 0.53 0.50 0.40 0.47 0.37 0.43 0.42 0.40 0.40 0.42 0.36 0.31 0.36 0.41 0.35 0.33 0.31 0.29 0.29 0.30 0.31 0.32 0.33 0.29 0.28 0.30 0.28 0.27 0.28 0.26 0.27 0.32 0.34
0.45 0.46 0.49 0.51 0.51 0.55 0.61 0.63 0.67 0.70 0.71 0.67 0.60 0.58 0.69 0.75 0.66 0.57 0.47 0.44 0.45 0.39 0.43 0.44 0.44 0.39 0.47 0.37 0.38 0.41 0.36 0.36 0.27 0.32 0.31 0.30 0.30 0.31 0.33 0.32 0.33 0.34 0.31 0.29 0.31 0.32 0.31 0.30 0.27 0.26 0.27 0.32 0.35 0.37
0.38 0.39 0.42 0.45 0.47 0.47 0.51 0.60 0.64 0.60 0.60 0.61 0.60 0.65 0.66 0.60 0.52 0.43 0.39 0.42 0.40 0.36 0.43 0.41 0.43 0.46 0.45 0.47 0.40 0.40 0.34 0.33 0.25 0.36 0.29 0.23 0.31 0.35 0.33 0.32 0.31 0.29 0.26 0.24 0.26 0.26 0.27 0.27 0.28 0.29 0.29 0.34 0.36 0.39
0.35 0.36 0.36 0.37 0.40 0.43 0.46 0.55 0.63 0.63 0.62 0.62 0.54 0.47 0.43 0.45 0.35 0.33 0.30 0.33 0.35 0.41 0.43 0.42 0.39 0.44 0.45 0.46 0.40 0.38 0.32 0.29 0.35 0.28 0.24 0.28 0.32 0.32 0.32 0.32 0.30 0.28 0.27 0.27 0.28 0.30 0.31 0.31 0.33 0.34 0.34 0.38 0.39 0.40
0.35 0.34 0.34 0.35 0.37 0.37 0.41 0.47 0.60 0.60 0.55 0.40 0.38 0.30 0.29 0.28 0.32 0.32 0.33 0.36 0.42 0.43 0.44 0.45 0.43 0.43 0.47 0.41 0.41 0.33 0.37 0.36 0.28 0.23 0.25 0.30 0.30 0.30 0.30 0.29 0.27 0.25 0.28 0.31 0.32 0.33 0.33 0.34 0.34 0.36 0.37 0.38 0.39 0.40
0.36 0.37 0.36 0.35 0.33 0.33 0.36 0.45 0.53 0.56 0.47 0.37 0.35 0.23 0.24 0.28 0.29 0.33 0.39 0.38 0.39 0.42 0.42 0.42 0.43 0.42 0.40 0.38 0.38 0.35 0.29 0.25 0.27 0.26 0.29 0.31 0.31 0.32 0.30 0.28 0.28 0.29 0.31 0.32 0.33 0.34 0.35 0.37 0.37 0.37 0.39 0.39 0.39 0.41
0.35 0.36 0.34 0.34 0.29 0.31 0.37 0.47 0.48 0.51 0.44 0.39 0.36 0.27 0.28 0.27 0.27 0.29 0.30 0.30 0.38 0.40 0.42 0.43 0.40 0.37 0.35 0.36 0.32 0.29 0.28 0.26 0.30 0.33 0.34 0.33 0.32 0.31 0.29 0.30 0.30 0.31 0.33 0.34 0.36 0.38 0.44 0.47 0.45 0.43 0.44 0.47 0.52 0.51
0.37 0.34 0.37 0.33 0.36 0.41 0.44 0.44 0.45 0.37 0.36 0.33 0.27 0.28 0.25 0.25 0.23 0.26 0.29 0.31 0.39 0.37 0.36 0.38 0.32 0.31 0.37 0.31 0.29 0.33 0.30 0.34 0.36 0.39 0.40 0.39 0.40 0.38 0.33 0.31 0.32 0.33 0.35 0.37 0.39 0.40 0.43 0.48 0.49 0.47 0.45 0.46 0.57 0.60
0.36 0.39 0.39 0.37 0.39 0.42 0.39 0.39 0.35 0.33 0.28 0.28 0.25 0.24 0.29 0.30 0.32 0.35 0.35 0.39 0.35 0.31 0.32 0.33 0.41 0.32 0.30 0.27 0.27 0.32 0.36 0.38 0.39 0.39 0.45 0.47 0.46 0.43 0.36 0.31 0.36 0.37 0.35 0.38 0.41 0.42 0.43 0.46 0.51 0.54 0.56 0.59 0.59 0.56
0.39 0.41 0.40 0.39 0.40 0.35 0.30 0.33 0.33 0.24 0.24 0.26 0.26 0.31 0.34 0.35 0.37 0.39 0.39 0.41 0.42 0.42 0.39 0.34 0.29 0.27 0.26 0.29 0.29 0.32 0.36 0.37 0.37 0.40 0.42 0.45 0.49 0.50 0.48 0.45 0.47 0.52 0.53 0.39 0.38 0.41 0.46 0.51 0.56 0.61 0.60 0.60 0.54 0.55
0.43 0.45 0.44 0.40 0.42 0.34 0.29 0.29 0.38 0.28 0.19 0.20 0.23 0.24 0.27 0.27 0.29 0.30 0.33 0.36 0.37 0.38 0.34 0.31 0.28 0.28 0.28 0.30 0.33 0.33 0.35 0.38 0.39 0.37 0.37 0.40 0.44 0.46 0.48 0.51 0.53 0.54 0.55 0.58 0.55 0.59 0.59 0.53 0.57 0.63 0.64 0.64 0.57 0.52
0.44 0.45 0.46 0.44 0.39 0.36 0.33 0.30 0.28 0.28 0.26 0.23 0.25 0.26 0.25 0.29 0.27 0.27 0.29 0.37 0.35 0.32 0.30 0.32 0.32 0.35 0.38 0.38 0.38 0.37 0.35 0.36 0.37 0.39 0.38 0.38 0.45 0.47 0.48 0.51 0.52 0.53 0.53 0.55 0.56 0.60 0.58 0.55 0.57 0.60 0.61 0.66 0.65 0.59
0.42 0.46 0.42 0.43 0.34 0.33 0.29 0.30 0.29 0.33 0.28 0.26 0.29 0.32 0.29 0.26 0.26 0.28 0.35 0.31 0.29 0.31 0.32 0.28 0.31 0.32 0.30 0.30 0.31 0.36 0.40 0.41 0.42 0.42 0.43 0.45 0.43 0.45 0.46 0.49 0.51 0.51 0.52 0.53 0.53 0.52 0.53 0.55 0.57 0.60 0.63 0.63 0.64 0.59
0.47 0.45 0.39 0.37 0.29 0.27 0.22 0.31 0.23 0.25 0.21 0.23 0.28 0.26 0.25 0.25 0.27 0.34 0.28 0.29 0.29 0.30 0.29 0.27 0.27 0.30 0.30 0.31 0.33 0.36 0.38 0.38 0.38 0.40 0.41 0.44 0.47 0.48 0.47 0.48 0.51 0.50 0.51 0.54 0.55 0.54 0.55 0.57 0.57 0.60 0.62 0.60 0.57 0.54
0.47 0.36 0.30 0.27 0.26 0.21 0.27 0.23 0.27 0.23 0.25 0.23 0.22 0.19 0.19 0.21 0.26 0.26 0.23 0.21 0.21 0.22 0.22 0.21 0.22 0.26 0.31 0.33 0.32 0.33 0.35 0.40 0.39 0.38 0.39 0.39 0.38 0.40 0.44 0.46 0.50 0.52 0.54 0.56 0.56 0.56 0.57 0.55 0.56 0.58 0.58 0.55 0.51 0.48
0.26 0.27 0.27 0.22 0.26 0.22 0.20 0.20 0.20 0.23 0.20 0.20 0.19 0.19 0.20 0.24 0.21 0.21 0.17 0.16 0.15 0.16 0.18 0.21 0.27 0.29 0.31 0.33 0.35 0.38 0.42 0.43 0.40 0.37 0.38 0.41 0.41 0.42 0.42 0.44 0.47 0.52 0.57 0.55 0.53 0.53 0.54 0.55 0.55 0.56 0.53 0.48 0.45 0.48
0.18 0.22 0.21 0.21 0.20 0.18 0.17 0.15 0.16 0.17 0.20 0.20 0.21 0.23 0.23 0.22 0.20 0.18 0.16 0.14 0.18 0.20 0.22 0.27 0.29 0.30 0.33 0.36 0.33 0.34 0.37 0.48 0.49 0.44 0.45 0.45 0.43 0.43 0.42 0.43 0.45 0.49 0.58 0.57 0.55 0.54 0.54 0.54 0.52 0.48 0.46 0.46 0.48 0.45
0.17 0.18 0.25 0.26 0.21 0.20 0.19 0.19 0.21 0.21 0.20 0.20 0.20 0.20 0.21 0.18 0.17 0.18 0.19 0.23 0.23 0.28 0.32 0.34 0.34 0.36 0.34 0.34 0.35 0.37 0.39 0.42 0.44 0.45 0.49 0.53 0.51 0.49 0.48 0.44 0.44 0.49 0.55 0.56 0.55 0.53 0.49 0.46 0.45 0.45 0.45 0.46 0.45 0.43
0.20 0.21 0.18 0.22 0.22 0.22 0.19 0.20 0.20 0.19 0.22 0.26 0.25 0.21 0.20 0.21 0.19 0.20 0.22 0.25 0.29 0.33 0.35 0.34 0.34 0.33 0.32 0.29 0.30 0.31 0.30 0.31 0.36 0.42 0.46 0.50 0.50 0.49 0.48 0.48 0.50 0.52 0.52 0.52 0.49 0.47 0.46 0.46 0.45 0.43 0.43 0.42 0.42 0.42
0.19 0.20 0.20 0.16 0.18 0.19 0.19 0.18 0.20 0.24 0.24 0.22 0.20 0.22 0.23 0.24 0.22 0.22 0.24 0.27 0.26 0.26 0.26 0.26 0.26 0.29 0.27 0.26 0.27 0.28 0.28 0.26 0.24 0.22 0.25 0.30 0.38 0.45 0.53 0.46 0.44 0.45 0.46 0.46 0.47 0.46 0.45 0.44 0.43 0.42 0.42 0.42 0.42 0.40
0.17 0.21 0.19 0.18 0.17 0.17 0.17 0.19 0.17 0.19 0.22 0.24 0.26 0.26 0.27 0.26 0.24 0.26 0.26 0.25 0.25 0.25 0.26 0.27 0.26 0.24 0.21 0.20 0.18 0.19 0.23 0.25 0.24 0.23 0.22 0.23 0.31 0.42 0.50 0.50 0.43 0.44 0.46 0.46 0.45 0.44 0.44 0.43 0.43 0.42 0.42 0.42 0.38 0.37
0.20 0.22 0.20 0.20 0.18 0.19 0.19 0.21 0.22 0.22 0.21 0.21 0.23 0.22 0.20 0.21 0.23 0.24 0.24 0.24 0.26 0.26 0.24 0.21 0.19 0.19 0.19 0.18 0.16 0.15 0.15 0.22 0.27 0.27 0.29 0.30 0.36 0.42 0.47 0.50 0.45 0.46 0.46 0.47 0.46 0.45 0.44 0.42 0.41 0.41 0.40 0.38 0.37 0.36
0.19 0.17 0.18 0.17 0.17 0.23 0.24 0.21 0.20 0.20 0.20 0.21 0.18 0.19 0.19 0.20 0.17 0.18 0.21 0.25 0.23 0.21 0.19 0.19 0.17 0.15 0.17 0.18 0.20 0.22 0.23 0.26 0.29 0.29 0.29 0.32 0.35 0.39 0.43 0.48 0.48 0.45 0.47 0.48 0.48 0.46 0.43 0.41 0.41 0.41 0.39 0.38 0.37 0.36
0.19 0.20 0.20 0.20 0.18 0.17 0.18 0.20 0.20 0.19 0.19 0.18 0.18 0.19 0.20 0.20 0.16 0.17 0.22 0.23 0.20 0.19 0.18 0.18 0.20 0.21 0.21 0.23 0.23 0.25 0.27 0.29 0.31 0.33 0.34 0.35 0.37 0.39 0.41 0.46 0.50 0.47 0.45 0.48 0.51 0.47 0.43 0.41 0.40 0.39 0.39 0.36 0.35 0.35

GFSWCAN_prec_pwat_108.txt.gz
Precipitable_Water
0.86 0.86 0.88 0.88 0.88 0.93 0.98 0.98 0.94 0.95 0.94 0.89 0.87 0.75 0.77 0.70 0.57 0.50 0.47 0.51 0.41 0.32 0.28 0.28 0.27 0.22 0.24 0.23 0.17 0.26 0.23 0.26 0.23 0.17 0.16 0.17 0.15 0.17 0.15 0.15 0.14 0.13 0.14 0.15 0.17 0.14 0.09 0.22 0.20 0.11 0.14 0.19 0.20 0.20
0.89 0.90 0.85 0.84 0.87 0.92 0.97 0.99 0.99 0.95 0.94 0.91 0.86 0.82 0.76 0.79 0.78 0.67 0.50 0.55 0.50 0.37 0.34 0.43 0.39 0.38 0.35 0.34 0.29 0.29 0.25 0.26 0.26 0.20 0.19 0.18 0.15 0.17 0.14 0.11 0.17 0.12 0.13 0.13 0.14 0.11 0.18 0.21 0.18 0.21 0.21 0.20 0.23 0.24
0.95 0.93 0.86 0.83 0.87 0.92 0.97 0.98 0.98 0.97 0.95 0.94 0.90 0.85 0.77 0.76 0.74 0.76 0.68 0.66 0.60 0.45 0.36 0.37 0.33 0.42 0.45 0.41 0.42 0.26 0.32 0.35 0.31 0.33 0.25 0.22 0.16 0.20 0.14 0.13 0.15 0.18 0.20 0.16 0.16 0.14 0.17 0.21 0.23 0.25 0.27 0.26 0.27 0.28
0.95 0.92 0.89 0.85 0.88 0.92 0.95 0.97 0.98 0.97 0.95 0.95 0.92 0.88 0.82 0.75 0.73 0.70 0.66 0.70 0.65 0.59 0.47 0.42 0.53 0.41 0.46 0.44 0.41 0.42 0.39 0.44 0.42 0.38 0.28 0.25 0.21 0.26 0.19 0.19 0.16 0.19 0.21 0.19 0.19 0.20 0.21 0.22 0.24 0.26 0.27 0.28 0.28 0.28
0.90 0.90 0.89 0.89 0.89 0.90 0.90 0.94 0.97 0.99 0.97 0.94 0.91 0.89 0.86 0.79 0.73 0.71 0.73 0.72 0.71 0.55 0.44 0.48 0.58 0.60 0.58 0.53 0.48 0.47 0.42 0.40 0.36 0.31 0.28 0.25 0.30 0.28 0.26 0.24 0.17 0.21 0.17 0.17 0.15 0.21 0.21 0.22 0.26 0.28 0.26 0.26 0.28 0.29
0.89 0.89 0.87 0.86 0.87 0.89 0.88 0.87 0.92 0.96 0.98 0.95 0.92 0.89 0.86 0.83 0.75 0.66 0.55 0.65 0.65 0.66 0.48 0.37 0.54 0.51 0.53 0.53 0.51 0.49 0.48 0.45 0.41 0.38 0.36 0.38 0.40 0.31 0.21 0.17 0.20 0.22 0.24 0.23 0.20 0.25 0.25 0.27 0.29 0.30 0.28 0.29 0.31 0.31
0.84 0.86 0.83 0.81 0.82 0.83 0.83 0.82 0.84 0.89 0.95 0.96 0.94 0.88 0.87 0.83 0.77 0.61 0.56 0.62 0.65 0.64 0.49 0.39 0.39 0.50 0.51 0.51 0.51 0.51 0.52 0.49 0.48 0.45 0.41 0.39 0.39 0.39 0.31 0.22 0.23 0.24 0.26 0.27 0.29 0.28 0.26 0.29 0.28 0.32 0.32 0.32 0.33 0.32
0.79 0.80 0.79 0.78 0.78 0.77 0.75 0.74 0.75 0.77 0.86 0.92 0.91 0.88 0.85 0.82 0.78 0.68 0.73 0.73 0.72 0.58 0.53 0.39 0.37 0.39 0.49 0.42 0.41 0.51 0.45 0.46 0.46 0.43 0.45 0.42 0.44 0.43 0.32 0.33 0.35 0.31 0.30 0.29 0.31 0.34 0.33 0.33 0.33 0.33 0.34 0.32 0.29 0.25
0.73 0.72 0.70 0.68 0.69 0.71 0.70 0.70 0.70 0.72 0.76 0.82 0.84 0.83 0.76 0.69 0.60 0.65 0.75 0.75 0.73 0.59 0.45 0.44 0.35 0.33 0.48 0.43 0.44 0.44 0.47 0.37 0.46 0.38 0.39 0.40 0.36 0.30 0.31 0.33 0.32 0.32 0.33 0.32 0.34 0.33 0.34 0.33 0.32 0.33 0.33 0.30 0.27 0.27
0.63 0.61 0.60 0.58 0.58 0.60 0.63 0.66 0.67 0.69 0.74 0.78 0.74 0.64 0.51 0.60 0.72 0.72 0.64 0.55 0.54 0.55 0.52 0.42 0.48 0.39 0.45 0.43 0.41 0.40 0.42 0.36 0.31 0.35 0.40 0.33 0.29 0.36 0.34 0.35 0.37 0.38 0.39 0.39 0.32 0.30 0.32 0.32 0.34 0.34 0.30 0.30 0.29 0.28
0.54 0.53 0.52 0.53 0.53 0.51 0.56 0.63 0.65 0.65 0.64 0.59 0.52 0.51 0.62 0.67 0.59 0.54 0.47 0.44 0.46 0.41 0.47 0.47 0.46 0.41 0.50 0.39 0.39 0.44 0.38 0.38 0.28 0.33 0.31 0.29 0.26 0.31 0.36 0.35 0.36 0.35 0.36 0.37 0.36 0.35 0.35 0.34 0.33 0.32 0.31 0.30 0.30 0.33
0.45 0.46 0.47 0.47 0.47 0.48 0.50 0.58 0.62 0.60 0.57 0.58 0.57 0.58 0.54 0.45 0.42 0.35 0.36 0.41 0.40 0.37 0.46 0.44 0.45 0.48 0.49 0.50 0.41 0.42 0.34 0.35 0.26 0.38 0.30 0.24 0.29 0.34 0.35 0.33 0.34 0.31 0.29 0.28 0.29 0.30 0.31 0.30 0.31 0.31 0.31 0.32 0.35 0.38
0.40 0.39 0.40 0.41 0.40 0.40 0.46 0.51 0.59 0.63 0.61 0.55 0.47 0.43 0.37 0.34 0.25 0.27 0.26 0.30 0.32 0.40 0.41 0.42 0.38 0.43 0.45 0.46 0.41 0.40 0.33 0.30 0.38 0.29 0.26 0.29 0.33 0.34 0.33 0.33 0.29 0.28 0.27 0.27 0.27 0.31 0.32 0.32 0.33 0.34 0.34 0.36 0.39 0.40
0.37 0.38 0.37 0.37 0.37 0.37 0.40 0.46 0.52 0.57 0.51 0.40 0.32 0.24 0.23 0.22 0.27 0.26 0.26 0.29 0.37 0.40 0.41 0.43 0.41 0.42 0.45 0.41 0.41 0.35 0.38 0.37 0.29 0.26 0.25 0.30 0.31 0.29 0.31 0.32 0.27 0.25 0.27 0.29 0.29 0.31 0.31 0.32 0.33 0.35 0.36 0.40 0.41 0.39
0.35 0.35 0.36 0.37 0.33 0.32 0.35 0.41 0.50 0.51 0.43 0.32 0.34 0.20 0.23 0.28 0.29 0.30 0.35 0.35 0.37 0.40 0.37 0.35 0.35 0.34 0.34 0.35 0.38 0.36 0.31 0.26 0.27 0.25 0.29 0.32 0.34 0.35 0.32 0.30 0.28 0.28 0.29 0.31 0.33 0.34 0.36 0.38 0.40 0.42 0.46 0.52 0.55 0.52
0.37 0.37 0.35 0.34 0.32 0.33 0.34 0.39 0.44 0.48 0.39 0.35 0.30 0.21 0.26 0.24 0.23 0.25 0.27 0.28 0.36 0.37 0.39 0.36 0.31 0.29 0.27 0.28 0.27 0.24 0.23 0.21 0.24 0.31 0.34 0.36 0.37 0.39 0.41 0.41 0.34 0.31 0.31 0.32 0.34 0.36 0.38 0.40 0.41 0.41 0.43 0.46 0.50 0.58
0.36 0.33 0.34 0.33 0.37 0.39 0.41 0.39 0.41 0.34 0.31 0.27 0.21 0.23 0.23 0.24 0.23 0.26 0.30 0.31 0.37 0.33 0.27 0.30 0.25 0.23 0.31 0.27 0.24 0.28 0.22 0.24 0.29 0.32 0.35 0.37 0.39 0.40 0.42 0.44 0.47 0.43 0.34 0.32 0.35 0.36 0.37 0.41 0.43 0.42 0.39 0.44 0.51 0.62
0.32 0.35 0.35 0.37 0.41 0.39 0.37 0.37 0.33 0.30 0.25 0.23 0.19 0.19 0.25 0.25 0.24 0.27 0.33 0.35 0.33 0.30 0.30 0.29 0.36 0.29 0.25 0.21 0.19 0.21 0.25 0.29 0.30 0.30 0.30 0.34 0.39 0.41 0.42 0.42 0.43 0.45 0.42 0.42 0.44 0.48 0.49 0.48 0.43 0.38 0.40 0.45 0.53 0.61
0.35 0.37 0.38 0.40 0.41 0.37 0.30 0.33 0.33 0.22 0.20 0.22 0.23 0.26 0.27 0.26 0.28 0.29 0.31 0.34 0.37 0.40 0.38 0.34 0.29 0.25 0.23 0.25 0.25 0.26 0.28 0.29 0.27 0.30 0.36 0.39 0.39 0.39 0.39 0.40 0.42 0.42 0.44 0.44 0.47 0.48 0.49 0.49 0.48 0.49 0.52 0.55 0.54 0.57
0.39 0.40 0.42 0.44 0.45 0.35 0.29 0.29 0.37 0.25 0.18 0.20 0.22 0.21 0.23 0.22 0.23 0.25 0.26 0.29 0.30 0.33 0.29 0.25 0.23 0.25 0.26 0.27 0.31 0.32 0.33 0.36 0.37 0.34 0.32 0.35 0.37 0.38 0.37 0.37 0.37 0.39 0.43 0.45 0.47 0.49 0.49 0.50 0.53 0.55 0.58 0.61 0.60 0.59
0.38 0.38 0.42 0.45 0.43 0.39 0.32 0.28 0.27 0.27 0.26 0.23 0.24 0.24 0.23 0.25 0.23 0.23 0.24 0.30 0.26 0.24 0.20 0.22 0.22 0.24 0.27 0.28 0.30 0.33 0.35 0.36 0.33 0.33 0.31 0.29 0.32 0.35 0.35 0.37 0.40 0.42 0.42 0.44 0.46 0.48 0.50 0.52 0.55 0.56 0.58 0.59 0.59 0.59
0.37 0.41 0.40 0.44 0.37 0.36 0.31 0.32 0.28 0.29 0.26 0.25 0.26 0.28 0.24 0.22 0.24 0.27 0.31 0.26 0.25 0.25 0.26 0.25 0.24 0.25 0.25 0.27 0.28 0.31 0.33 0.34 0.35 0.36 0.37 0.37 0.34 0.33 0.33 0.35 0.37 0.38 0.42 0.45 0.47 0.47 0.48 0.51 0.53 0.55 0.56 0.55 0.56 0.57
0.41 0.42 0.39 0.37 0.30 0.29 0.25 0.33 0.25 0.24 0.19 0.18 0.21 0.20 0.19 0.21 0.26 0.31 0.25 0.28 0.26 0.27 0.25 0.25 0.25 0.29 0.32 0.32 0.29 0.27 0.29 0.29 0.31 0.34 0.35 0.34 0.35 0.35 0.35 0.37 0.40 0.38 0.36 0.41 0.45 0.44 0.46 0.51 0.54 0.55 0.57 0.57 0.57 0.56
0.43 0.34 0.29 0.28 0.27 0.23 0.29 0.25 0.26 0.22 0.20 0.18 0.16 0.14 0.16 0.16 0.21 0.21 0.19 0.19 0.22 0.22 0.21 0.22 0.27 0.27 0.27 0.27 0.24 0.24 0.27 0.31 0.35 0.38 0.40 0.38 0.37 0.37 0.40 0.38 0.38 0.39 0.40 0.42 0.44 0.44 0.46 0.49 0.54 0.57 0.56 0.54 0.54 0.55
0.24 0.24 0.26 0.21 0.28 0.23 0.21 0.20 0.19 0.19 0.15 0.15 0.16 0.17 0.17 0.21 0.20 0.21 0.19 0.18 0.18 0.17 0.21 0.23 0.23 0.25 0.25 0.26 0.25 0.26 0.31 0.38 0.39 0.38 0.37 0.42 0.39 0.38 0.38 0.45 0.44 0.42 0.43 0.42 0.42 0.44 0.46 0.49 0.53 0.55 0.56 0.55 0.55 0.57
0.18 0.20 0.19 0.20 0.22 0.20 0.19 0.16 0.16 0.16 0.17 0.16 0.18 0.19 0.20 0.20 0.19 0.18 0.19 0.17 0.16 0.19 0.20 0.22 0.26 0.27 0.27 0.28 0.30 0.32 0.35 0.41 0.37 0.31 0.31 0.34 0.35 0.36 0.37 0.41 0.43 0.43 0.48 0.46 0.44 0.45 0.46 0.50 0.52 0.56 0.56 0.56 0.55 0.51
0.18 0.17 0.20 0.22 0.19 0.19 0.18 0.19 0.19 0.18 0.16 0.16 0.16 0.16 0.18 0.16 0.15 0.15 0.16 0.18 0.20 0.22 0.27 0.29 0.30 0.32 0.34 0.35 0.37 0.38 0.38 0.38 0.35 0.30 0.30 0.32 0.33 0.32 0.34 0.35 0.39 0.46 0.50 0.46 0.46 0.47 0.47 0.50 0.52 0.52 0.50 0.49 0.48 0.48
0.19 0.19 0.15 0.17 0.18 0.19 0.16 0.17 0.17 0.17 0.17 0.20 0.21 0.17 0.16 0.16 0.17 0.23 0.24 0.27 0.31 0.32 0.33 0.29 0.29 0.33 0.31 0.30 0.32 0.32 0.32 0.34 0.33 0.31 0.30 0.30 0.30 0.29 0.28 0.29 0.33 0.42 0.51 0.47 0.45 0.49 0.50 0.48 0.45 0.45 0.46 0.45 0.44 0.45
0.17 0.17 0.17 0.15 0.17 0.19 0.19 0.18 0.16 0.18 0.18 0.19 0.17 0.16 0.16 0.16 0.16 0.19 0.20 0.22 0.26 0.26 0.25 0.24 0.26 0.28 0.27 0.27 0.28 0.29 0.31 0.31 0.27 0.20 0.18 0.18 0.19 0.20 0.26 0.29 0.30 0.37 0.45 0.48 0.47 0.45 0.46 0.45 0.44 0.45 0.44 0.43 0.43 0.45
0.15 0.20 0.19 0.17 0.16 0.16 0.16 0.18 0.16 0.17 0.20 0.21 0.21 0.20 0.20 0.19 0.21 0.22 0.21 0.22 0.23 0.23 0.25 0.27 0.25 0.24 0.22 0.23 0.23 0.24 0.26 0.25 0.23 0.20 0.16 0.15 0.18 0.24 0.28 0.30 0.30 0.35 0.44 0.47 0.46 0.46 0.47 0.45 0.45 0.44 0.43 0.43 0.43 0.44
0.20 0.21 0.19 0.18 0.16 0.15 0.16 0.18 0.22 0.23 0.22 0.22 0.23 0.22 0.19 0.19 0.20 0.22 0.23 0.23 0.23 0.25 0.25 0.23 0.22 0.21 0.20 0.20 0.20 0.19 0.16 0.18 0.21 0.21 0.21 0.22 0.24 0.26 0.29 0.32 0.32 0.35 0.42 0.45 0.45 0.45 0.45 0.45 0.45 0.44 0.43 0.42 0.43 0.43
0.18 0.17 0.16 0.15 0.15 0.15 0.20 0.18 0.19 0.19 0.20 0.21 0.21 0.23 0.23 0.21 0.17 0.18 0.19 0.22 0.22 0.21 0.20 0.20 0.19 0.18 0.20 0.22 0.22 0.22 0.21 0.22 0.23 0.23 0.23 0.24 0.25 0.27 0.30 0.34 0.35 0.35 0.39 0.42 0.43 0.45 0.48 0.48 0.45 0.44 0.42 0.42 0.42 0.42
0.19 0.19 0.19 0.19 0.17 0.15 0.17 0.20 0.19 0.18 0.18 0.17 0.17 0.18 0.18 0.18 0.17 0.21 0.23 0.23 0.21 0.20 0.20 0.20 0.20 0.20 0.21 0.22 0.22 0.24 0.25 0.25 0.26 0.27 0.27 0.28 0.29 0.30 0.30 0.33 0.35 0.35 0.36 0.39 0.41 0.44 0.47 0.49 0.49 0.43 0.42 0.42 0.42 0.41

GFSWCAN_prec_pwat_111.txt.gz
Precipitable_Water
0.82 0.85 0.84 0.83 0.80 0.80 0.85 0.90 0.91 0.90 0.92 0.91 0.85 0.80 0.75 0.79 0.78 0.64 0.50 0.50 0.40 0.31 0.31 0.33 0.31 0.24 0.25 0.24 0.16 0.23 0.21 0.26 0.23 0.16 0.16 0.15 0.15 0.15 0.15 0.16 0.14 0.13 0.12 0.14 0.18 0.15 0.09 0.21 0.19 0.12 0.12 0.17 0.18 0.19
0.83 0.86 0.86 0.84 0.80 0.81 0.88 0.91 0.93 0.93 0.92 0.93 0.91 0.85 0.78 0.74 0.74 0.77 0.63 0.72 0.65 0.43 0.33 0.42 0.42 0.41 0.37 0.35 0.30 0.29 0.22 0.24 0.26 0.21 0.22 0.19 0.16 0.17 0.15 0.11 0.19 0.13 0.15 0.14 0.15 0.13 0.20 0.25 0.22 0.24 0.24 0.23 0.24 0.24
0.84 0.83 0.85 0.85 0.84 0.86 0.88 0.92 0.94 0.92 0.92 0.92 0.93 0.91 0.85 0.78 0.75 0.70 0.65 0.69 0.66 0.56 0.55 0.51 0.45 0.50 0.50 0.45 0.45 0.26 0.28 0.30 0.30 0.34 0.27 0.24 0.17 0.20 0.13 0.14 0.16 0.18 0.21 0.17 0.17 0.14 0.17 0.21 0.25 0.27 0.28 0.27 0.28 0.30
0.88 0.87 0.85 0.85 0.86 0.88 0.89 0.90 0.92 0.93 0.95 0.94 0.91 0.90 0.89 0.85 0.76 0.74 0.65 0.70 0.64 0.55 0.43 0.44 0.62 0.57 0.63 0.59 0.53 0.53 0.46 0.47 0.42 0.38 0.29 0.26 0.21 0.25 0.17 0.17 0.17 0.19 0.20 0.17 0.16 0.16 0.19 0.21 0.24 0.25 0.26 0.28 0.29 0.30
0.90 0.86 0.83 0.83 0.85 0.85 0.89 0.91 0.92 0.93 0.97 0.98 0.96 0.89 0.87 0.86 0.82 0.75 0.76 0.71 0.69 0.54 0.41 0.44 0.54 0.57 0.59 0.57 0.54 0.56 0.55 0.52 0.48 0.41 0.37 0.34 0.38 0.34 0.31 0.28 0.20 0.26 0.21 0.18 0.15 0.19 0.20 0.20 0.26 0.29 0.27 0.28 0.29 0.29
0.83 0.83 0.86 0.85 0.85 0.85 0.86 0.88 0.90 0.91 0.92 0.95 0.97 0.93 0.88 0.85 0.82 0.73 0.57 0.66 0.66 0.66 0.47 0.36 0.51 0.49 0.52 0.53 0.47 0.49 0.51 0.49 0.48 0.44 0.42 0.44 0.48 0.40 0.33 0.32 0.36 0.36 0.35 0.33 0.27 0.27 0.27 0.27 0.28 0.30 0.30 0.31 0.33 0.33
0.91 0.90 0.85 0.82 0.82 0.81 0.83 0.83 0.83 0.82 0.83 0.88 0.92 0.92 0.90 0.87 0.80 0.63 0.58 0.64 0.71 0.69 0.51 0.41 0.39 0.51 0.52 0.50 0.50 0.48 0.51 0.48 0.47 0.44 0.42 0.42 0.43 0.45 0.37 0.30 0.34 0.36 0.37 0.37 0.37 0.35 0.29 0.31 0.29 0.34 0.34 0.34 0.35 0.36
0.84 0.82 0.83 0.82 0.81 0.80 0.80 0.81 0.78 0.74 0.74 0.80 0.86 0.87 0.86 0.83 0.77 0.66 0.73 0.78 0.76 0.62 0.56 0.41 0.39 0.42 0.52 0.44 0.42 0.51 0.45 0.46 0.46 0.43 0.45 0.41 0.43 0.42 0.31 0.35 0.36 0.36 0.35 0.35 0.35 0.38 0.36 0.37 0.37 0.36 0.37 0.36 0.34 0.34
0.81 0.79 0.79 0.80 0.77 0.77 0.77 0.76 0.72 0.68 0.68 0.72 0.77 0.79 0.75 0.67 0.57 0.62 0.73 0.72 0.72 0.60 0.46 0.45 0.37 0.34 0.50 0.45 0.46 0.46 0.49 0.38 0.47 0.40 0.40 0.41 0.36 0.30 0.33 0.34 0.34 0.34 0.35 0.36 0.38 0.38 0.39 0.38 0.37 0.36 0.36 0.35 0.34 0.34
0.76 0.76 0.75 0.74 0.72 0.71 0.70 0.69 0.68 0.66 0.69 0.73 0.70 0.61 0.52 0.60 0.73 0.71 0.59 0.51 0.51 0.53 0.51 0.41 0.48 0.40 0.47 0.45 0.43 0.42 0.45 0.38 0.33 0.39 0.45 0.37 0.33 0.38 0.38 0.39 0.37 0.36 0.36 0.34 0.31 0.31 0.35 0.34 0.35 0.35 0.36 0.38 0.36 0.33
0.64 0.63 0.63 0.62 0.61 0.61 0.61 0.64 0.68 0.68 0.65 0.58 0.49 0.45 0.57 0.63 0.54 0.46 0.39 0.38 0.42 0.38 0.44 0.44 0.44 0.39 0.48 0.38 0.38 0.46 0.40 0.40 0.31 0.35 0.34 0.31 0.29 0.34 0.38 0.36 0.36 0.37 0.36 0.31 0.32 0.33 0.33 0.32 0.31 0.31 0.32 0.33 0.33 0.31
0.51 0.52 0.51 0.50 0.52 0.55 0.57 0.64 0.69 0.64 0.59 0.59 0.56 0.60 0.54 0.42 0.39 0.32 0.33 0.38 0.35 0.33 0.42 0.40 0.41 0.43 0.45 0.47 0.40 0.41 0.34 0.35 0.25 0.37 0.31 0.26 0.32 0.36 0.36 0.33 0.34 0.31 0.30 0.28 0.28 0.27 0.28 0.30 0.32 0.32 0.32 0.32 0.33 0.35
0.46 0.46 0.45 0.45 0.45 0.47 0.50 0.53 0.62 0.65 0.63 0.59 0.47 0.41 0.36 0.35 0.25 0.25 0.23 0.26 0.28 0.36 0.38 0.39 0.36 0.41 0.41 0.41 0.35 0.35 0.30 0.28 0.37 0.29 0.26 0.30 0.32 0.32 0.32 0.32 0.29 0.26 0.25 0.26 0.27 0.29 0.30 0.30 0.32 0.32 0.31 0.33 0.34 0.35
0.41 0.42 0.43 0.42 0.41 0.42 0.45 0.46 0.51 0.58 0.49 0.39 0.36 0.26 0.26 0.23 0.25 0.25 0.25 0.28 0.35 0.38 0.37 0.39 0.37 0.36 0.39 0.35 0.36 0.30 0.32 0.33 0.26 0.23 0.23 0.29 0.30 0.34 0.36 0.36 0.35 0.33 0.30 0.26 0.27 0.29 0.31 0.34 0.37 0.39 0.40 0.42 0.43 0.46
0.39 0.39 0.40 0.38 0.37 0.39 0.41 0.44 0.50 0.54 0.45 0.33 0.32 0.22 0.23 0.28 0.31 0.33 0.35 0.34 0.37 0.40 0.38 0.36 0.35 0.34 0.31 0.30 0.33 0.30 0.24 0.19 0.22 0.21 0.26 0.30 0.33 0.36 0.37 0.39 0.40 0.39 0.38 0.38 0.36 0.33 0.32 0.34 0.36 0.39 0.41 0.42 0.42 0.43
0.39 0.40 0.36 0.33 0.36 0.41 0.42 0.42 0.45 0.47 0.40 0.32 0.29 0.23 0.28 0.24 0.23 0.26 0.27 0.29 0.35 0.34 0.34 0.33 0.29 0.26 0.26 0.28 0.24 0.21 0.20 0.16 0.15 0.17 0.27 0.32 0.33 0.34 0.35 0.36 0.37 0.39 0.39 0.39 0.37 0.38 0.38 0.36 0.35 0.38 0.41 0.42 0.43 0.44
0.40 0.34 0.33 0.35 0.38 0.39 0.42 0.38 0.36 0.30 0.28 0.26 0.21 0.25 0.23 0.22 0.21 0.24 0.28 0.27 0.34 0.29 0.25 0.28 0.24 0.21 0.28 0.23 0.20 0.23 0.16 0.14 0.19 0.26 0.31 0.32 0.33 0.36 0.37 0.35 0.35 0.34 0.34 0.37 0.39 0.39 0.41 0.45 0.46 0.45 0.45 0.48 0.47 0.47
0.34 0.35 0.35 0.38 0.42 0.41 0.41 0.41 0.34 0.29 0.22 0.22 0.18 0.20 0.24 0.25 0.22 0.23 0.27 0.29 0.27 0.26 0.26 0.24 0.29 0.22 0.20 0.17 0.15 0.18 0.22 0.28 0.31 0.29 0.28 0.32 0.33 0.33 0.36 0.35 0.33 0.32 0.32 0.33 0.35 0.38 0.39 0.39 0.40 0.44 0.47 0.47 0.46 0.46
0.35 0.35 0.35 0.39 0.44 0.39 0.31 0.32 0.33 0.21 0.20 0.21 0.22 0.25 0.25 0.24 0.26 0.27 0.28 0.29 0.30 0.32 0.29 0.27 0.23 0.19 0.17 0.21 0.22 0.25 0.29 0.29 0.27 0.26 0.29 0.31 0.34 0.35 0.33 0.31 0.29 0.29 0.31 0.34 0.36 0.36 0.38 0.39 0.40 0.42 0.46 0.47 0.46 0.49
0.39 0.40 0.40 0.40 0.43 0.36 0.29 0.29 0.36 0.25 0.17 0.19 0.21 0.19 0.19 0.17 0.20 0.22 0.23 0.24 0.25 0.27 0.24 0.20 0.17 0.20 0.22 0.24 0.27 0.27 0.24 0.24 0.26 0.26 0.25 0.30 0.33 0.31 0.29 0.30 0.28 0.31 0.32 0.33 0.34 0.36 0.37 0.37 0.41 0.43 0.45 0.47 0.49 0.50
0.40 0.37 0.39 0.42 0.39 0.39 0.34 0.30 0.26 0.25 0.24 0.20 0.21 0.21 0.18 0.20 0.19 0.19 0.20 0.26 0.25 0.24 0.21 0.23 0.23 0.24 0.24 0.22 0.23 0.25 0.27 0.28 0.28 0.30 0.29 0.28 0.27 0.27 0.30 0.32 0.35 0.34 0.32 0.31 0.30 0.31 0.34 0.35 0.38 0.43 0.43 0.44 0.47 0.49
0.37 0.40 0.37 0.39 0.32 0.33 0.31 0.35 0.28 0.30 0.26 0.24 0.24 0.25 0.20 0.17 0.17 0.17 0.20 0.22 0.21 0.21 0.23 0.24 0.24 0.26 0.27 0.29 0.30 0.30 0.30 0.30 0.31 0.31 0.32 0.31 0.27 0.26 0.26 0.29 0.32 0.32 0.33 0.33 0.33 0.31 0.33 0.37 0.38 0.40 0.42 0.44 0.47 0.48
0.42 0.40 0.37 0.35 0.28 0.28 0.25 0.34 0.26 0.27 0.21 0.20 0.23 0.20 0.19 0.18 0.18 0.21 0.19 0.19 0.19 0.23 0.23 0.23 0.24 0.28 0.29 0.29 0.28 0.27 0.26 0.27 0.26 0.28 0.28 0.27 0.29 0.30 0.30 0.33 0.37 0.35 0.34 0.32 0.38 0.38 0.36 0.38 0.40 0.41 0.44 0.46 0.47 0.47
0.43 0.34 0.28 0.26 0.26 0.22 0.28 0.24 0.26 0.23 0.22 0.19 0.17 0.15 0.16 0.15 0.17 0.16 0.14 0.15 0.16 0.19 0.20 0.22 0.27 0.26 0.25 0.25 0.24 0.24 0.24 0.28 0.30 0.30 0.29 0.29 0.31 0.35 0.38 0.35 0.36 0.38 0.38 0.39 0.42 0.44 0.44 0.41 0.41 0.42 0.45 0.47 0.48 0.48
0.27 0.25 0.25 0.21 0.26 0.22 0.21 0.20 0.21 0.20 0.16 0.17 0.16 0.16 0.16 0.17 0.15 0.15 0.15 0.15 0.15 0.16 0.18 0.21 0.23 0.24 0.25 0.24 0.25 0.27 0.30 0.31 0.31 0.30 0.29 0.37 0.37 0.33 0.31 0.31 0.30 0.30 0.32 0.34 0.40 0.47 0.49 0.47 0.42 0.42 0.44 0.44 0.47 0.49
0.19 0.22 0.20 0.19 0.18 0.17 0.17 0.16 0.16 0.16 0.18 0.17 0.18 0.19 0.20 0.18 0.17 0.16 0.15 0.13 0.15 0.16 0.19 0.22 0.24 0.26 0.25 0.26 0.28 0.28 0.32 0.38 0.38 0.38 0.39 0.41 0.39 0.34 0.29 0.26 0.25 0.26 0.31 0.31 0.30 0.30 0.37 0.46 0.43 0.42 0.43 0.44 0.50 0.52
0.18 0.17 0.19 0.22 0.19 0.18 0.17 0.18 0.18 0.18 0.17 0.17 0.16 0.16 0.16 0.15 0.14 0.14 0.15 0.17 0.18 0.18 0.22 0.26 0.26 0.29 0.29 0.29 0.31 0.32 0.36 0.39 0.40 0.36 0.36 0.37 0.37 0.37 0.34 0.29 0.25 0.24 0.29 0.30 0.30 0.29 0.31 0.43 0.43 0.43 0.46 0.49 0.49 0.50
0.21 0.20 0.15 0.16 0.18 0.18 0.15 0.16 0.15 0.14 0.13 0.14 0.15 0.14 0.13 0.11 0.10 0.13 0.14 0.16 0.19 0.21 0.25 0.24 0.24 0.26 0.27 0.30 0.29 0.27 0.29 0.33 0.34 0.33 0.33 0.33 0.33 0.33 0.33 0.31 0.26 0.26 0.27 0.30 0.31 0.31 0.35 0.42 0.44 0.43 0.45 0.45 0.46 0.48
0.17 0.18 0.18 0.15 0.16 0.18 0.17 0.15 0.14 0.14 0.14 0.15 0.14 0.13 0.13 0.15 0.17 0.18 0.17 0.18 0.20 0.21 0.20 0.19 0.20 0.23 0.24 0.25 0.27 0.26 0.27 0.27 0.23 0.19 0.19 0.20 0.20 0.22 0.24 0.22 0.22 0.24 0.26 0.29 0.32 0.35 0.38 0.42 0.47 0.46 0.45 0.45 0.47 0.47
0.13 0.18 0.16 0.15 0.15 0.14 0.14 0.16 0.15 0.16 0.19 0.21 0.21 0.20 0.19 0.19 0.19 0.22 0.22 0.22 0.22 0.21 0.22 0.23 0.23 0.23 0.21 0.21 0.21 0.21 0.22 0.23 0.23 0.21 0.18 0.17 0.17 0.21 0.21 0.20 0.20 0.23 0.27 0.30 0.31 0.34 0.39 0.42 0.46 0.47 0.45 0.45 0.45 0.44
0.18 0.19 0.17 0.17 0.15 0.16 0.17 0.17 0.21 0.22 0.20 0.19 0.20 0.20 0.18 0.17 0.19 0.21 0.22 0.23 0.25 0.25 0.25 0.23 0.21 0.21 0.19 0.17 0.18 0.19 0.17 0.18 0.21 0.22 0.22 0.21 0.22 0.23 0.22 0.22 0.23 0.24 0.26 0.28 0.31 0.33 0.36 0.39 0.41 0.44 0.44 0.45 0.45 0.45
0.18 0.17 0.16 0.15 0.15 0.17 0.22 0.20 0.20 0.20 0.19 0.18 0.17 0.18 0.18 0.19 0.17 0.18 0.19 0.22 0.22 0.21 0.21 0.21 0.20 0.18 0.16 0.18 0.20 0.21 0.21 0.21 0.23 0.23 0.23 0.23 0.24 0.25 0.25 0.25 0.25 0.26 0.26 0.29 0.31 0.33 0.36 0.38 0.39 0.43 0.46 0.46 0.44 0.44
0.17 0.18 0.19 0.19 0.18 0.17 0.19 0.21 0.19 0.17 0.18 0.17 0.16 0.18 0.19 0.19 0.17 0.19 0.24 0.25 0.23 0.21 0.20 0.21 0.21 0.21 0.21 0.21 0.22 0.22 0.23 0.24 0.24 0.25 0.25 0.26 0.28 0.29 0.29 0.29 0.29 0.29 0.29 0.28 0.30 0.32 0.34 0.37 0.40 0.44 0.47 0.46 0.44 0.45

GFSWCAN_prec_pwat_117.txt.gz
Precipitable_Water
0.80 0.78 0.77 0.77 0.75 0.75 0.72 0.76 0.79 0.82 0.82 0.81 0.80 0.80 0.76 0.74 0.72 0.68 0.64 0.71 0.60 0.49 0.47 0.47 0.42 0.31 0.29 0.26 0.18 0.23 0.22 0.24 0.22 0.16 0.15 0.14 0.14 0.16 0.15 0.16 0.15 0.14 0.13 0.14 0.17 0.14 0.09 0.20 0.20 0.14 0.16 0.19 0.21 0.22
0.85 0.83 0.80 0.80 0.79 0.76 0.72 0.76 0.77 0.80 0.84 0.84 0.82 0.82 0.81 0.78 0.73 0.73 0.61 0.72 0.70 0.55 0.51 0.60 0.60 0.60 0.53 0.42 0.33 0.34 0.27 0.25 0.24 0.21 0.21 0.19 0.16 0.17 0.15 0.11 0.20 0.15 0.18 0.14 0.16 0.13 0.20 0.24 0.21 0.24 0.26 0.24 0.25 0.24
0.86 0.85 0.84 0.83 0.82 0.79 0.74 0.76 0.76 0.82 0.85 0.84 0.84 0.84 0.82 0.82 0.80 0.74 0.71 0.73 0.65 0.53 0.50 0.49 0.48 0.57 0.61 0.61 0.63 0.43 0.46 0.46 0.39 0.42 0.35 0.33 0.26 0.28 0.21 0.22 0.25 0.27 0.28 0.24 0.23 0.26 0.28 0.30 0.32 0.33 0.33 0.33 0.34 0.33
0.86 0.86 0.84 0.84 0.83 0.81 0.76 0.75 0.77 0.81 0.83 0.86 0.85 0.85 0.85 0.85 0.85 0.80 0.69 0.71 0.64 0.57 0.45 0.46 0.59 0.54 0.61 0.60 0.58 0.58 0.53 0.55 0.53 0.50 0.40 0.36 0.31 0.36 0.27 0.28 0.27 0.29 0.30 0.29 0.29 0.31 0.32 0.33 0.34 0.35 0.35 0.36 0.34 0.34
0.87 0.87 0.86 0.85 0.84 0.82 0.79 0.79 0.78 0.79 0.82 0.84 0.87 0.88 0.87 0.86 0.84 0.82 0.74 0.70 0.73 0.59 0.46 0.48 0.58 0.59 0.60 0.58 0.55 0.56 0.53 0.49 0.46 0.40 0.38 0.36 0.40 0.38 0.38 0.37 0.31 0.35 0.32 0.29 0.27 0.34 0.34 0.34 0.35 0.37 0.36 0.35 0.36 0.36
0.90 0.90 0.89 0.88 0.84 0.84 0.83 0.81 0.80 0.81 0.82 0.84 0.85 0.87 0.86 0.84 0.82 0.73 0.57 0.65 0.72 0.71 0.51 0.40 0.55 0.56 0.59 0.59 0.54 0.53 0.53 0.52 0.49 0.43 0.41 0.43 0.47 0.40 0.33 0.31 0.36 0.39 0.41 0.41 0.36 0.41 0.39 0.36 0.36 0.37 0.37 0.38 0.39 0.38
0.92 0.93 0.93 0.89 0.85 0.85 0.82 0.80 0.81 0.80 0.80 0.79 0.82 0.83 0.82 0.81 0.74 0.62 0.56 0.65 0.72 0.70 0.51 0.43 0.43 0.54 0.57 0.55 0.52 0.51 0.53 0.50 0.48 0.45 0.43 0.44 0.45 0.46 0.38 0.31 0.39 0.42 0.44 0.44 0.42 0.41 0.35 0.35 0.33 0.39 0.40 0.39 0.41 0.42
0.93 0.92 0.92 0.87 0.85 0.82 0.81 0.80 0.78 0.77 0.79 0.78 0.80 0.82 0.83 0.79 0.75 0.62 0.68 0.72 0.70 0.55 0.53 0.40 0.40 0.45 0.55 0.46 0.44 0.54 0.49 0.51 0.50 0.46 0.47 0.43 0.46 0.45 0.36 0.42 0.44 0.44 0.42 0.38 0.39 0.40 0.39 0.37 0.34 0.35 0.39 0.40 0.39 0.41
0.95 0.93 0.89 0.83 0.79 0.77 0.79 0.77 0.77 0.76 0.80 0.77 0.77 0.78 0.73 0.67 0.58 0.60 0.70 0.67 0.66 0.53 0.40 0.40 0.33 0.31 0.50 0.45 0.46 0.46 0.49 0.39 0.49 0.42 0.42 0.43 0.37 0.32 0.36 0.37 0.35 0.35 0.32 0.29 0.30 0.31 0.30 0.30 0.29 0.30 0.31 0.32 0.32 0.33
0.91 0.88 0.86 0.84 0.83 0.80 0.79 0.77 0.75 0.78 0.80 0.81 0.73 0.59 0.50 0.61 0.74 0.69 0.59 0.49 0.47 0.48 0.47 0.36 0.43 0.35 0.42 0.41 0.38 0.39 0.43 0.36 0.31 0.37 0.43 0.36 0.33 0.38 0.37 0.34 0.32 0.31 0.31 0.31 0.28 0.26 0.26 0.25 0.27 0.28 0.30 0.32 0.33 0.34
0.86 0.85 0.83 0.82 0.78 0.75 0.74 0.77 0.81 0.81 0.79 0.67 0.56 0.51 0.64 0.70 0.59 0.49 0.39 0.38 0.42 0.38 0.44 0.44 0.43 0.38 0.47 0.36 0.36 0.42 0.36 0.36 0.27 0.31 0.32 0.29 0.27 0.30 0.32 0.32 0.36 0.37 0.37 0.37 0.37 0.35 0.34 0.32 0.29 0.29 0.29 0.32 0.33 0.33
0.81 0.80 0.78 0.77 0.77 0.76 0.74 0.78 0.79 0.72 0.66 0.62 0.59 0.64 0.60 0.49 0.44 0.37 0.36 0.40 0.39 0.36 0.44 0.44 0.45 0.46 0.47 0.48 0.39 0.40 0.33 0.34 0.25 0.35 0.28 0.22 0.27 0.30 0.34 0.37 0.38 0.38 0.37 0.37 0.38 0.37 0.37 0.36 0.36 0.36 0.34 0.35 0.36 0.36
0.75 0.75 0.74 0.73 0.72 0.70 0.71 0.73 0.73 0.71 0.68 0.60 0.49 0.43 0.38 0.39 0.31 0.28 0.26 0.32 0.35 0.41 0.45 0.45 0.40 0.44 0.46 0.46 0.40 0.37 0.29 0.26 0.33 0.26 0.22 0.24 0.29 0.32 0.35 0.36 0.36 0.39 0.38 0.38 0.37 0.37 0.36 0.34 0.34 0.34 0.33 0.33 0.36 0.39
0.65 0.64 0.63 0.60 0.58 0.58 0.59 0.67 0.68 0.67 0.57 0.42 0.36 0.28 0.28 0.29 0.29 0.31 0.31 0.34 0.41 0.44 0.44 0.44 0.41 0.41 0.43 0.36 0.35 0.29 0.32 0.33 0.26 0.23 0.20 0.25 0.30 0.33 0.36 0.37 0.35 0.31 0.30 0.30 0.30 0.32 0.34 0.33 0.31 0.31 0.32 0.33 0.33 0.30
0.57 0.56 0.56 0.55 0.53 0.52 0.51 0.52 0.58 0.57 0.47 0.33 0.32 0.24 0.27 0.31 0.34 0.36 0.39 0.41 0.44 0.47 0.43 0.40 0.38 0.37 0.34 0.31 0.32 0.31 0.27 0.22 0.24 0.19 0.23 0.29 0.32 0.33 0.32 0.31 0.30 0.27 0.27 0.26 0.24 0.24 0.26 0.27 0.26 0.25 0.27 0.28 0.31 0.33
0.49 0.49 0.46 0.47 0.46 0.45 0.47 0.52 0.49 0.47 0.41 0.33 0.32 0.27 0.28 0.28 0.27 0.33 0.39 0.41 0.46 0.43 0.41 0.37 0.30 0.26 0.23 0.24 0.23 0.21 0.20 0.16 0.15 0.21 0.29 0.32 0.31 0.30 0.27 0.28 0.26 0.24 0.26 0.29 0.28 0.27 0.26 0.26 0.24 0.24 0.25 0.26 0.28 0.30
0.44 0.36 0.42 0.42 0.44 0.46 0.46 0.42 0.39 0.33 0.30 0.29 0.25 0.28 0.27 0.25 0.25 0.29 0.33 0.36 0.42 0.35 0.28 0.30 0.24 0.22 0.27 0.22 0.21 0.24 0.16 0.16 0.21 0.24 0.26 0.26 0.23 0.20 0.21 0.24 0.26 0.27 0.28 0.30 0.29 0.28 0.26 0.25 0.25 0.23 0.21 0.25 0.30 0.31
0.35 0.39 0.43 0.44 0.44 0.44 0.42 0.37 0.30 0.26 0.22 0.25 0.22 0.24 0.26 0.26 0.23 0.24 0.27 0.32 0.32 0.29 0.28 0.24 0.27 0.20 0.18 0.15 0.14 0.16 0.19 0.21 0.23 0.23 0.23 0.23 0.24 0.23 0.23 0.20 0.20 0.21 0.22 0.24 0.26 0.24 0.24 0.23 0.20 0.20 0.24 0.27 0.30 0.32
0.36 0.38 0.41 0.44 0.39 0.33 0.28 0.30 0.31 0.21 0.21 0.24 0.24 0.25 0.25 0.24 0.26 0.26 0.25 0.27 0.28 0.30 0.27 0.26 0.20 0.17 0.15 0.17 0.18 0.20 0.21 0.22 0.21 0.20 0.19 0.19 0.21 0.22 0.22 0.23 0.23 0.22 0.21 0.21 0.21 0.20 0.21 0.23 0.24 0.27 0.29 0.31 0.31 0.33
0.41 0.41 0.43 0.42 0.40 0.29 0.23 0.25 0.33 0.23 0.18 0.19 0.22 0.21 0.22 0.21 0.23 0.23 0.23 0.24 0.25 0.27 0.23 0.21 0.18 0.19 0.19 0.19 0.19 0.19 0.19 0.20 0.20 0.18 0.15 0.16 0.20 0.21 0.24 0.25 0.24 0.23 0.23 0.24 0.23 0.24 0.23 0.24 0.28 0.31 0.32 0.32 0.30 0.33
0.43 0.41 0.42 0.41 0.37 0.34 0.28 0.26 0.24 0.24 0.23 0.20 0.21 0.20 0.19 0.21 0.20 0.20 0.19 0.23 0.23 0.22 0.19 0.20 0.18 0.18 0.20 0.20 0.20 0.20 0.20 0.20 0.19 0.18 0.16 0.17 0.20 0.23 0.25 0.26 0.26 0.25 0.24 0.24 0.23 0.22 0.23 0.26 0.29 0.29 0.28 0.25 0.27 0.32
0.43 0.48 0.43 0.44 0.34 0.31 0.27 0.30 0.25 0.28 0.23 0.20 0.20 0.21 0.17 0.15 0.16 0.17 0.21 0.19 0.19 0.19 0.20 0.19 0.20 0.20 0.19 0.19 0.20 0.20 0.21 0.21 0.20 0.20 0.21 0.23 0.22 0.23 0.24 0.26 0.26 0.25 0.25 0.26 0.25 0.26 0.29 0.32 0.30 0.30 0.28 0.27 0.28 0.28
0.46 0.42 0.37 0.36 0.28 0.26 0.22 0.29 0.21 0.21 0.17 0.16 0.18 0.17 0.16 0.15 0.17 0.21 0.17 0.18 0.17 0.19 0.20 0.21 0.21 0.20 0.20 0.20 0.21 0.22 0.22 0.21 0.21 0.21 0.22 0.24 0.26 0.28 0.28 0.29 0.31 0.30 0.29 0.29 0.34 0.36 0.35 0.33 0.31 0.30 0.31 0.30 0.29 0.28
0.46 0.36 0.29 0.27 0.25 0.21 0.25 0.20 0.22 0.19 0.18 0.15 0.14 0.13 0.14 0.14 0.18 0.16 0.13 0.14 0.15 0.17 0.18 0.17 0.17 0.17 0.18 0.19 0.19 0.19 0.20 0.22 0.22 0.24 0.27 0.28 0.27 0.27 0.30 0.31 0.32 0.33 0.35 0.35 0.34 0.36 0.35 0.32 0.33 0.33 0.32 0.30 0.31 0.31
0.29 0.27 0.27 0.22 0.25 0.20 0.17 0.16 0.16 0.16 0.13 0.14 0.14 0.14 0.15 0.17 0.14 0.13 0.12 0.13 0.14 0.14 0.15 0.16 0.17 0.17 0.17 0.17 0.18 0.19 0.21 0.23 0.22 0.24 0.27 0.28 0.28 0.28 0.26 0.27 0.31 0.33 0.35 0.36 0.34 0.33 0.31 0.34 0.34 0.33 0.31 0.29 0.27 0.28
0.21 0.26 0.23 0.20 0.20 0.17 0.16 0.14 0.15 0.14 0.15 0.15 0.15 0.16 0.15 0.15 0.14 0.13 0.12 0.11 0.12 0.14 0.15 0.16 0.16 0.17 0.18 0.19 0.18 0.17 0.17 0.20 0.21 0.21 0.22 0.23 0.25 0.26 0.24 0.22 0.22 0.24 0.30 0.35 0.34 0.31 0.29 0.28 0.28 0.28 0.26 0.24 0.25 0.28
0.20 0.21 0.24 0.26 0.22 0.20 0.18 0.18 0.18 0.16 0.14 0.13 0.14 0.14 0.16 0.14 0.12 0.12 0.14 0.16 0.16 0.17 0.18 0.19 0.19 0.19 0.18 0.18 0.20 0.20 0.21 0.21 0.20 0.19 0.21 0.22 0.25 0.26 0.25 0.24 0.23 0.22 0.25 0.30 0.31 0.29 0.27 0.27 0.27 0.27 0.24 0.23 0.24 0.29
0.23 0.22 0.16 0.18 0.19 0.20 0.17 0.17 0.16 0.14 0.14 0.16 0.15 0.13 0.12 0.12 0.11 0.14 0.15 0.17 0.18 0.19 0.20 0.20 0.20 0.20 0.19 0.19 0.20 0.20 0.20 0.20 0.21 0.23 0.25 0.24 0.24 0.24 0.25 0.27 0.29 0.24 0.25 0.27 0.26 0.26 0.27 0.27 0.25 0.26 0.25 0.22 0.24 0.30
0.21 0.21 0.19 0.16 0.17 0.18 0.17 0.15 0.14 0.15 0.15 0.15 0.14 0.14 0.13 0.15 0.16 0.16 0.16 0.18 0.19 0.19 0.18 0.17 0.17 0.18 0.19 0.20 0.20 0.20 0.21 0.20 0.19 0.17 0.16 0.16 0.15 0.16 0.21 0.23 0.23 0.22 0.23 0.23 0.24 0.26 0.26 0.26 0.25 0.26 0.26 0.25 0.27 0.31
0.17 0.20 0.18 0.16 0.15 0.14 0.14 0.15 0.14 0.15 0.18 0.19 0.19 0.19 0.18 0.16 0.16 0.19 0.19 0.19 0.19 0.19 0.20 0.22 0.23 0.23 0.23 0.22 0.21 0.21 0.23 0.23 0.22 0.22 0.19 0.18 0.17 0.20 0.23 0.23 0.23 0.23 0.24 0.24 0.23 0.23 0.26 0.26 0.26 0.25 0.24 0.25 0.27 0.30
0.19 0.18 0.16 0.15 0.14 0.14 0.14 0.16 0.19 0.19 0.19 0.17 0.17 0.17 0.14 0.14 0.16 0.20 0.21 0.22 0.23 0.25 0.25 0.25 0.26 0.27 0.28 0.26 0.26 0.26 0.23 0.25 0.27 0.26 0.26 0.25 0.25 0.24 0.24 0.24 0.24 0.25 0.25 0.24 0.23 0.22 0.23 0.23 0.23 0.23 0.23 0.25 0.27 0.30
0.16 0.14 0.14 0.12 0.12 0.14 0.18 0.16 0.15 0.15 0.14 0.15 0.15 0.17 0.17 0.17 0.13 0.19 0.23 0.26 0.25 0.25 0.26 0.28 0.27 0.26 0.28 0.30 0.31 0.32 0.33 0.32 0.31 0.30 0.28 0.28 0.26 0.26 0.24 0.23 0.23 0.25 0.25 0.24 0.23 0.23 0.22 0.23 0.25 0.26 0.27 0.27 0.29 0.31
0.15 0.15 0.15 0.15 0.14 0.13 0.15 0.17 0.16 0.15 0.15 0.15 0.15 0.16 0.16 0.16 0.15 0.19 0.25 0.28 0.27 0.27 0.27 0.28 0.29 0.30 0.30 0.31 0.31 0.31 0.32 0.32 0.31 0.32 0.31 0.29 0.27 0.26 0.25 0.24 0.23 0.24 0.24 0.23 0.23 0.23 0.25 0.28 0.28 0.29 0.28 0.29 0.30 0.32

GFSWCAN_prec_pwat_120.txt.gz
Precipitable_Water
0.75 0.77 0.76 0.75 0.75 0.75 0.72 0.69 0.73 0.77 0.77 0.76 0.76 0.79 0.77 0.73 0.67 0.65 0.65 0.71 0.57 0.47 0.49 0.54 0.51 0.44 0.41 0.33 0.19 0.23 0.23 0.25 0.22 0.16 0.15 0.14 0.13 0.15 0.14 0.16 0.16 0.15 0.14 0.14 0.17 0.14 0.09 0.21 0.22 0.16 0.20 0.26 0.28 0.28
0.77 0.81 0.80 0.78 0.77 0.77 0.76 0.70 0.74 0.77 0.77 0.76 0.78 0.78 0.78 0.78 0.76 0.69 0.58 0.72 0.73 0.56 0.50 0.59 0.59 0.60 0.54 0.50 0.38 0.37 0.34 0.36 0.33 0.23 0.23 0.24 0.21 0.23 0.21 0.15 0.24 0.19 0.24 0.20 0.22 0.20 0.27 0.30 0.31 0.34 0.35 0.33 0.33 0.34
0.80 0.84 0.83 0.81 0.81 0.80 0.81 0.73 0.74 0.77 0.79 0.80 0.80 0.78 0.77 0.77 0.78 0.75 0.67 0.69 0.63 0.54 0.53 0.52 0.51 0.59 0.61 0.59 0.61 0.41 0.44 0.47 0.44 0.46 0.35 0.33 0.27 0.31 0.24 0.23 0.23 0.26 0.30 0.25 0.25 0.27 0.29 0.32 0.35 0.36 0.37 0.36 0.38 0.38
0.80 0.85 0.86 0.82 0.82 0.82 0.83 0.78 0.76 0.77 0.79 0.81 0.83 0.81 0.79 0.78 0.80 0.77 0.67 0.70 0.65 0.57 0.44 0.47 0.62 0.57 0.65 0.62 0.59 0.58 0.53 0.56 0.54 0.50 0.40 0.34 0.30 0.36 0.30 0.30 0.27 0.28 0.30 0.27 0.28 0.31 0.34 0.35 0.37 0.38 0.36 0.36 0.36 0.38
0.84 0.87 0.88 0.86 0.84 0.85 0.82 0.79 0.79 0.79 0.77 0.78 0.80 0.86 0.84 0.81 0.81 0.76 0.69 0.68 0.69 0.56 0.44 0.47 0.57 0.60 0.64 0.64 0.60 0.59 0.56 0.52 0.48 0.43 0.40 0.36 0.40 0.38 0.40 0.38 0.33 0.36 0.32 0.29 0.28 0.36 0.37 0.37 0.39 0.39 0.35 0.35 0.39 0.40
0.89 0.87 0.89 0.89 0.86 0.88 0.82 0.81 0.81 0.80 0.79 0.80 0.81 0.84 0.85 0.82 0.78 0.69 0.55 0.63 0.69 0.67 0.46 0.38 0.53 0.53 0.57 0.58 0.57 0.55 0.56 0.54 0.51 0.45 0.43 0.44 0.48 0.41 0.34 0.32 0.38 0.42 0.43 0.43 0.40 0.43 0.39 0.38 0.40 0.38 0.35 0.36 0.39 0.40
0.88 0.90 0.91 0.90 0.92 0.87 0.83 0.84 0.84 0.81 0.79 0.80 0.79 0.83 0.82 0.81 0.74 0.59 0.54 0.64 0.73 0.69 0.46 0.38 0.41 0.53 0.56 0.54 0.52 0.51 0.53 0.51 0.49 0.46 0.43 0.45 0.46 0.46 0.39 0.32 0.39 0.43 0.46 0.46 0.43 0.38 0.31 0.34 0.32 0.34 0.33 0.34 0.35 0.35
0.92 0.90 0.92 0.93 0.93 0.89 0.84 0.84 0.83 0.81 0.79 0.80 0.81 0.83 0.82 0.80 0.74 0.62 0.67 0.71 0.71 0.56 0.51 0.37 0.37 0.41 0.53 0.45 0.43 0.52 0.47 0.49 0.48 0.45 0.47 0.43 0.45 0.45 0.35 0.40 0.43 0.43 0.38 0.35 0.35 0.36 0.33 0.33 0.32 0.31 0.33 0.32 0.30 0.30
0.95 0.96 0.94 0.93 0.93 0.90 0.85 0.82 0.81 0.82 0.82 0.83 0.81 0.79 0.76 0.68 0.57 0.59 0.71 0.70 0.68 0.55 0.41 0.42 0.34 0.31 0.50 0.43 0.44 0.44 0.45 0.36 0.45 0.39 0.40 0.41 0.36 0.30 0.34 0.36 0.33 0.31 0.32 0.33 0.34 0.34 0.34 0.32 0.32 0.31 0.29 0.28 0.28 0.29
0.97 0.98 0.97 0.96 0.94 0.92 0.85 0.82 0.81 0.79 0.78 0.79 0.72 0.60 0.50 0.61 0.74 0.70 0.60 0.52 0.52 0.54 0.51 0.39 0.47 0.37 0.42 0.42 0.40 0.40 0.43 0.37 0.32 0.37 0.43 0.35 0.31 0.38 0.40 0.36 0.32 0.32 0.32 0.33 0.31 0.31 0.32 0.32 0.32 0.31 0.32 0.34 0.33 0.34
0.94 0.96 0.91 0.90 0.90 0.88 0.85 0.81 0.79 0.81 0.82 0.71 0.57 0.53 0.66 0.72 0.60 0.50 0.41 0.39 0.42 0.38 0.45 0.46 0.45 0.40 0.50 0.38 0.38 0.44 0.39 0.40 0.31 0.34 0.34 0.31 0.28 0.34 0.34 0.34 0.35 0.36 0.37 0.37 0.38 0.37 0.37 0.35 0.34 0.33 0.32 0.32 0.33 0.33
0.86 0.89 0.91 0.88 0.87 0.87 0.86 0.84 0.85 0.80 0.74 0.68 0.66 0.70 0.63 0.51 0.44 0.37 0.33 0.38 0.37 0.34 0.43 0.43 0.46 0.49 0.49 0.51 0.43 0.44 0.38 0.38 0.29 0.40 0.33 0.27 0.32 0.35 0.36 0.36 0.37 0.37 0.36 0.35 0.34 0.32 0.32 0.32 0.33 0.31 0.30 0.30 0.30 0.31
0.83 0.83 0.83 0.82 0.81 0.80 0.84 0.85 0.83 0.79 0.77 0.71 0.57 0.47 0.42 0.42 0.33 0.28 0.25 0.30 0.32 0.40 0.43 0.44 0.40 0.45 0.47 0.48 0.43 0.41 0.34 0.31 0.38 0.30 0.26 0.27 0.32 0.34 0.36 0.37 0.37 0.38 0.36 0.34 0.32 0.31 0.31 0.30 0.30 0.28 0.26 0.26 0.25 0.25
0.75 0.76 0.77 0.77 0.76 0.77 0.76 0.82 0.80 0.77 0.67 0.49 0.40 0.31 0.33 0.31 0.31 0.32 0.31 0.34 0.40 0.42 0.43 0.44 0.41 0.41 0.44 0.39 0.39 0.31 0.34 0.34 0.26 0.23 0.22 0.29 0.33 0.36 0.37 0.39 0.36 0.36 0.36 0.35 0.34 0.32 0.30 0.29 0.29 0.28 0.26 0.25 0.24 0.22
0.70 0.70 0.71 0.70 0.70 0.72 0.74 0.76 0.77 0.71 0.55 0.40 0.38 0.28 0.30 0.36 0.38 0.39 0.40 0.40 0.43 0.47 0.44 0.43 0.42 0.42 0.40 0.37 0.36 0.31 0.25 0.22 0.25 0.22 0.27 0.30 0.32 0.32 0.32 0.34 0.34 0.34 0.33 0.31 0.29 0.24 0.21 0.22 0.23 0.24 0.27 0.27 0.25 0.23
0.64 0.64 0.62 0.64 0.62 0.61 0.62 0.66 0.65 0.60 0.49 0.39 0.34 0.28 0.33 0.30 0.30 0.32 0.36 0.37 0.45 0.44 0.45 0.42 0.36 0.32 0.29 0.28 0.24 0.22 0.22 0.20 0.20 0.25 0.29 0.31 0.32 0.34 0.34 0.33 0.32 0.30 0.27 0.23 0.20 0.19 0.20 0.20 0.20 0.20 0.22 0.23 0.22 0.23
0.55 0.47 0.54 0.55 0.54 0.58 0.58 0.52 0.48 0.40 0.35 0.31 0.27 0.32 0.31 0.29 0.27 0.30 0.36 0.39 0.48 0.43 0.36 0.37 0.29 0.22 0.26 0.21 0.20 0.23 0.19 0.18 0.21 0.25 0.26 0.27 0.25 0.23 0.21 0.19 0.18 0.17 0.18 0.18 0.20 0.22 0.22 0.22 0.22 0.20 0.18 0.18 0.21 0.26
0.40 0.44 0.48 0.51 0.51 0.49 0.45 0.42 0.33 0.31 0.26 0.28 0.23 0.24 0.27 0.27 0.25 0.25 0.27 0.34 0.34 0.34 0.32 0.29 0.30 0.22 0.19 0.17 0.17 0.19 0.21 0.23 0.22 0.22 0.22 0.22 0.20 0.17 0.16 0.15 0.16 0.17 0.18 0.19 0.21 0.23 0.22 0.20 0.20 0.20 0.21 0.22 0.24 0.28
0.40 0.45 0.48 0.48 0.44 0.38 0.32 0.32 0.33 0.23 0.24 0.26 0.25 0.25 0.25 0.25 0.27 0.26 0.25 0.27 0.29 0.31 0.29 0.26 0.21 0.18 0.17 0.17 0.16 0.18 0.19 0.19 0.19 0.19 0.18 0.17 0.18 0.16 0.16 0.18 0.19 0.19 0.18 0.19 0.21 0.22 0.22 0.22 0.23 0.24 0.24 0.25 0.26 0.28
0.43 0.47 0.48 0.44 0.40 0.29 0.25 0.27 0.33 0.23 0.19 0.22 0.25 0.23 0.22 0.21 0.21 0.21 0.21 0.23 0.24 0.25 0.22 0.20 0.19 0.19 0.19 0.20 0.21 0.19 0.18 0.18 0.18 0.17 0.16 0.17 0.18 0.19 0.19 0.20 0.19 0.20 0.21 0.22 0.23 0.23 0.22 0.23 0.24 0.24 0.26 0.26 0.28 0.26
0.43 0.46 0.47 0.43 0.38 0.32 0.27 0.25 0.24 0.24 0.23 0.21 0.23 0.22 0.20 0.21 0.19 0.17 0.16 0.23 0.21 0.21 0.18 0.18 0.17 0.18 0.19 0.19 0.19 0.19 0.19 0.19 0.19 0.19 0.18 0.18 0.20 0.22 0.21 0.22 0.22 0.23 0.22 0.23 0.22 0.22 0.25 0.26 0.28 0.31 0.30 0.31 0.32 0.31
0.40 0.45 0.41 0.40 0.30 0.29 0.25 0.29 0.24 0.27 0.23 0.21 0.21 0.22 0.18 0.16 0.15 0.16 0.20 0.17 0.16 0.15 0.16 0.15 0.16 0.17 0.17 0.17 0.17 0.19 0.20 0.22 0.22 0.22 0.22 0.22 0.20 0.20 0.21 0.21 0.22 0.22 0.22 0.22 0.24 0.25 0.28 0.32 0.32 0.34 0.35 0.35 0.35 0.32
0.46 0.42 0.37 0.34 0.27 0.24 0.22 0.30 0.21 0.22 0.17 0.17 0.19 0.16 0.16 0.15 0.16 0.19 0.14 0.15 0.14 0.15 0.16 0.18 0.16 0.17 0.17 0.18 0.20 0.21 0.21 0.21 0.21 0.20 0.20 0.21 0.20 0.21 0.22 0.23 0.25 0.24 0.23 0.24 0.28 0.30 0.31 0.35 0.34 0.33 0.35 0.36 0.35 0.34
0.48 0.37 0.29 0.27 0.25 0.21 0.24 0.20 0.22 0.19 0.18 0.15 0.14 0.12 0.13 0.13 0.17 0.15 0.12 0.11 0.12 0.14 0.14 0.14 0.16 0.17 0.18 0.19 0.18 0.17 0.17 0.19 0.20 0.19 0.20 0.20 0.20 0.20 0.23 0.24 0.25 0.25 0.25 0.26 0.28 0.28 0.29 0.31 0.34 0.32 0.33 0.33 0.32 0.32
0.29 0.27 0.27 0.22 0.24 0.20 0.18 0.17 0.17 0.16 0.12 0.14 0.13 0.13 0.14 0.17 0.14 0.13 0.11 0.11 0.11 0.12 0.13 0.15 0.16 0.16 0.16 0.16 0.17 0.17 0.18 0.19 0.17 0.17 0.17 0.18 0.18 0.20 0.20 0.19 0.21 0.23 0.24 0.25 0.26 0.28 0.26 0.26 0.28 0.29 0.30 0.30 0.28 0.26
0.22 0.26 0.23 0.21 0.20 0.18 0.17 0.15 0.15 0.14 0.14 0.14 0.14 0.15 0.15 0.15 0.13 0.11 0.10 0.10 0.12 0.13 0.14 0.15 0.15 0.16 0.16 0.17 0.17 0.16 0.16 0.18 0.19 0.18 0.16 0.17 0.19 0.19 0.18 0.18 0.17 0.17 0.20 0.24 0.25 0.24 0.25 0.24 0.26 0.27 0.27 0.28 0.29 0.28
0.22 0.22 0.26 0.27 0.22 0.21 0.19 0.19 0.18 0.16 0.14 0.13 0.13 0.13 0.14 0.12 0.11 0.10 0.12 0.13 0.15 0.16 0.17 0.18 0.18 0.17 0.16 0.16 0.17 0.18 0.20 0.22 0.22 0.20 0.21 0.21 0.22 0.23 0.22 0.20 0.19 0.19 0.21 0.23 0.24 0.25 0.25 0.23 0.24 0.26 0.26 0.28 0.29 0.26
0.26 0.25 0.19 0.21 0.21 0.22 0.18 0.18 0.16 0.15 0.14 0.16 0.15 0.12 0.11 0.11 0.10 0.12 0.14 0.16 0.16 0.18 0.18 0.18 0.18 0.18 0.18 0.19 0.20 0.20 0.21 0.22 0.23 0.23 0.24 0.24 0.23 0.22 0.23 0.23 0.22 0.22 0.22 0.23 0.24 0.24 0.24 0.24 0.23 0.24 0.25 0.25 0.25 0.25
0.24 0.25 0.25 0.21 0.22 0.22 0.21 0.18 0.15 0.15 0.14 0.14 0.13 0.12 0.11 0.13 0.14 0.15 0.16 0.17 0.18 0.18 0.17 0.17 0.18 0.21 0.22 0.23 0.23 0.24 0.25 0.25 0.24 0.21 0.20 0.20 0.19 0.18 0.23 0.24 0.24 0.23 0.22 0.22 0.22 0.23 0.24 0.24 0.24 0.25 0.26 0.26 0.26 0.26
0.22 0.25 0.22 0.20 0.18 0.17 0.16 0.18 0.15 0.14 0.16 0.17 0.17 0.16 0.16 0.15 0.15 0.18 0.18 0.17 0.18 0.18 0.20 0.22 0.22 0.23 0.23 0.25 0.25 0.26 0.30 0.31 0.31 0.29 0.26 0.25 0.24 0.27 0.27 0.25 0.23 0.22 0.23 0.23 0.23 0.23 0.25 0.25 0.25 0.25 0.24 0.23 0.23 0.24
0.24 0.22 0.20 0.19 0.16 0.15 0.14 0.16 0.18 0.18 0.16 0.15 0.16 0.15 0.13 0.13 0.14 0.17 0.18 0.19 0.20 0.21 0.21 0.22 0.23 0.26 0.26 0.26 0.27 0.26 0.25 0.29 0.32 0.32 0.33 0.33 0.32 0.32 0.33 0.32 0.29 0.27 0.26 0.26 0.25 0.24 0.23 0.23 0.23 0.22 0.21 0.21 0.23 0.26
0.19 0.16 0.14 0.13 0.12 0.14 0.17 0.15 0.14 0.13 0.13 0.13 0.12 0.15 0.14 0.15 0.14 0.15 0.16 0.18 0.19 0.19 0.22 0.24 0.24 0.25 0.28 0.29 0.30 0.31 0.33 0.33 0.33 0.33 0.32 0.32 0.33 0.34 0.34 0.34 0.32 0.30 0.28 0.27 0.26 0.24 0.23 0.23 0.22 0.22 0.21 0.23 0.27 0.28
0.16 0.16 0.15 0.14 0.12 0.10 0.11 0.14 0.14 0.13 0.13 0.13 0.13 0.14 0.15 0.16 0.13 0.14 0.18 0.20 0.19 0.21 0.22 0.24 0.26 0.28 0.29 0.31 0.33 0.34 0.35 0.35 0.34 0.33 0.33 0.33 0.33 0.33 0.33 0.32 0.31 0.29 0.27 0.26 0.24 0.23 0.23 0.23 0.23 0.23 0.25 0.28 0.30 0.30

GFSWCAN_prec_pwat_123.txt.gz
Precipitable_Water
0.67 0.69 0.74 0.77 0.74 0.75 0.75 0.74 0.69 0.70 0.72 0.72 0.72 0.73 0.76 0.76 0.71 0.65 0.60 0.68 0.58 0.50 0.48 0.52 0.50 0.44 0.44 0.41 0.30 0.28 0.25 0.27 0.25 0.16 0.14 0.14 0.13 0.15 0.15 0.16 0.17 0.15 0.15 0.16 0.20 0.17 0.12 0.25 0.25 0.20 0.25 0.32 0.33 0.34
0.75 0.71 0.74 0.79 0.78 0.77 0.77 0.77 0.72 0.72 0.73 0.73 0.73 0.73 0.75 0.76 0.74 0.71 0.59 0.71 0.68 0.53 0.51 0.61 0.61 0.61 0.55 0.51 0.43 0.41 0.35 0.36 0.37 0.29 0.25 0.26 0.24 0.26 0.23 0.18 0.27 0.19 0.23 0.21 0.23 0.21 0.28 0.32 0.30 0.34 0.37 0.36 0.35 0.32
0.86 0.76 0.77 0.81 0.81 0.80 0.80 0.80 0.76 0.74 0.75 0.75 0.76 0.77 0.76 0.75 0.75 0.71 0.66 0.68 0.63 0.52 0.51 0.53 0.52 0.61 0.65 0.62 0.63 0.42 0.44 0.45 0.42 0.46 0.38 0.34 0.27 0.31 0.25 0.26 0.26 0.27 0.30 0.25 0.24 0.27 0.29 0.31 0.36 0.39 0.40 0.36 0.35 0.35
0.96 0.84 0.78 0.80 0.85 0.82 0.81 0.83 0.78 0.77 0.79 0.79 0.79 0.79 0.77 0.76 0.76 0.75 0.65 0.69 0.63 0.55 0.43 0.47 0.62 0.56 0.64 0.62 0.60 0.59 0.55 0.57 0.54 0.51 0.41 0.36 0.31 0.35 0.30 0.31 0.30 0.32 0.33 0.30 0.30 0.32 0.35 0.37 0.40 0.40 0.38 0.36 0.35 0.36
1.02 0.90 0.84 0.82 0.96 0.84 0.84 0.83 0.80 0.77 0.79 0.79 0.80 0.82 0.80 0.80 0.75 0.74 0.68 0.67 0.68 0.54 0.42 0.44 0.55 0.58 0.62 0.61 0.58 0.59 0.58 0.55 0.51 0.44 0.40 0.36 0.40 0.37 0.39 0.38 0.33 0.36 0.33 0.30 0.30 0.38 0.40 0.38 0.38 0.39 0.36 0.34 0.34 0.33
1.00 1.00 0.83 0.90 0.99 0.88 0.86 0.86 0.81 0.78 0.76 0.77 0.76 0.80 0.82 0.80 0.78 0.70 0.55 0.63 0.69 0.68 0.46 0.37 0.51 0.50 0.55 0.57 0.54 0.54 0.55 0.54 0.51 0.46 0.43 0.45 0.49 0.42 0.33 0.32 0.38 0.42 0.42 0.42 0.38 0.44 0.40 0.35 0.36 0.36 0.33 0.34 0.34 0.34
0.99 0.99 0.91 0.88 0.94 0.93 0.88 0.88 0.84 0.80 0.78 0.82 0.77 0.79 0.81 0.81 0.77 0.61 0.54 0.64 0.74 0.68 0.46 0.38 0.40 0.51 0.54 0.53 0.52 0.51 0.53 0.50 0.48 0.45 0.43 0.44 0.45 0.45 0.38 0.31 0.39 0.43 0.45 0.44 0.43 0.37 0.32 0.34 0.31 0.35 0.34 0.33 0.32 0.32
0.98 0.98 0.93 0.88 0.93 0.95 0.94 0.89 0.86 0.86 0.82 0.81 0.80 0.82 0.80 0.79 0.77 0.65 0.70 0.72 0.71 0.56 0.50 0.37 0.38 0.41 0.53 0.44 0.42 0.52 0.47 0.48 0.47 0.45 0.46 0.43 0.44 0.43 0.33 0.39 0.43 0.43 0.36 0.34 0.34 0.36 0.34 0.34 0.34 0.33 0.33 0.32 0.31 0.31
0.99 0.98 0.93 0.91 0.94 0.99 0.98 0.88 0.88 0.84 0.86 0.83 0.84 0.83 0.77 0.67 0.58 0.60 0.71 0.70 0.68 0.54 0.42 0.42 0.36 0.34 0.51 0.46 0.46 0.45 0.46 0.36 0.45 0.39 0.40 0.42 0.37 0.31 0.36 0.39 0.39 0.35 0.34 0.35 0.36 0.35 0.35 0.34 0.34 0.34 0.34 0.33 0.31 0.31
0.96 0.93 0.92 0.94 0.97 0.95 0.98 0.94 0.89 0.86 0.84 0.85 0.79 0.65 0.55 0.59 0.70 0.68 0.59 0.51 0.51 0.53 0.50 0.40 0.48 0.39 0.45 0.43 0.41 0.41 0.43 0.38 0.33 0.39 0.46 0.39 0.36 0.42 0.44 0.41 0.38 0.38 0.37 0.37 0.32 0.30 0.32 0.32 0.33 0.33 0.32 0.31 0.29 0.28
0.92 0.91 0.92 0.94 0.94 0.95 0.96 0.93 0.89 0.88 0.85 0.76 0.64 0.58 0.69 0.72 0.60 0.52 0.43 0.39 0.41 0.37 0.44 0.46 0.46 0.41 0.50 0.39 0.39 0.44 0.38 0.39 0.32 0.36 0.37 0.34 0.33 0.39 0.44 0.40 0.41 0.40 0.38 0.36 0.35 0.35 0.36 0.35 0.34 0.33 0.31 0.29 0.28 0.28
0.93 0.93 0.94 0.93 0.94 0.93 0.93 0.91 0.91 0.84 0.77 0.71 0.65 0.69 0.66 0.57 0.51 0.42 0.35 0.38 0.37 0.33 0.42 0.42 0.44 0.46 0.46 0.49 0.41 0.43 0.37 0.38 0.30 0.42 0.35 0.29 0.36 0.38 0.39 0.39 0.39 0.39 0.37 0.36 0.37 0.36 0.35 0.34 0.33 0.32 0.31 0.30 0.30 0.30
0.92 0.93 0.92 0.92 0.91 0.91 0.89 0.89 0.87 0.84 0.80 0.73 0.64 0.56 0.50 0.48 0.37 0.32 0.27 0.31 0.33 0.39 0.43 0.44 0.40 0.45 0.47 0.47 0.42 0.40 0.35 0.33 0.40 0.32 0.29 0.31 0.36 0.38 0.38 0.38 0.38 0.39 0.39 0.37 0.34 0.33 0.32 0.31 0.30 0.29 0.27 0.26 0.24 0.21
0.88 0.87 0.87 0.85 0.87 0.85 0.86 0.86 0.82 0.79 0.70 0.55 0.48 0.39 0.39 0.35 0.34 0.34 0.33 0.35 0.41 0.43 0.43 0.45 0.42 0.41 0.43 0.39 0.39 0.32 0.36 0.35 0.27 0.25 0.25 0.31 0.34 0.36 0.35 0.36 0.35 0.33 0.33 0.33 0.33 0.33 0.31 0.30 0.29 0.29 0.27 0.24 0.21 0.17
0.79 0.79 0.79 0.78 0.79 0.82 0.82 0.80 0.79 0.74 0.60 0.49 0.47 0.35 0.35 0.39 0.41 0.40 0.42 0.43 0.46 0.48 0.45 0.42 0.41 0.42 0.40 0.37 0.37 0.34 0.29 0.26 0.26 0.24 0.27 0.31 0.33 0.34 0.33 0.33 0.31 0.29 0.30 0.29 0.29 0.28 0.27 0.26 0.26 0.24 0.21 0.19 0.19 0.19
0.72 0.72 0.70 0.72 0.74 0.75 0.76 0.75 0.71 0.65 0.55 0.47 0.44 0.37 0.40 0.37 0.36 0.38 0.40 0.39 0.46 0.45 0.46 0.44 0.38 0.35 0.34 0.36 0.31 0.28 0.26 0.22 0.23 0.27 0.30 0.31 0.30 0.31 0.31 0.30 0.29 0.29 0.27 0.25 0.24 0.23 0.22 0.21 0.19 0.18 0.19 0.19 0.19 0.19
0.63 0.59 0.66 0.67 0.69 0.72 0.70 0.63 0.57 0.49 0.44 0.39 0.35 0.39 0.36 0.38 0.36 0.36 0.39 0.42 0.50 0.44 0.37 0.38 0.31 0.30 0.33 0.27 0.26 0.30 0.25 0.23 0.24 0.27 0.29 0.29 0.28 0.28 0.27 0.23 0.21 0.19 0.18 0.18 0.17 0.17 0.17 0.17 0.17 0.17 0.15 0.16 0.19 0.20
0.53 0.60 0.61 0.64 0.63 0.59 0.56 0.53 0.44 0.40 0.33 0.34 0.29 0.31 0.35 0.35 0.29 0.29 0.33 0.37 0.36 0.34 0.32 0.28 0.31 0.25 0.23 0.20 0.20 0.23 0.26 0.27 0.26 0.25 0.23 0.22 0.21 0.20 0.19 0.18 0.18 0.18 0.17 0.17 0.17 0.17 0.17 0.16 0.15 0.16 0.18 0.19 0.22 0.23
0.50 0.55 0.58 0.58 0.55 0.45 0.38 0.40 0.38 0.27 0.29 0.32 0.30 0.30 0.31 0.30 0.31 0.31 0.30 0.31 0.31 0.32 0.30 0.28 0.23 0.20 0.19 0.21 0.20 0.21 0.20 0.20 0.18 0.17 0.17 0.18 0.19 0.18 0.19 0.19 0.19 0.18 0.18 0.18 0.17 0.16 0.17 0.17 0.19 0.21 0.22 0.24 0.25 0.26
0.49 0.56 0.55 0.50 0.46 0.35 0.31 0.33 0.38 0.29 0.25 0.26 0.26 0.25 0.25 0.23 0.24 0.24 0.24 0.25 0.25 0.24 0.21 0.18 0.16 0.16 0.16 0.16 0.17 0.16 0.16 0.17 0.17 0.16 0.16 0.17 0.19 0.20 0.19 0.19 0.19 0.20 0.19 0.18 0.18 0.19 0.18 0.19 0.22 0.24 0.25 0.28 0.30 0.28
0.52 0.53 0.50 0.45 0.39 0.33 0.29 0.27 0.25 0.26 0.25 0.22 0.24 0.23 0.22 0.23 0.20 0.19 0.19 0.23 0.20 0.17 0.14 0.15 0.13 0.13 0.15 0.15 0.16 0.16 0.16 0.18 0.19 0.20 0.19 0.18 0.19 0.21 0.21 0.20 0.20 0.19 0.19 0.18 0.17 0.18 0.21 0.23 0.26 0.27 0.28 0.29 0.34 0.34
0.46 0.50 0.42 0.40 0.31 0.29 0.26 0.30 0.25 0.27 0.23 0.22 0.22 0.22 0.18 0.17 0.17 0.18 0.21 0.18 0.16 0.14 0.15 0.13 0.13 0.13 0.13 0.13 0.13 0.16 0.17 0.19 0.20 0.20 0.20 0.20 0.19 0.17 0.18 0.18 0.18 0.17 0.18 0.18 0.19 0.21 0.23 0.24 0.26 0.26 0.27 0.29 0.33 0.34
0.43 0.41 0.36 0.33 0.25 0.23 0.22 0.30 0.21 0.22 0.18 0.18 0.20 0.17 0.17 0.17 0.18 0.21 0.15 0.15 0.14 0.14 0.14 0.13 0.13 0.14 0.14 0.15 0.17 0.18 0.18 0.17 0.16 0.16 0.16 0.17 0.17 0.18 0.18 0.19 0.20 0.20 0.19 0.19 0.23 0.25 0.25 0.25 0.23 0.25 0.28 0.29 0.28 0.28
0.43 0.33 0.27 0.25 0.24 0.21 0.25 0.21 0.24 0.21 0.20 0.17 0.16 0.14 0.14 0.15 0.18 0.15 0.11 0.10 0.10 0.13 0.12 0.12 0.14 0.14 0.15 0.15 0.14 0.14 0.15 0.16 0.17 0.17 0.17 0.16 0.17 0.17 0.18 0.19 0.20 0.20 0.20 0.21 0.22 0.22 0.21 0.20 0.21 0.22 0.24 0.26 0.28 0.27
0.28 0.27 0.27 0.22 0.25 0.20 0.18 0.18 0.17 0.17 0.14 0.16 0.14 0.14 0.14 0.17 0.13 0.11 0.09 0.09 0.10 0.10 0.11 0.12 0.14 0.14 0.14 0.14 0.15 0.15 0.15 0.16 0.17 0.17 0.16 0.18 0.18 0.18 0.18 0.19 0.19 0.19 0.21 0.19 0.18 0.19 0.18 0.20 0.20 0.20 0.20 0.23 0.25 0.25
0.21 0.26 0.22 0.19 0.19 0.17 0.16 0.14 0.14 0.15 0.15 0.15 0.16 0.17 0.16 0.15 0.12 0.10 0.10 0.10 0.10 0.10 0.12 0.13 0.13 0.14 0.14 0.15 0.15 0.15 0.16 0.17 0.20 0.18 0.16 0.17 0.19 0.19 0.18 0.17 0.17 0.16 0.19 0.21 0.21 0.20 0.20 0.20 0.19 0.19 0.20 0.22 0.25 0.25
0.21 0.22 0.25 0.26 0.22 0.19 0.17 0.17 0.18 0.16 0.14 0.14 0.16 0.16 0.15 0.12 0.11 0.11 0.12 0.12 0.11 0.13 0.13 0.15 0.16 0.15 0.15 0.15 0.16 0.18 0.19 0.21 0.21 0.20 0.22 0.22 0.23 0.23 0.23 0.21 0.20 0.20 0.23 0.22 0.23 0.23 0.21 0.20 0.19 0.20 0.21 0.21 0.24 0.25
0.26 0.26 0.19 0.21 0.21 0.21 0.18 0.17 0.16 0.16 0.16 0.18 0.18 0.15 0.14 0.13 0.10 0.11 0.12 0.13 0.14 0.15 0.15 0.16 0.16 0.16 0.17 0.18 0.20 0.22 0.23 0.25 0.26 0.27 0.28 0.27 0.28 0.29 0.31 0.31 0.31 0.30 0.29 0.27 0.27 0.26 0.24 0.23 0.22 0.21 0.21 0.21 0.23 0.26
0.24 0.27 0.26 0.22 0.23 0.23 0.21 0.19 0.18 0.20 0.20 0.20 0.18 0.16 0.14 0.14 0.13 0.14 0.14 0.14 0.15 0.15 0.14 0.13 0.14 0.18 0.20 0.21 0.23 0.24 0.25 0.26 0.25 0.23 0.22 0.22 0.23 0.26 0.32 0.32 0.31 0.32 0.32 0.31 0.30 0.29 0.27 0.26 0.25 0.24 0.23 0.23 0.25 0.26
0.23 0.26 0.22 0.20 0.19 0.19 0.21 0.24 0.22 0.24 0.23 0.22 0.20 0.18 0.16 0.15 0.14 0.15 0.15 0.14 0.13 0.12 0.14 0.17 0.18 0.19 0.19 0.20 0.20 0.21 0.25 0.28 0.28 0.27 0.25 0.24 0.25 0.30 0.32 0.32 0.32 0.33 0.34 0.33 0.32 0.31 0.29 0.27 0.26 0.25 0.24 0.23 0.24 0.23
0.24 0.24 0.22 0.23 0.22 0.23 0.23 0.25 0.25 0.24 0.21 0.18 0.17 0.16 0.12 0.13 0.13 0.13 0.14 0.14 0.16 0.17 0.16 0.16 0.17 0.19 0.20 0.21 0.22 0.21 0.20 0.26 0.30 0.31 0.33 0.34 0.33 0.33 0.34 0.34 0.34 0.34 0.34 0.34 0.34 0.32 0.29 0.25 0.25 0.24 0.22 0.22 0.22 0.22
0.22 0.21 0.20 0.18 0.18 0.19 0.20 0.18 0.17 0.16 0.14 0.12 0.10 0.11 0.12 0.13 0.12 0.12 0.13 0.14 0.14 0.14 0.15 0.17 0.18 0.19 0.22 0.25 0.26 0.28 0.29 0.30 0.31 0.33 0.34 0.35 0.35 0.35 0.36 0.35 0.35 0.35 0.34 0.33 0.33 0.31 0.28 0.26 0.24 0.23 0.22 0.21 0.21 0.22
0.19 0.19 0.19 0.18 0.15 0.14 0.14 0.14 0.13 0.11 0.09 0.09 0.09 0.11 0.12 0.13 0.10 0.11 0.14 0.16 0.16 0.16 0.17 0.20 0.22 0.24 0.25 0.26 0.28 0.30 0.33 0.34 0.34 0.34 0.36 0.37 0.36 0.34 0.32 0.34 0.34 0.33 0.32 0.32 0.31 0.29 0.27 0.25 0.24 0.22 0.22 0.22 0.23 0.24

GFSWCAN_prec_pwat_126.txt.gz
Precipitable_Water
0.99 0.79 0.71 0.71 0.74 0.76 0.74 0.72 0.72 0.69 0.68 0.70 0.69 0.69 0.69 0.71 0.70 0.63 0.58 0.66 0.54 0.46 0.49 0.53 0.51 0.44 0.43 0.41 0.33 0.35 0.29 0.28 0.27 0.19 0.14 0.14 0.13 0.14 0.14 0.16 0.17 0.16 0.15 0.16 0.19 0.16 0.13 0.26 0.26 0.20 0.26 0.32 0.34 0.34
1.10 0.99 0.83 0.71 0.73 0.78 0.80 0.77 0.75 0.71 0.70 0.70 0.71 0.69 0.69 0.71 0.71 0.67 0.56 0.69 0.68 0.53 0.49 0.59 0.61 0.62 0.57 0.52 0.44 0.42 0.34 0.36 0.37 0.31 0.26 0.25 0.24 0.25 0.24 0.20 0.28 0.21 0.24 0.22 0.23 0.22 0.28 0.31 0.30 0.34 0.37 0.35 0.35 0.32
1.08 1.06 0.96 0.82 0.77 0.81 0.81 0.79 0.79 0.76 0.72 0.73 0.72 0.71 0.70 0.70 0.70 0.68 0.62 0.65 0.62 0.53 0.51 0.52 0.50 0.61 0.66 0.64 0.64 0.43 0.45 0.47 0.45 0.46 0.38 0.35 0.29 0.32 0.26 0.27 0.28 0.31 0.34 0.29 0.27 0.30 0.32 0.34 0.36 0.40 0.40 0.38 0.36 0.37
1.07 1.06 1.04 0.94 0.84 0.85 0.83 0.81 0.81 0.81 0.76 0.76 0.75 0.74 0.72 0.71 0.71 0.70 0.61 0.66 0.62 0.54 0.43 0.45 0.61 0.55 0.63 0.63 0.60 0.59 0.52 0.54 0.52 0.49 0.43 0.38 0.32 0.37 0.31 0.31 0.29 0.31 0.33 0.31 0.30 0.32 0.35 0.37 0.41 0.40 0.37 0.37 0.37 0.36
1.08 1.06 1.04 1.03 0.92 0.90 0.92 0.86 0.84 0.84 0.79 0.79 0.78 0.78 0.76 0.75 0.71 0.69 0.66 0.66 0.69 0.53 0.41 0.44 0.54 0.57 0.60 0.59 0.57 0.57 0.54 0.51 0.48 0.44 0.42 0.38 0.40 0.37 0.38 0.36 0.32 0.34 0.32 0.29 0.28 0.35 0.37 0.38 0.37 0.37 0.35 0.34 0.33 0.33
1.06 1.05 1.03 1.01 1.01 0.90 0.93 0.93 0.87 0.86 0.82 0.82 0.78 0.77 0.78 0.77 0.75 0.67 0.53 0.64 0.69 0.66 0.46 0.38 0.52 0.51 0.55 0.55 0.53 0.53 0.55 0.53 0.50 0.45 0.43 0.44 0.47 0.40 0.33 0.32 0.39 0.41 0.41 0.40 0.38 0.44 0.42 0.37 0.36 0.36 0.35 0.34 0.34 0.34
0.99 1.04 1.03 1.00 1.01 0.97 0.90 0.98 0.91 0.89 0.88 0.83 0.76 0.78 0.80 0.78 0.74 0.60 0.54 0.65 0.76 0.68 0.48 0.39 0.40 0.50 0.54 0.53 0.52 0.51 0.53 0.51 0.50 0.46 0.43 0.43 0.43 0.43 0.37 0.31 0.39 0.42 0.44 0.45 0.46 0.41 0.35 0.36 0.34 0.36 0.35 0.34 0.34 0.34
0.92 1.01 1.02 0.99 0.99 0.98 0.92 1.01 0.93 0.96 0.92 0.84 0.79 0.83 0.82 0.78 0.78 0.68 0.71 0.74 0.73 0.58 0.52 0.38 0.37 0.41 0.53 0.45 0.43 0.52 0.46 0.47 0.47 0.46 0.46 0.43 0.45 0.44 0.34 0.40 0.43 0.45 0.43 0.41 0.39 0.39 0.37 0.38 0.37 0.35 0.35 0.35 0.32 0.31
0.88 0.93 0.99 0.97 0.98 0.97 0.95 0.99 0.98 0.96 0.92 0.84 0.84 0.86 0.79 0.71 0.63 0.65 0.73 0.71 0.68 0.55 0.42 0.41 0.34 0.33 0.51 0.47 0.49 0.48 0.48 0.38 0.46 0.39 0.40 0.42 0.38 0.32 0.37 0.40 0.42 0.43 0.37 0.37 0.39 0.39 0.37 0.35 0.34 0.34 0.34 0.34 0.32 0.31
0.86 0.94 0.97 0.98 0.97 0.95 0.94 0.98 1.01 0.93 0.91 0.87 0.84 0.70 0.57 0.65 0.77 0.72 0.60 0.51 0.51 0.51 0.48 0.38 0.45 0.37 0.45 0.45 0.43 0.43 0.44 0.39 0.33 0.38 0.44 0.36 0.34 0.41 0.44 0.46 0.44 0.41 0.41 0.41 0.36 0.33 0.34 0.34 0.34 0.33 0.33 0.35 0.34 0.33
0.83 0.92 0.94 0.95 0.95 0.94 0.92 0.97 0.98 0.92 0.88 0.78 0.68 0.63 0.72 0.78 0.65 0.57 0.48 0.44 0.44 0.38 0.44 0.43 0.43 0.40 0.49 0.39 0.40 0.45 0.40 0.40 0.31 0.35 0.35 0.32 0.31 0.39 0.45 0.45 0.45 0.42 0.40 0.38 0.38 0.37 0.37 0.35 0.32 0.32 0.31 0.31 0.32 0.31
0.83 0.90 0.93 0.94 0.93 0.93 0.92 0.96 0.92 0.86 0.78 0.73 0.71 0.75 0.72 0.63 0.56 0.46 0.41 0.42 0.38 0.33 0.42 0.41 0.44 0.46 0.47 0.49 0.41 0.43 0.37 0.38 0.29 0.42 0.34 0.29 0.36 0.42 0.42 0.40 0.41 0.40 0.39 0.38 0.38 0.35 0.33 0.32 0.32 0.32 0.31 0.31 0.31 0.30
0.83 0.91 0.91 0.91 0.90 0.92 0.91 0.92 0.87 0.86 0.82 0.74 0.64 0.56 0.54 0.51 0.40 0.36 0.31 0.33 0.36 0.42 0.45 0.44 0.41 0.46 0.47 0.47 0.41 0.40 0.34 0.33 0.41 0.32 0.29 0.32 0.38 0.38 0.39 0.39 0.39 0.38 0.36 0.34 0.33 0.34 0.32 0.30 0.30 0.30 0.29 0.30 0.29 0.28
0.86 0.90 0.89 0.88 0.88 0.91 0.89 0.89 0.84 0.81 0.72 0.55 0.49 0.40 0.42 0.38 0.40 0.39 0.37 0.37 0.43 0.45 0.45 0.45 0.42 0.41 0.44 0.40 0.41 0.34 0.38 0.38 0.30 0.26 0.26 0.33 0.36 0.37 0.37 0.35 0.33 0.31 0.32 0.32 0.31 0.30 0.28 0.28 0.28 0.28 0.27 0.26 0.25 0.22
0.88 0.89 0.87 0.87 0.88 0.88 0.87 0.84 0.81 0.76 0.62 0.50 0.48 0.37 0.39 0.43 0.44 0.43 0.45 0.45 0.46 0.48 0.46 0.43 0.43 0.44 0.41 0.38 0.39 0.36 0.31 0.27 0.28 0.26 0.31 0.35 0.36 0.35 0.34 0.33 0.31 0.30 0.29 0.29 0.29 0.28 0.27 0.26 0.25 0.23 0.21 0.20 0.19 0.18
0.86 0.84 0.80 0.85 0.86 0.84 0.80 0.76 0.73 0.67 0.57 0.49 0.46 0.40 0.43 0.40 0.40 0.42 0.42 0.42 0.47 0.47 0.48 0.46 0.40 0.37 0.36 0.37 0.33 0.31 0.29 0.25 0.28 0.32 0.35 0.35 0.34 0.33 0.32 0.32 0.30 0.29 0.29 0.29 0.28 0.27 0.25 0.23 0.19 0.18 0.18 0.17 0.17 0.18
0.76 0.66 0.78 0.81 0.78 0.76 0.74 0.66 0.60 0.51 0.46 0.42 0.40 0.47 0.45 0.43 0.41 0.42 0.43 0.43 0.50 0.45 0.38 0.40 0.33 0.32 0.37 0.32 0.30 0.33 0.29 0.31 0.34 0.34 0.36 0.35 0.32 0.30 0.28 0.28 0.27 0.27 0.26 0.25 0.23 0.22 0.20 0.19 0.19 0.17 0.14 0.15 0.18 0.19
0.63 0.69 0.71 0.71 0.70 0.66 0.60 0.57 0.49 0.43 0.37 0.40 0.38 0.41 0.45 0.44 0.41 0.40 0.43 0.47 0.46 0.43 0.42 0.36 0.37 0.31 0.27 0.24 0.24 0.27 0.29 0.31 0.29 0.27 0.26 0.25 0.25 0.25 0.24 0.21 0.20 0.20 0.19 0.20 0.19 0.19 0.19 0.18 0.16 0.15 0.17 0.18 0.21 0.21
0.60 0.62 0.65 0.64 0.61 0.54 0.46 0.45 0.46 0.34 0.36 0.39 0.41 0.43 0.43 0.39 0.39 0.38 0.41 0.42 0.42 0.41 0.36 0.31 0.25 0.22 0.21 0.23 0.20 0.20 0.20 0.19 0.17 0.17 0.17 0.19 0.19 0.19 0.19 0.19 0.19 0.19 0.19 0.18 0.18 0.17 0.18 0.19 0.19 0.18 0.20 0.22 0.23 0.23
0.59 0.59 0.58 0.56 0.55 0.45 0.39 0.39 0.46 0.36 0.32 0.35 0.35 0.33 0.34 0.33 0.35 0.34 0.32 0.30 0.28 0.25 0.20 0.17 0.15 0.15 0.14 0.14 0.15 0.15 0.15 0.16 0.16 0.15 0.15 0.17 0.17 0.17 0.16 0.17 0.17 0.17 0.18 0.18 0.19 0.19 0.18 0.18 0.19 0.19 0.23 0.23 0.23 0.22
0.54 0.54 0.52 0.51 0.45 0.41 0.37 0.36 0.33 0.34 0.33 0.30 0.32 0.30 0.26 0.28 0.26 0.24 0.23 0.26 0.21 0.17 0.14 0.15 0.14 0.13 0.14 0.14 0.14 0.15 0.15 0.16 0.15 0.15 0.14 0.14 0.15 0.17 0.17 0.18 0.18 0.18 0.17 0.17 0.17 0.17 0.18 0.17 0.18 0.21 0.24 0.23 0.23 0.22
0.49 0.50 0.44 0.44 0.35 0.33 0.31 0.34 0.29 0.31 0.27 0.27 0.27 0.26 0.22 0.20 0.19 0.20 0.24 0.20 0.18 0.15 0.15 0.13 0.12 0.12 0.11 0.12 0.12 0.14 0.14 0.15 0.16 0.16 0.16 0.16 0.14 0.15 0.15 0.16 0.17 0.16 0.17 0.17 0.17 0.17 0.17 0.17 0.18 0.19 0.21 0.22 0.23 0.22
0.46 0.41 0.34 0.32 0.25 0.24 0.25 0.32 0.24 0.25 0.20 0.20 0.22 0.19 0.18 0.18 0.20 0.23 0.17 0.17 0.15 0.15 0.14 0.13 0.12 0.13 0.13 0.14 0.15 0.15 0.15 0.14 0.14 0.15 0.15 0.15 0.16 0.17 0.16 0.16 0.17 0.17 0.16 0.16 0.18 0.18 0.18 0.18 0.19 0.19 0.21 0.21 0.21 0.20
0.42 0.32 0.26 0.24 0.24 0.21 0.27 0.23 0.24 0.22 0.21 0.19 0.17 0.15 0.16 0.17 0.20 0.16 0.13 0.13 0.13 0.14 0.13 0.12 0.13 0.12 0.13 0.13 0.12 0.12 0.12 0.15 0.15 0.15 0.15 0.16 0.15 0.15 0.16 0.16 0.16 0.16 0.17 0.19 0.20 0.19 0.20 0.19 0.20 0.21 0.21 0.20 0.19 0.19
0.24 0.24 0.25 0.21 0.24 0.20 0.19 0.19 0.19 0.18 0.15 0.16 0.15 0.14 0.15 0.18 0.14 0.13 0.11 0.11 0.11 0.11 0.11 0.12 0.12 0.12 0.11 0.11 0.11 0.12 0.13 0.14 0.15 0.15 0.14 0.15 0.17 0.18 0.18 0.18 0.19 0.18 0.21 0.22 0.20 0.21 0.21 0.23 0.23 0.22 0.21 0.21 0.20 0.20
0.20 0.24 0.21 0.19 0.19 0.18 0.17 0.15 0.16 0.16 0.16 0.16 0.16 0.17 0.17 0.16 0.13 0.11 0.11 0.12 0.12 0.12 0.12 0.12 0.11 0.11 0.11 0.12 0.11 0.11 0.12 0.15 0.17 0.16 0.16 0.19 0.20 0.22 0.21 0.20 0.20 0.19 0.28 0.29 0.28 0.26 0.25 0.25 0.25 0.23 0.22 0.22 0.22 0.23
0.20 0.19 0.22 0.25 0.21 0.19 0.17 0.18 0.19 0.16 0.14 0.14 0.15 0.15 0.16 0.13 0.12 0.12 0.14 0.15 0.14 0.14 0.14 0.14 0.14 0.13 0.12 0.11 0.12 0.14 0.15 0.17 0.19 0.19 0.20 0.21 0.24 0.26 0.27 0.24 0.23 0.25 0.29 0.30 0.31 0.30 0.29 0.29 0.28 0.26 0.24 0.23 0.23 0.23
0.26 0.24 0.18 0.20 0.20 0.20 0.17 0.17 0.17 0.16 0.17 0.19 0.17 0.15 0.14 0.14 0.12 0.15 0.16 0.17 0.16 0.15 0.14 0.14 0.14 0.13 0.13 0.13 0.15 0.16 0.17 0.20 0.22 0.24 0.23 0.23 0.26 0.28 0.29 0.29 0.31 0.32 0.32 0.33 0.33 0.33 0.32 0.31 0.30 0.30 0.27 0.24 0.23 0.25
0.24 0.26 0.25 0.21 0.22 0.22 0.20 0.19 0.18 0.19 0.21 0.19 0.17 0.15 0.15 0.18 0.19 0.18 0.17 0.16 0.16 0.15 0.13 0.11 0.11 0.14 0.15 0.16 0.18 0.19 0.20 0.21 0.20 0.18 0.18 0.17 0.19 0.22 0.29 0.30 0.31 0.33 0.34 0.34 0.35 0.35 0.34 0.34 0.33 0.33 0.32 0.28 0.26 0.27
0.21 0.26 0.22 0.22 0.21 0.20 0.21 0.23 0.20 0.23 0.24 0.23 0.22 0.20 0.20 0.20 0.19 0.20 0.17 0.15 0.14 0.12 0.12 0.15 0.16 0.17 0.16 0.17 0.16 0.17 0.20 0.23 0.24 0.23 0.21 0.21 0.22 0.27 0.29 0.31 0.33 0.35 0.35 0.34 0.33 0.33 0.34 0.34 0.34 0.33 0.33 0.31 0.26 0.24
0.21 0.22 0.20 0.21 0.20 0.20 0.22 0.26 0.25 0.24 0.24 0.22 0.23 0.20 0.17 0.17 0.15 0.14 0.13 0.12 0.13 0.14 0.15 0.14 0.15 0.17 0.17 0.17 0.18 0.18 0.18 0.22 0.25 0.27 0.29 0.30 0.31 0.30 0.31 0.33 0.35 0.37 0.36 0.34 0.32 0.32 0.31 0.31 0.30 0.30 0.30 0.28 0.25 0.24
0.20 0.18 0.16 0.15 0.16 0.20 0.23 0.22 0.20 0.18 0.17 0.16 0.14 0.15 0.13 0.13 0.10 0.10 0.10 0.13 0.13 0.14 0.14 0.16 0.15 0.16 0.19 0.21 0.22 0.24 0.25 0.26 0.27 0.28 0.30 0.32 0.34 0.34 0.33 0.34 0.36 0.35 0.33 0.32 0.32 0.32 0.31 0.31 0.30 0.30 0.28 0.25 0.24 0.23
0.20 0.21 0.20 0.19 0.17 0.16 0.17 0.17 0.15 0.13 0.12 0.11 0.10 0.10 0.10 0.11 0.09 0.10 0.13 0.15 0.15 0.15 0.15 0.17 0.19 0.21 0.22 0.23 0.24 0.26 0.27 0.29 0.30 0.31 0.33 0.37 0.37 0.35 0.35 0.34 0.34 0.33 0.31 0.30 0.30 0.31 0.30 0.30 0.29 0.27 0.26 0.24 0.23 0.23

GFSWCAN_prec_pwat_132.txt.gz
Precipitable_Water
1.14 1.13 1.11 1.07 0.91 0.77 0.74 0.72 0.74 0.73 0.67 0.67 0.66 0.64 0.63 0.63 0.62 0.57 0.56 0.64 0.52 0.45 0.47 0.48 0.47 0.44 0.44 0.42 0.37 0.44 0.38 0.35 0.26 0.20 0.19 0.17 0.14 0.15 0.13 0.17 0.15 0.14 0.14 0.14 0.16 0.14 0.10 0.25 0.22 0.16 0.20 0.24 0.26 0.29
1.11 1.13 1.12 1.09 1.08 0.96 0.81 0.78 0.75 0.77 0.73 0.70 0.70 0.70 0.66 0.64 0.62 0.59 0.50 0.64 0.62 0.51 0.50 0.57 0.59 0.58 0.55 0.53 0.46 0.45 0.42 0.37 0.40 0.35 0.31 0.28 0.20 0.21 0.20 0.16 0.25 0.18 0.23 0.21 0.21 0.20 0.30 0.30 0.29 0.32 0.33 0.31 0.32 0.33
1.03 1.07 1.11 1.10 1.07 1.07 1.01 0.86 0.79 0.79 0.80 0.76 0.74 0.73 0.72 0.67 0.64 0.58 0.54 0.59 0.58 0.49 0.51 0.51 0.52 0.60 0.63 0.60 0.61 0.46 0.47 0.48 0.42 0.45 0.40 0.37 0.31 0.35 0.28 0.29 0.30 0.32 0.36 0.32 0.30 0.33 0.34 0.35 0.37 0.38 0.36 0.35 0.36 0.37
0.95 1.00 1.04 1.10 1.09 1.07 1.07 1.02 0.91 0.84 0.85 0.83 0.81 0.77 0.74 0.74 0.68 0.61 0.53 0.58 0.56 0.50 0.40 0.47 0.61 0.56 0.64 0.61 0.58 0.58 0.55 0.54 0.51 0.47 0.40 0.37 0.33 0.38 0.32 0.34 0.33 0.34 0.34 0.31 0.31 0.33 0.35 0.37 0.38 0.39 0.37 0.38 0.38 0.39
0.87 0.93 0.98 1.02 1.08 1.08 1.07 1.06 1.01 0.90 0.88 0.87 0.85 0.84 0.79 0.76 0.73 0.67 0.60 0.59 0.61 0.48 0.42 0.46 0.56 0.58 0.60 0.59 0.56 0.55 0.53 0.50 0.47 0.42 0.40 0.37 0.41 0.37 0.37 0.36 0.33 0.37 0.33 0.29 0.27 0.34 0.33 0.35 0.40 0.40 0.38 0.38 0.39 0.38
0.70 0.82 0.90 0.95 1.00 1.06 1.07 1.06 1.04 1.01 0.97 0.96 0.91 0.89 0.87 0.80 0.76 0.64 0.50 0.59 0.62 0.61 0.45 0.39 0.55 0.53 0.56 0.56 0.54 0.53 0.53 0.51 0.48 0.43 0.41 0.43 0.47 0.40 0.34 0.32 0.38 0.41 0.40 0.39 0.36 0.41 0.41 0.42 0.43 0.42 0.41 0.40 0.40 0.37
0.59 0.67 0.77 0.86 0.92 0.99 1.05 1.06 1.05 1.02 0.99 1.01 0.97 0.94 0.90 0.84 0.75 0.62 0.52 0.58 0.68 0.69 0.49 0.43 0.45 0.54 0.57 0.55 0.53 0.52 0.54 0.51 0.49 0.46 0.42 0.43 0.43 0.42 0.37 0.32 0.40 0.42 0.43 0.44 0.44 0.42 0.39 0.40 0.39 0.42 0.41 0.39 0.37 0.35
0.48 0.56 0.63 0.73 0.83 0.91 0.99 1.04 1.04 1.02 1.01 1.04 1.00 0.97 0.95 0.88 0.81 0.68 0.73 0.74 0.71 0.57 0.54 0.40 0.41 0.46 0.58 0.50 0.47 0.55 0.50 0.51 0.49 0.47 0.48 0.43 0.46 0.44 0.35 0.39 0.42 0.44 0.45 0.45 0.43 0.43 0.41 0.42 0.41 0.39 0.39 0.36 0.33 0.31
0.40 0.44 0.50 0.60 0.71 0.80 0.90 1.00 1.03 1.01 1.00 1.02 1.01 0.97 0.90 0.81 0.69 0.68 0.77 0.75 0.74 0.61 0.46 0.44 0.37 0.37 0.55 0.51 0.53 0.51 0.52 0.41 0.50 0.42 0.42 0.45 0.39 0.33 0.37 0.40 0.41 0.43 0.41 0.41 0.43 0.42 0.42 0.40 0.39 0.37 0.35 0.33 0.31 0.31
0.40 0.38 0.39 0.42 0.55 0.67 0.78 0.95 1.00 1.00 0.98 0.97 0.90 0.74 0.63 0.73 0.85 0.78 0.67 0.58 0.57 0.57 0.55 0.45 0.49 0.40 0.48 0.47 0.46 0.46 0.47 0.41 0.35 0.40 0.46 0.39 0.36 0.43 0.45 0.46 0.47 0.47 0.45 0.44 0.40 0.38 0.39 0.38 0.36 0.34 0.33 0.33 0.33 0.33
0.40 0.39 0.37 0.39 0.41 0.53 0.66 0.87 0.95 0.97 0.93 0.80 0.67 0.63 0.74 0.83 0.72 0.64 0.54 0.49 0.50 0.45 0.50 0.48 0.46 0.40 0.51 0.41 0.42 0.47 0.43 0.42 0.33 0.38 0.37 0.35 0.34 0.40 0.46 0.46 0.48 0.49 0.47 0.45 0.44 0.42 0.40 0.37 0.35 0.34 0.34 0.34 0.35 0.34
0.40 0.39 0.38 0.38 0.39 0.42 0.54 0.73 0.93 0.86 0.80 0.76 0.73 0.76 0.74 0.64 0.56 0.49 0.45 0.46 0.42 0.37 0.44 0.42 0.45 0.48 0.49 0.54 0.47 0.47 0.41 0.41 0.32 0.44 0.35 0.30 0.37 0.44 0.45 0.46 0.44 0.45 0.45 0.44 0.44 0.41 0.40 0.39 0.37 0.36 0.35 0.34 0.33 0.32
0.38 0.39 0.38 0.38 0.39 0.41 0.49 0.63 0.87 0.87 0.81 0.74 0.63 0.56 0.55 0.51 0.41 0.37 0.32 0.34 0.35 0.41 0.44 0.44 0.41 0.46 0.48 0.51 0.47 0.45 0.39 0.36 0.44 0.35 0.31 0.35 0.41 0.41 0.44 0.45 0.43 0.44 0.42 0.39 0.38 0.37 0.36 0.35 0.35 0.33 0.31 0.30 0.30 0.29
0.39 0.38 0.38 0.38 0.39 0.40 0.47 0.59 0.80 0.80 0.69 0.54 0.46 0.38 0.42 0.38 0.38 0.36 0.35 0.36 0.41 0.42 0.41 0.43 0.41 0.42 0.46 0.44 0.46 0.39 0.43 0.41 0.33 0.30 0.30 0.38 0.41 0.41 0.43 0.43 0.40 0.37 0.37 0.36 0.36 0.36 0.35 0.33 0.31 0.31 0.30 0.30 0.29 0.27
0.40 0.40 0.40 0.39 0.39 0.40 0.44 0.58 0.72 0.75 0.60 0.46 0.46 0.35 0.36 0.43 0.43 0.43 0.44 0.42 0.44 0.45 0.42 0.41 0.42 0.44 0.43 0.43 0.43 0.41 0.36 0.31 0.32 0.30 0.36 0.41 0.41 0.40 0.39 0.39 0.37 0.37 0.37 0.35 0.34 0.32 0.31 0.30 0.30 0.29 0.29 0.28 0.26 0.24
0.39 0.40 0.37 0.39 0.39 0.41 0.45 0.62 0.69 0.67 0.57 0.49 0.45 0.41 0.41 0.38 0.38 0.40 0.40 0.39 0.45 0.43 0.45 0.44 0.40 0.39 0.38 0.40 0.36 0.34 0.32 0.29 0.32 0.37 0.40 0.41 0.39 0.38 0.37 0.36 0.35 0.35 0.34 0.33 0.32 0.31 0.29 0.27 0.26 0.25 0.24 0.22 0.19 0.19
0.42 0.34 0.38 0.41 0.42 0.43 0.50 0.61 0.56 0.50 0.47 0.42 0.40 0.45 0.43 0.42 0.39 0.41 0.42 0.41 0.47 0.42 0.36 0.41 0.37 0.35 0.42 0.35 0.33 0.36 0.33 0.36 0.38 0.40 0.41 0.41 0.38 0.37 0.36 0.34 0.32 0.31 0.29 0.27 0.26 0.24 0.22 0.21 0.20 0.18 0.15 0.15 0.16 0.17
0.41 0.50 0.51 0.49 0.46 0.49 0.53 0.55 0.49 0.45 0.38 0.41 0.38 0.40 0.44 0.45 0.44 0.43 0.44 0.46 0.44 0.43 0.43 0.39 0.43 0.36 0.33 0.30 0.31 0.36 0.39 0.41 0.40 0.36 0.34 0.33 0.31 0.28 0.24 0.21 0.20 0.19 0.18 0.17 0.17 0.17 0.17 0.16 0.15 0.14 0.14 0.15 0.16 0.16
0.56 0.65 0.59 0.56 0.50 0.45 0.43 0.44 0.46 0.35 0.37 0.39 0.42 0.46 0.46 0.46 0.49 0.49 0.49 0.50 0.51 0.51 0.47 0.43 0.37 0.33 0.34 0.36 0.34 0.36 0.35 0.31 0.27 0.25 0.23 0.21 0.20 0.18 0.17 0.17 0.17 0.17 0.17 0.16 0.16 0.15 0.15 0.15 0.16 0.16 0.16 0.17 0.16 0.16
0.61 0.69 0.65 0.59 0.54 0.44 0.39 0.38 0.46 0.38 0.35 0.38 0.42 0.43 0.44 0.44 0.48 0.49 0.49 0.49 0.48 0.46 0.40 0.36 0.35 0.30 0.32 0.35 0.32 0.25 0.22 0.22 0.19 0.16 0.15 0.16 0.17 0.17 0.16 0.16 0.16 0.16 0.16 0.16 0.15 0.15 0.16 0.16 0.17 0.17 0.18 0.18 0.17 0.16
0.56 0.55 0.57 0.56 0.49 0.48 0.41 0.38 0.37 0.40 0.40 0.36 0.41 0.43 0.41 0.45 0.43 0.42 0.42 0.47 0.41 0.38 0.35 0.37 0.36 0.34 0.30 0.23 0.20 0.19 0.17 0.17 0.15 0.14 0.13 0.13 0.14 0.15 0.15 0.15 0.16 0.16 0.15 0.14 0.14 0.14 0.16 0.16 0.18 0.21 0.22 0.21 0.22 0.22
0.51 0.57 0.53 0.53 0.45 0.42 0.37 0.39 0.36 0.38 0.37 0.37 0.38 0.40 0.37 0.36 0.36 0.38 0.43 0.38 0.36 0.36 0.36 0.30 0.26 0.22 0.19 0.18 0.17 0.16 0.15 0.15 0.15 0.15 0.15 0.14 0.13 0.12 0.12 0.13 0.13 0.13 0.13 0.13 0.15 0.16 0.17 0.19 0.21 0.23 0.23 0.24 0.26 0.26
0.52 0.51 0.45 0.43 0.36 0.34 0.32 0.42 0.35 0.36 0.31 0.32 0.35 0.32 0.32 0.33 0.35 0.40 0.31 0.32 0.30 0.30 0.27 0.23 0.19 0.19 0.17 0.16 0.16 0.15 0.15 0.14 0.13 0.13 0.13 0.12 0.13 0.13 0.14 0.14 0.14 0.13 0.12 0.14 0.18 0.18 0.19 0.21 0.22 0.24 0.24 0.25 0.25 0.25
0.45 0.39 0.33 0.31 0.31 0.28 0.34 0.31 0.34 0.32 0.32 0.30 0.28 0.26 0.28 0.29 0.32 0.27 0.22 0.22 0.23 0.22 0.19 0.18 0.19 0.17 0.16 0.15 0.13 0.12 0.13 0.15 0.14 0.14 0.14 0.14 0.12 0.12 0.12 0.12 0.13 0.13 0.15 0.17 0.19 0.20 0.21 0.21 0.23 0.24 0.25 0.25 0.25 0.25
0.27 0.29 0.29 0.25 0.30 0.27 0.26 0.26 0.27 0.27 0.24 0.26 0.24 0.23 0.24 0.26 0.21 0.19 0.17 0.16 0.17 0.16 0.16 0.17 0.17 0.15 0.13 0.12 0.13 0.12 0.15 0.15 0.14 0.13 0.13 0.13 0.13 0.13 0.13 0.13 0.13 0.14 0.18 0.19 0.19 0.20 0.21 0.23 0.24 0.25 0.26 0.26 0.26 0.26
0.21 0.26 0.25 0.25 0.25 0.24 0.23 0.21 0.21 0.23 0.23 0.22 0.22 0.22 0.22 0.19 0.16 0.14 0.15 0.15 0.15 0.16 0.16 0.15 0.14 0.14 0.14 0.14 0.13 0.13 0.14 0.17 0.16 0.14 0.12 0.14 0.14 0.14 0.14 0.13 0.13 0.13 0.19 0.21 0.22 0.22 0.23 0.25 0.26 0.26 0.26 0.27 0.28 0.29
0.18 0.20 0.24 0.27 0.24 0.22 0.21 0.22 0.23 0.20 0.19 0.17 0.18 0.18 0.17 0.14 0.13 0.15 0.17 0.18 0.16 0.17 0.17 0.17 0.17 0.16 0.15 0.16 0.17 0.17 0.17 0.16 0.15 0.15 0.15 0.15 0.16 0.18 0.18 0.17 0.15 0.16 0.20 0.22 0.24 0.26 0.26 0.27 0.27 0.27 0.28 0.29 0.30 0.31
0.23 0.22 0.18 0.21 0.20 0.21 0.18 0.18 0.17 0.16 0.17 0.19 0.18 0.15 0.14 0.13 0.13 0.16 0.17 0.19 0.19 0.20 0.20 0.21 0.21 0.21 0.20 0.18 0.18 0.17 0.14 0.14 0.15 0.17 0.18 0.17 0.17 0.19 0.20 0.21 0.22 0.22 0.24 0.25 0.27 0.30 0.31 0.31 0.30 0.30 0.30 0.30 0.30 0.32
0.21 0.24 0.22 0.19 0.19 0.18 0.17 0.16 0.15 0.17 0.20 0.18 0.15 0.15 0.15 0.17 0.19 0.19 0.20 0.20 0.21 0.20 0.19 0.19 0.18 0.21 0.19 0.18 0.16 0.14 0.14 0.14 0.14 0.12 0.12 0.12 0.13 0.16 0.21 0.22 0.23 0.24 0.27 0.28 0.29 0.32 0.33 0.34 0.34 0.34 0.33 0.33 0.32 0.32
0.22 0.26 0.21 0.20 0.18 0.16 0.19 0.21 0.19 0.20 0.21 0.20 0.20 0.19 0.18 0.17 0.19 0.21 0.21 0.21 0.20 0.19 0.19 0.19 0.16 0.15 0.13 0.12 0.11 0.11 0.15 0.17 0.18 0.17 0.15 0.15 0.17 0.20 0.22 0.23 0.24 0.26 0.28 0.29 0.29 0.31 0.34 0.35 0.34 0.32 0.31 0.31 0.30 0.30
0.24 0.22 0.19 0.19 0.17 0.20 0.22 0.24 0.24 0.23 0.21 0.19 0.20 0.17 0.16 0.17 0.18 0.19 0.18 0.17 0.16 0.15 0.14 0.12 0.12 0.13 0.13 0.12 0.13 0.13 0.12 0.17 0.20 0.22 0.23 0.23 0.23 0.24 0.25 0.26 0.28 0.30 0.31 0.32 0.32 0.32 0.33 0.32 0.30 0.28 0.28 0.28 0.28 0.29
0.21 0.19 0.18 0.16 0.17 0.21 0.22 0.21 0.21 0.19 0.19 0.17 0.16 0.18 0.18 0.18 0.15 0.15 0.15 0.13 0.11 0.11 0.12 0.14 0.13 0.13 0.15 0.16 0.17 0.19 0.20 0.21 0.22 0.24 0.25 0.26 0.26 0.27 0.28 0.30 0.32 0.34 0.34 0.34 0.33 0.33 0.31 0.30 0.28 0.28 0.27 0.26 0.27 0.28
0.19 0.20 0.20 0.20 0.19 0.18 0.19 0.18 0.16 0.15 0.15 0.15 0.14 0.15 0.16 0.15 0.11 0.11 0.12 0.14 0.13 0.13 0.13 0.14 0.15 0.16 0.17 0.18 0.19 0.20 0.22 0.24 0.25 0.27 0.28 0.29 0.29 0.30 0.32 0.34 0.36 0.34 0.33 0.31 0.30 0.30 0.29 0.28 0.28 0.28 0.27 0.26 0.26 0.26

GFSWCAN_prec_pwat_138.txt.gz
Precipitable_Water
1.02 1.08 1.13 1.12 1.10 1.09 1.06 0.87 0.76 0.72 0.71 0.71 0.68 0.71 0.67 0.63 0.58 0.48 0.45 0.51 0.41 0.35 0.40 0.46 0.47 0.42 0.43 0.42 0.36 0.44 0.40 0.39 0.30 0.19 0.19 0.17 0.14 0.15 0.13 0.17 0.15 0.12 0.10 0.10 0.12 0.10 0.07 0.21 0.21 0.14 0.16 0.22 0.23 0.23
0.95 1.01 1.07 1.11 1.10 1.08 1.07 1.03 0.84 0.75 0.77 0.81 0.77 0.73 0.72 0.66 0.62 0.54 0.41 0.54 0.53 0.39 0.40 0.50 0.52 0.56 0.55 0.53 0.47 0.46 0.41 0.41 0.39 0.33 0.32 0.28 0.21 0.19 0.17 0.13 0.24 0.14 0.15 0.14 0.15 0.14 0.23 0.27 0.24 0.26 0.27 0.26 0.27 0.28
0.88 0.94 0.98 1.02 1.08 1.09 1.07 1.07 1.03 0.91 0.82 0.83 0.82 0.79 0.78 0.75 0.67 0.58 0.48 0.51 0.49 0.40 0.38 0.40 0.43 0.58 0.61 0.59 0.62 0.44 0.46 0.47 0.46 0.48 0.39 0.36 0.31 0.35 0.29 0.29 0.29 0.32 0.35 0.29 0.28 0.30 0.32 0.35 0.37 0.35 0.35 0.34 0.35 0.36
0.75 0.85 0.90 0.96 1.01 1.06 1.09 1.06 1.04 1.03 0.99 0.92 0.88 0.84 0.79 0.80 0.73 0.65 0.53 0.55 0.49 0.43 0.29 0.34 0.51 0.47 0.59 0.62 0.60 0.60 0.54 0.54 0.50 0.48 0.40 0.37 0.33 0.39 0.34 0.34 0.32 0.34 0.36 0.33 0.33 0.36 0.38 0.38 0.39 0.40 0.39 0.38 0.37 0.38
0.63 0.74 0.83 0.89 0.94 0.99 1.03 1.07 1.05 1.04 1.03 1.02 1.00 0.92 0.88 0.83 0.78 0.71 0.64 0.60 0.60 0.44 0.34 0.42 0.54 0.54 0.58 0.57 0.55 0.58 0.55 0.50 0.46 0.39 0.36 0.33 0.39 0.38 0.38 0.36 0.31 0.35 0.32 0.29 0.28 0.34 0.35 0.36 0.39 0.41 0.38 0.37 0.39 0.39
0.56 0.62 0.71 0.81 0.87 0.92 0.98 1.01 1.05 1.03 1.03 1.03 1.01 1.01 0.98 0.92 0.87 0.72 0.52 0.62 0.65 0.62 0.42 0.31 0.47 0.44 0.46 0.48 0.50 0.53 0.55 0.54 0.49 0.42 0.40 0.42 0.46 0.39 0.31 0.29 0.33 0.36 0.37 0.37 0.33 0.38 0.39 0.41 0.43 0.44 0.42 0.42 0.42 0.42
0.53 0.55 0.61 0.66 0.76 0.85 0.91 0.95 1.00 1.04 1.04 1.03 1.01 1.01 1.01 0.97 0.89 0.69 0.58 0.63 0.71 0.66 0.47 0.40 0.37 0.46 0.48 0.47 0.48 0.51 0.56 0.54 0.51 0.47 0.43 0.43 0.42 0.42 0.36 0.29 0.35 0.39 0.41 0.41 0.42 0.42 0.39 0.42 0.41 0.44 0.44 0.44 0.44 0.42
0.45 0.50 0.55 0.59 0.62 0.72 0.82 0.89 0.94 0.98 1.03 1.02 1.00 1.01 1.03 0.99 0.91 0.77 0.82 0.81 0.77 0.61 0.55 0.41 0.38 0.41 0.54 0.45 0.41 0.52 0.48 0.51 0.51 0.50 0.51 0.45 0.47 0.44 0.36 0.38 0.42 0.42 0.44 0.44 0.45 0.46 0.44 0.45 0.45 0.44 0.44 0.43 0.40 0.39
0.34 0.41 0.48 0.53 0.56 0.59 0.70 0.78 0.88 0.92 0.97 1.01 1.00 0.99 0.92 0.84 0.74 0.78 0.85 0.83 0.81 0.66 0.48 0.47 0.39 0.35 0.52 0.48 0.50 0.49 0.52 0.43 0.53 0.45 0.47 0.49 0.44 0.39 0.42 0.44 0.45 0.46 0.45 0.46 0.47 0.47 0.46 0.44 0.43 0.43 0.42 0.40 0.38 0.35
0.30 0.33 0.40 0.45 0.51 0.55 0.60 0.69 0.80 0.87 0.92 0.98 0.89 0.75 0.62 0.74 0.88 0.83 0.74 0.64 0.62 0.62 0.59 0.47 0.50 0.41 0.48 0.46 0.45 0.45 0.47 0.41 0.36 0.41 0.49 0.43 0.39 0.45 0.48 0.49 0.51 0.51 0.50 0.50 0.45 0.43 0.44 0.43 0.43 0.42 0.40 0.38 0.36 0.35
0.29 0.31 0.32 0.40 0.43 0.50 0.53 0.59 0.69 0.80 0.86 0.80 0.67 0.62 0.74 0.85 0.73 0.66 0.55 0.51 0.51 0.45 0.50 0.51 0.50 0.45 0.55 0.44 0.43 0.48 0.41 0.42 0.33 0.38 0.38 0.36 0.35 0.40 0.48 0.49 0.51 0.52 0.52 0.50 0.49 0.47 0.46 0.43 0.40 0.38 0.37 0.36 0.36 0.36
0.29 0.31 0.31 0.36 0.40 0.43 0.49 0.51 0.60 0.69 0.74 0.74 0.73 0.76 0.73 0.63 0.57 0.50 0.45 0.47 0.42 0.38 0.44 0.43 0.46 0.49 0.50 0.55 0.45 0.46 0.39 0.39 0.31 0.44 0.37 0.30 0.36 0.44 0.46 0.46 0.48 0.50 0.49 0.47 0.46 0.43 0.41 0.39 0.37 0.36 0.36 0.35 0.36 0.37
0.30 0.31 0.31 0.35 0.40 0.40 0.44 0.48 0.50 0.60 0.74 0.72 0.63 0.56 0.54 0.50 0.41 0.37 0.31 0.34 0.35 0.39 0.41 0.43 0.40 0.45 0.48 0.50 0.43 0.41 0.35 0.33 0.42 0.33 0.30 0.33 0.39 0.43 0.44 0.45 0.45 0.46 0.45 0.43 0.41 0.39 0.38 0.37 0.37 0.36 0.35 0.36 0.36 0.35
0.33 0.31 0.32 0.38 0.41 0.38 0.41 0.44 0.48 0.50 0.54 0.50 0.46 0.39 0.41 0.37 0.38 0.35 0.34 0.35 0.40 0.40 0.41 0.41 0.40 0.39 0.43 0.39 0.39 0.32 0.36 0.37 0.29 0.26 0.26 0.33 0.37 0.41 0.43 0.43 0.42 0.40 0.38 0.37 0.36 0.35 0.35 0.34 0.34 0.35 0.34 0.33 0.32 0.29
0.33 0.35 0.41 0.42 0.41 0.38 0.41 0.44 0.46 0.50 0.45 0.35 0.44 0.35 0.38 0.43 0.40 0.40 0.42 0.42 0.43 0.44 0.42 0.39 0.39 0.38 0.37 0.35 0.37 0.35 0.31 0.27 0.27 0.25 0.30 0.35 0.39 0.40 0.41 0.40 0.37 0.36 0.35 0.34 0.34 0.34 0.33 0.33 0.32 0.31 0.30 0.28 0.25 0.23
0.34 0.42 0.42 0.43 0.42 0.41 0.43 0.45 0.45 0.45 0.39 0.36 0.34 0.36 0.40 0.37 0.36 0.39 0.40 0.40 0.45 0.44 0.44 0.41 0.35 0.32 0.31 0.33 0.30 0.29 0.27 0.24 0.26 0.31 0.36 0.39 0.38 0.39 0.39 0.37 0.35 0.33 0.32 0.33 0.33 0.32 0.31 0.28 0.24 0.22 0.21 0.19 0.18 0.17
0.37 0.40 0.45 0.43 0.43 0.43 0.44 0.41 0.39 0.33 0.29 0.27 0.22 0.32 0.37 0.36 0.36 0.39 0.41 0.41 0.47 0.42 0.35 0.36 0.29 0.27 0.33 0.28 0.26 0.31 0.27 0.30 0.33 0.35 0.38 0.39 0.37 0.37 0.35 0.34 0.33 0.33 0.32 0.29 0.26 0.22 0.19 0.19 0.19 0.17 0.15 0.14 0.15 0.15
0.38 0.45 0.45 0.43 0.43 0.41 0.40 0.39 0.33 0.29 0.23 0.21 0.17 0.18 0.28 0.35 0.36 0.39 0.42 0.46 0.43 0.40 0.39 0.35 0.38 0.30 0.25 0.22 0.24 0.29 0.35 0.37 0.38 0.37 0.37 0.37 0.36 0.36 0.35 0.33 0.31 0.27 0.23 0.19 0.18 0.17 0.16 0.15 0.14 0.13 0.14 0.14 0.15 0.15
0.46 0.46 0.45 0.44 0.44 0.38 0.32 0.33 0.33 0.23 0.19 0.20 0.20 0.21 0.23 0.26 0.34 0.41 0.44 0.47 0.48 0.47 0.43 0.39 0.34 0.28 0.25 0.29 0.31 0.35 0.38 0.38 0.37 0.37 0.36 0.36 0.35 0.33 0.31 0.29 0.21 0.17 0.16 0.16 0.15 0.15 0.14 0.15 0.15 0.15 0.15 0.15 0.14 0.15
0.45 0.46 0.45 0.48 0.46 0.34 0.28 0.30 0.36 0.25 0.18 0.20 0.23 0.20 0.20 0.21 0.26 0.35 0.41 0.43 0.44 0.43 0.39 0.36 0.33 0.32 0.32 0.35 0.40 0.40 0.42 0.43 0.39 0.34 0.32 0.33 0.33 0.30 0.23 0.17 0.16 0.15 0.15 0.15 0.15 0.15 0.15 0.14 0.14 0.14 0.15 0.15 0.15 0.15
0.43 0.44 0.47 0.47 0.41 0.36 0.30 0.28 0.27 0.25 0.23 0.22 0.26 0.25 0.24 0.26 0.24 0.24 0.30 0.41 0.38 0.37 0.35 0.40 0.39 0.41 0.44 0.44 0.45 0.46 0.44 0.42 0.35 0.31 0.29 0.27 0.26 0.20 0.16 0.16 0.16 0.16 0.15 0.14 0.13 0.13 0.14 0.14 0.14 0.15 0.15 0.14 0.16 0.18
0.42 0.46 0.41 0.42 0.34 0.31 0.28 0.31 0.27 0.29 0.25 0.24 0.25 0.26 0.23 0.21 0.23 0.26 0.32 0.31 0.33 0.35 0.42 0.39 0.41 0.43 0.42 0.42 0.43 0.45 0.44 0.39 0.29 0.24 0.22 0.19 0.15 0.15 0.15 0.14 0.14 0.14 0.14 0.14 0.14 0.14 0.14 0.15 0.15 0.15 0.15 0.16 0.18 0.19
0.45 0.43 0.38 0.36 0.29 0.27 0.26 0.34 0.25 0.26 0.22 0.23 0.25 0.23 0.23 0.23 0.25 0.30 0.26 0.29 0.33 0.43 0.42 0.40 0.41 0.41 0.43 0.44 0.44 0.41 0.36 0.28 0.24 0.19 0.16 0.16 0.17 0.16 0.15 0.15 0.15 0.14 0.14 0.13 0.15 0.15 0.15 0.16 0.16 0.17 0.17 0.18 0.18 0.18
0.45 0.35 0.30 0.28 0.27 0.24 0.29 0.26 0.28 0.27 0.27 0.24 0.23 0.21 0.22 0.22 0.27 0.25 0.23 0.24 0.29 0.36 0.38 0.43 0.44 0.44 0.46 0.44 0.35 0.26 0.22 0.21 0.18 0.17 0.18 0.16 0.15 0.15 0.15 0.15 0.16 0.16 0.15 0.15 0.15 0.15 0.16 0.16 0.17 0.17 0.17 0.17 0.18 0.19
0.28 0.27 0.28 0.24 0.28 0.25 0.23 0.23 0.24 0.25 0.22 0.23 0.20 0.19 0.21 0.24 0.19 0.21 0.24 0.29 0.34 0.39 0.44 0.47 0.47 0.42 0.34 0.33 0.28 0.25 0.23 0.20 0.17 0.15 0.16 0.17 0.16 0.16 0.16 0.16 0.16 0.15 0.15 0.15 0.15 0.15 0.15 0.16 0.17 0.18 0.18 0.18 0.19 0.19
0.22 0.26 0.24 0.24 0.25 0.24 0.24 0.22 0.23 0.23 0.23 0.22 0.21 0.22 0.23 0.22 0.21 0.19 0.22 0.27 0.33 0.39 0.43 0.44 0.42 0.35 0.29 0.24 0.19 0.18 0.18 0.20 0.19 0.17 0.16 0.18 0.17 0.16 0.15 0.14 0.12 0.12 0.15 0.17 0.16 0.16 0.16 0.18 0.18 0.18 0.18 0.19 0.20 0.22
0.21 0.22 0.27 0.31 0.29 0.27 0.25 0.26 0.27 0.25 0.23 0.22 0.23 0.23 0.23 0.20 0.19 0.25 0.33 0.38 0.38 0.37 0.33 0.29 0.26 0.23 0.21 0.20 0.20 0.20 0.20 0.20 0.19 0.19 0.20 0.20 0.20 0.19 0.16 0.13 0.12 0.14 0.18 0.18 0.19 0.19 0.18 0.19 0.19 0.20 0.20 0.21 0.23 0.24
0.25 0.25 0.22 0.25 0.26 0.27 0.24 0.24 0.23 0.22 0.24 0.26 0.25 0.21 0.19 0.18 0.19 0.24 0.24 0.25 0.25 0.24 0.24 0.24 0.23 0.22 0.21 0.21 0.22 0.22 0.22 0.22 0.22 0.22 0.21 0.20 0.19 0.17 0.16 0.17 0.18 0.19 0.20 0.21 0.20 0.21 0.21 0.22 0.22 0.22 0.23 0.24 0.26 0.30
0.22 0.25 0.24 0.20 0.22 0.22 0.22 0.21 0.21 0.23 0.25 0.23 0.20 0.19 0.20 0.23 0.24 0.24 0.24 0.25 0.25 0.23 0.21 0.21 0.21 0.23 0.22 0.22 0.22 0.22 0.22 0.20 0.17 0.13 0.12 0.11 0.10 0.11 0.16 0.17 0.19 0.20 0.20 0.20 0.22 0.23 0.24 0.25 0.26 0.26 0.28 0.29 0.29 0.30
0.20 0.25 0.20 0.19 0.17 0.17 0.20 0.22 0.21 0.22 0.24 0.23 0.23 0.22 0.22 0.23 0.25 0.27 0.25 0.24 0.22 0.20 0.19 0.19 0.19 0.18 0.16 0.16 0.15 0.15 0.16 0.16 0.15 0.13 0.11 0.10 0.12 0.16 0.18 0.18 0.19 0.20 0.21 0.21 0.21 0.23 0.25 0.26 0.26 0.27 0.27 0.27 0.27 0.27
0.22 0.21 0.18 0.18 0.18 0.21 0.22 0.24 0.23 0.22 0.21 0.20 0.20 0.18 0.18 0.19 0.20 0.20 0.19 0.19 0.19 0.19 0.17 0.14 0.13 0.14 0.13 0.12 0.12 0.11 0.11 0.15 0.16 0.17 0.18 0.18 0.19 0.19 0.20 0.21 0.21 0.22 0.23 0.23 0.24 0.24 0.24 0.24 0.24 0.26 0.26 0.25 0.26 0.26
0.17 0.17 0.17 0.15 0.17 0.20 0.20 0.19 0.19 0.19 0.19 0.18 0.16 0.17 0.16 0.15 0.13 0.15 0.17 0.17 0.16 0.14 0.13 0.13 0.12 0.12 0.14 0.14 0.15 0.16 0.17 0.17 0.18 0.19 0.20 0.20 0.21 0.21 0.22 0.22 0.23 0.24 0.24 0.24 0.24 0.24 0.24 0.25 0.27 0.28 0.26 0.26 0.27 0.27
0.16 0.16 0.16 0.16 0.17 0.18 0.19 0.18 0.16 0.15 0.15 0.14 0.14 0.15 0.14 0.14 0.11 0.14 0.17 0.16 0.14 0.12 0.12 0.13 0.14 0.15 0.15 0.16 0.17 0.19 0.20 0.21 0.22 0.23 0.24 0.24 0.24 0.24 0.25 0.25 0.25 0.24 0.24 0.24 0.24 0.25 0.26 0.28 0.28 0.28 0.27 0.27 0.26 0.26